GFSSE_prec_precacc_015.txt.gz
Total_Precipitation_Accumulation
0.00 0.00 0.02 0.02 0.05 0.03 0.02 0.01 0.00 0.00 0.00 0.00 0.00 0.00 0.02 0.04 0.02 0.01 0.00 0.00 0.00 0.00 0.00 0.00 0.02 0.03 0.10 0.14 0.11 0.02 0.00 0.00 0.00 0.00 0.00 0.00 0.00 0.00 0.00 0.01 0.00 0.00 0.00
0.00 0.00 0.01 0.01 0.03 0.02 0.02 0.01 0.00 0.00 0.00 0.00 0.00 0.01 0.03 0.03 0.02 0.02 0.00 0.00 0.00 0.00 0.00 0.00 0.00 0.00 0.01 0.01 0.00 0.00 0.00 0.00 0.00 0.00 0.00 0.00 0.00 0.00 0.00 0.01 0.00 0.00 0.02
0.00 0.00 0.00 0.01 0.03 0.02 0.01 0.00 0.00 0.00 0.00 0.00 0.00 0.03 0.02 0.00 0.01 0.00 0.00 0.00 0.00 0.00 0.00 0.00 0.00 0.00 0.00 0.00 0.00 0.00 0.00 0.00 0.00 0.00 0.00 0.00 0.00 0.00 0.00 0.00 0.01 0.00 0.00
0.00 0.00 0.00 0.01 0.02 0.01 0.01 0.00 0.00 0.00 0.00 0.00 0.00 0.01 0.00 0.01 0.01 0.00 0.00 0.00 0.00 0.00 0.00 0.00 0.00 0.00 0.00 0.00 0.00 0.00 0.00 0.00 0.00 0.00 0.00 0.00 0.00 0.00 0.00 0.00 0.01 0.00 0.00
0.00 0.00 0.00 0.01 0.01 0.01 0.00 0.00 0.00 0.00 0.00 0.00 0.00 0.00 0.01 0.02 0.02 0.02 0.00 0.00 0.00 0.00 0.00 0.00 0.00 0.00 0.00 0.00 0.00 0.00 0.00 0.00 0.00 0.00 0.00 0.00 0.00 0.00 0.00 0.01 0.02 0.03 0.01
0.00 0.00 0.00 0.00 0.01 0.01 0.00 0.00 0.00 0.00 0.00 0.00 0.00 0.00 0.00 0.03 0.04 0.06 0.03 0.00 0.00 0.00 0.00 0.00 0.00 0.00 0.00 0.00 0.00 0.00 0.00 0.00 0.00 0.00 0.00 0.00 0.00 0.00 0.00 0.00 0.00 0.00 0.00
0.00 0.00 0.00 0.00 0.01 0.00 0.00 0.00 0.00 0.00 0.00 0.00 0.00 0.00 0.00 0.02 0.04 0.07 0.04 0.01 0.00 0.00 0.00 0.00 0.00 0.00 0.00 0.00 0.00 0.00 0.00 0.01 0.00 0.00 0.00 0.00 0.00 0.00 0.00 0.00 0.00 0.00 0.01
0.00 0.00 0.00 0.00 0.00 0.00 0.00 0.00 0.00 0.00 0.01 0.00 0.00 0.00 0.00 0.00 0.00 0.04 0.05 0.01 0.00 0.00 0.00 0.00 0.00 0.00 0.00 0.00 0.00 0.00 0.00 0.00 0.00 0.00 0.00 0.00 0.00 0.00 0.00 0.00 0.00 0.00 0.00
0.00 0.00 0.00 0.00 0.00 0.00 0.00 0.00 0.00 0.01 0.02 0.00 0.00 0.00 0.00 0.00 0.00 0.01 0.02 0.00 0.00 0.00 0.00 0.00 0.00 0.00 0.00 0.00 0.00 0.00 0.00 0.00 0.00 0.00 0.00 0.00 0.00 0.00 0.00 0.01 0.02 0.02 0.01
0.00 0.00 0.00 0.00 0.00 0.00 0.00 0.00 0.00 0.01 0.02 0.00 0.00 0.00 0.00 0.00 0.00 0.00 0.00 0.00 0.00 0.00 0.00 0.00 0.00 0.01 0.01 0.01 0.01 0.01 0.00 0.00 0.00 0.00 0.00 0.00 0.00 0.01 0.03 0.06 0.06 0.07 0.09
0.00 0.00 0.00 0.00 0.00 0.00 0.00 0.00 0.00 0.00 0.01 0.00 0.00 0.00 0.00 0.00 0.00 0.00 0.00 0.00 0.00 0.00 0.00 0.00 0.01 0.02 0.01 0.00 0.00 0.00 0.00 0.00 0.00 0.00 0.00 0.00 0.00 0.02 0.03 0.04 0.04 0.08 0.08
0.00 0.00 0.00 0.00 0.00 0.00 0.00 0.00 0.00 0.00 0.00 0.00 0.00 0.00 0.00 0.00 0.00 0.00 0.00 0.00 0.00 0.00 0.00 0.00 0.01 0.01 0.00 0.00 0.00 0.00 0.00 0.00 0.00 0.00 0.00 0.00 0.00 0.00 0.01 0.03 0.05 0.04 0.04
0.00 0.00 0.00 0.00 0.00 0.00 0.00 0.00 0.00 0.00 0.00 0.00 0.00 0.00 0.00 0.00 0.00 0.00 0.00 0.00 0.00 0.00 0.00 0.00 0.00 0.00 0.00 0.00 0.00 0.00 0.00 0.00 0.00 0.00 0.00 0.00 0.00 0.00 0.01 0.02 0.03 0.02 0.02
0.00 0.00 0.00 0.00 0.00 0.00 0.00 0.00 0.00 0.00 0.00 0.00 0.00 0.00 0.00 0.00 0.00 0.00 0.00 0.00 0.00 0.00 0.00 0.00 0.00 0.00 0.00 0.00 0.00 0.00 0.00 0.00 0.00 0.00 0.00 0.00 0.00 0.00 0.00 0.01 0.02 0.01 0.01
0.00 0.00 0.00 0.00 0.00 0.00 0.00 0.00 0.00 0.00 0.00 0.00 0.00 0.00 0.00 0.00 0.00 0.00 0.00 0.00 0.00 0.00 0.00 0.00 0.00 0.00 0.00 0.00 0.00 0.00 0.00 0.00 0.00 0.00 0.00 0.00 0.00 0.00 0.00 0.00 0.01 0.01 0.02
0.00 0.00 0.00 0.00 0.00 0.00 0.00 0.00 0.00 0.00 0.00 0.00 0.00 0.00 0.00 0.00 0.00 0.00 0.00 0.00 0.00 0.00 0.00 0.00 0.00 0.00 0.00 0.00 0.00 0.00 0.00 0.00 0.00 0.00 0.00 0.00 0.00 0.00 0.00 0.00 0.01 0.02 0.03
0.00 0.00 0.00 0.00 0.00 0.00 0.00 0.00 0.00 0.01 0.02 0.00 0.00 0.00 0.00 0.00 0.00 0.00 0.00 0.00 0.00 0.00 0.00 0.00 0.00 0.00 0.00 0.00 0.00 0.00 0.00 0.00 0.00 0.00 0.00 0.00 0.00 0.00 0.00 0.01 0.02 0.03 0.04
0.00 0.00 0.00 0.00 0.00 0.00 0.00 0.01 0.08 0.11 0.03 0.02 0.00 0.00 0.00 0.00 0.00 0.00 0.00 0.00 0.00 0.00 0.00 0.00 0.00 0.00 0.00 0.00 0.00 0.00 0.00 0.00 0.00 0.00 0.00 0.00 0.00 0.00 0.00 0.00 0.00 0.01 0.01
0.00 0.00 0.00 0.00 0.00 0.00 0.00 0.04 0.07 0.05 0.02 0.01 0.00 0.00 0.00 0.00 0.00 0.00 0.00 0.00 0.00 0.00 0.00 0.00 0.00 0.00 0.00 0.00 0.00 0.00 0.00 0.00 0.00 0.00 0.00 0.00 0.00 0.00 0.00 0.00 0.00 0.00 0.00
0.00 0.00 0.00 0.00 0.00 0.00 0.01 0.02 0.03 0.02 0.01 0.01 0.00 0.00 0.00 0.00 0.00 0.00 0.00 0.00 0.00 0.00 0.00 0.00 0.00 0.00 0.00 0.00 0.00 0.00 0.00 0.00 0.00 0.00 0.00 0.00 0.00 0.00 0.00 0.00 0.00 0.00 0.00
0.00 0.00 0.00 0.00 0.00 0.01 0.02 0.00 0.01 0.01 0.00 0.00 0.00 0.00 0.00 0.00 0.00 0.00 0.00 0.00 0.00 0.00 0.00 0.00 0.00 0.00 0.00 0.00 0.00 0.00 0.00 0.00 0.00 0.00 0.00 0.00 0.00 0.00 0.00 0.00 0.00 0.00 0.00
0.00 0.00 0.00 0.00 0.00 0.02 0.01 0.00 0.00 0.00 0.00 0.00 0.00 0.00 0.00 0.00 0.00 0.00 0.00 0.00 0.00 0.00 0.00 0.00 0.00 0.00 0.00 0.00 0.00 0.00 0.00 0.00 0.00 0.00 0.00 0.00 0.00 0.00 0.00 0.00 0.00 0.00 0.00
0.00 0.00 0.00 0.00 0.00 0.01 0.01 0.00 0.00 0.00 0.00 0.00 0.00 0.00 0.00 0.00 0.00 0.00 0.00 0.00 0.00 0.00 0.00 0.00 0.00 0.00 0.00 0.00 0.00 0.00 0.00 0.00 0.00 0.00 0.00 0.00 0.00 0.00 0.00 0.00 0.00 0.00 0.00
0.00 0.00 0.00 0.00 0.00 0.00 0.00 0.01 0.00 0.00 0.00 0.00 0.00 0.00 0.00 0.00 0.00 0.00 0.00 0.00 0.00 0.00 0.00 0.00 0.00 0.00 0.00 0.00 0.00 0.00 0.00 0.00 0.00 0.00 0.00 0.00 0.00 0.00 0.00 0.00 0.00 0.00 0.00
0.00 0.00 0.00 0.00 0.00 0.00 0.00 0.00 0.00 0.00 0.00 0.00 0.00 0.00 0.00 0.00 0.00 0.00 0.00 0.00 0.00 0.00 0.00 0.00 0.00 0.00 0.00 0.00 0.00 0.00 0.00 0.00 0.00 0.00 0.00 0.00 0.00 0.00 0.00 0.00 0.00 0.00 0.00
0.00 0.00 0.00 0.00 0.00 0.00 0.00 0.00 0.00 0.00 0.00 0.00 0.00 0.00 0.00 0.00 0.00 0.00 0.00 0.00 0.00 0.00 0.00 0.00 0.00 0.00 0.00 0.00 0.00 0.00 0.00 0.00 0.00 0.00 0.00 0.00 0.00 0.00 0.00 0.00 0.00 0.00 0.00

GFSSE_prec_precacc_018.txt.gz
Total_Precipitation_Accumulation
0.00 0.00 0.02 0.03 0.05 0.03 0.02 0.01 0.00 0.00 0.00 0.00 0.00 0.00 0.03 0.05 0.02 0.01 0.00 0.00 0.00 0.00 0.00 0.00 0.02 0.05 0.14 0.16 0.17 0.03 0.00 0.00 0.00 0.00 0.00 0.00 0.00 0.00 0.00 0.01 0.00 0.00 0.00
0.00 0.00 0.01 0.02 0.03 0.02 0.02 0.01 0.00 0.00 0.00 0.00 0.00 0.01 0.04 0.06 0.04 0.02 0.00 0.00 0.00 0.00 0.00 0.00 0.00 0.00 0.03 0.03 0.01 0.00 0.00 0.00 0.00 0.00 0.00 0.00 0.00 0.00 0.00 0.01 0.01 0.00 0.02
0.00 0.00 0.00 0.02 0.03 0.02 0.01 0.00 0.00 0.00 0.00 0.00 0.00 0.04 0.02 0.01 0.02 0.01 0.00 0.00 0.00 0.00 0.00 0.00 0.00 0.00 0.00 0.00 0.00 0.00 0.00 0.00 0.00 0.00 0.00 0.00 0.00 0.00 0.00 0.00 0.01 0.00 0.00
0.00 0.00 0.00 0.02 0.02 0.01 0.01 0.00 0.00 0.00 0.00 0.00 0.01 0.02 0.00 0.01 0.01 0.00 0.00 0.00 0.00 0.00 0.00 0.00 0.00 0.00 0.00 0.00 0.00 0.00 0.00 0.00 0.00 0.00 0.00 0.00 0.00 0.00 0.00 0.00 0.01 0.01 0.00
0.00 0.00 0.00 0.01 0.02 0.02 0.00 0.00 0.00 0.00 0.00 0.00 0.00 0.00 0.01 0.02 0.02 0.02 0.00 0.00 0.00 0.00 0.00 0.00 0.00 0.00 0.00 0.00 0.00 0.00 0.00 0.00 0.00 0.00 0.00 0.00 0.00 0.00 0.00 0.01 0.02 0.03 0.02
0.00 0.00 0.00 0.01 0.02 0.01 0.00 0.00 0.00 0.00 0.00 0.00 0.00 0.00 0.00 0.03 0.04 0.06 0.03 0.00 0.00 0.00 0.00 0.00 0.00 0.00 0.00 0.00 0.00 0.00 0.01 0.01 0.00 0.00 0.00 0.00 0.00 0.00 0.00 0.00 0.00 0.00 0.00
0.00 0.00 0.00 0.01 0.02 0.00 0.00 0.00 0.00 0.00 0.00 0.00 0.00 0.00 0.00 0.02 0.04 0.08 0.05 0.01 0.00 0.00 0.00 0.00 0.00 0.00 0.00 0.00 0.00 0.00 0.00 0.01 0.00 0.00 0.00 0.00 0.00 0.00 0.00 0.00 0.00 0.00 0.01
0.00 0.00 0.00 0.01 0.02 0.00 0.00 0.00 0.00 0.00 0.01 0.00 0.00 0.00 0.00 0.01 0.00 0.05 0.06 0.01 0.00 0.00 0.00 0.00 0.00 0.00 0.00 0.00 0.00 0.00 0.00 0.00 0.00 0.00 0.00 0.00 0.00 0.00 0.00 0.01 0.01 0.00 0.00
0.00 0.00 0.00 0.00 0.01 0.01 0.00 0.00 0.00 0.01 0.02 0.00 0.00 0.00 0.00 0.00 0.00 0.03 0.03 0.00 0.00 0.00 0.00 0.00 0.00 0.00 0.00 0.00 0.00 0.00 0.00 0.00 0.00 0.00 0.00 0.00 0.00 0.00 0.01 0.03 0.05 0.07 0.08
0.00 0.00 0.00 0.00 0.01 0.01 0.01 0.00 0.00 0.01 0.02 0.00 0.00 0.00 0.00 0.00 0.00 0.00 0.00 0.00 0.00 0.00 0.00 0.00 0.01 0.01 0.01 0.01 0.01 0.01 0.00 0.00 0.00 0.00 0.00 0.00 0.00 0.01 0.03 0.06 0.07 0.08 0.11
0.00 0.00 0.00 0.00 0.00 0.01 0.01 0.00 0.00 0.00 0.01 0.00 0.00 0.00 0.00 0.00 0.00 0.00 0.00 0.00 0.00 0.00 0.00 0.00 0.01 0.02 0.01 0.00 0.00 0.00 0.00 0.00 0.00 0.00 0.00 0.00 0.00 0.02 0.03 0.04 0.04 0.08 0.08
0.00 0.00 0.00 0.00 0.00 0.00 0.00 0.00 0.00 0.00 0.00 0.00 0.00 0.00 0.00 0.00 0.00 0.00 0.00 0.00 0.00 0.00 0.00 0.00 0.01 0.01 0.00 0.00 0.00 0.00 0.00 0.00 0.00 0.00 0.00 0.00 0.00 0.00 0.01 0.03 0.05 0.04 0.04
0.00 0.00 0.00 0.00 0.00 0.00 0.00 0.00 0.00 0.00 0.00 0.00 0.00 0.00 0.00 0.00 0.00 0.00 0.00 0.00 0.00 0.00 0.00 0.00 0.00 0.00 0.00 0.00 0.00 0.00 0.00 0.00 0.00 0.00 0.00 0.00 0.00 0.00 0.01 0.02 0.03 0.02 0.02
0.00 0.00 0.00 0.00 0.00 0.00 0.00 0.00 0.00 0.00 0.00 0.00 0.00 0.00 0.00 0.00 0.00 0.00 0.00 0.00 0.00 0.00 0.00 0.00 0.00 0.00 0.00 0.00 0.00 0.00 0.00 0.00 0.00 0.00 0.00 0.00 0.00 0.00 0.00 0.01 0.02 0.01 0.01
0.00 0.00 0.00 0.00 0.00 0.00 0.00 0.00 0.00 0.00 0.00 0.00 0.00 0.00 0.00 0.00 0.00 0.00 0.00 0.00 0.00 0.00 0.00 0.00 0.00 0.00 0.00 0.00 0.00 0.00 0.00 0.00 0.00 0.00 0.00 0.00 0.00 0.00 0.00 0.00 0.01 0.01 0.02
0.00 0.00 0.00 0.00 0.00 0.00 0.00 0.00 0.00 0.00 0.00 0.00 0.00 0.00 0.00 0.00 0.00 0.00 0.00 0.00 0.00 0.00 0.00 0.00 0.00 0.00 0.00 0.00 0.00 0.00 0.00 0.00 0.00 0.00 0.00 0.00 0.00 0.00 0.00 0.00 0.01 0.02 0.03
0.00 0.00 0.00 0.00 0.00 0.00 0.00 0.00 0.00 0.01 0.02 0.00 0.00 0.00 0.00 0.00 0.00 0.00 0.00 0.00 0.00 0.00 0.00 0.00 0.00 0.00 0.00 0.00 0.00 0.00 0.00 0.00 0.00 0.00 0.00 0.00 0.00 0.00 0.00 0.01 0.02 0.03 0.04
0.00 0.00 0.00 0.00 0.00 0.00 0.00 0.01 0.08 0.11 0.03 0.02 0.00 0.00 0.00 0.00 0.00 0.00 0.00 0.00 0.00 0.00 0.00 0.00 0.00 0.00 0.00 0.00 0.00 0.00 0.00 0.00 0.00 0.00 0.00 0.00 0.00 0.00 0.00 0.00 0.00 0.01 0.01
0.00 0.00 0.00 0.00 0.00 0.00 0.00 0.04 0.07 0.05 0.02 0.01 0.00 0.00 0.00 0.00 0.00 0.00 0.00 0.00 0.00 0.00 0.00 0.00 0.00 0.00 0.00 0.00 0.00 0.00 0.00 0.00 0.00 0.00 0.00 0.00 0.00 0.00 0.00 0.00 0.00 0.00 0.00
0.00 0.00 0.00 0.00 0.00 0.00 0.01 0.03 0.03 0.02 0.01 0.01 0.00 0.00 0.00 0.00 0.00 0.00 0.00 0.00 0.00 0.00 0.00 0.00 0.00 0.00 0.00 0.00 0.00 0.00 0.00 0.00 0.00 0.00 0.00 0.00 0.00 0.00 0.00 0.00 0.00 0.00 0.00
0.00 0.00 0.00 0.00 0.00 0.01 0.02 0.01 0.02 0.01 0.00 0.00 0.00 0.00 0.00 0.00 0.00 0.00 0.00 0.00 0.00 0.00 0.00 0.00 0.00 0.00 0.00 0.00 0.00 0.00 0.00 0.00 0.00 0.00 0.00 0.00 0.00 0.00 0.00 0.00 0.00 0.00 0.00
0.00 0.00 0.00 0.00 0.00 0.02 0.02 0.04 0.04 0.03 0.01 0.00 0.00 0.00 0.00 0.00 0.00 0.00 0.00 0.00 0.00 0.00 0.00 0.00 0.00 0.00 0.00 0.00 0.00 0.00 0.00 0.00 0.00 0.00 0.00 0.00 0.00 0.00 0.00 0.00 0.00 0.00 0.00
0.00 0.00 0.00 0.00 0.00 0.01 0.01 0.02 0.03 0.01 0.00 0.00 0.00 0.00 0.00 0.00 0.00 0.00 0.00 0.00 0.00 0.00 0.00 0.00 0.00 0.00 0.00 0.00 0.00 0.00 0.00 0.00 0.00 0.00 0.00 0.00 0.00 0.00 0.00 0.00 0.00 0.00 0.00
0.00 0.00 0.00 0.00 0.00 0.00 0.01 0.02 0.03 0.00 0.00 0.00 0.00 0.00 0.00 0.00 0.00 0.00 0.00 0.00 0.00 0.00 0.00 0.00 0.00 0.00 0.00 0.00 0.00 0.00 0.00 0.00 0.00 0.00 0.00 0.00 0.00 0.00 0.00 0.00 0.00 0.00 0.00
0.00 0.00 0.00 0.00 0.00 0.00 0.00 0.01 0.02 0.01 0.00 0.00 0.00 0.00 0.00 0.00 0.00 0.00 0.00 0.00 0.00 0.00 0.00 0.00 0.00 0.00 0.00 0.00 0.00 0.00 0.00 0.00 0.00 0.00 0.00 0.00 0.00 0.00 0.00 0.00 0.00 0.00 0.00
0.00 0.00 0.00 0.00 0.00 0.00 0.00 0.00 0.01 0.00 0.00 0.00 0.00 0.00 0.00 0.00 0.00 0.00 0.00 0.00 0.00 0.00 0.00 0.00 0.00 0.00 0.00 0.00 0.00 0.00 0.00 0.00 0.00 0.00 0.00 0.00 0.00 0.00 0.00 0.00 0.00 0.00 0.00

GFSSE_prec_precacc_024.txt.gz
Total_Precipitation_Accumulation
0.00 0.00 0.02 0.03 0.05 0.04 0.02 0.01 0.00 0.00 0.00 0.00 0.00 0.00 0.03 0.05 0.02 0.01 0.00 0.00 0.00 0.00 0.00 0.00 0.02 0.07 0.15 0.24 0.27 0.03 0.00 0.00 0.00 0.00 0.00 0.00 0.00 0.00 0.00 0.01 0.00 0.00 0.00
0.00 0.00 0.01 0.02 0.04 0.02 0.02 0.01 0.00 0.00 0.00 0.00 0.00 0.02 0.05 0.08 0.05 0.03 0.00 0.00 0.00 0.00 0.00 0.00 0.00 0.01 0.08 0.09 0.05 0.01 0.00 0.00 0.00 0.00 0.00 0.00 0.00 0.00 0.00 0.01 0.01 0.00 0.02
0.00 0.00 0.00 0.03 0.04 0.02 0.01 0.00 0.00 0.00 0.00 0.00 0.00 0.05 0.06 0.05 0.03 0.01 0.00 0.00 0.00 0.00 0.00 0.00 0.00 0.00 0.00 0.00 0.00 0.00 0.00 0.00 0.00 0.00 0.00 0.00 0.00 0.00 0.00 0.00 0.01 0.00 0.00
0.00 0.00 0.00 0.03 0.03 0.01 0.01 0.00 0.00 0.00 0.00 0.00 0.02 0.02 0.00 0.01 0.01 0.00 0.00 0.00 0.00 0.00 0.00 0.00 0.00 0.00 0.00 0.00 0.00 0.00 0.00 0.00 0.00 0.00 0.00 0.00 0.00 0.00 0.00 0.00 0.01 0.01 0.01
0.00 0.00 0.00 0.02 0.02 0.02 0.00 0.00 0.00 0.00 0.00 0.00 0.00 0.00 0.01 0.02 0.02 0.02 0.00 0.00 0.00 0.00 0.00 0.00 0.00 0.00 0.00 0.00 0.00 0.00 0.01 0.00 0.00 0.00 0.00 0.00 0.00 0.00 0.00 0.01 0.02 0.03 0.02
0.00 0.00 0.00 0.02 0.03 0.01 0.00 0.00 0.00 0.00 0.00 0.00 0.00 0.00 0.00 0.03 0.04 0.06 0.03 0.00 0.00 0.00 0.00 0.00 0.00 0.00 0.00 0.00 0.00 0.00 0.01 0.01 0.00 0.00 0.00 0.00 0.00 0.00 0.00 0.00 0.00 0.00 0.00
0.00 0.00 0.00 0.02 0.03 0.01 0.00 0.00 0.00 0.00 0.00 0.00 0.00 0.00 0.00 0.03 0.04 0.09 0.05 0.01 0.00 0.00 0.00 0.00 0.00 0.00 0.00 0.00 0.00 0.00 0.00 0.01 0.00 0.00 0.00 0.00 0.00 0.00 0.00 0.01 0.01 0.01 0.02
0.00 0.00 0.00 0.02 0.03 0.01 0.00 0.00 0.00 0.00 0.01 0.00 0.00 0.00 0.00 0.01 0.00 0.07 0.07 0.01 0.00 0.00 0.00 0.00 0.00 0.00 0.00 0.00 0.00 0.00 0.00 0.00 0.00 0.00 0.00 0.00 0.00 0.00 0.00 0.02 0.03 0.02 0.03
0.00 0.00 0.00 0.01 0.03 0.02 0.01 0.00 0.00 0.01 0.02 0.00 0.00 0.00 0.00 0.00 0.00 0.04 0.04 0.00 0.00 0.00 0.00 0.00 0.00 0.00 0.00 0.00 0.00 0.00 0.00 0.00 0.00 0.00 0.00 0.00 0.00 0.00 0.01 0.04 0.06 0.08 0.09
0.00 0.00 0.00 0.00 0.01 0.02 0.02 0.00 0.00 0.01 0.02 0.00 0.00 0.00 0.00 0.00 0.00 0.00 0.00 0.00 0.00 0.00 0.00 0.00 0.01 0.01 0.01 0.01 0.01 0.01 0.00 0.00 0.00 0.00 0.00 0.00 0.00 0.01 0.03 0.06 0.07 0.08 0.11
0.00 0.00 0.00 0.00 0.00 0.01 0.02 0.01 0.00 0.00 0.02 0.00 0.00 0.00 0.00 0.00 0.00 0.00 0.00 0.00 0.00 0.00 0.00 0.00 0.01 0.02 0.01 0.00 0.00 0.00 0.00 0.00 0.00 0.00 0.00 0.00 0.00 0.02 0.03 0.04 0.04 0.08 0.08
0.00 0.00 0.00 0.00 0.00 0.01 0.01 0.01 0.00 0.00 0.00 0.00 0.00 0.00 0.00 0.00 0.00 0.00 0.00 0.00 0.00 0.00 0.00 0.00 0.01 0.01 0.00 0.00 0.00 0.00 0.00 0.00 0.00 0.00 0.00 0.00 0.00 0.00 0.01 0.03 0.05 0.04 0.04
0.00 0.00 0.00 0.00 0.00 0.00 0.00 0.01 0.00 0.00 0.00 0.00 0.00 0.00 0.00 0.00 0.00 0.00 0.00 0.00 0.00 0.00 0.00 0.00 0.00 0.00 0.00 0.00 0.00 0.00 0.00 0.00 0.00 0.00 0.00 0.00 0.00 0.00 0.01 0.02 0.03 0.02 0.02
0.00 0.00 0.00 0.00 0.00 0.00 0.00 0.00 0.00 0.00 0.00 0.00 0.00 0.00 0.00 0.00 0.00 0.00 0.00 0.00 0.00 0.00 0.00 0.00 0.00 0.00 0.00 0.00 0.00 0.00 0.00 0.00 0.00 0.00 0.00 0.00 0.00 0.00 0.00 0.01 0.02 0.01 0.01
0.00 0.00 0.00 0.00 0.00 0.00 0.00 0.00 0.00 0.00 0.00 0.00 0.00 0.00 0.00 0.00 0.00 0.00 0.00 0.00 0.00 0.00 0.00 0.00 0.00 0.00 0.00 0.00 0.00 0.00 0.00 0.00 0.00 0.00 0.00 0.00 0.00 0.00 0.00 0.00 0.01 0.01 0.02
0.00 0.00 0.00 0.00 0.00 0.00 0.00 0.00 0.00 0.00 0.00 0.00 0.00 0.00 0.00 0.00 0.00 0.00 0.00 0.00 0.00 0.00 0.00 0.00 0.00 0.00 0.00 0.00 0.00 0.00 0.00 0.00 0.00 0.00 0.00 0.00 0.00 0.00 0.00 0.00 0.01 0.02 0.03
0.00 0.00 0.00 0.00 0.00 0.00 0.00 0.00 0.01 0.01 0.02 0.00 0.00 0.00 0.00 0.00 0.00 0.00 0.00 0.00 0.00 0.00 0.00 0.00 0.00 0.00 0.00 0.00 0.00 0.00 0.00 0.00 0.00 0.00 0.00 0.00 0.00 0.00 0.00 0.01 0.02 0.03 0.04
0.00 0.00 0.00 0.00 0.00 0.00 0.00 0.01 0.09 0.12 0.03 0.02 0.00 0.01 0.00 0.00 0.00 0.00 0.00 0.00 0.00 0.00 0.00 0.00 0.00 0.00 0.00 0.00 0.00 0.00 0.00 0.00 0.00 0.00 0.00 0.00 0.00 0.00 0.00 0.00 0.00 0.01 0.01
0.00 0.00 0.00 0.00 0.00 0.00 0.00 0.04 0.10 0.06 0.04 0.02 0.01 0.01 0.00 0.00 0.00 0.00 0.00 0.00 0.00 0.00 0.00 0.00 0.00 0.00 0.00 0.00 0.00 0.00 0.00 0.00 0.00 0.00 0.00 0.00 0.00 0.00 0.00 0.00 0.00 0.00 0.00
0.00 0.00 0.00 0.00 0.00 0.00 0.01 0.03 0.05 0.03 0.02 0.02 0.01 0.00 0.00 0.00 0.00 0.00 0.00 0.00 0.00 0.00 0.00 0.00 0.00 0.00 0.00 0.00 0.00 0.00 0.00 0.00 0.00 0.00 0.00 0.00 0.00 0.00 0.00 0.00 0.00 0.00 0.00
0.00 0.00 0.00 0.00 0.00 0.01 0.02 0.01 0.03 0.04 0.04 0.02 0.03 0.01 0.00 0.00 0.00 0.00 0.00 0.00 0.00 0.00 0.00 0.00 0.00 0.00 0.00 0.00 0.00 0.00 0.00 0.00 0.00 0.00 0.00 0.00 0.00 0.00 0.00 0.00 0.00 0.00 0.00
0.00 0.00 0.00 0.00 0.00 0.02 0.02 0.04 0.05 0.05 0.02 0.00 0.04 0.01 0.00 0.00 0.00 0.00 0.00 0.00 0.00 0.00 0.00 0.00 0.00 0.00 0.00 0.00 0.00 0.00 0.00 0.00 0.00 0.00 0.00 0.00 0.00 0.00 0.00 0.00 0.00 0.00 0.00
0.00 0.00 0.00 0.00 0.00 0.01 0.01 0.03 0.04 0.04 0.02 0.00 0.01 0.01 0.02 0.00 0.00 0.00 0.00 0.00 0.00 0.00 0.00 0.00 0.00 0.00 0.00 0.00 0.00 0.00 0.00 0.00 0.00 0.00 0.00 0.00 0.00 0.00 0.00 0.00 0.00 0.00 0.00
0.00 0.00 0.00 0.00 0.00 0.00 0.01 0.02 0.03 0.01 0.01 0.03 0.03 0.04 0.05 0.00 0.00 0.00 0.00 0.00 0.00 0.00 0.00 0.00 0.00 0.00 0.00 0.00 0.00 0.00 0.00 0.00 0.00 0.00 0.00 0.00 0.00 0.00 0.00 0.00 0.00 0.00 0.00
0.00 0.00 0.00 0.00 0.00 0.00 0.00 0.01 0.03 0.02 0.00 0.00 0.01 0.01 0.00 0.00 0.00 0.00 0.00 0.00 0.00 0.00 0.00 0.00 0.00 0.00 0.00 0.00 0.00 0.00 0.00 0.00 0.00 0.00 0.00 0.00 0.00 0.00 0.00 0.00 0.00 0.00 0.00
0.00 0.00 0.00 0.00 0.00 0.00 0.00 0.00 0.02 0.01 0.02 0.03 0.02 0.01 0.01 0.01 0.00 0.00 0.00 0.00 0.00 0.00 0.00 0.00 0.00 0.00 0.00 0.00 0.00 0.00 0.00 0.00 0.00 0.00 0.00 0.00 0.00 0.00 0.00 0.00 0.00 0.00 0.00

GFSSE_prec_precacc_027.txt.gz
Total_Precipitation_Accumulation
0.00 0.00 0.02 0.03 0.05 0.04 0.02 0.01 0.00 0.00 0.00 0.00 0.00 0.01 0.03 0.05 0.02 0.01 0.00 0.00 0.00 0.00 0.00 0.00 0.03 0.07 0.18 0.30 0.30 0.03 0.00 0.00 0.00 0.00 0.00 0.00 0.00 0.00 0.00 0.01 0.00 0.00 0.01
0.00 0.00 0.01 0.02 0.04 0.02 0.02 0.01 0.00 0.00 0.00 0.00 0.00 0.02 0.05 0.08 0.05 0.03 0.00 0.00 0.00 0.00 0.00 0.00 0.00 0.01 0.09 0.10 0.06 0.01 0.00 0.00 0.00 0.00 0.00 0.00 0.00 0.00 0.00 0.01 0.01 0.00 0.02
0.00 0.00 0.00 0.03 0.04 0.02 0.01 0.00 0.00 0.00 0.00 0.00 0.00 0.06 0.08 0.05 0.03 0.01 0.00 0.00 0.00 0.00 0.00 0.00 0.00 0.00 0.00 0.00 0.00 0.00 0.00 0.00 0.00 0.00 0.00 0.00 0.00 0.00 0.00 0.00 0.01 0.00 0.00
0.00 0.00 0.00 0.03 0.03 0.01 0.01 0.00 0.00 0.00 0.00 0.00 0.02 0.03 0.02 0.02 0.01 0.00 0.00 0.00 0.00 0.00 0.00 0.00 0.00 0.00 0.00 0.00 0.00 0.00 0.00 0.00 0.00 0.00 0.00 0.00 0.00 0.00 0.00 0.00 0.01 0.01 0.01
0.00 0.00 0.00 0.02 0.02 0.02 0.00 0.00 0.00 0.00 0.00 0.00 0.00 0.00 0.01 0.02 0.02 0.02 0.00 0.00 0.00 0.00 0.00 0.00 0.00 0.00 0.00 0.00 0.00 0.00 0.01 0.00 0.00 0.00 0.00 0.00 0.00 0.00 0.00 0.01 0.02 0.03 0.02
0.00 0.00 0.00 0.02 0.03 0.01 0.00 0.00 0.00 0.00 0.00 0.00 0.00 0.00 0.00 0.03 0.04 0.06 0.03 0.00 0.00 0.00 0.00 0.00 0.00 0.00 0.00 0.00 0.00 0.00 0.01 0.01 0.00 0.00 0.00 0.00 0.00 0.00 0.00 0.00 0.01 0.01 0.00
0.00 0.00 0.00 0.02 0.03 0.01 0.00 0.00 0.00 0.00 0.00 0.00 0.00 0.00 0.00 0.03 0.04 0.09 0.05 0.01 0.00 0.00 0.00 0.00 0.00 0.00 0.00 0.00 0.00 0.00 0.00 0.01 0.00 0.00 0.00 0.00 0.00 0.01 0.00 0.01 0.03 0.03 0.05
0.00 0.00 0.00 0.02 0.03 0.01 0.00 0.00 0.00 0.00 0.01 0.00 0.00 0.00 0.00 0.01 0.00 0.07 0.07 0.01 0.00 0.00 0.00 0.00 0.00 0.00 0.00 0.00 0.00 0.00 0.00 0.00 0.00 0.00 0.00 0.00 0.00 0.00 0.00 0.02 0.03 0.02 0.03
0.00 0.00 0.00 0.01 0.03 0.02 0.01 0.00 0.00 0.01 0.02 0.00 0.00 0.00 0.00 0.00 0.00 0.04 0.04 0.00 0.00 0.00 0.00 0.00 0.00 0.00 0.00 0.00 0.00 0.00 0.00 0.00 0.00 0.00 0.00 0.00 0.00 0.00 0.01 0.04 0.06 0.08 0.10
0.00 0.00 0.00 0.00 0.01 0.02 0.02 0.00 0.00 0.01 0.02 0.00 0.00 0.00 0.00 0.00 0.00 0.00 0.00 0.00 0.00 0.00 0.00 0.00 0.01 0.01 0.01 0.01 0.01 0.01 0.00 0.00 0.00 0.00 0.00 0.00 0.00 0.01 0.03 0.06 0.07 0.09 0.11
0.00 0.00 0.00 0.00 0.00 0.01 0.02 0.01 0.00 0.00 0.02 0.00 0.00 0.00 0.00 0.00 0.00 0.00 0.00 0.00 0.00 0.00 0.00 0.00 0.01 0.02 0.01 0.00 0.00 0.00 0.00 0.00 0.00 0.00 0.00 0.00 0.00 0.02 0.03 0.04 0.05 0.08 0.08
0.00 0.00 0.00 0.00 0.00 0.01 0.01 0.01 0.00 0.00 0.00 0.00 0.00 0.00 0.00 0.00 0.00 0.00 0.00 0.00 0.00 0.00 0.00 0.00 0.01 0.01 0.00 0.00 0.00 0.00 0.00 0.00 0.00 0.00 0.00 0.00 0.00 0.01 0.01 0.03 0.05 0.04 0.04
0.00 0.00 0.00 0.00 0.00 0.00 0.00 0.01 0.00 0.00 0.00 0.00 0.00 0.00 0.00 0.00 0.00 0.00 0.00 0.00 0.00 0.00 0.00 0.00 0.00 0.00 0.00 0.00 0.00 0.00 0.00 0.00 0.00 0.00 0.00 0.00 0.00 0.00 0.01 0.02 0.03 0.02 0.02
0.00 0.00 0.00 0.00 0.00 0.00 0.00 0.00 0.00 0.00 0.00 0.00 0.00 0.00 0.00 0.00 0.00 0.00 0.00 0.00 0.00 0.00 0.00 0.00 0.00 0.00 0.00 0.00 0.00 0.00 0.00 0.00 0.00 0.00 0.00 0.00 0.00 0.00 0.00 0.01 0.02 0.01 0.01
0.00 0.00 0.00 0.00 0.00 0.00 0.00 0.00 0.00 0.00 0.00 0.00 0.00 0.00 0.00 0.00 0.00 0.00 0.00 0.00 0.00 0.00 0.00 0.00 0.00 0.00 0.00 0.00 0.00 0.00 0.00 0.00 0.00 0.00 0.00 0.00 0.00 0.00 0.00 0.00 0.01 0.01 0.02
0.00 0.00 0.00 0.00 0.00 0.00 0.00 0.00 0.00 0.00 0.00 0.00 0.00 0.00 0.00 0.00 0.00 0.00 0.00 0.00 0.00 0.00 0.00 0.00 0.00 0.00 0.00 0.00 0.00 0.00 0.00 0.00 0.00 0.00 0.00 0.00 0.00 0.00 0.00 0.00 0.01 0.02 0.03
0.00 0.00 0.00 0.00 0.00 0.00 0.00 0.00 0.01 0.02 0.02 0.01 0.00 0.00 0.00 0.00 0.00 0.00 0.00 0.00 0.00 0.00 0.00 0.00 0.00 0.00 0.00 0.00 0.00 0.00 0.00 0.00 0.00 0.00 0.00 0.00 0.00 0.00 0.00 0.01 0.02 0.03 0.04
0.00 0.00 0.00 0.00 0.00 0.00 0.00 0.02 0.09 0.12 0.04 0.02 0.01 0.02 0.00 0.00 0.00 0.00 0.00 0.00 0.00 0.00 0.00 0.00 0.00 0.00 0.00 0.00 0.00 0.00 0.00 0.00 0.00 0.00 0.00 0.00 0.00 0.00 0.00 0.00 0.00 0.01 0.01
0.00 0.00 0.00 0.00 0.00 0.00 0.00 0.05 0.15 0.09 0.06 0.03 0.02 0.01 0.00 0.00 0.00 0.00 0.00 0.00 0.00 0.00 0.00 0.00 0.00 0.00 0.00 0.00 0.00 0.00 0.00 0.00 0.00 0.00 0.00 0.00 0.00 0.00 0.00 0.00 0.00 0.00 0.00
0.00 0.00 0.00 0.00 0.00 0.00 0.01 0.05 0.15 0.07 0.04 0.02 0.01 0.00 0.00 0.00 0.00 0.00 0.00 0.00 0.00 0.00 0.00 0.00 0.00 0.00 0.00 0.00 0.00 0.00 0.00 0.00 0.00 0.00 0.00 0.00 0.00 0.00 0.00 0.00 0.00 0.00 0.00
0.00 0.00 0.00 0.00 0.00 0.01 0.03 0.02 0.10 0.07 0.04 0.03 0.04 0.02 0.00 0.00 0.00 0.00 0.00 0.00 0.00 0.00 0.00 0.00 0.00 0.00 0.00 0.00 0.00 0.00 0.00 0.00 0.00 0.00 0.00 0.00 0.00 0.00 0.00 0.00 0.00 0.00 0.00
0.00 0.00 0.00 0.00 0.00 0.02 0.02 0.05 0.08 0.13 0.05 0.02 0.05 0.02 0.01 0.00 0.00 0.00 0.00 0.00 0.00 0.00 0.00 0.00 0.00 0.00 0.00 0.00 0.00 0.00 0.00 0.00 0.00 0.00 0.00 0.00 0.00 0.00 0.00 0.00 0.00 0.00 0.00
0.00 0.00 0.00 0.00 0.00 0.01 0.01 0.04 0.04 0.08 0.07 0.03 0.02 0.01 0.02 0.00 0.00 0.00 0.00 0.00 0.00 0.00 0.00 0.00 0.00 0.00 0.00 0.00 0.00 0.00 0.00 0.00 0.00 0.00 0.00 0.00 0.00 0.00 0.00 0.00 0.00 0.00 0.00
0.00 0.00 0.00 0.00 0.00 0.00 0.01 0.02 0.04 0.02 0.05 0.06 0.07 0.08 0.08 0.01 0.00 0.00 0.00 0.00 0.00 0.00 0.00 0.00 0.00 0.00 0.00 0.00 0.00 0.00 0.00 0.00 0.00 0.00 0.00 0.00 0.00 0.00 0.00 0.00 0.00 0.00 0.00
0.00 0.00 0.00 0.00 0.00 0.00 0.00 0.01 0.03 0.03 0.01 0.02 0.04 0.04 0.02 0.00 0.00 0.00 0.00 0.00 0.00 0.00 0.00 0.00 0.00 0.00 0.00 0.00 0.00 0.00 0.00 0.00 0.00 0.00 0.00 0.00 0.00 0.00 0.00 0.00 0.00 0.00 0.00
0.00 0.00 0.00 0.00 0.00 0.00 0.00 0.01 0.02 0.02 0.02 0.04 0.04 0.03 0.03 0.01 0.01 0.00 0.00 0.00 0.00 0.00 0.00 0.00 0.00 0.00 0.00 0.00 0.00 0.00 0.00 0.00 0.00 0.00 0.00 0.00 0.00 0.00 0.00 0.00 0.00 0.00 0.00

GFSSE_prec_precacc_030.txt.gz
Total_Precipitation_Accumulation
0.00 0.00 0.03 0.03 0.05 0.04 0.02 0.01 0.00 0.00 0.00 0.01 0.01 0.01 0.03 0.05 0.02 0.01 0.00 0.00 0.00 0.00 0.00 0.01 0.03 0.09 0.22 0.33 0.30 0.03 0.00 0.00 0.00 0.00 0.00 0.00 0.00 0.00 0.00 0.01 0.00 0.00 0.01
0.00 0.00 0.01 0.02 0.04 0.02 0.02 0.01 0.00 0.00 0.00 0.00 0.00 0.02 0.05 0.08 0.05 0.03 0.00 0.00 0.00 0.00 0.00 0.00 0.02 0.06 0.12 0.10 0.06 0.01 0.00 0.00 0.00 0.00 0.00 0.00 0.00 0.00 0.00 0.01 0.01 0.00 0.02
0.00 0.00 0.00 0.03 0.04 0.02 0.01 0.00 0.00 0.00 0.00 0.00 0.00 0.06 0.09 0.06 0.03 0.01 0.00 0.00 0.00 0.00 0.00 0.00 0.00 0.00 0.00 0.00 0.00 0.00 0.00 0.00 0.00 0.00 0.00 0.00 0.00 0.00 0.00 0.00 0.01 0.00 0.00
0.00 0.00 0.00 0.03 0.03 0.01 0.01 0.00 0.00 0.00 0.00 0.00 0.02 0.05 0.02 0.02 0.01 0.00 0.00 0.00 0.00 0.00 0.00 0.00 0.00 0.00 0.00 0.00 0.00 0.00 0.00 0.00 0.00 0.00 0.00 0.00 0.00 0.00 0.00 0.00 0.01 0.01 0.01
0.00 0.00 0.00 0.02 0.02 0.02 0.00 0.00 0.00 0.00 0.00 0.01 0.01 0.01 0.01 0.02 0.02 0.02 0.00 0.00 0.00 0.00 0.00 0.00 0.00 0.00 0.00 0.00 0.00 0.00 0.01 0.00 0.00 0.00 0.00 0.00 0.00 0.00 0.00 0.01 0.02 0.03 0.02
0.00 0.00 0.00 0.02 0.03 0.01 0.00 0.00 0.00 0.00 0.00 0.00 0.00 0.00 0.00 0.03 0.04 0.06 0.03 0.00 0.00 0.00 0.00 0.00 0.00 0.00 0.00 0.00 0.00 0.00 0.01 0.01 0.00 0.00 0.00 0.00 0.00 0.02 0.00 0.00 0.03 0.03 0.02
0.00 0.00 0.00 0.02 0.03 0.01 0.00 0.00 0.00 0.00 0.00 0.00 0.00 0.00 0.00 0.03 0.04 0.09 0.05 0.01 0.00 0.00 0.00 0.00 0.00 0.00 0.00 0.00 0.00 0.00 0.00 0.01 0.00 0.00 0.00 0.00 0.01 0.01 0.00 0.02 0.03 0.04 0.06
0.00 0.00 0.00 0.02 0.03 0.01 0.00 0.00 0.00 0.00 0.01 0.00 0.00 0.00 0.00 0.01 0.00 0.07 0.07 0.01 0.00 0.00 0.00 0.00 0.00 0.00 0.00 0.00 0.00 0.00 0.00 0.00 0.00 0.00 0.00 0.00 0.00 0.00 0.00 0.02 0.03 0.03 0.04
0.00 0.00 0.00 0.01 0.03 0.02 0.01 0.00 0.00 0.01 0.02 0.00 0.00 0.00 0.00 0.00 0.00 0.04 0.04 0.00 0.00 0.00 0.00 0.00 0.00 0.00 0.00 0.00 0.00 0.00 0.00 0.00 0.00 0.00 0.00 0.00 0.00 0.00 0.01 0.04 0.06 0.08 0.10
0.00 0.00 0.00 0.00 0.01 0.02 0.02 0.00 0.00 0.01 0.02 0.00 0.00 0.00 0.00 0.00 0.00 0.00 0.00 0.00 0.00 0.00 0.00 0.00 0.01 0.01 0.01 0.01 0.01 0.01 0.00 0.00 0.00 0.00 0.00 0.00 0.00 0.01 0.04 0.07 0.07 0.09 0.11
0.00 0.00 0.00 0.00 0.00 0.01 0.02 0.01 0.00 0.00 0.02 0.00 0.00 0.00 0.00 0.00 0.00 0.00 0.00 0.00 0.00 0.00 0.00 0.00 0.01 0.02 0.01 0.00 0.00 0.00 0.00 0.00 0.00 0.00 0.00 0.00 0.00 0.02 0.04 0.04 0.05 0.08 0.08
0.00 0.00 0.00 0.00 0.00 0.01 0.01 0.01 0.00 0.00 0.00 0.00 0.00 0.00 0.00 0.00 0.00 0.00 0.00 0.00 0.00 0.00 0.00 0.00 0.01 0.01 0.00 0.00 0.00 0.00 0.00 0.00 0.00 0.00 0.00 0.00 0.00 0.01 0.02 0.03 0.05 0.04 0.04
0.00 0.00 0.00 0.00 0.00 0.00 0.00 0.01 0.00 0.00 0.00 0.00 0.00 0.00 0.00 0.00 0.00 0.00 0.00 0.00 0.00 0.00 0.00 0.00 0.00 0.00 0.00 0.00 0.00 0.00 0.00 0.00 0.00 0.00 0.00 0.00 0.00 0.00 0.01 0.02 0.03 0.02 0.02
0.00 0.00 0.00 0.00 0.00 0.00 0.00 0.00 0.00 0.00 0.00 0.00 0.00 0.00 0.00 0.00 0.00 0.00 0.00 0.00 0.00 0.00 0.00 0.00 0.00 0.00 0.00 0.00 0.00 0.00 0.00 0.00 0.00 0.00 0.00 0.00 0.00 0.00 0.00 0.01 0.02 0.01 0.01
0.00 0.00 0.00 0.00 0.00 0.00 0.00 0.00 0.00 0.00 0.00 0.00 0.00 0.00 0.00 0.00 0.00 0.00 0.00 0.00 0.00 0.00 0.00 0.00 0.00 0.00 0.00 0.00 0.00 0.00 0.00 0.00 0.00 0.00 0.00 0.00 0.00 0.00 0.00 0.00 0.01 0.01 0.02
0.00 0.00 0.00 0.00 0.00 0.00 0.00 0.00 0.01 0.01 0.00 0.00 0.00 0.00 0.00 0.00 0.00 0.00 0.00 0.00 0.00 0.00 0.00 0.00 0.00 0.00 0.00 0.00 0.00 0.00 0.00 0.00 0.00 0.00 0.00 0.00 0.00 0.00 0.00 0.00 0.01 0.02 0.03
0.00 0.00 0.00 0.00 0.00 0.00 0.00 0.00 0.01 0.02 0.02 0.01 0.00 0.00 0.00 0.00 0.00 0.00 0.00 0.00 0.00 0.00 0.00 0.00 0.00 0.00 0.00 0.00 0.00 0.00 0.00 0.00 0.00 0.00 0.00 0.00 0.00 0.00 0.00 0.01 0.02 0.03 0.04
0.00 0.00 0.00 0.00 0.00 0.00 0.00 0.02 0.10 0.13 0.04 0.02 0.01 0.02 0.00 0.00 0.00 0.00 0.00 0.00 0.00 0.00 0.00 0.00 0.00 0.00 0.00 0.00 0.00 0.00 0.00 0.00 0.00 0.00 0.00 0.00 0.00 0.00 0.00 0.00 0.00 0.01 0.01
0.00 0.00 0.00 0.00 0.01 0.00 0.00 0.07 0.18 0.12 0.07 0.03 0.02 0.01 0.00 0.00 0.00 0.00 0.00 0.00 0.00 0.00 0.00 0.00 0.00 0.00 0.00 0.00 0.00 0.00 0.00 0.00 0.00 0.00 0.00 0.00 0.00 0.00 0.00 0.00 0.00 0.00 0.00
0.00 0.00 0.00 0.00 0.00 0.02 0.07 0.12 0.22 0.13 0.05 0.02 0.01 0.00 0.00 0.00 0.00 0.00 0.00 0.00 0.00 0.00 0.00 0.00 0.00 0.00 0.00 0.00 0.00 0.00 0.00 0.00 0.00 0.00 0.00 0.00 0.00 0.00 0.00 0.00 0.00 0.00 0.00
0.00 0.00 0.00 0.00 0.00 0.02 0.06 0.05 0.14 0.11 0.07 0.04 0.05 0.02 0.01 0.01 0.00 0.00 0.00 0.00 0.00 0.00 0.00 0.00 0.00 0.00 0.00 0.00 0.00 0.00 0.00 0.00 0.00 0.00 0.00 0.00 0.00 0.00 0.00 0.00 0.00 0.00 0.00
0.00 0.00 0.00 0.00 0.00 0.02 0.03 0.08 0.12 0.15 0.10 0.08 0.09 0.04 0.02 0.02 0.01 0.00 0.00 0.00 0.00 0.00 0.00 0.00 0.00 0.00 0.00 0.00 0.00 0.00 0.00 0.00 0.00 0.00 0.00 0.00 0.00 0.00 0.00 0.00 0.00 0.00 0.00
0.00 0.00 0.00 0.00 0.00 0.01 0.04 0.08 0.09 0.13 0.11 0.08 0.06 0.03 0.08 0.06 0.01 0.00 0.00 0.00 0.00 0.00 0.00 0.00 0.00 0.00 0.00 0.00 0.00 0.00 0.00 0.00 0.00 0.00 0.00 0.00 0.00 0.00 0.00 0.00 0.00 0.00 0.00
0.00 0.00 0.00 0.00 0.00 0.00 0.01 0.04 0.05 0.03 0.05 0.07 0.10 0.16 0.19 0.09 0.02 0.00 0.00 0.00 0.00 0.00 0.00 0.00 0.00 0.00 0.00 0.00 0.00 0.00 0.00 0.00 0.00 0.00 0.00 0.00 0.00 0.00 0.00 0.00 0.00 0.00 0.00
0.00 0.00 0.00 0.00 0.00 0.00 0.00 0.01 0.04 0.03 0.02 0.03 0.07 0.09 0.08 0.05 0.03 0.02 0.01 0.00 0.00 0.00 0.00 0.00 0.00 0.00 0.00 0.00 0.00 0.00 0.00 0.00 0.00 0.00 0.00 0.00 0.00 0.00 0.00 0.00 0.00 0.00 0.00
0.00 0.00 0.00 0.00 0.00 0.00 0.00 0.01 0.02 0.02 0.02 0.05 0.05 0.05 0.06 0.04 0.03 0.03 0.01 0.00 0.00 0.00 0.00 0.00 0.00 0.00 0.00 0.00 0.00 0.00 0.00 0.00 0.00 0.00 0.00 0.00 0.00 0.00 0.00 0.00 0.00 0.00 0.00

GFSSE_prec_precacc_033.txt.gz
Total_Precipitation_Accumulation
0.00 0.00 0.03 0.04 0.06 0.04 0.02 0.02 0.00 0.01 0.01 0.01 0.01 0.01 0.03 0.05 0.02 0.01 0.00 0.00 0.00 0.00 0.00 0.01 0.03 0.09 0.25 0.34 0.30 0.03 0.00 0.00 0.00 0.00 0.00 0.00 0.00 0.00 0.00 0.01 0.00 0.00 0.01
0.00 0.00 0.02 0.03 0.05 0.02 0.02 0.02 0.00 0.00 0.01 0.01 0.01 0.02 0.05 0.08 0.05 0.03 0.00 0.00 0.00 0.00 0.01 0.03 0.07 0.12 0.18 0.11 0.06 0.01 0.00 0.00 0.00 0.00 0.00 0.00 0.00 0.00 0.00 0.01 0.01 0.00 0.02
0.00 0.00 0.00 0.03 0.04 0.02 0.01 0.00 0.00 0.00 0.00 0.00 0.00 0.06 0.09 0.06 0.03 0.01 0.00 0.00 0.00 0.00 0.00 0.00 0.01 0.01 0.00 0.00 0.00 0.00 0.00 0.00 0.00 0.00 0.00 0.00 0.00 0.00 0.00 0.00 0.01 0.00 0.00
0.00 0.00 0.00 0.03 0.03 0.01 0.01 0.00 0.00 0.00 0.00 0.00 0.02 0.06 0.02 0.02 0.01 0.00 0.00 0.00 0.00 0.00 0.00 0.00 0.00 0.00 0.00 0.00 0.00 0.00 0.00 0.00 0.00 0.00 0.00 0.00 0.00 0.00 0.00 0.00 0.01 0.01 0.02
0.00 0.00 0.00 0.02 0.02 0.02 0.00 0.00 0.00 0.00 0.00 0.01 0.02 0.02 0.01 0.02 0.02 0.02 0.00 0.00 0.00 0.00 0.00 0.00 0.00 0.00 0.00 0.00 0.00 0.00 0.01 0.00 0.00 0.00 0.00 0.00 0.00 0.00 0.00 0.01 0.02 0.03 0.02
0.00 0.00 0.00 0.02 0.03 0.01 0.00 0.00 0.00 0.00 0.00 0.00 0.01 0.00 0.00 0.03 0.04 0.06 0.03 0.00 0.00 0.00 0.00 0.00 0.00 0.00 0.00 0.00 0.00 0.00 0.01 0.01 0.00 0.00 0.00 0.00 0.01 0.03 0.00 0.01 0.05 0.06 0.04
0.00 0.00 0.00 0.02 0.03 0.01 0.00 0.00 0.00 0.00 0.00 0.00 0.00 0.00 0.00 0.03 0.04 0.09 0.05 0.01 0.00 0.00 0.00 0.00 0.00 0.00 0.00 0.00 0.00 0.00 0.00 0.01 0.00 0.00 0.00 0.00 0.01 0.02 0.00 0.02 0.03 0.04 0.07
0.00 0.00 0.00 0.02 0.03 0.01 0.00 0.00 0.00 0.00 0.01 0.00 0.00 0.00 0.00 0.01 0.00 0.07 0.07 0.01 0.00 0.00 0.00 0.00 0.00 0.00 0.00 0.00 0.00 0.00 0.00 0.00 0.00 0.00 0.00 0.00 0.00 0.00 0.00 0.02 0.04 0.04 0.05
0.00 0.00 0.00 0.01 0.03 0.02 0.01 0.00 0.00 0.01 0.02 0.00 0.00 0.00 0.00 0.00 0.00 0.04 0.04 0.00 0.00 0.00 0.00 0.00 0.00 0.00 0.00 0.00 0.00 0.00 0.00 0.00 0.00 0.00 0.00 0.00 0.00 0.00 0.01 0.05 0.07 0.08 0.10
0.00 0.00 0.00 0.00 0.01 0.02 0.02 0.00 0.00 0.01 0.02 0.00 0.00 0.00 0.00 0.00 0.00 0.00 0.00 0.00 0.00 0.00 0.00 0.00 0.01 0.01 0.01 0.01 0.01 0.01 0.00 0.00 0.00 0.00 0.00 0.00 0.00 0.01 0.04 0.08 0.08 0.09 0.11
0.00 0.00 0.00 0.00 0.00 0.01 0.02 0.01 0.00 0.00 0.02 0.00 0.00 0.00 0.00 0.00 0.00 0.00 0.00 0.00 0.00 0.00 0.00 0.00 0.01 0.02 0.01 0.00 0.00 0.00 0.00 0.00 0.00 0.00 0.00 0.00 0.00 0.03 0.04 0.04 0.05 0.08 0.08
0.00 0.01 0.00 0.00 0.01 0.01 0.01 0.01 0.00 0.00 0.00 0.00 0.00 0.00 0.00 0.00 0.00 0.00 0.00 0.00 0.00 0.00 0.00 0.00 0.01 0.01 0.00 0.00 0.00 0.00 0.00 0.00 0.00 0.00 0.00 0.00 0.00 0.01 0.02 0.03 0.05 0.04 0.04
0.00 0.00 0.00 0.00 0.00 0.00 0.00 0.01 0.00 0.00 0.00 0.00 0.00 0.00 0.00 0.00 0.00 0.00 0.00 0.00 0.00 0.00 0.00 0.00 0.00 0.00 0.00 0.00 0.00 0.00 0.00 0.00 0.00 0.00 0.00 0.00 0.00 0.00 0.01 0.02 0.03 0.02 0.02
0.00 0.00 0.00 0.00 0.00 0.00 0.00 0.00 0.00 0.00 0.00 0.00 0.00 0.00 0.00 0.00 0.00 0.00 0.00 0.00 0.00 0.00 0.00 0.00 0.00 0.00 0.00 0.00 0.00 0.00 0.00 0.00 0.00 0.00 0.00 0.00 0.00 0.00 0.00 0.01 0.02 0.01 0.01
0.00 0.00 0.00 0.00 0.00 0.00 0.00 0.00 0.00 0.00 0.00 0.00 0.00 0.00 0.00 0.00 0.00 0.00 0.00 0.00 0.00 0.00 0.00 0.00 0.00 0.00 0.00 0.00 0.00 0.00 0.00 0.00 0.00 0.00 0.00 0.00 0.00 0.00 0.00 0.00 0.01 0.01 0.02
0.00 0.00 0.00 0.00 0.00 0.00 0.00 0.00 0.01 0.01 0.00 0.00 0.00 0.00 0.00 0.00 0.00 0.00 0.00 0.00 0.00 0.00 0.00 0.00 0.00 0.00 0.00 0.00 0.00 0.00 0.00 0.00 0.00 0.00 0.00 0.00 0.00 0.00 0.00 0.00 0.01 0.02 0.03
0.00 0.00 0.00 0.01 0.02 0.00 0.00 0.00 0.02 0.03 0.03 0.01 0.00 0.00 0.00 0.00 0.00 0.00 0.00 0.00 0.00 0.00 0.00 0.00 0.00 0.00 0.00 0.00 0.00 0.00 0.00 0.00 0.00 0.00 0.00 0.00 0.00 0.00 0.00 0.01 0.02 0.03 0.04
0.00 0.00 0.00 0.01 0.05 0.01 0.00 0.04 0.11 0.16 0.05 0.03 0.01 0.02 0.00 0.00 0.00 0.00 0.00 0.00 0.00 0.00 0.00 0.00 0.00 0.00 0.00 0.00 0.00 0.00 0.00 0.00 0.00 0.00 0.00 0.00 0.00 0.00 0.00 0.00 0.00 0.01 0.01
0.00 0.00 0.00 0.00 0.01 0.02 0.04 0.13 0.20 0.15 0.09 0.05 0.03 0.01 0.00 0.00 0.00 0.00 0.00 0.00 0.00 0.00 0.00 0.00 0.00 0.00 0.00 0.00 0.00 0.00 0.00 0.00 0.00 0.00 0.00 0.00 0.00 0.00 0.00 0.00 0.00 0.00 0.00
0.00 0.00 0.00 0.00 0.00 0.03 0.12 0.19 0.26 0.14 0.07 0.04 0.02 0.00 0.00 0.00 0.01 0.00 0.00 0.00 0.00 0.00 0.00 0.00 0.00 0.00 0.00 0.00 0.00 0.00 0.00 0.00 0.00 0.00 0.00 0.00 0.00 0.00 0.00 0.00 0.00 0.00 0.00
0.00 0.00 0.00 0.00 0.00 0.02 0.07 0.06 0.15 0.12 0.09 0.07 0.07 0.03 0.01 0.02 0.01 0.02 0.00 0.00 0.00 0.00 0.00 0.00 0.00 0.00 0.00 0.00 0.00 0.00 0.00 0.00 0.00 0.00 0.00 0.00 0.00 0.00 0.00 0.00 0.00 0.00 0.00
0.00 0.00 0.00 0.00 0.00 0.02 0.03 0.08 0.12 0.16 0.12 0.12 0.12 0.06 0.03 0.03 0.04 0.01 0.00 0.00 0.00 0.00 0.00 0.00 0.00 0.00 0.00 0.00 0.00 0.00 0.00 0.00 0.00 0.00 0.00 0.00 0.00 0.00 0.00 0.00 0.00 0.00 0.00
0.00 0.00 0.00 0.00 0.00 0.01 0.04 0.10 0.10 0.16 0.15 0.11 0.08 0.04 0.13 0.13 0.08 0.04 0.02 0.00 0.00 0.00 0.00 0.00 0.00 0.00 0.00 0.00 0.00 0.00 0.00 0.00 0.00 0.00 0.00 0.00 0.00 0.00 0.00 0.00 0.00 0.00 0.00
0.00 0.00 0.00 0.00 0.00 0.00 0.01 0.05 0.06 0.03 0.05 0.07 0.10 0.20 0.28 0.19 0.12 0.07 0.07 0.04 0.01 0.00 0.00 0.00 0.00 0.00 0.00 0.00 0.00 0.00 0.00 0.00 0.00 0.00 0.00 0.00 0.00 0.00 0.00 0.00 0.00 0.00 0.00
0.00 0.00 0.00 0.00 0.00 0.00 0.00 0.01 0.05 0.03 0.02 0.03 0.08 0.12 0.11 0.09 0.07 0.07 0.07 0.06 0.03 0.01 0.01 0.00 0.00 0.00 0.00 0.00 0.00 0.00 0.00 0.00 0.00 0.00 0.00 0.00 0.00 0.00 0.00 0.00 0.00 0.00 0.00
0.00 0.00 0.00 0.00 0.00 0.00 0.00 0.01 0.02 0.02 0.02 0.05 0.06 0.08 0.08 0.06 0.05 0.06 0.05 0.04 0.04 0.03 0.03 0.01 0.00 0.00 0.00 0.00 0.00 0.00 0.00 0.00 0.00 0.00 0.00 0.00 0.00 0.00 0.00 0.00 0.00 0.00 0.00

GFSSE_prec_precacc_036.txt.gz
Total_Precipitation_Accumulation
0.00 0.01 0.05 0.05 0.06 0.04 0.03 0.02 0.01 0.01 0.01 0.01 0.01 0.01 0.03 0.05 0.02 0.01 0.00 0.00 0.00 0.00 0.00 0.01 0.04 0.10 0.26 0.34 0.30 0.03 0.00 0.00 0.00 0.00 0.00 0.00 0.00 0.00 0.00 0.01 0.00 0.00 0.01
0.00 0.00 0.03 0.05 0.06 0.03 0.03 0.02 0.01 0.01 0.01 0.01 0.01 0.02 0.05 0.08 0.05 0.03 0.00 0.00 0.00 0.00 0.03 0.05 0.08 0.19 0.24 0.12 0.06 0.01 0.00 0.00 0.00 0.00 0.00 0.00 0.00 0.00 0.00 0.01 0.01 0.00 0.02
0.00 0.00 0.01 0.04 0.05 0.03 0.02 0.01 0.01 0.01 0.01 0.00 0.01 0.06 0.09 0.06 0.03 0.01 0.00 0.00 0.00 0.01 0.02 0.03 0.05 0.05 0.01 0.00 0.00 0.00 0.00 0.00 0.00 0.00 0.00 0.00 0.00 0.00 0.00 0.00 0.01 0.00 0.00
0.00 0.00 0.00 0.03 0.03 0.02 0.01 0.00 0.00 0.01 0.01 0.00 0.03 0.06 0.02 0.02 0.01 0.00 0.00 0.00 0.00 0.01 0.00 0.00 0.00 0.00 0.00 0.00 0.00 0.00 0.00 0.00 0.00 0.00 0.00 0.00 0.00 0.00 0.00 0.00 0.01 0.01 0.02
0.00 0.00 0.00 0.02 0.02 0.02 0.00 0.00 0.00 0.00 0.01 0.01 0.02 0.02 0.01 0.02 0.02 0.02 0.00 0.00 0.00 0.00 0.00 0.00 0.00 0.00 0.00 0.00 0.00 0.00 0.01 0.00 0.00 0.00 0.00 0.00 0.00 0.00 0.00 0.01 0.03 0.03 0.02
0.00 0.00 0.00 0.02 0.03 0.01 0.00 0.00 0.00 0.00 0.00 0.00 0.02 0.00 0.00 0.03 0.04 0.06 0.03 0.00 0.00 0.00 0.00 0.00 0.00 0.00 0.00 0.00 0.00 0.00 0.01 0.01 0.00 0.00 0.00 0.00 0.01 0.04 0.01 0.02 0.05 0.08 0.07
0.00 0.00 0.00 0.03 0.03 0.01 0.00 0.00 0.00 0.00 0.00 0.01 0.01 0.00 0.00 0.03 0.04 0.09 0.05 0.01 0.00 0.00 0.00 0.00 0.00 0.00 0.00 0.00 0.00 0.00 0.00 0.01 0.00 0.00 0.00 0.00 0.02 0.02 0.00 0.02 0.03 0.05 0.08
0.00 0.00 0.00 0.02 0.03 0.01 0.00 0.00 0.00 0.00 0.02 0.01 0.00 0.00 0.00 0.01 0.00 0.07 0.07 0.01 0.00 0.00 0.00 0.00 0.00 0.00 0.00 0.00 0.00 0.00 0.00 0.00 0.00 0.00 0.00 0.00 0.00 0.00 0.00 0.03 0.04 0.04 0.05
0.00 0.00 0.00 0.01 0.03 0.02 0.01 0.00 0.00 0.01 0.02 0.01 0.00 0.00 0.00 0.00 0.00 0.04 0.04 0.00 0.00 0.00 0.00 0.00 0.00 0.00 0.00 0.00 0.00 0.00 0.00 0.00 0.00 0.00 0.00 0.00 0.00 0.00 0.01 0.06 0.07 0.08 0.10
0.00 0.00 0.00 0.00 0.01 0.02 0.02 0.00 0.00 0.01 0.02 0.00 0.00 0.00 0.00 0.00 0.00 0.01 0.00 0.00 0.00 0.00 0.00 0.00 0.02 0.02 0.01 0.01 0.01 0.01 0.00 0.00 0.00 0.00 0.00 0.00 0.00 0.02 0.05 0.09 0.08 0.09 0.11
0.00 0.00 0.00 0.00 0.00 0.01 0.02 0.01 0.00 0.00 0.02 0.00 0.00 0.00 0.00 0.00 0.00 0.00 0.00 0.00 0.00 0.00 0.01 0.01 0.01 0.02 0.01 0.00 0.00 0.00 0.00 0.00 0.00 0.00 0.00 0.00 0.01 0.03 0.05 0.05 0.05 0.08 0.08
0.00 0.01 0.00 0.00 0.01 0.01 0.01 0.01 0.00 0.00 0.00 0.00 0.00 0.00 0.00 0.00 0.00 0.00 0.00 0.00 0.00 0.00 0.00 0.00 0.01 0.01 0.00 0.00 0.00 0.00 0.00 0.00 0.00 0.00 0.00 0.00 0.01 0.02 0.02 0.04 0.05 0.04 0.04
0.01 0.00 0.00 0.00 0.00 0.00 0.00 0.01 0.00 0.00 0.00 0.00 0.00 0.00 0.00 0.00 0.00 0.00 0.00 0.00 0.00 0.00 0.00 0.00 0.00 0.00 0.00 0.00 0.00 0.00 0.00 0.00 0.00 0.00 0.00 0.00 0.00 0.00 0.01 0.02 0.03 0.02 0.02
0.00 0.01 0.01 0.00 0.00 0.00 0.00 0.00 0.00 0.00 0.00 0.00 0.00 0.00 0.00 0.00 0.00 0.00 0.00 0.00 0.00 0.00 0.00 0.00 0.00 0.00 0.00 0.00 0.00 0.00 0.00 0.00 0.00 0.00 0.00 0.00 0.00 0.00 0.00 0.01 0.02 0.01 0.01
0.00 0.00 0.01 0.01 0.00 0.00 0.00 0.00 0.00 0.00 0.00 0.00 0.00 0.00 0.00 0.00 0.00 0.00 0.00 0.00 0.00 0.00 0.00 0.00 0.00 0.00 0.00 0.00 0.00 0.00 0.00 0.00 0.00 0.00 0.00 0.00 0.00 0.00 0.00 0.00 0.01 0.01 0.02
0.00 0.00 0.01 0.01 0.01 0.00 0.00 0.00 0.01 0.01 0.00 0.00 0.00 0.00 0.00 0.00 0.00 0.00 0.00 0.00 0.00 0.00 0.00 0.00 0.00 0.00 0.00 0.00 0.00 0.00 0.00 0.00 0.00 0.00 0.00 0.00 0.00 0.00 0.00 0.00 0.01 0.02 0.03
0.00 0.01 0.01 0.02 0.06 0.01 0.00 0.00 0.02 0.04 0.03 0.01 0.00 0.00 0.00 0.00 0.00 0.00 0.00 0.00 0.00 0.00 0.00 0.00 0.00 0.00 0.00 0.00 0.00 0.00 0.00 0.00 0.00 0.00 0.00 0.00 0.00 0.00 0.00 0.01 0.02 0.03 0.04
0.00 0.00 0.00 0.05 0.07 0.03 0.01 0.07 0.12 0.17 0.06 0.03 0.01 0.02 0.00 0.00 0.00 0.00 0.00 0.00 0.00 0.00 0.00 0.00 0.00 0.00 0.00 0.00 0.00 0.00 0.00 0.00 0.00 0.00 0.00 0.00 0.00 0.00 0.00 0.00 0.00 0.01 0.01
0.00 0.00 0.00 0.01 0.02 0.02 0.05 0.15 0.24 0.19 0.13 0.07 0.04 0.01 0.00 0.00 0.00 0.00 0.00 0.00 0.00 0.00 0.00 0.00 0.00 0.00 0.00 0.00 0.00 0.00 0.00 0.00 0.00 0.00 0.00 0.00 0.00 0.00 0.00 0.00 0.00 0.00 0.00
0.00 0.00 0.00 0.00 0.00 0.03 0.12 0.22 0.31 0.15 0.09 0.05 0.05 0.00 0.00 0.00 0.01 0.01 0.02 0.00 0.00 0.00 0.00 0.00 0.00 0.00 0.00 0.00 0.00 0.00 0.00 0.00 0.00 0.00 0.00 0.00 0.00 0.00 0.00 0.00 0.00 0.00 0.00
0.00 0.00 0.00 0.00 0.00 0.02 0.08 0.07 0.17 0.12 0.09 0.09 0.12 0.07 0.03 0.03 0.05 0.05 0.07 0.01 0.00 0.00 0.00 0.00 0.00 0.00 0.00 0.00 0.00 0.00 0.00 0.00 0.00 0.00 0.00 0.00 0.00 0.00 0.00 0.00 0.00 0.00 0.00
0.00 0.00 0.00 0.00 0.00 0.02 0.03 0.08 0.12 0.16 0.12 0.13 0.16 0.08 0.04 0.08 0.10 0.02 0.08 0.03 0.00 0.00 0.00 0.00 0.00 0.00 0.00 0.00 0.00 0.00 0.00 0.00 0.00 0.00 0.00 0.00 0.00 0.00 0.00 0.00 0.00 0.00 0.00
0.00 0.00 0.00 0.00 0.00 0.01 0.04 0.10 0.10 0.16 0.15 0.11 0.08 0.04 0.14 0.17 0.16 0.07 0.07 0.07 0.03 0.01 0.00 0.00 0.00 0.00 0.00 0.00 0.00 0.00 0.00 0.00 0.00 0.00 0.00 0.00 0.00 0.00 0.00 0.00 0.00 0.00 0.00
0.00 0.00 0.00 0.00 0.00 0.00 0.01 0.05 0.06 0.03 0.05 0.07 0.11 0.20 0.31 0.25 0.19 0.16 0.16 0.12 0.09 0.05 0.01 0.01 0.00 0.00 0.00 0.00 0.00 0.00 0.00 0.00 0.00 0.00 0.00 0.00 0.00 0.00 0.00 0.00 0.00 0.00 0.00
0.00 0.00 0.00 0.00 0.00 0.00 0.00 0.01 0.05 0.03 0.02 0.03 0.08 0.12 0.12 0.14 0.13 0.12 0.12 0.12 0.07 0.06 0.05 0.02 0.01 0.00 0.00 0.00 0.00 0.00 0.00 0.00 0.00 0.00 0.00 0.00 0.00 0.00 0.00 0.00 0.00 0.00 0.00
0.00 0.00 0.00 0.00 0.00 0.00 0.00 0.01 0.02 0.02 0.03 0.05 0.08 0.09 0.09 0.09 0.08 0.07 0.06 0.06 0.07 0.06 0.07 0.05 0.03 0.01 0.00 0.00 0.00 0.00 0.00 0.00 0.00 0.00 0.00 0.00 0.00 0.00 0.00 0.00 0.00 0.00 0.00

GFSSE_prec_precacc_039.txt.gz
Total_Precipitation_Accumulation
0.00 0.01 0.06 0.05 0.08 0.05 0.04 0.03 0.02 0.02 0.03 0.03 0.02 0.01 0.03 0.05 0.02 0.01 0.00 0.00 0.00 0.00 0.00 0.01 0.05 0.12 0.27 0.34 0.30 0.03 0.00 0.00 0.00 0.00 0.00 0.00 0.00 0.00 0.00 0.01 0.00 0.00 0.01
0.00 0.00 0.03 0.05 0.07 0.04 0.05 0.03 0.02 0.01 0.02 0.01 0.01 0.02 0.05 0.08 0.05 0.03 0.00 0.00 0.00 0.02 0.04 0.05 0.14 0.25 0.26 0.12 0.06 0.01 0.00 0.00 0.00 0.00 0.00 0.00 0.00 0.00 0.00 0.01 0.01 0.00 0.02
0.00 0.00 0.01 0.05 0.06 0.04 0.03 0.01 0.01 0.01 0.01 0.00 0.01 0.07 0.09 0.06 0.03 0.01 0.00 0.00 0.00 0.04 0.05 0.07 0.13 0.10 0.02 0.00 0.00 0.00 0.00 0.00 0.00 0.00 0.00 0.00 0.00 0.00 0.00 0.00 0.01 0.01 0.00
0.00 0.00 0.00 0.04 0.04 0.03 0.02 0.00 0.01 0.01 0.01 0.00 0.03 0.06 0.02 0.02 0.01 0.00 0.00 0.00 0.00 0.01 0.00 0.00 0.00 0.00 0.00 0.00 0.00 0.00 0.00 0.00 0.00 0.00 0.00 0.00 0.00 0.00 0.00 0.00 0.01 0.01 0.02
0.00 0.00 0.00 0.03 0.03 0.03 0.00 0.00 0.00 0.01 0.01 0.01 0.02 0.02 0.01 0.02 0.02 0.02 0.00 0.00 0.00 0.00 0.00 0.00 0.00 0.00 0.00 0.00 0.00 0.00 0.01 0.00 0.00 0.00 0.00 0.00 0.00 0.01 0.01 0.04 0.04 0.04 0.02
0.00 0.00 0.01 0.02 0.03 0.01 0.00 0.00 0.00 0.00 0.01 0.01 0.02 0.00 0.00 0.03 0.04 0.06 0.03 0.00 0.00 0.00 0.00 0.00 0.00 0.00 0.00 0.00 0.00 0.00 0.01 0.01 0.00 0.00 0.00 0.00 0.01 0.05 0.01 0.02 0.06 0.11 0.10
0.00 0.00 0.00 0.03 0.03 0.01 0.00 0.00 0.00 0.00 0.00 0.01 0.02 0.00 0.00 0.03 0.04 0.09 0.05 0.01 0.00 0.00 0.00 0.00 0.00 0.00 0.00 0.00 0.00 0.00 0.00 0.01 0.00 0.00 0.00 0.00 0.02 0.02 0.00 0.02 0.04 0.06 0.09
0.00 0.00 0.00 0.02 0.03 0.01 0.00 0.00 0.00 0.00 0.02 0.02 0.02 0.00 0.00 0.01 0.00 0.07 0.07 0.01 0.00 0.00 0.00 0.00 0.00 0.00 0.00 0.00 0.00 0.00 0.00 0.00 0.00 0.00 0.00 0.00 0.00 0.00 0.00 0.03 0.04 0.04 0.05
0.00 0.00 0.00 0.01 0.03 0.02 0.01 0.00 0.00 0.01 0.03 0.02 0.01 0.00 0.00 0.00 0.00 0.04 0.04 0.00 0.00 0.00 0.00 0.00 0.01 0.01 0.00 0.00 0.00 0.00 0.00 0.00 0.00 0.00 0.00 0.00 0.00 0.00 0.02 0.06 0.07 0.08 0.10
0.00 0.00 0.00 0.00 0.01 0.02 0.02 0.00 0.00 0.01 0.03 0.01 0.00 0.00 0.00 0.00 0.00 0.01 0.00 0.00 0.00 0.00 0.00 0.01 0.02 0.02 0.01 0.01 0.01 0.01 0.00 0.00 0.00 0.00 0.00 0.00 0.00 0.03 0.07 0.09 0.08 0.09 0.11
0.00 0.00 0.00 0.00 0.00 0.01 0.02 0.01 0.00 0.00 0.02 0.00 0.00 0.00 0.00 0.00 0.00 0.01 0.00 0.00 0.00 0.00 0.01 0.02 0.01 0.02 0.01 0.00 0.00 0.00 0.00 0.00 0.00 0.00 0.00 0.00 0.01 0.04 0.05 0.05 0.05 0.08 0.08
0.00 0.01 0.01 0.00 0.01 0.01 0.01 0.01 0.00 0.00 0.00 0.00 0.00 0.00 0.00 0.00 0.00 0.00 0.00 0.00 0.00 0.01 0.01 0.00 0.01 0.01 0.00 0.00 0.00 0.00 0.00 0.00 0.00 0.00 0.00 0.01 0.02 0.02 0.02 0.04 0.05 0.04 0.04
0.01 0.00 0.00 0.00 0.00 0.00 0.00 0.01 0.00 0.00 0.00 0.00 0.00 0.00 0.00 0.00 0.00 0.00 0.00 0.00 0.00 0.00 0.00 0.00 0.00 0.00 0.00 0.00 0.00 0.00 0.00 0.00 0.00 0.00 0.00 0.00 0.00 0.00 0.01 0.02 0.03 0.02 0.02
0.01 0.01 0.01 0.00 0.00 0.00 0.00 0.00 0.00 0.00 0.00 0.00 0.00 0.00 0.00 0.00 0.00 0.00 0.00 0.00 0.00 0.00 0.00 0.00 0.00 0.00 0.00 0.00 0.00 0.00 0.00 0.00 0.00 0.00 0.00 0.00 0.00 0.00 0.00 0.01 0.02 0.01 0.01
0.00 0.00 0.01 0.01 0.03 0.01 0.01 0.02 0.01 0.00 0.00 0.00 0.00 0.00 0.00 0.00 0.00 0.00 0.00 0.00 0.00 0.00 0.00 0.00 0.00 0.00 0.00 0.00 0.00 0.00 0.00 0.00 0.00 0.00 0.00 0.00 0.00 0.00 0.00 0.00 0.01 0.01 0.02
0.00 0.00 0.02 0.01 0.04 0.01 0.00 0.02 0.03 0.01 0.00 0.00 0.00 0.00 0.00 0.00 0.00 0.00 0.00 0.00 0.00 0.00 0.00 0.00 0.00 0.00 0.00 0.00 0.00 0.00 0.00 0.00 0.00 0.00 0.00 0.00 0.00 0.00 0.00 0.00 0.01 0.02 0.03
0.00 0.01 0.01 0.03 0.07 0.01 0.00 0.01 0.02 0.05 0.03 0.01 0.00 0.00 0.00 0.00 0.00 0.00 0.00 0.00 0.00 0.00 0.00 0.00 0.00 0.00 0.00 0.00 0.00 0.00 0.00 0.00 0.00 0.00 0.00 0.00 0.00 0.00 0.00 0.01 0.02 0.03 0.04
0.00 0.00 0.00 0.06 0.07 0.03 0.01 0.08 0.12 0.17 0.06 0.04 0.01 0.02 0.00 0.00 0.00 0.00 0.00 0.00 0.00 0.00 0.00 0.00 0.00 0.00 0.00 0.00 0.00 0.00 0.00 0.00 0.00 0.00 0.00 0.00 0.00 0.00 0.00 0.00 0.00 0.01 0.01
0.00 0.00 0.00 0.01 0.02 0.02 0.05 0.16 0.29 0.24 0.17 0.08 0.04 0.01 0.01 0.01 0.00 0.00 0.00 0.00 0.00 0.00 0.00 0.00 0.00 0.00 0.00 0.00 0.00 0.00 0.00 0.00 0.00 0.00 0.00 0.00 0.00 0.00 0.00 0.00 0.00 0.00 0.00
0.00 0.00 0.00 0.00 0.00 0.03 0.12 0.23 0.34 0.16 0.09 0.05 0.06 0.03 0.04 0.02 0.02 0.01 0.02 0.00 0.00 0.00 0.00 0.00 0.00 0.00 0.00 0.00 0.00 0.00 0.00 0.00 0.00 0.00 0.00 0.00 0.00 0.00 0.00 0.00 0.00 0.00 0.00
0.00 0.00 0.00 0.00 0.00 0.02 0.08 0.07 0.18 0.13 0.10 0.10 0.13 0.12 0.05 0.08 0.10 0.07 0.08 0.01 0.00 0.00 0.00 0.00 0.00 0.00 0.00 0.00 0.00 0.00 0.00 0.00 0.00 0.00 0.00 0.00 0.00 0.00 0.00 0.00 0.00 0.00 0.00
0.00 0.00 0.00 0.00 0.00 0.02 0.03 0.08 0.12 0.17 0.12 0.13 0.18 0.09 0.05 0.11 0.15 0.05 0.12 0.08 0.01 0.00 0.00 0.00 0.00 0.00 0.00 0.00 0.00 0.00 0.00 0.00 0.00 0.00 0.00 0.00 0.00 0.00 0.00 0.00 0.00 0.00 0.00
0.00 0.00 0.00 0.00 0.00 0.01 0.04 0.10 0.10 0.16 0.15 0.11 0.08 0.04 0.14 0.18 0.20 0.10 0.12 0.19 0.07 0.01 0.00 0.00 0.00 0.00 0.00 0.00 0.00 0.00 0.00 0.00 0.00 0.00 0.00 0.00 0.00 0.00 0.00 0.00 0.00 0.00 0.00
0.00 0.00 0.00 0.00 0.00 0.00 0.01 0.05 0.06 0.03 0.05 0.07 0.11 0.21 0.32 0.26 0.24 0.22 0.19 0.21 0.20 0.10 0.03 0.05 0.01 0.00 0.00 0.00 0.00 0.00 0.00 0.00 0.00 0.00 0.00 0.00 0.00 0.00 0.00 0.00 0.00 0.00 0.00
0.00 0.00 0.00 0.00 0.00 0.00 0.00 0.01 0.05 0.03 0.02 0.03 0.08 0.12 0.12 0.16 0.16 0.16 0.15 0.17 0.13 0.13 0.13 0.09 0.05 0.03 0.01 0.00 0.00 0.00 0.00 0.00 0.00 0.00 0.00 0.00 0.00 0.00 0.00 0.00 0.00 0.00 0.00
0.00 0.00 0.00 0.00 0.00 0.00 0.00 0.01 0.02 0.02 0.03 0.05 0.08 0.11 0.10 0.10 0.10 0.10 0.09 0.08 0.12 0.11 0.12 0.11 0.08 0.05 0.02 0.01 0.00 0.00 0.00 0.00 0.00 0.00 0.00 0.00 0.00 0.00 0.00 0.00 0.00 0.00 0.00

GFSSE_prec_precacc_042.txt.gz
Total_Precipitation_Accumulation
0.00 0.01 0.06 0.06 0.09 0.05 0.04 0.03 0.02 0.03 0.04 0.04 0.02 0.01 0.03 0.05 0.02 0.01 0.00 0.00 0.00 0.00 0.00 0.02 0.08 0.12 0.27 0.34 0.30 0.03 0.00 0.00 0.00 0.00 0.00 0.00 0.00 0.00 0.00 0.01 0.00 0.00 0.01
0.00 0.00 0.03 0.06 0.08 0.04 0.06 0.04 0.02 0.02 0.03 0.03 0.01 0.02 0.05 0.08 0.05 0.03 0.00 0.00 0.00 0.02 0.04 0.08 0.19 0.28 0.27 0.12 0.06 0.01 0.00 0.00 0.00 0.00 0.00 0.00 0.00 0.00 0.00 0.01 0.01 0.00 0.02
0.00 0.00 0.01 0.06 0.06 0.04 0.04 0.02 0.01 0.01 0.01 0.01 0.01 0.07 0.09 0.06 0.03 0.01 0.00 0.00 0.02 0.05 0.06 0.13 0.19 0.11 0.02 0.00 0.00 0.00 0.00 0.00 0.00 0.00 0.00 0.00 0.00 0.00 0.00 0.00 0.01 0.01 0.00
0.00 0.00 0.00 0.04 0.04 0.03 0.02 0.01 0.01 0.01 0.01 0.00 0.03 0.06 0.02 0.02 0.01 0.00 0.00 0.00 0.01 0.02 0.01 0.01 0.01 0.00 0.00 0.00 0.00 0.00 0.00 0.00 0.00 0.00 0.00 0.00 0.00 0.00 0.00 0.00 0.01 0.01 0.02
0.00 0.00 0.00 0.03 0.03 0.03 0.01 0.00 0.01 0.01 0.01 0.02 0.02 0.02 0.01 0.02 0.02 0.02 0.00 0.00 0.00 0.00 0.00 0.00 0.00 0.00 0.00 0.00 0.00 0.00 0.01 0.00 0.00 0.00 0.00 0.00 0.00 0.02 0.03 0.06 0.06 0.05 0.03
0.00 0.00 0.01 0.03 0.04 0.02 0.00 0.00 0.01 0.01 0.01 0.01 0.02 0.00 0.00 0.03 0.04 0.06 0.03 0.00 0.00 0.00 0.00 0.00 0.00 0.00 0.00 0.00 0.00 0.00 0.01 0.01 0.00 0.00 0.00 0.00 0.01 0.06 0.01 0.03 0.08 0.15 0.13
0.00 0.00 0.00 0.04 0.04 0.01 0.00 0.00 0.00 0.01 0.01 0.01 0.02 0.00 0.00 0.03 0.04 0.09 0.05 0.01 0.00 0.00 0.00 0.00 0.00 0.00 0.00 0.00 0.00 0.00 0.00 0.01 0.00 0.00 0.00 0.00 0.02 0.02 0.01 0.03 0.04 0.06 0.10
0.00 0.00 0.00 0.03 0.04 0.01 0.00 0.00 0.00 0.01 0.02 0.02 0.02 0.00 0.00 0.01 0.00 0.07 0.07 0.01 0.00 0.00 0.00 0.00 0.00 0.00 0.00 0.00 0.00 0.00 0.00 0.00 0.00 0.00 0.00 0.00 0.00 0.00 0.01 0.03 0.04 0.04 0.06
0.00 0.00 0.00 0.01 0.03 0.02 0.01 0.00 0.00 0.01 0.03 0.03 0.02 0.00 0.00 0.00 0.00 0.04 0.04 0.00 0.00 0.00 0.01 0.00 0.01 0.01 0.00 0.00 0.00 0.00 0.00 0.00 0.00 0.00 0.00 0.00 0.00 0.02 0.04 0.07 0.07 0.08 0.10
0.00 0.00 0.00 0.00 0.01 0.02 0.02 0.00 0.00 0.01 0.03 0.02 0.01 0.00 0.00 0.00 0.00 0.01 0.00 0.00 0.00 0.01 0.01 0.02 0.02 0.02 0.01 0.01 0.01 0.01 0.00 0.00 0.00 0.00 0.00 0.00 0.02 0.05 0.08 0.09 0.08 0.09 0.11
0.00 0.01 0.00 0.00 0.00 0.01 0.02 0.01 0.00 0.00 0.02 0.01 0.00 0.00 0.00 0.00 0.00 0.01 0.00 0.00 0.00 0.00 0.01 0.02 0.02 0.02 0.01 0.00 0.00 0.00 0.00 0.00 0.00 0.00 0.00 0.01 0.02 0.04 0.05 0.05 0.05 0.08 0.08
0.00 0.01 0.01 0.00 0.01 0.01 0.01 0.01 0.00 0.00 0.00 0.00 0.00 0.00 0.00 0.00 0.00 0.00 0.00 0.00 0.00 0.01 0.02 0.01 0.01 0.01 0.00 0.00 0.00 0.00 0.00 0.00 0.00 0.00 0.00 0.01 0.02 0.02 0.02 0.04 0.05 0.04 0.04
0.01 0.00 0.00 0.00 0.00 0.00 0.00 0.01 0.00 0.00 0.00 0.00 0.00 0.00 0.00 0.00 0.00 0.00 0.00 0.00 0.00 0.00 0.00 0.00 0.00 0.00 0.00 0.00 0.00 0.00 0.00 0.00 0.00 0.00 0.00 0.01 0.00 0.00 0.01 0.02 0.03 0.02 0.02
0.01 0.01 0.01 0.00 0.00 0.00 0.00 0.00 0.00 0.00 0.00 0.00 0.00 0.00 0.00 0.00 0.00 0.00 0.00 0.00 0.00 0.00 0.00 0.00 0.00 0.00 0.00 0.00 0.00 0.00 0.00 0.00 0.00 0.00 0.00 0.00 0.00 0.00 0.00 0.01 0.02 0.01 0.01
0.00 0.00 0.02 0.02 0.03 0.01 0.01 0.02 0.01 0.00 0.00 0.00 0.00 0.00 0.00 0.00 0.00 0.00 0.00 0.00 0.00 0.00 0.00 0.00 0.00 0.00 0.00 0.00 0.00 0.00 0.00 0.00 0.00 0.00 0.00 0.00 0.00 0.00 0.00 0.00 0.01 0.01 0.02
0.00 0.01 0.02 0.02 0.04 0.01 0.00 0.03 0.04 0.01 0.00 0.00 0.00 0.00 0.00 0.00 0.00 0.00 0.00 0.00 0.00 0.00 0.00 0.00 0.00 0.00 0.00 0.00 0.00 0.00 0.00 0.00 0.00 0.00 0.00 0.00 0.00 0.00 0.00 0.00 0.01 0.02 0.03
0.00 0.01 0.01 0.03 0.07 0.01 0.00 0.01 0.03 0.05 0.04 0.01 0.00 0.00 0.00 0.00 0.00 0.00 0.00 0.00 0.00 0.00 0.00 0.00 0.00 0.00 0.00 0.00 0.00 0.00 0.00 0.00 0.00 0.00 0.00 0.00 0.00 0.00 0.00 0.01 0.02 0.03 0.04
0.00 0.00 0.00 0.06 0.07 0.03 0.01 0.08 0.13 0.18 0.09 0.06 0.05 0.04 0.00 0.01 0.00 0.00 0.00 0.00 0.00 0.00 0.00 0.00 0.00 0.00 0.00 0.00 0.00 0.00 0.00 0.00 0.00 0.00 0.00 0.00 0.00 0.00 0.00 0.00 0.00 0.01 0.01
0.00 0.00 0.00 0.01 0.02 0.02 0.05 0.16 0.29 0.25 0.18 0.09 0.07 0.02 0.04 0.05 0.02 0.00 0.00 0.00 0.00 0.00 0.00 0.00 0.00 0.00 0.00 0.00 0.00 0.00 0.00 0.00 0.00 0.00 0.00 0.00 0.00 0.00 0.00 0.00 0.00 0.00 0.00
0.00 0.00 0.00 0.00 0.00 0.03 0.12 0.23 0.35 0.17 0.09 0.05 0.06 0.05 0.07 0.05 0.07 0.03 0.02 0.00 0.00 0.00 0.00 0.00 0.00 0.00 0.00 0.00 0.00 0.00 0.00 0.00 0.00 0.00 0.00 0.00 0.00 0.00 0.00 0.00 0.00 0.00 0.00
0.00 0.00 0.00 0.00 0.00 0.02 0.08 0.07 0.18 0.13 0.11 0.11 0.13 0.15 0.10 0.12 0.14 0.10 0.09 0.02 0.00 0.00 0.00 0.00 0.00 0.00 0.00 0.00 0.00 0.00 0.00 0.00 0.00 0.00 0.00 0.00 0.00 0.00 0.00 0.00 0.00 0.00 0.00
0.00 0.00 0.00 0.00 0.00 0.02 0.03 0.08 0.12 0.17 0.12 0.13 0.18 0.10 0.06 0.11 0.16 0.05 0.13 0.12 0.01 0.00 0.00 0.00 0.00 0.00 0.00 0.00 0.00 0.00 0.00 0.00 0.00 0.00 0.00 0.00 0.00 0.00 0.00 0.00 0.00 0.00 0.00
0.00 0.00 0.00 0.00 0.00 0.01 0.04 0.10 0.10 0.16 0.15 0.12 0.08 0.04 0.14 0.18 0.21 0.13 0.15 0.24 0.12 0.03 0.02 0.01 0.00 0.00 0.00 0.00 0.00 0.00 0.00 0.00 0.00 0.00 0.00 0.00 0.00 0.00 0.00 0.00 0.00 0.00 0.00
0.00 0.00 0.00 0.00 0.00 0.00 0.01 0.05 0.06 0.03 0.05 0.07 0.11 0.21 0.32 0.28 0.26 0.28 0.22 0.25 0.24 0.12 0.05 0.07 0.05 0.01 0.00 0.00 0.00 0.00 0.00 0.00 0.00 0.00 0.00 0.00 0.00 0.00 0.00 0.00 0.00 0.00 0.00
0.00 0.00 0.00 0.00 0.00 0.00 0.00 0.01 0.05 0.03 0.02 0.03 0.08 0.12 0.13 0.16 0.17 0.19 0.19 0.22 0.15 0.15 0.18 0.12 0.08 0.06 0.03 0.01 0.00 0.00 0.00 0.00 0.00 0.00 0.00 0.00 0.00 0.00 0.00 0.00 0.00 0.00 0.00
0.00 0.00 0.00 0.00 0.00 0.00 0.00 0.01 0.02 0.02 0.03 0.05 0.08 0.11 0.10 0.10 0.11 0.12 0.13 0.11 0.16 0.14 0.15 0.16 0.14 0.11 0.07 0.04 0.02 0.01 0.00 0.00 0.00 0.00 0.00 0.00 0.00 0.00 0.00 0.00 0.00 0.00 0.00

GFSSE_prec_precacc_045.txt.gz
Total_Precipitation_Accumulation
0.00 0.01 0.06 0.06 0.09 0.06 0.05 0.03 0.03 0.04 0.04 0.06 0.03 0.01 0.03 0.05 0.02 0.01 0.00 0.00 0.00 0.00 0.00 0.05 0.09 0.12 0.27 0.34 0.30 0.03 0.00 0.00 0.00 0.00 0.00 0.00 0.00 0.00 0.00 0.01 0.00 0.00 0.01
0.00 0.00 0.03 0.06 0.08 0.04 0.06 0.04 0.03 0.03 0.03 0.03 0.02 0.02 0.05 0.08 0.05 0.03 0.00 0.00 0.00 0.02 0.04 0.13 0.20 0.29 0.27 0.12 0.06 0.01 0.00 0.00 0.00 0.00 0.00 0.00 0.00 0.00 0.00 0.01 0.01 0.00 0.02
0.00 0.00 0.01 0.07 0.07 0.04 0.05 0.02 0.01 0.01 0.02 0.01 0.01 0.07 0.09 0.06 0.03 0.01 0.00 0.01 0.03 0.05 0.09 0.18 0.21 0.12 0.02 0.00 0.00 0.00 0.00 0.00 0.00 0.00 0.00 0.00 0.00 0.00 0.00 0.00 0.01 0.01 0.00
0.00 0.00 0.00 0.04 0.04 0.04 0.03 0.01 0.01 0.01 0.01 0.00 0.03 0.06 0.02 0.02 0.01 0.00 0.00 0.02 0.03 0.03 0.03 0.03 0.01 0.00 0.00 0.00 0.00 0.00 0.00 0.00 0.00 0.00 0.00 0.00 0.00 0.00 0.00 0.00 0.01 0.01 0.02
0.00 0.00 0.00 0.03 0.03 0.04 0.01 0.01 0.01 0.01 0.01 0.02 0.02 0.02 0.01 0.02 0.02 0.02 0.00 0.00 0.00 0.00 0.00 0.00 0.00 0.00 0.00 0.00 0.00 0.00 0.01 0.00 0.00 0.00 0.00 0.00 0.00 0.02 0.04 0.06 0.07 0.05 0.03
0.00 0.00 0.01 0.03 0.04 0.03 0.00 0.00 0.02 0.01 0.02 0.02 0.02 0.00 0.00 0.03 0.04 0.06 0.03 0.00 0.00 0.00 0.00 0.00 0.00 0.00 0.00 0.00 0.00 0.00 0.01 0.01 0.00 0.00 0.00 0.00 0.01 0.06 0.01 0.03 0.09 0.18 0.14
0.00 0.00 0.00 0.04 0.04 0.02 0.00 0.00 0.03 0.02 0.02 0.01 0.02 0.00 0.00 0.03 0.04 0.09 0.05 0.01 0.00 0.00 0.00 0.00 0.00 0.00 0.00 0.00 0.00 0.00 0.00 0.01 0.00 0.00 0.00 0.00 0.02 0.02 0.01 0.04 0.05 0.07 0.11
0.00 0.00 0.00 0.03 0.05 0.02 0.01 0.00 0.01 0.02 0.03 0.02 0.02 0.00 0.00 0.01 0.00 0.07 0.07 0.01 0.00 0.00 0.00 0.00 0.00 0.00 0.00 0.00 0.00 0.00 0.00 0.00 0.00 0.00 0.00 0.00 0.00 0.01 0.02 0.03 0.04 0.04 0.06
0.00 0.00 0.00 0.01 0.03 0.02 0.01 0.00 0.00 0.02 0.04 0.04 0.03 0.00 0.00 0.00 0.00 0.04 0.04 0.00 0.00 0.00 0.01 0.01 0.01 0.01 0.00 0.00 0.00 0.00 0.00 0.00 0.00 0.00 0.00 0.00 0.00 0.04 0.05 0.07 0.07 0.08 0.10
0.00 0.00 0.00 0.00 0.01 0.02 0.02 0.00 0.00 0.01 0.03 0.03 0.02 0.01 0.00 0.00 0.00 0.01 0.00 0.00 0.00 0.01 0.01 0.02 0.02 0.02 0.01 0.01 0.01 0.01 0.00 0.00 0.00 0.00 0.00 0.00 0.04 0.07 0.08 0.09 0.08 0.09 0.11
0.00 0.01 0.00 0.00 0.00 0.01 0.02 0.01 0.00 0.00 0.02 0.02 0.00 0.00 0.00 0.00 0.00 0.01 0.00 0.00 0.00 0.01 0.02 0.03 0.02 0.02 0.01 0.00 0.00 0.00 0.00 0.00 0.00 0.00 0.00 0.01 0.02 0.04 0.05 0.05 0.05 0.08 0.08
0.00 0.01 0.01 0.00 0.01 0.01 0.01 0.01 0.00 0.00 0.00 0.00 0.00 0.00 0.00 0.00 0.00 0.00 0.00 0.00 0.00 0.01 0.03 0.01 0.01 0.01 0.00 0.00 0.00 0.00 0.00 0.00 0.00 0.00 0.00 0.01 0.02 0.02 0.02 0.04 0.05 0.04 0.04
0.01 0.00 0.00 0.00 0.00 0.00 0.00 0.01 0.00 0.00 0.00 0.00 0.00 0.00 0.00 0.00 0.00 0.00 0.00 0.00 0.00 0.00 0.01 0.00 0.00 0.00 0.00 0.00 0.00 0.00 0.00 0.00 0.00 0.00 0.00 0.01 0.00 0.00 0.01 0.02 0.03 0.02 0.02
0.01 0.01 0.01 0.00 0.00 0.00 0.00 0.00 0.00 0.00 0.00 0.00 0.00 0.00 0.00 0.00 0.00 0.00 0.00 0.00 0.00 0.00 0.00 0.00 0.00 0.00 0.00 0.00 0.00 0.00 0.00 0.00 0.00 0.00 0.00 0.00 0.00 0.00 0.00 0.01 0.02 0.01 0.01
0.00 0.00 0.02 0.02 0.03 0.01 0.01 0.02 0.01 0.00 0.00 0.00 0.00 0.00 0.00 0.00 0.00 0.00 0.00 0.00 0.00 0.00 0.00 0.00 0.00 0.00 0.00 0.00 0.00 0.00 0.00 0.00 0.00 0.00 0.00 0.00 0.00 0.00 0.00 0.00 0.01 0.01 0.02
0.00 0.01 0.02 0.02 0.05 0.02 0.00 0.03 0.04 0.01 0.00 0.00 0.00 0.00 0.00 0.00 0.00 0.00 0.00 0.00 0.00 0.00 0.00 0.00 0.00 0.00 0.00 0.00 0.00 0.00 0.00 0.00 0.00 0.00 0.00 0.00 0.00 0.00 0.00 0.00 0.01 0.02 0.03
0.00 0.01 0.01 0.03 0.07 0.01 0.00 0.02 0.03 0.05 0.05 0.01 0.00 0.00 0.00 0.00 0.00 0.00 0.00 0.00 0.00 0.00 0.00 0.00 0.00 0.00 0.00 0.00 0.00 0.00 0.00 0.00 0.00 0.00 0.00 0.00 0.00 0.00 0.00 0.01 0.02 0.03 0.04
0.00 0.00 0.00 0.06 0.07 0.03 0.01 0.08 0.13 0.18 0.09 0.06 0.05 0.04 0.00 0.01 0.00 0.00 0.00 0.00 0.00 0.00 0.00 0.00 0.00 0.00 0.00 0.00 0.00 0.00 0.00 0.00 0.00 0.00 0.00 0.00 0.00 0.00 0.00 0.00 0.00 0.01 0.01
0.00 0.00 0.00 0.01 0.02 0.02 0.05 0.16 0.30 0.26 0.18 0.09 0.07 0.02 0.04 0.06 0.02 0.00 0.00 0.00 0.00 0.00 0.00 0.00 0.00 0.00 0.00 0.00 0.00 0.00 0.00 0.00 0.00 0.00 0.00 0.00 0.00 0.00 0.00 0.00 0.00 0.00 0.00
0.00 0.00 0.00 0.00 0.00 0.03 0.12 0.23 0.35 0.17 0.10 0.06 0.06 0.05 0.07 0.06 0.07 0.04 0.02 0.00 0.00 0.00 0.00 0.00 0.00 0.00 0.00 0.00 0.00 0.00 0.00 0.00 0.00 0.00 0.00 0.00 0.00 0.00 0.00 0.00 0.00 0.00 0.00
0.00 0.00 0.00 0.00 0.00 0.02 0.08 0.07 0.18 0.13 0.12 0.11 0.13 0.15 0.10 0.12 0.14 0.10 0.09 0.02 0.00 0.00 0.00 0.00 0.00 0.00 0.00 0.00 0.00 0.00 0.00 0.00 0.00 0.00 0.00 0.00 0.00 0.00 0.00 0.00 0.00 0.00 0.00
0.00 0.00 0.00 0.00 0.00 0.02 0.03 0.08 0.12 0.17 0.12 0.14 0.19 0.11 0.07 0.11 0.16 0.05 0.14 0.13 0.02 0.00 0.00 0.00 0.00 0.00 0.00 0.00 0.00 0.00 0.00 0.00 0.00 0.00 0.00 0.00 0.00 0.00 0.00 0.00 0.00 0.00 0.00
0.00 0.00 0.00 0.00 0.00 0.01 0.04 0.10 0.10 0.16 0.15 0.12 0.08 0.04 0.15 0.18 0.21 0.13 0.15 0.24 0.13 0.03 0.02 0.01 0.00 0.00 0.00 0.00 0.00 0.00 0.00 0.00 0.00 0.00 0.00 0.00 0.00 0.00 0.00 0.00 0.00 0.00 0.00
0.00 0.00 0.00 0.00 0.00 0.00 0.01 0.05 0.06 0.03 0.05 0.07 0.11 0.21 0.32 0.28 0.26 0.31 0.23 0.25 0.24 0.13 0.05 0.09 0.06 0.04 0.01 0.01 0.00 0.00 0.00 0.00 0.00 0.00 0.00 0.00 0.00 0.00 0.00 0.00 0.00 0.00 0.00
0.00 0.00 0.00 0.00 0.00 0.00 0.00 0.01 0.05 0.03 0.02 0.03 0.08 0.12 0.13 0.16 0.17 0.20 0.19 0.23 0.16 0.17 0.24 0.16 0.10 0.08 0.08 0.03 0.03 0.01 0.00 0.00 0.00 0.00 0.00 0.00 0.00 0.00 0.00 0.00 0.00 0.00 0.00
0.00 0.00 0.00 0.00 0.00 0.00 0.00 0.01 0.02 0.02 0.03 0.05 0.08 0.11 0.10 0.10 0.11 0.12 0.13 0.12 0.17 0.15 0.17 0.21 0.19 0.16 0.13 0.11 0.06 0.03 0.02 0.01 0.00 0.00 0.00 0.00 0.00 0.00 0.00 0.00 0.00 0.00 0.00

GFSSE_prec_precacc_048.txt.gz
Total_Precipitation_Accumulation
0.00 0.01 0.06 0.06 0.10 0.06 0.05 0.03 0.03 0.04 0.05 0.07 0.04 0.01 0.03 0.05 0.02 0.01 0.00 0.00 0.00 0.00 0.04 0.08 0.10 0.12 0.27 0.34 0.30 0.03 0.00 0.00 0.00 0.00 0.00 0.00 0.00 0.00 0.00 0.01 0.00 0.00 0.01
0.00 0.00 0.03 0.07 0.09 0.04 0.06 0.05 0.04 0.03 0.05 0.05 0.03 0.03 0.05 0.08 0.05 0.03 0.00 0.00 0.00 0.02 0.05 0.14 0.20 0.29 0.27 0.12 0.06 0.01 0.00 0.00 0.00 0.00 0.00 0.00 0.00 0.00 0.00 0.01 0.01 0.00 0.02
0.00 0.00 0.01 0.07 0.07 0.04 0.05 0.03 0.02 0.02 0.02 0.01 0.02 0.07 0.09 0.06 0.03 0.01 0.00 0.02 0.03 0.06 0.12 0.21 0.21 0.12 0.02 0.00 0.00 0.00 0.00 0.00 0.00 0.00 0.00 0.00 0.00 0.00 0.00 0.00 0.01 0.01 0.00
0.00 0.00 0.00 0.04 0.04 0.04 0.03 0.01 0.01 0.02 0.02 0.01 0.03 0.06 0.02 0.02 0.01 0.00 0.01 0.03 0.04 0.04 0.05 0.03 0.01 0.00 0.00 0.00 0.00 0.00 0.00 0.00 0.00 0.00 0.00 0.00 0.00 0.01 0.01 0.00 0.01 0.01 0.02
0.00 0.00 0.00 0.03 0.03 0.05 0.01 0.01 0.01 0.02 0.01 0.02 0.02 0.02 0.01 0.02 0.02 0.02 0.01 0.01 0.00 0.00 0.00 0.00 0.00 0.00 0.00 0.00 0.00 0.00 0.01 0.00 0.00 0.00 0.00 0.00 0.00 0.03 0.05 0.07 0.07 0.05 0.03
0.00 0.00 0.01 0.03 0.05 0.04 0.01 0.00 0.02 0.02 0.03 0.02 0.02 0.00 0.00 0.03 0.04 0.07 0.03 0.00 0.00 0.00 0.00 0.00 0.00 0.00 0.00 0.00 0.00 0.00 0.01 0.01 0.00 0.00 0.00 0.00 0.01 0.06 0.02 0.04 0.10 0.19 0.16
0.00 0.00 0.00 0.04 0.05 0.03 0.01 0.00 0.03 0.04 0.03 0.01 0.02 0.00 0.00 0.03 0.04 0.09 0.05 0.01 0.00 0.00 0.00 0.00 0.00 0.00 0.00 0.00 0.00 0.00 0.00 0.01 0.00 0.00 0.00 0.00 0.02 0.02 0.01 0.04 0.05 0.07 0.11
0.00 0.00 0.00 0.03 0.06 0.03 0.02 0.01 0.02 0.03 0.04 0.02 0.02 0.00 0.00 0.01 0.00 0.07 0.07 0.01 0.00 0.00 0.00 0.00 0.00 0.00 0.00 0.00 0.00 0.00 0.00 0.00 0.00 0.00 0.00 0.00 0.00 0.02 0.02 0.03 0.04 0.04 0.06
0.00 0.00 0.00 0.01 0.04 0.03 0.02 0.00 0.01 0.02 0.04 0.04 0.03 0.00 0.00 0.00 0.00 0.04 0.04 0.00 0.00 0.00 0.01 0.01 0.01 0.01 0.00 0.00 0.00 0.00 0.00 0.00 0.00 0.00 0.00 0.00 0.01 0.05 0.05 0.07 0.07 0.08 0.10
0.00 0.00 0.00 0.00 0.01 0.02 0.02 0.00 0.00 0.01 0.03 0.03 0.02 0.01 0.00 0.00 0.00 0.01 0.00 0.00 0.00 0.01 0.01 0.02 0.02 0.02 0.01 0.01 0.01 0.01 0.00 0.00 0.00 0.00 0.00 0.00 0.04 0.07 0.08 0.09 0.08 0.09 0.11
0.00 0.01 0.00 0.00 0.00 0.01 0.02 0.01 0.00 0.00 0.02 0.02 0.01 0.00 0.00 0.00 0.00 0.01 0.00 0.00 0.00 0.01 0.02 0.03 0.02 0.02 0.01 0.00 0.00 0.00 0.00 0.00 0.00 0.00 0.00 0.01 0.02 0.04 0.05 0.05 0.05 0.08 0.08
0.00 0.01 0.01 0.00 0.01 0.01 0.01 0.01 0.00 0.00 0.00 0.01 0.00 0.00 0.00 0.00 0.00 0.00 0.00 0.00 0.00 0.01 0.03 0.01 0.01 0.01 0.00 0.00 0.00 0.00 0.00 0.00 0.00 0.00 0.00 0.01 0.02 0.02 0.02 0.04 0.05 0.04 0.04
0.01 0.00 0.00 0.00 0.00 0.00 0.00 0.01 0.00 0.00 0.00 0.00 0.00 0.00 0.00 0.00 0.00 0.00 0.00 0.00 0.00 0.00 0.01 0.00 0.00 0.00 0.00 0.00 0.00 0.00 0.00 0.00 0.00 0.00 0.00 0.01 0.00 0.00 0.01 0.02 0.03 0.02 0.02
0.01 0.01 0.01 0.00 0.00 0.00 0.00 0.00 0.00 0.00 0.00 0.00 0.00 0.00 0.00 0.00 0.00 0.00 0.00 0.00 0.00 0.00 0.00 0.00 0.00 0.00 0.00 0.00 0.00 0.00 0.00 0.00 0.00 0.00 0.00 0.00 0.00 0.00 0.00 0.01 0.02 0.01 0.01
0.00 0.00 0.02 0.02 0.03 0.01 0.01 0.02 0.01 0.00 0.00 0.00 0.00 0.00 0.00 0.00 0.00 0.00 0.00 0.00 0.00 0.00 0.00 0.00 0.00 0.00 0.00 0.00 0.00 0.00 0.00 0.00 0.00 0.00 0.00 0.00 0.00 0.00 0.00 0.00 0.01 0.01 0.02
0.00 0.01 0.02 0.02 0.05 0.02 0.00 0.03 0.04 0.01 0.00 0.00 0.00 0.00 0.00 0.00 0.00 0.00 0.00 0.00 0.00 0.00 0.00 0.00 0.00 0.00 0.00 0.00 0.00 0.00 0.00 0.00 0.00 0.00 0.00 0.00 0.00 0.00 0.00 0.00 0.01 0.02 0.03
0.00 0.01 0.01 0.03 0.07 0.01 0.00 0.02 0.03 0.05 0.05 0.02 0.00 0.00 0.00 0.00 0.00 0.00 0.00 0.00 0.00 0.00 0.00 0.00 0.00 0.00 0.00 0.00 0.00 0.00 0.00 0.00 0.00 0.00 0.00 0.00 0.00 0.00 0.00 0.01 0.02 0.03 0.04
0.00 0.00 0.00 0.06 0.08 0.03 0.01 0.08 0.13 0.18 0.09 0.06 0.05 0.04 0.00 0.01 0.00 0.00 0.00 0.00 0.00 0.00 0.00 0.00 0.00 0.00 0.00 0.00 0.00 0.00 0.00 0.00 0.00 0.00 0.00 0.00 0.00 0.00 0.00 0.00 0.00 0.01 0.01
0.00 0.00 0.00 0.01 0.02 0.02 0.05 0.16 0.31 0.27 0.19 0.10 0.07 0.02 0.04 0.06 0.03 0.00 0.00 0.00 0.00 0.00 0.00 0.00 0.00 0.00 0.00 0.00 0.00 0.00 0.00 0.00 0.00 0.00 0.00 0.00 0.00 0.00 0.00 0.00 0.00 0.00 0.00
0.00 0.00 0.00 0.00 0.00 0.03 0.12 0.24 0.37 0.19 0.11 0.07 0.06 0.05 0.07 0.06 0.08 0.06 0.03 0.00 0.00 0.00 0.00 0.00 0.00 0.00 0.00 0.00 0.00 0.00 0.00 0.00 0.00 0.00 0.00 0.00 0.00 0.00 0.00 0.00 0.00 0.00 0.00
0.00 0.00 0.00 0.00 0.00 0.02 0.08 0.07 0.20 0.14 0.13 0.12 0.14 0.15 0.11 0.13 0.14 0.12 0.13 0.05 0.01 0.00 0.00 0.00 0.00 0.00 0.00 0.00 0.00 0.00 0.00 0.00 0.00 0.00 0.00 0.00 0.00 0.00 0.00 0.00 0.00 0.00 0.00
0.00 0.00 0.00 0.00 0.00 0.02 0.03 0.08 0.12 0.19 0.13 0.14 0.19 0.12 0.09 0.16 0.17 0.06 0.16 0.19 0.05 0.01 0.00 0.00 0.00 0.00 0.00 0.00 0.00 0.00 0.00 0.00 0.00 0.00 0.00 0.00 0.00 0.00 0.00 0.00 0.00 0.00 0.00
0.00 0.00 0.00 0.00 0.00 0.01 0.04 0.10 0.10 0.16 0.15 0.12 0.09 0.04 0.15 0.20 0.24 0.15 0.16 0.26 0.18 0.09 0.04 0.03 0.03 0.02 0.01 0.00 0.00 0.00 0.00 0.00 0.00 0.00 0.00 0.00 0.00 0.00 0.00 0.00 0.00 0.00 0.00
0.00 0.00 0.00 0.00 0.00 0.00 0.01 0.05 0.06 0.03 0.05 0.07 0.11 0.21 0.32 0.28 0.27 0.33 0.27 0.28 0.26 0.16 0.14 0.15 0.13 0.09 0.03 0.02 0.02 0.01 0.00 0.00 0.00 0.00 0.00 0.00 0.00 0.00 0.00 0.00 0.00 0.00 0.00
0.00 0.00 0.00 0.00 0.00 0.00 0.00 0.01 0.05 0.03 0.02 0.03 0.08 0.12 0.13 0.17 0.17 0.20 0.20 0.24 0.17 0.18 0.28 0.24 0.19 0.16 0.13 0.06 0.05 0.05 0.02 0.00 0.00 0.00 0.00 0.00 0.00 0.00 0.00 0.00 0.00 0.00 0.00
0.00 0.00 0.00 0.00 0.00 0.00 0.00 0.01 0.02 0.02 0.03 0.05 0.08 0.11 0.10 0.10 0.11 0.13 0.14 0.12 0.18 0.16 0.18 0.23 0.24 0.21 0.17 0.15 0.08 0.07 0.06 0.05 0.02 0.01 0.02 0.01 0.00 0.00 0.00 0.00 0.00 0.00 0.00

GFSSE_prec_precacc_051.txt.gz
Total_Precipitation_Accumulation
0.00 0.01 0.06 0.06 0.10 0.06 0.05 0.03 0.03 0.05 0.07 0.09 0.05 0.02 0.03 0.05 0.02 0.01 0.00 0.00 0.00 0.02 0.07 0.08 0.10 0.12 0.27 0.34 0.30 0.03 0.00 0.00 0.00 0.00 0.00 0.00 0.00 0.00 0.00 0.01 0.00 0.00 0.01
0.00 0.00 0.03 0.07 0.09 0.05 0.06 0.05 0.04 0.03 0.07 0.07 0.04 0.03 0.05 0.08 0.05 0.03 0.00 0.00 0.00 0.04 0.07 0.14 0.20 0.29 0.27 0.12 0.06 0.01 0.00 0.00 0.00 0.00 0.00 0.00 0.00 0.00 0.00 0.01 0.01 0.00 0.02
0.00 0.00 0.01 0.07 0.07 0.04 0.05 0.03 0.02 0.03 0.03 0.02 0.02 0.07 0.09 0.06 0.03 0.01 0.00 0.02 0.03 0.08 0.15 0.21 0.21 0.12 0.02 0.00 0.00 0.00 0.00 0.00 0.00 0.00 0.00 0.00 0.00 0.00 0.00 0.00 0.01 0.01 0.00
0.00 0.00 0.00 0.05 0.04 0.04 0.03 0.01 0.02 0.03 0.02 0.01 0.03 0.06 0.02 0.02 0.01 0.02 0.03 0.04 0.04 0.05 0.06 0.03 0.01 0.00 0.00 0.00 0.00 0.00 0.00 0.00 0.00 0.00 0.00 0.00 0.00 0.02 0.02 0.01 0.01 0.01 0.02
0.00 0.00 0.00 0.03 0.03 0.05 0.01 0.01 0.01 0.02 0.01 0.02 0.02 0.02 0.01 0.02 0.03 0.03 0.02 0.01 0.00 0.00 0.00 0.00 0.00 0.00 0.00 0.00 0.00 0.00 0.01 0.00 0.00 0.00 0.00 0.00 0.00 0.04 0.06 0.08 0.08 0.06 0.05
0.00 0.00 0.01 0.03 0.05 0.04 0.01 0.00 0.02 0.02 0.03 0.02 0.02 0.00 0.00 0.03 0.05 0.07 0.03 0.00 0.00 0.00 0.00 0.00 0.00 0.00 0.00 0.00 0.00 0.00 0.01 0.01 0.00 0.00 0.00 0.00 0.01 0.07 0.03 0.06 0.12 0.21 0.18
0.00 0.00 0.00 0.04 0.05 0.03 0.01 0.00 0.03 0.04 0.03 0.01 0.02 0.00 0.00 0.03 0.04 0.09 0.05 0.01 0.00 0.00 0.00 0.00 0.00 0.00 0.00 0.00 0.00 0.00 0.00 0.01 0.00 0.00 0.00 0.00 0.02 0.02 0.02 0.04 0.05 0.07 0.11
0.00 0.00 0.00 0.03 0.06 0.04 0.02 0.01 0.02 0.03 0.04 0.02 0.02 0.00 0.00 0.01 0.00 0.07 0.07 0.01 0.00 0.00 0.00 0.00 0.00 0.00 0.00 0.00 0.00 0.00 0.00 0.00 0.00 0.00 0.00 0.00 0.01 0.02 0.02 0.03 0.04 0.04 0.06
0.00 0.00 0.00 0.01 0.04 0.05 0.02 0.00 0.02 0.02 0.04 0.04 0.03 0.00 0.00 0.00 0.00 0.04 0.04 0.00 0.00 0.00 0.01 0.01 0.01 0.01 0.00 0.00 0.00 0.00 0.00 0.00 0.00 0.00 0.00 0.00 0.02 0.05 0.05 0.07 0.07 0.08 0.10
0.00 0.00 0.00 0.00 0.02 0.03 0.02 0.01 0.00 0.01 0.03 0.03 0.02 0.01 0.00 0.00 0.00 0.01 0.00 0.00 0.00 0.01 0.01 0.02 0.02 0.02 0.01 0.01 0.01 0.01 0.00 0.00 0.00 0.00 0.00 0.00 0.04 0.07 0.08 0.09 0.08 0.09 0.11
0.00 0.01 0.00 0.00 0.00 0.01 0.02 0.01 0.00 0.00 0.02 0.02 0.01 0.00 0.00 0.00 0.00 0.01 0.00 0.00 0.00 0.01 0.02 0.03 0.02 0.02 0.01 0.00 0.00 0.00 0.00 0.00 0.00 0.00 0.00 0.01 0.02 0.04 0.05 0.05 0.05 0.08 0.08
0.00 0.01 0.01 0.00 0.01 0.01 0.01 0.01 0.00 0.00 0.00 0.01 0.00 0.00 0.00 0.00 0.00 0.00 0.00 0.00 0.00 0.01 0.03 0.01 0.01 0.01 0.00 0.00 0.00 0.00 0.00 0.00 0.00 0.00 0.00 0.01 0.02 0.02 0.02 0.04 0.05 0.04 0.04
0.01 0.00 0.00 0.00 0.00 0.00 0.00 0.01 0.00 0.00 0.00 0.00 0.00 0.00 0.00 0.00 0.00 0.00 0.00 0.00 0.00 0.00 0.01 0.00 0.00 0.00 0.00 0.00 0.00 0.00 0.00 0.00 0.00 0.00 0.00 0.01 0.00 0.00 0.01 0.02 0.03 0.02 0.02
0.01 0.01 0.01 0.00 0.00 0.00 0.00 0.00 0.00 0.00 0.00 0.00 0.00 0.00 0.00 0.00 0.00 0.00 0.00 0.00 0.00 0.00 0.00 0.00 0.00 0.00 0.00 0.00 0.00 0.00 0.00 0.00 0.00 0.00 0.00 0.00 0.00 0.00 0.00 0.01 0.02 0.01 0.01
0.00 0.00 0.02 0.02 0.03 0.01 0.01 0.02 0.01 0.00 0.00 0.00 0.00 0.00 0.00 0.00 0.00 0.00 0.00 0.00 0.00 0.00 0.00 0.00 0.00 0.00 0.00 0.00 0.00 0.00 0.00 0.00 0.00 0.00 0.00 0.00 0.00 0.00 0.00 0.00 0.01 0.01 0.02
0.00 0.01 0.02 0.02 0.05 0.02 0.00 0.03 0.04 0.01 0.00 0.00 0.00 0.00 0.00 0.00 0.00 0.00 0.00 0.00 0.00 0.00 0.00 0.00 0.00 0.00 0.00 0.00 0.00 0.00 0.00 0.00 0.00 0.00 0.00 0.00 0.00 0.00 0.00 0.00 0.01 0.02 0.03
0.00 0.01 0.01 0.03 0.07 0.01 0.00 0.02 0.03 0.05 0.05 0.02 0.00 0.00 0.00 0.00 0.00 0.00 0.00 0.00 0.00 0.00 0.00 0.00 0.00 0.00 0.00 0.00 0.00 0.00 0.00 0.00 0.00 0.00 0.00 0.00 0.00 0.00 0.00 0.01 0.02 0.03 0.04
0.00 0.00 0.00 0.06 0.08 0.03 0.01 0.08 0.14 0.20 0.09 0.06 0.05 0.04 0.00 0.01 0.00 0.00 0.00 0.00 0.00 0.00 0.00 0.00 0.00 0.00 0.00 0.00 0.00 0.00 0.00 0.00 0.00 0.00 0.00 0.00 0.00 0.00 0.00 0.00 0.00 0.01 0.01
0.00 0.00 0.00 0.01 0.02 0.03 0.07 0.16 0.31 0.28 0.19 0.10 0.07 0.02 0.04 0.06 0.03 0.00 0.00 0.00 0.00 0.00 0.00 0.00 0.00 0.00 0.00 0.00 0.00 0.00 0.00 0.00 0.00 0.00 0.00 0.00 0.00 0.00 0.00 0.00 0.00 0.00 0.00
0.00 0.00 0.00 0.00 0.00 0.03 0.12 0.24 0.37 0.22 0.13 0.08 0.07 0.06 0.07 0.06 0.09 0.06 0.04 0.01 0.00 0.00 0.00 0.00 0.00 0.00 0.00 0.00 0.00 0.00 0.00 0.00 0.00 0.00 0.00 0.00 0.00 0.00 0.00 0.00 0.00 0.00 0.00
0.00 0.00 0.00 0.00 0.00 0.02 0.08 0.08 0.20 0.14 0.15 0.14 0.15 0.16 0.14 0.17 0.16 0.14 0.16 0.07 0.02 0.00 0.00 0.01 0.02 0.00 0.00 0.01 0.00 0.00 0.00 0.00 0.00 0.00 0.00 0.00 0.00 0.00 0.00 0.00 0.00 0.00 0.00
0.00 0.00 0.00 0.00 0.00 0.02 0.03 0.08 0.12 0.19 0.13 0.14 0.19 0.12 0.10 0.19 0.22 0.08 0.17 0.23 0.11 0.04 0.01 0.00 0.06 0.07 0.04 0.04 0.02 0.00 0.00 0.00 0.00 0.00 0.00 0.00 0.00 0.00 0.00 0.00 0.00 0.00 0.00
0.00 0.00 0.00 0.00 0.00 0.01 0.04 0.10 0.10 0.16 0.15 0.12 0.09 0.04 0.15 0.20 0.26 0.19 0.21 0.29 0.23 0.16 0.09 0.07 0.10 0.12 0.08 0.05 0.02 0.01 0.00 0.00 0.00 0.00 0.00 0.00 0.00 0.00 0.00 0.00 0.00 0.00 0.00
0.00 0.00 0.00 0.00 0.00 0.00 0.01 0.05 0.06 0.03 0.05 0.07 0.11 0.21 0.32 0.28 0.27 0.33 0.30 0.35 0.33 0.21 0.20 0.25 0.23 0.18 0.11 0.08 0.06 0.02 0.02 0.00 0.00 0.00 0.00 0.00 0.00 0.00 0.00 0.00 0.00 0.00 0.00
0.00 0.00 0.00 0.00 0.00 0.00 0.00 0.01 0.05 0.03 0.02 0.03 0.08 0.12 0.13 0.17 0.18 0.20 0.20 0.24 0.20 0.23 0.31 0.27 0.26 0.25 0.21 0.13 0.12 0.10 0.06 0.03 0.00 0.01 0.01 0.02 0.01 0.01 0.00 0.00 0.00 0.00 0.00
0.00 0.00 0.00 0.00 0.00 0.00 0.00 0.01 0.02 0.02 0.03 0.05 0.08 0.11 0.10 0.10 0.12 0.14 0.14 0.13 0.19 0.18 0.23 0.29 0.30 0.28 0.22 0.21 0.12 0.11 0.11 0.11 0.06 0.04 0.05 0.05 0.03 0.01 0.00 0.00 0.01 0.01 0.00

GFSSE_prec_precacc_054.txt.gz
Total_Precipitation_Accumulation
0.00 0.01 0.06 0.07 0.10 0.06 0.05 0.03 0.03 0.06 0.07 0.09 0.05 0.02 0.03 0.05 0.02 0.01 0.00 0.00 0.01 0.05 0.08 0.09 0.10 0.12 0.27 0.34 0.30 0.03 0.00 0.00 0.00 0.00 0.00 0.00 0.00 0.00 0.00 0.01 0.00 0.01 0.04
0.00 0.00 0.04 0.07 0.10 0.05 0.07 0.05 0.05 0.04 0.08 0.08 0.05 0.03 0.06 0.08 0.05 0.03 0.00 0.00 0.03 0.05 0.07 0.14 0.20 0.29 0.27 0.12 0.06 0.01 0.00 0.00 0.00 0.00 0.00 0.00 0.00 0.00 0.00 0.01 0.01 0.00 0.02
0.00 0.00 0.01 0.07 0.07 0.05 0.05 0.03 0.02 0.03 0.04 0.03 0.02 0.07 0.09 0.06 0.03 0.01 0.00 0.02 0.05 0.10 0.15 0.21 0.21 0.12 0.02 0.00 0.00 0.00 0.00 0.00 0.00 0.00 0.00 0.00 0.00 0.00 0.00 0.00 0.01 0.01 0.00
0.00 0.00 0.00 0.05 0.05 0.04 0.03 0.01 0.02 0.03 0.02 0.01 0.03 0.06 0.02 0.02 0.02 0.02 0.03 0.04 0.06 0.06 0.06 0.03 0.01 0.00 0.00 0.00 0.00 0.00 0.00 0.00 0.00 0.00 0.00 0.00 0.01 0.04 0.03 0.01 0.01 0.02 0.02
0.00 0.00 0.00 0.04 0.03 0.05 0.01 0.01 0.02 0.03 0.02 0.02 0.02 0.02 0.01 0.02 0.04 0.04 0.02 0.02 0.01 0.00 0.00 0.00 0.00 0.00 0.00 0.00 0.00 0.00 0.01 0.00 0.00 0.00 0.00 0.00 0.01 0.05 0.08 0.09 0.08 0.09 0.07
0.00 0.00 0.01 0.04 0.05 0.04 0.01 0.00 0.02 0.02 0.03 0.02 0.02 0.00 0.00 0.03 0.06 0.07 0.03 0.00 0.00 0.00 0.00 0.00 0.00 0.00 0.00 0.00 0.00 0.00 0.01 0.01 0.00 0.00 0.00 0.00 0.01 0.08 0.05 0.08 0.14 0.22 0.19
0.00 0.00 0.01 0.04 0.05 0.03 0.01 0.00 0.03 0.04 0.03 0.01 0.02 0.00 0.00 0.03 0.04 0.09 0.05 0.01 0.00 0.00 0.00 0.00 0.00 0.00 0.00 0.00 0.00 0.00 0.00 0.01 0.00 0.00 0.00 0.00 0.02 0.02 0.02 0.04 0.05 0.08 0.11
0.00 0.00 0.00 0.04 0.07 0.04 0.02 0.01 0.02 0.03 0.04 0.02 0.02 0.00 0.00 0.01 0.00 0.07 0.07 0.01 0.00 0.00 0.00 0.00 0.00 0.00 0.00 0.00 0.00 0.00 0.00 0.00 0.00 0.00 0.00 0.00 0.01 0.02 0.02 0.03 0.04 0.04 0.06
0.00 0.00 0.00 0.01 0.05 0.05 0.02 0.00 0.02 0.03 0.04 0.04 0.03 0.00 0.00 0.00 0.00 0.04 0.04 0.00 0.00 0.00 0.01 0.01 0.01 0.01 0.00 0.00 0.00 0.00 0.00 0.00 0.00 0.00 0.00 0.00 0.02 0.05 0.05 0.07 0.07 0.08 0.10
0.00 0.00 0.00 0.00 0.02 0.03 0.02 0.01 0.00 0.01 0.03 0.03 0.02 0.01 0.00 0.00 0.00 0.01 0.00 0.00 0.00 0.01 0.01 0.02 0.02 0.02 0.01 0.01 0.01 0.01 0.00 0.00 0.00 0.00 0.00 0.00 0.05 0.08 0.08 0.09 0.08 0.09 0.11
0.00 0.01 0.00 0.00 0.00 0.01 0.02 0.01 0.00 0.00 0.02 0.02 0.01 0.00 0.00 0.00 0.00 0.01 0.00 0.00 0.00 0.01 0.02 0.03 0.02 0.02 0.01 0.00 0.00 0.00 0.00 0.00 0.00 0.00 0.00 0.01 0.02 0.04 0.05 0.05 0.05 0.08 0.08
0.00 0.01 0.01 0.00 0.01 0.01 0.01 0.01 0.00 0.00 0.00 0.01 0.00 0.00 0.00 0.00 0.00 0.00 0.00 0.00 0.00 0.01 0.03 0.01 0.01 0.01 0.00 0.00 0.00 0.00 0.00 0.00 0.00 0.00 0.00 0.01 0.02 0.02 0.02 0.04 0.05 0.04 0.04
0.01 0.00 0.00 0.00 0.00 0.00 0.00 0.01 0.00 0.00 0.00 0.00 0.00 0.00 0.00 0.00 0.00 0.00 0.00 0.00 0.00 0.00 0.01 0.00 0.00 0.00 0.00 0.00 0.00 0.00 0.00 0.00 0.00 0.00 0.00 0.01 0.00 0.00 0.01 0.02 0.03 0.02 0.02
0.01 0.01 0.01 0.00 0.00 0.00 0.00 0.00 0.00 0.00 0.00 0.00 0.00 0.00 0.00 0.00 0.00 0.00 0.00 0.00 0.00 0.00 0.00 0.00 0.00 0.00 0.00 0.00 0.00 0.00 0.00 0.00 0.00 0.00 0.00 0.00 0.00 0.00 0.00 0.01 0.02 0.01 0.01
0.00 0.00 0.02 0.02 0.03 0.01 0.01 0.02 0.01 0.00 0.00 0.00 0.00 0.00 0.00 0.00 0.00 0.00 0.00 0.00 0.00 0.00 0.00 0.00 0.00 0.00 0.00 0.00 0.00 0.00 0.00 0.00 0.00 0.00 0.00 0.00 0.00 0.00 0.00 0.00 0.01 0.01 0.02
0.00 0.01 0.02 0.02 0.05 0.02 0.00 0.03 0.04 0.01 0.00 0.00 0.00 0.00 0.00 0.00 0.00 0.00 0.00 0.00 0.00 0.00 0.00 0.00 0.00 0.00 0.00 0.00 0.00 0.00 0.00 0.00 0.00 0.00 0.00 0.00 0.00 0.00 0.00 0.00 0.01 0.02 0.03
0.00 0.01 0.01 0.03 0.07 0.01 0.00 0.02 0.03 0.05 0.05 0.02 0.00 0.00 0.00 0.00 0.00 0.00 0.00 0.00 0.00 0.00 0.00 0.00 0.00 0.00 0.00 0.00 0.00 0.00 0.00 0.00 0.00 0.00 0.00 0.00 0.00 0.00 0.00 0.01 0.02 0.03 0.04
0.00 0.00 0.00 0.06 0.08 0.03 0.01 0.08 0.14 0.20 0.09 0.06 0.05 0.04 0.00 0.01 0.00 0.00 0.00 0.00 0.00 0.00 0.00 0.00 0.00 0.00 0.00 0.00 0.00 0.00 0.00 0.00 0.00 0.00 0.00 0.00 0.00 0.00 0.00 0.00 0.00 0.01 0.01
0.00 0.00 0.00 0.01 0.02 0.03 0.08 0.16 0.31 0.28 0.19 0.10 0.07 0.02 0.04 0.06 0.03 0.00 0.00 0.00 0.00 0.00 0.00 0.00 0.00 0.00 0.00 0.00 0.00 0.00 0.00 0.00 0.00 0.00 0.00 0.00 0.00 0.00 0.00 0.00 0.00 0.00 0.00
0.00 0.00 0.00 0.00 0.00 0.03 0.13 0.25 0.38 0.25 0.14 0.10 0.10 0.08 0.08 0.07 0.10 0.08 0.05 0.03 0.01 0.00 0.00 0.00 0.00 0.00 0.00 0.00 0.00 0.00 0.00 0.00 0.00 0.00 0.00 0.00 0.00 0.00 0.00 0.00 0.00 0.00 0.00
0.00 0.00 0.00 0.00 0.00 0.02 0.08 0.08 0.20 0.15 0.18 0.18 0.18 0.20 0.19 0.23 0.20 0.19 0.19 0.12 0.06 0.01 0.01 0.02 0.04 0.02 0.02 0.08 0.04 0.00 0.00 0.00 0.00 0.00 0.00 0.00 0.00 0.00 0.00 0.00 0.00 0.00 0.00
0.00 0.00 0.00 0.00 0.00 0.02 0.03 0.08 0.12 0.19 0.13 0.14 0.21 0.13 0.13 0.23 0.30 0.14 0.20 0.24 0.12 0.04 0.02 0.01 0.08 0.11 0.09 0.11 0.10 0.03 0.00 0.00 0.00 0.00 0.00 0.00 0.00 0.00 0.00 0.00 0.00 0.00 0.00
0.00 0.00 0.00 0.00 0.00 0.01 0.04 0.10 0.10 0.16 0.15 0.12 0.09 0.04 0.15 0.21 0.28 0.23 0.24 0.31 0.24 0.18 0.11 0.11 0.13 0.16 0.13 0.12 0.07 0.06 0.01 0.00 0.00 0.00 0.00 0.00 0.00 0.00 0.00 0.00 0.00 0.00 0.00
0.00 0.00 0.00 0.00 0.00 0.00 0.01 0.05 0.06 0.03 0.05 0.07 0.11 0.21 0.32 0.28 0.27 0.33 0.30 0.37 0.35 0.23 0.22 0.26 0.26 0.22 0.17 0.12 0.12 0.07 0.06 0.02 0.01 0.00 0.00 0.01 0.00 0.00 0.00 0.00 0.00 0.00 0.00
0.00 0.00 0.00 0.00 0.00 0.00 0.00 0.01 0.05 0.03 0.02 0.03 0.08 0.12 0.13 0.17 0.18 0.20 0.20 0.26 0.23 0.25 0.31 0.28 0.28 0.28 0.25 0.19 0.18 0.16 0.11 0.07 0.03 0.02 0.02 0.04 0.03 0.02 0.01 0.00 0.00 0.00 0.00
0.00 0.00 0.00 0.00 0.00 0.00 0.00 0.01 0.02 0.02 0.03 0.05 0.08 0.11 0.10 0.10 0.12 0.14 0.14 0.13 0.19 0.19 0.25 0.32 0.34 0.32 0.28 0.26 0.18 0.16 0.16 0.17 0.13 0.11 0.10 0.07 0.05 0.03 0.01 0.01 0.01 0.02 0.03

GFSSE_prec_precacc_057.txt.gz
Total_Precipitation_Accumulation
0.00 0.01 0.07 0.07 0.10 0.06 0.06 0.03 0.03 0.06 0.07 0.09 0.05 0.02 0.03 0.05 0.02 0.01 0.00 0.00 0.04 0.07 0.08 0.09 0.10 0.12 0.27 0.34 0.30 0.03 0.00 0.00 0.00 0.00 0.00 0.00 0.00 0.00 0.00 0.01 0.01 0.04 0.06
0.00 0.01 0.04 0.07 0.10 0.05 0.07 0.06 0.05 0.04 0.09 0.09 0.06 0.04 0.06 0.08 0.05 0.03 0.00 0.03 0.05 0.05 0.07 0.14 0.20 0.29 0.27 0.12 0.06 0.01 0.00 0.00 0.00 0.00 0.00 0.00 0.00 0.00 0.00 0.01 0.01 0.00 0.03
0.00 0.00 0.02 0.08 0.07 0.05 0.05 0.04 0.03 0.04 0.04 0.03 0.02 0.07 0.09 0.06 0.03 0.01 0.01 0.04 0.06 0.10 0.15 0.21 0.21 0.12 0.02 0.00 0.00 0.00 0.00 0.00 0.00 0.00 0.00 0.00 0.00 0.00 0.00 0.00 0.01 0.01 0.00
0.00 0.00 0.01 0.06 0.05 0.05 0.03 0.02 0.03 0.03 0.02 0.01 0.03 0.06 0.02 0.02 0.02 0.02 0.03 0.05 0.06 0.06 0.06 0.03 0.01 0.00 0.00 0.00 0.00 0.00 0.00 0.00 0.00 0.00 0.00 0.00 0.01 0.05 0.03 0.01 0.04 0.04 0.03
0.00 0.00 0.01 0.04 0.03 0.05 0.01 0.01 0.02 0.03 0.02 0.02 0.02 0.02 0.01 0.03 0.05 0.04 0.03 0.03 0.01 0.00 0.00 0.00 0.00 0.00 0.00 0.00 0.00 0.00 0.01 0.00 0.00 0.00 0.00 0.00 0.01 0.06 0.08 0.10 0.10 0.11 0.10
0.00 0.00 0.03 0.04 0.05 0.04 0.01 0.00 0.02 0.02 0.03 0.02 0.02 0.00 0.01 0.04 0.06 0.08 0.04 0.01 0.00 0.00 0.00 0.00 0.00 0.00 0.00 0.00 0.00 0.00 0.01 0.01 0.00 0.00 0.00 0.00 0.01 0.09 0.06 0.09 0.14 0.23 0.21
0.00 0.00 0.02 0.05 0.05 0.03 0.01 0.00 0.03 0.04 0.03 0.01 0.02 0.00 0.01 0.03 0.05 0.09 0.05 0.01 0.00 0.00 0.00 0.00 0.00 0.00 0.00 0.00 0.00 0.00 0.00 0.01 0.00 0.00 0.00 0.00 0.02 0.02 0.02 0.04 0.05 0.08 0.11
0.00 0.00 0.01 0.04 0.07 0.04 0.02 0.01 0.02 0.03 0.04 0.02 0.02 0.00 0.00 0.01 0.01 0.07 0.07 0.01 0.00 0.00 0.00 0.00 0.00 0.00 0.00 0.00 0.00 0.00 0.00 0.00 0.00 0.00 0.00 0.00 0.01 0.02 0.02 0.03 0.04 0.04 0.06
0.00 0.00 0.00 0.01 0.05 0.05 0.02 0.00 0.02 0.03 0.04 0.04 0.03 0.00 0.00 0.00 0.01 0.04 0.04 0.00 0.00 0.00 0.01 0.01 0.01 0.01 0.00 0.00 0.00 0.00 0.00 0.00 0.00 0.00 0.00 0.00 0.02 0.05 0.05 0.07 0.07 0.08 0.10
0.00 0.00 0.00 0.00 0.02 0.03 0.02 0.01 0.00 0.01 0.03 0.03 0.02 0.01 0.00 0.00 0.00 0.01 0.00 0.00 0.00 0.01 0.01 0.02 0.02 0.02 0.01 0.01 0.01 0.01 0.00 0.00 0.00 0.00 0.00 0.00 0.05 0.08 0.08 0.09 0.08 0.09 0.11
0.00 0.01 0.00 0.00 0.00 0.01 0.02 0.01 0.00 0.00 0.02 0.02 0.01 0.00 0.00 0.00 0.00 0.01 0.00 0.00 0.00 0.01 0.02 0.03 0.02 0.02 0.01 0.00 0.00 0.00 0.00 0.00 0.00 0.00 0.00 0.01 0.02 0.04 0.05 0.05 0.05 0.08 0.08
0.00 0.01 0.01 0.00 0.01 0.01 0.01 0.01 0.00 0.00 0.00 0.01 0.00 0.00 0.00 0.00 0.00 0.00 0.00 0.00 0.00 0.01 0.03 0.01 0.01 0.01 0.00 0.00 0.00 0.00 0.00 0.00 0.00 0.00 0.00 0.01 0.02 0.02 0.02 0.04 0.05 0.04 0.04
0.01 0.00 0.00 0.00 0.00 0.00 0.00 0.01 0.00 0.00 0.00 0.00 0.00 0.00 0.00 0.00 0.00 0.00 0.00 0.00 0.00 0.00 0.01 0.00 0.00 0.00 0.00 0.00 0.00 0.00 0.00 0.00 0.00 0.00 0.00 0.01 0.00 0.00 0.01 0.02 0.03 0.02 0.02
0.01 0.01 0.01 0.00 0.00 0.00 0.00 0.00 0.00 0.00 0.00 0.00 0.00 0.00 0.00 0.00 0.00 0.00 0.00 0.00 0.00 0.00 0.00 0.00 0.00 0.00 0.00 0.00 0.00 0.00 0.00 0.00 0.00 0.00 0.00 0.00 0.00 0.00 0.00 0.01 0.02 0.01 0.01
0.00 0.00 0.02 0.02 0.03 0.01 0.01 0.02 0.01 0.00 0.00 0.00 0.00 0.00 0.00 0.00 0.00 0.00 0.00 0.00 0.00 0.00 0.00 0.00 0.00 0.00 0.00 0.00 0.00 0.00 0.00 0.00 0.00 0.00 0.00 0.00 0.00 0.00 0.00 0.00 0.01 0.01 0.02
0.00 0.01 0.02 0.02 0.05 0.02 0.00 0.03 0.04 0.01 0.00 0.00 0.00 0.00 0.00 0.00 0.00 0.00 0.00 0.00 0.00 0.00 0.00 0.00 0.00 0.00 0.00 0.00 0.00 0.00 0.00 0.00 0.00 0.00 0.00 0.00 0.00 0.00 0.00 0.00 0.01 0.02 0.03
0.00 0.01 0.01 0.03 0.07 0.01 0.00 0.02 0.03 0.05 0.05 0.02 0.00 0.00 0.00 0.00 0.00 0.00 0.00 0.00 0.00 0.00 0.00 0.00 0.00 0.00 0.00 0.00 0.00 0.00 0.00 0.00 0.00 0.00 0.00 0.00 0.00 0.00 0.00 0.01 0.02 0.03 0.04
0.00 0.00 0.00 0.06 0.08 0.03 0.01 0.08 0.14 0.20 0.09 0.06 0.05 0.04 0.00 0.01 0.00 0.00 0.00 0.00 0.00 0.00 0.00 0.00 0.00 0.00 0.00 0.00 0.00 0.00 0.00 0.00 0.00 0.00 0.00 0.00 0.00 0.00 0.00 0.00 0.00 0.01 0.01
0.00 0.00 0.00 0.01 0.02 0.03 0.08 0.16 0.31 0.28 0.19 0.10 0.07 0.02 0.04 0.06 0.03 0.00 0.00 0.00 0.00 0.00 0.00 0.00 0.00 0.00 0.00 0.00 0.00 0.00 0.00 0.00 0.00 0.00 0.00 0.00 0.00 0.00 0.00 0.00 0.00 0.00 0.00
0.00 0.00 0.00 0.00 0.00 0.03 0.13 0.25 0.38 0.25 0.14 0.10 0.10 0.08 0.08 0.07 0.10 0.08 0.05 0.03 0.01 0.00 0.00 0.00 0.00 0.00 0.00 0.00 0.00 0.00 0.00 0.00 0.00 0.00 0.00 0.00 0.00 0.00 0.00 0.00 0.00 0.00 0.00
0.00 0.00 0.00 0.00 0.00 0.02 0.08 0.08 0.20 0.15 0.18 0.18 0.18 0.20 0.22 0.26 0.23 0.20 0.21 0.14 0.10 0.03 0.02 0.02 0.04 0.02 0.02 0.10 0.06 0.00 0.00 0.00 0.00 0.00 0.00 0.00 0.00 0.00 0.00 0.00 0.00 0.00 0.00
0.00 0.00 0.00 0.00 0.00 0.02 0.03 0.08 0.12 0.19 0.13 0.14 0.21 0.14 0.13 0.24 0.32 0.18 0.23 0.27 0.14 0.05 0.02 0.01 0.09 0.12 0.10 0.15 0.16 0.05 0.00 0.00 0.00 0.00 0.00 0.00 0.00 0.00 0.00 0.00 0.00 0.00 0.00
0.00 0.00 0.00 0.00 0.00 0.01 0.04 0.10 0.10 0.16 0.15 0.12 0.09 0.04 0.15 0.21 0.29 0.24 0.25 0.31 0.24 0.18 0.11 0.11 0.13 0.17 0.16 0.15 0.13 0.12 0.02 0.00 0.00 0.00 0.00 0.00 0.00 0.00 0.00 0.01 0.01 0.01 0.01
0.00 0.00 0.00 0.00 0.00 0.00 0.01 0.05 0.06 0.03 0.05 0.07 0.11 0.21 0.32 0.28 0.27 0.33 0.31 0.38 0.36 0.23 0.22 0.26 0.26 0.22 0.18 0.13 0.13 0.09 0.08 0.03 0.02 0.00 0.00 0.01 0.01 0.00 0.00 0.01 0.02 0.01 0.01
0.00 0.00 0.00 0.00 0.00 0.00 0.00 0.01 0.05 0.03 0.02 0.03 0.08 0.12 0.13 0.17 0.18 0.20 0.20 0.26 0.23 0.25 0.32 0.28 0.28 0.28 0.25 0.20 0.18 0.17 0.14 0.09 0.04 0.03 0.02 0.04 0.04 0.03 0.02 0.01 0.01 0.01 0.01
0.00 0.00 0.00 0.00 0.00 0.00 0.00 0.01 0.02 0.02 0.03 0.05 0.08 0.11 0.10 0.10 0.12 0.14 0.14 0.13 0.19 0.19 0.25 0.32 0.35 0.33 0.29 0.27 0.19 0.17 0.18 0.18 0.14 0.12 0.11 0.08 0.06 0.04 0.03 0.02 0.03 0.03 0.04

GFSSE_prec_precacc_060.txt.gz
Total_Precipitation_Accumulation
0.00 0.01 0.08 0.07 0.10 0.06 0.06 0.03 0.03 0.06 0.07 0.09 0.05 0.02 0.03 0.05 0.02 0.01 0.00 0.01 0.06 0.07 0.08 0.09 0.10 0.12 0.27 0.34 0.30 0.03 0.00 0.00 0.00 0.00 0.00 0.00 0.00 0.00 0.00 0.01 0.03 0.06 0.09
0.00 0.01 0.04 0.08 0.10 0.05 0.08 0.06 0.05 0.04 0.10 0.10 0.06 0.04 0.06 0.08 0.05 0.03 0.01 0.04 0.05 0.05 0.07 0.14 0.20 0.29 0.27 0.12 0.06 0.01 0.00 0.00 0.00 0.00 0.00 0.00 0.00 0.00 0.00 0.01 0.01 0.01 0.03
0.00 0.01 0.02 0.08 0.08 0.05 0.06 0.04 0.03 0.05 0.05 0.03 0.02 0.07 0.09 0.06 0.03 0.01 0.02 0.04 0.06 0.10 0.15 0.21 0.21 0.12 0.02 0.00 0.00 0.00 0.00 0.00 0.00 0.00 0.00 0.00 0.00 0.00 0.00 0.00 0.01 0.01 0.00
0.00 0.00 0.01 0.06 0.05 0.05 0.04 0.02 0.04 0.04 0.02 0.01 0.03 0.06 0.02 0.02 0.02 0.03 0.03 0.05 0.06 0.06 0.06 0.03 0.01 0.00 0.00 0.00 0.00 0.00 0.00 0.00 0.00 0.00 0.00 0.00 0.01 0.05 0.03 0.03 0.07 0.04 0.03
0.00 0.00 0.01 0.05 0.04 0.05 0.01 0.01 0.02 0.03 0.02 0.02 0.02 0.02 0.01 0.04 0.05 0.04 0.03 0.03 0.01 0.00 0.00 0.00 0.00 0.00 0.00 0.00 0.00 0.00 0.01 0.00 0.00 0.00 0.00 0.00 0.01 0.07 0.09 0.10 0.10 0.13 0.11
0.00 0.00 0.03 0.04 0.05 0.04 0.01 0.00 0.02 0.02 0.03 0.02 0.02 0.00 0.01 0.04 0.06 0.08 0.04 0.01 0.00 0.00 0.00 0.00 0.00 0.00 0.00 0.00 0.00 0.00 0.01 0.01 0.00 0.00 0.00 0.00 0.02 0.11 0.08 0.10 0.14 0.23 0.22
0.00 0.01 0.03 0.06 0.05 0.03 0.01 0.00 0.03 0.04 0.03 0.01 0.02 0.00 0.02 0.04 0.05 0.10 0.06 0.01 0.00 0.00 0.00 0.00 0.00 0.00 0.00 0.00 0.00 0.00 0.00 0.01 0.00 0.00 0.00 0.00 0.02 0.02 0.02 0.04 0.05 0.08 0.12
0.00 0.00 0.02 0.05 0.07 0.04 0.02 0.01 0.02 0.03 0.04 0.02 0.02 0.00 0.02 0.02 0.02 0.07 0.07 0.01 0.00 0.00 0.00 0.00 0.00 0.00 0.00 0.00 0.00 0.00 0.00 0.00 0.00 0.00 0.00 0.00 0.01 0.02 0.02 0.03 0.04 0.04 0.06
0.00 0.00 0.00 0.02 0.05 0.05 0.02 0.00 0.02 0.03 0.04 0.04 0.03 0.00 0.00 0.01 0.02 0.05 0.05 0.00 0.00 0.00 0.01 0.01 0.01 0.01 0.00 0.00 0.00 0.00 0.00 0.00 0.00 0.00 0.00 0.00 0.02 0.05 0.05 0.07 0.07 0.08 0.10
0.00 0.00 0.00 0.00 0.02 0.03 0.02 0.01 0.00 0.01 0.03 0.03 0.02 0.01 0.00 0.00 0.00 0.01 0.00 0.00 0.00 0.01 0.01 0.02 0.02 0.02 0.01 0.01 0.01 0.01 0.00 0.00 0.00 0.00 0.00 0.00 0.05 0.08 0.08 0.09 0.08 0.09 0.11
0.00 0.01 0.00 0.00 0.00 0.01 0.02 0.01 0.00 0.00 0.02 0.02 0.01 0.00 0.00 0.00 0.00 0.01 0.00 0.00 0.00 0.01 0.02 0.03 0.02 0.02 0.01 0.00 0.00 0.00 0.00 0.00 0.00 0.00 0.00 0.01 0.02 0.04 0.05 0.05 0.05 0.08 0.08
0.00 0.01 0.01 0.00 0.01 0.01 0.01 0.01 0.00 0.00 0.00 0.01 0.00 0.00 0.00 0.00 0.00 0.00 0.00 0.00 0.00 0.01 0.03 0.01 0.01 0.01 0.00 0.00 0.00 0.00 0.00 0.00 0.00 0.00 0.00 0.01 0.02 0.02 0.02 0.04 0.05 0.04 0.04
0.01 0.00 0.00 0.00 0.00 0.00 0.00 0.01 0.00 0.00 0.00 0.00 0.00 0.00 0.00 0.00 0.00 0.00 0.00 0.00 0.00 0.00 0.01 0.00 0.00 0.00 0.00 0.00 0.00 0.00 0.00 0.00 0.00 0.00 0.00 0.01 0.00 0.00 0.01 0.02 0.03 0.02 0.02
0.01 0.01 0.01 0.00 0.00 0.00 0.00 0.00 0.00 0.00 0.00 0.00 0.00 0.00 0.00 0.00 0.00 0.00 0.00 0.00 0.00 0.00 0.00 0.00 0.00 0.00 0.00 0.00 0.00 0.00 0.00 0.00 0.00 0.00 0.00 0.00 0.00 0.00 0.00 0.01 0.02 0.01 0.01
0.00 0.00 0.02 0.02 0.03 0.01 0.01 0.02 0.01 0.00 0.00 0.00 0.00 0.00 0.00 0.00 0.00 0.00 0.00 0.00 0.00 0.00 0.00 0.00 0.00 0.00 0.00 0.00 0.00 0.00 0.00 0.00 0.00 0.00 0.00 0.00 0.00 0.00 0.00 0.00 0.01 0.01 0.02
0.00 0.01 0.02 0.02 0.05 0.02 0.00 0.03 0.04 0.01 0.00 0.00 0.00 0.00 0.00 0.00 0.00 0.00 0.00 0.00 0.00 0.00 0.00 0.00 0.00 0.00 0.00 0.00 0.00 0.00 0.00 0.00 0.00 0.00 0.00 0.00 0.00 0.00 0.00 0.00 0.01 0.02 0.03
0.00 0.01 0.02 0.03 0.07 0.01 0.00 0.02 0.03 0.05 0.05 0.02 0.00 0.00 0.00 0.00 0.00 0.00 0.00 0.00 0.00 0.00 0.00 0.00 0.00 0.00 0.00 0.00 0.00 0.00 0.00 0.00 0.00 0.00 0.00 0.00 0.00 0.00 0.00 0.01 0.02 0.03 0.04
0.00 0.00 0.01 0.06 0.08 0.04 0.01 0.08 0.14 0.20 0.09 0.06 0.05 0.04 0.00 0.01 0.00 0.00 0.00 0.00 0.00 0.00 0.00 0.00 0.00 0.00 0.00 0.00 0.00 0.00 0.00 0.00 0.00 0.00 0.00 0.00 0.00 0.00 0.00 0.00 0.00 0.01 0.01
0.00 0.00 0.00 0.01 0.02 0.04 0.08 0.16 0.31 0.28 0.19 0.10 0.07 0.02 0.04 0.06 0.03 0.00 0.00 0.00 0.00 0.00 0.00 0.00 0.00 0.00 0.00 0.00 0.00 0.00 0.00 0.00 0.00 0.00 0.00 0.00 0.00 0.00 0.00 0.00 0.00 0.00 0.00
0.00 0.00 0.00 0.00 0.00 0.03 0.13 0.25 0.39 0.25 0.14 0.10 0.10 0.08 0.08 0.07 0.10 0.08 0.05 0.03 0.01 0.00 0.00 0.00 0.00 0.00 0.00 0.00 0.00 0.00 0.00 0.00 0.00 0.00 0.00 0.00 0.01 0.00 0.00 0.00 0.00 0.00 0.00
0.00 0.00 0.00 0.00 0.00 0.02 0.08 0.08 0.20 0.15 0.18 0.18 0.18 0.20 0.22 0.28 0.25 0.22 0.21 0.14 0.10 0.03 0.03 0.03 0.04 0.02 0.02 0.10 0.06 0.00 0.00 0.00 0.00 0.00 0.00 0.00 0.00 0.00 0.00 0.00 0.00 0.00 0.00
0.00 0.00 0.00 0.00 0.00 0.02 0.03 0.08 0.12 0.20 0.13 0.14 0.21 0.14 0.13 0.25 0.33 0.18 0.24 0.27 0.14 0.05 0.02 0.01 0.09 0.12 0.10 0.16 0.16 0.05 0.00 0.00 0.00 0.00 0.00 0.00 0.00 0.00 0.00 0.00 0.00 0.00 0.00
0.00 0.00 0.00 0.00 0.00 0.01 0.04 0.10 0.10 0.16 0.15 0.12 0.09 0.04 0.15 0.21 0.29 0.24 0.25 0.31 0.24 0.18 0.11 0.11 0.13 0.17 0.16 0.15 0.14 0.13 0.02 0.00 0.00 0.00 0.00 0.00 0.00 0.00 0.00 0.01 0.01 0.01 0.01
0.00 0.00 0.00 0.00 0.00 0.00 0.01 0.05 0.06 0.03 0.05 0.07 0.11 0.21 0.32 0.28 0.27 0.33 0.31 0.38 0.36 0.24 0.22 0.26 0.27 0.22 0.19 0.14 0.13 0.09 0.09 0.03 0.02 0.01 0.00 0.01 0.01 0.00 0.00 0.01 0.02 0.01 0.01
0.00 0.00 0.00 0.00 0.00 0.00 0.00 0.01 0.05 0.03 0.02 0.03 0.08 0.12 0.13 0.17 0.18 0.20 0.20 0.26 0.23 0.25 0.32 0.28 0.28 0.28 0.25 0.20 0.18 0.18 0.14 0.09 0.04 0.04 0.03 0.04 0.04 0.03 0.02 0.01 0.01 0.01 0.01
0.00 0.00 0.00 0.00 0.00 0.00 0.00 0.01 0.02 0.02 0.03 0.05 0.08 0.11 0.10 0.10 0.12 0.14 0.14 0.13 0.19 0.19 0.25 0.32 0.35 0.33 0.29 0.27 0.20 0.17 0.18 0.19 0.15 0.12 0.11 0.09 0.07 0.04 0.03 0.02 0.03 0.03 0.04

GFSSE_prec_precacc_063.txt.gz
Total_Precipitation_Accumulation
0.00 0.02 0.08 0.07 0.11 0.07 0.06 0.03 0.04 0.06 0.07 0.09 0.05 0.02 0.03 0.05 0.02 0.01 0.00 0.01 0.07 0.07 0.09 0.09 0.10 0.12 0.27 0.34 0.30 0.03 0.00 0.00 0.00 0.00 0.00 0.00 0.00 0.00 0.01 0.02 0.04 0.07 0.09
0.00 0.01 0.04 0.08 0.10 0.06 0.08 0.07 0.05 0.05 0.10 0.10 0.06 0.04 0.06 0.08 0.05 0.03 0.01 0.04 0.05 0.05 0.07 0.14 0.20 0.29 0.27 0.12 0.06 0.01 0.00 0.00 0.00 0.00 0.00 0.00 0.00 0.00 0.00 0.01 0.01 0.01 0.03
0.00 0.01 0.02 0.09 0.08 0.06 0.07 0.04 0.04 0.06 0.05 0.03 0.02 0.07 0.09 0.06 0.03 0.02 0.02 0.04 0.06 0.10 0.15 0.21 0.21 0.12 0.02 0.00 0.00 0.00 0.00 0.00 0.00 0.00 0.00 0.00 0.00 0.00 0.01 0.01 0.01 0.01 0.00
0.00 0.01 0.01 0.06 0.06 0.06 0.04 0.02 0.05 0.05 0.02 0.01 0.03 0.06 0.02 0.02 0.03 0.04 0.03 0.05 0.06 0.06 0.06 0.03 0.01 0.00 0.00 0.00 0.00 0.00 0.00 0.00 0.00 0.00 0.00 0.00 0.01 0.06 0.05 0.05 0.08 0.04 0.03
0.00 0.00 0.01 0.05 0.05 0.05 0.01 0.02 0.02 0.03 0.02 0.02 0.02 0.02 0.01 0.04 0.05 0.05 0.03 0.03 0.01 0.00 0.00 0.00 0.00 0.00 0.00 0.00 0.00 0.00 0.01 0.00 0.00 0.00 0.00 0.00 0.01 0.08 0.10 0.11 0.11 0.15 0.15
0.00 0.00 0.04 0.05 0.05 0.04 0.01 0.00 0.02 0.02 0.03 0.02 0.02 0.00 0.02 0.04 0.07 0.09 0.04 0.01 0.00 0.00 0.00 0.00 0.00 0.00 0.00 0.00 0.00 0.00 0.01 0.01 0.00 0.00 0.00 0.01 0.04 0.13 0.09 0.10 0.14 0.23 0.23
0.00 0.01 0.03 0.07 0.06 0.03 0.01 0.00 0.03 0.04 0.03 0.01 0.02 0.01 0.03 0.04 0.06 0.11 0.06 0.01 0.00 0.00 0.00 0.00 0.00 0.00 0.00 0.00 0.00 0.00 0.00 0.01 0.00 0.00 0.00 0.00 0.02 0.03 0.02 0.04 0.05 0.08 0.12
0.00 0.01 0.02 0.06 0.07 0.04 0.02 0.01 0.02 0.03 0.04 0.02 0.02 0.01 0.03 0.03 0.03 0.08 0.07 0.01 0.00 0.00 0.00 0.00 0.00 0.00 0.00 0.00 0.00 0.00 0.00 0.00 0.00 0.00 0.00 0.00 0.01 0.02 0.02 0.03 0.04 0.04 0.06
0.00 0.00 0.01 0.02 0.05 0.05 0.02 0.00 0.02 0.03 0.04 0.04 0.03 0.00 0.01 0.02 0.03 0.06 0.05 0.00 0.00 0.00 0.01 0.01 0.01 0.01 0.00 0.00 0.00 0.00 0.00 0.00 0.00 0.00 0.00 0.00 0.02 0.05 0.05 0.07 0.07 0.08 0.10
0.00 0.00 0.00 0.01 0.02 0.03 0.02 0.01 0.00 0.01 0.03 0.03 0.02 0.01 0.00 0.00 0.00 0.01 0.00 0.00 0.00 0.01 0.01 0.02 0.02 0.02 0.01 0.01 0.01 0.01 0.00 0.00 0.00 0.00 0.00 0.00 0.05 0.08 0.08 0.09 0.08 0.09 0.11
0.01 0.01 0.00 0.01 0.00 0.01 0.02 0.01 0.00 0.00 0.02 0.02 0.01 0.00 0.00 0.00 0.00 0.01 0.00 0.00 0.00 0.01 0.02 0.03 0.02 0.02 0.01 0.00 0.00 0.00 0.00 0.00 0.00 0.00 0.00 0.01 0.03 0.04 0.05 0.05 0.05 0.08 0.08
0.01 0.01 0.01 0.00 0.01 0.01 0.01 0.01 0.00 0.00 0.00 0.01 0.00 0.00 0.00 0.00 0.00 0.00 0.00 0.00 0.00 0.01 0.03 0.01 0.01 0.01 0.00 0.00 0.00 0.00 0.00 0.00 0.00 0.00 0.00 0.01 0.02 0.02 0.02 0.04 0.05 0.04 0.04
0.01 0.00 0.00 0.00 0.00 0.00 0.00 0.01 0.00 0.00 0.00 0.00 0.00 0.00 0.00 0.00 0.00 0.00 0.00 0.00 0.00 0.00 0.01 0.00 0.00 0.00 0.00 0.00 0.00 0.00 0.00 0.00 0.00 0.00 0.00 0.01 0.00 0.01 0.01 0.02 0.03 0.02 0.02
0.02 0.01 0.01 0.00 0.00 0.00 0.00 0.00 0.00 0.00 0.00 0.00 0.00 0.00 0.00 0.00 0.00 0.00 0.00 0.00 0.00 0.00 0.00 0.00 0.00 0.00 0.00 0.00 0.00 0.00 0.00 0.00 0.00 0.00 0.00 0.00 0.00 0.00 0.00 0.01 0.02 0.01 0.01
0.02 0.01 0.02 0.02 0.03 0.01 0.01 0.02 0.01 0.00 0.00 0.00 0.00 0.00 0.00 0.00 0.00 0.00 0.00 0.00 0.00 0.00 0.00 0.00 0.00 0.00 0.00 0.00 0.00 0.00 0.00 0.00 0.00 0.00 0.00 0.00 0.00 0.00 0.00 0.00 0.01 0.01 0.02
0.08 0.02 0.02 0.02 0.05 0.02 0.00 0.03 0.04 0.01 0.00 0.00 0.00 0.00 0.00 0.00 0.00 0.00 0.00 0.00 0.00 0.00 0.00 0.00 0.00 0.00 0.00 0.00 0.00 0.00 0.00 0.00 0.00 0.00 0.00 0.00 0.00 0.00 0.00 0.00 0.01 0.02 0.03
0.07 0.02 0.02 0.03 0.07 0.01 0.00 0.02 0.03 0.05 0.05 0.02 0.00 0.00 0.00 0.00 0.00 0.00 0.00 0.00 0.00 0.00 0.00 0.00 0.00 0.00 0.00 0.00 0.00 0.00 0.00 0.00 0.00 0.00 0.00 0.00 0.00 0.00 0.00 0.01 0.02 0.03 0.04
0.03 0.00 0.01 0.06 0.08 0.04 0.01 0.08 0.14 0.20 0.09 0.06 0.05 0.04 0.00 0.01 0.00 0.00 0.00 0.00 0.00 0.00 0.00 0.00 0.00 0.00 0.00 0.00 0.00 0.00 0.00 0.00 0.00 0.00 0.00 0.00 0.00 0.00 0.00 0.00 0.00 0.01 0.01
0.00 0.00 0.00 0.01 0.02 0.04 0.08 0.16 0.31 0.28 0.19 0.10 0.07 0.02 0.04 0.06 0.03 0.00 0.00 0.00 0.00 0.00 0.00 0.00 0.00 0.00 0.00 0.00 0.00 0.00 0.00 0.00 0.00 0.00 0.00 0.00 0.00 0.00 0.00 0.00 0.00 0.00 0.00
0.00 0.00 0.00 0.00 0.00 0.03 0.13 0.25 0.39 0.25 0.14 0.10 0.10 0.08 0.08 0.07 0.10 0.08 0.05 0.03 0.01 0.00 0.00 0.00 0.01 0.00 0.00 0.00 0.00 0.00 0.00 0.00 0.00 0.00 0.00 0.00 0.02 0.01 0.00 0.00 0.00 0.00 0.00
0.00 0.00 0.00 0.00 0.00 0.02 0.08 0.08 0.20 0.15 0.18 0.18 0.18 0.20 0.22 0.28 0.25 0.22 0.21 0.14 0.11 0.03 0.04 0.04 0.05 0.02 0.02 0.10 0.06 0.00 0.00 0.00 0.00 0.00 0.00 0.00 0.00 0.01 0.00 0.00 0.00 0.00 0.00
0.00 0.00 0.00 0.00 0.00 0.02 0.03 0.08 0.12 0.20 0.13 0.14 0.21 0.14 0.13 0.25 0.33 0.18 0.24 0.27 0.14 0.05 0.02 0.01 0.09 0.12 0.10 0.16 0.16 0.05 0.00 0.00 0.00 0.00 0.00 0.00 0.00 0.00 0.00 0.00 0.00 0.00 0.00
0.00 0.00 0.00 0.00 0.00 0.01 0.04 0.10 0.10 0.16 0.15 0.12 0.09 0.04 0.15 0.21 0.29 0.24 0.25 0.31 0.24 0.18 0.11 0.11 0.13 0.17 0.17 0.15 0.14 0.13 0.02 0.00 0.00 0.00 0.00 0.00 0.00 0.00 0.00 0.01 0.01 0.01 0.01
0.00 0.00 0.00 0.00 0.00 0.00 0.01 0.05 0.06 0.03 0.05 0.07 0.11 0.21 0.32 0.28 0.27 0.33 0.31 0.38 0.36 0.24 0.22 0.26 0.27 0.23 0.19 0.14 0.13 0.09 0.09 0.03 0.02 0.01 0.00 0.01 0.01 0.00 0.00 0.01 0.02 0.01 0.01
0.00 0.00 0.00 0.00 0.00 0.00 0.00 0.01 0.05 0.03 0.02 0.03 0.08 0.12 0.13 0.17 0.18 0.20 0.20 0.26 0.23 0.25 0.32 0.28 0.28 0.28 0.26 0.21 0.18 0.18 0.14 0.09 0.05 0.04 0.03 0.05 0.04 0.03 0.02 0.01 0.01 0.01 0.01
0.00 0.00 0.00 0.00 0.00 0.00 0.00 0.01 0.02 0.02 0.03 0.05 0.08 0.11 0.10 0.10 0.12 0.14 0.14 0.13 0.19 0.19 0.25 0.32 0.35 0.33 0.29 0.28 0.20 0.17 0.18 0.19 0.15 0.12 0.11 0.09 0.07 0.04 0.03 0.02 0.03 0.03 0.04

GFSSE_prec_precacc_066.txt.gz
Total_Precipitation_Accumulation
0.00 0.02 0.09 0.08 0.11 0.07 0.07 0.05 0.05 0.06 0.07 0.09 0.05 0.02 0.03 0.05 0.02 0.01 0.00 0.01 0.07 0.07 0.09 0.09 0.10 0.12 0.27 0.34 0.30 0.03 0.00 0.00 0.00 0.00 0.00 0.00 0.00 0.00 0.01 0.02 0.05 0.08 0.10
0.00 0.02 0.05 0.09 0.11 0.06 0.09 0.08 0.07 0.05 0.10 0.10 0.06 0.04 0.06 0.08 0.05 0.03 0.01 0.04 0.05 0.05 0.07 0.14 0.20 0.29 0.27 0.12 0.06 0.01 0.00 0.00 0.00 0.00 0.00 0.00 0.00 0.00 0.00 0.01 0.01 0.01 0.03
0.00 0.02 0.02 0.09 0.09 0.07 0.08 0.05 0.04 0.06 0.05 0.03 0.02 0.07 0.09 0.06 0.04 0.02 0.02 0.04 0.06 0.10 0.15 0.21 0.21 0.12 0.02 0.00 0.00 0.00 0.00 0.00 0.00 0.00 0.00 0.00 0.01 0.03 0.03 0.01 0.01 0.01 0.01
0.00 0.01 0.01 0.07 0.07 0.06 0.04 0.02 0.06 0.05 0.02 0.01 0.03 0.06 0.02 0.03 0.04 0.04 0.03 0.05 0.06 0.06 0.06 0.03 0.01 0.00 0.00 0.00 0.00 0.00 0.00 0.00 0.00 0.00 0.00 0.00 0.01 0.07 0.06 0.06 0.09 0.07 0.07
0.00 0.00 0.02 0.06 0.06 0.06 0.02 0.03 0.02 0.03 0.02 0.02 0.02 0.02 0.01 0.05 0.06 0.05 0.03 0.03 0.01 0.00 0.00 0.00 0.00 0.00 0.00 0.00 0.00 0.00 0.01 0.00 0.00 0.00 0.00 0.00 0.02 0.09 0.10 0.12 0.13 0.16 0.16
0.00 0.00 0.04 0.05 0.07 0.04 0.01 0.00 0.02 0.02 0.03 0.02 0.02 0.00 0.02 0.04 0.08 0.10 0.04 0.01 0.00 0.00 0.00 0.00 0.00 0.00 0.00 0.00 0.00 0.00 0.01 0.01 0.00 0.00 0.00 0.01 0.04 0.13 0.09 0.10 0.14 0.23 0.23
0.00 0.01 0.04 0.08 0.07 0.03 0.01 0.00 0.03 0.04 0.03 0.01 0.02 0.02 0.03 0.05 0.07 0.11 0.06 0.01 0.00 0.00 0.00 0.00 0.00 0.00 0.00 0.00 0.00 0.00 0.00 0.01 0.00 0.00 0.00 0.00 0.02 0.03 0.02 0.04 0.05 0.08 0.12
0.00 0.01 0.03 0.07 0.07 0.04 0.02 0.01 0.02 0.03 0.04 0.02 0.02 0.02 0.03 0.04 0.03 0.08 0.07 0.01 0.00 0.00 0.00 0.00 0.00 0.00 0.00 0.00 0.00 0.00 0.00 0.00 0.00 0.00 0.00 0.00 0.01 0.02 0.02 0.03 0.04 0.04 0.06
0.00 0.01 0.02 0.03 0.05 0.05 0.02 0.00 0.02 0.03 0.04 0.04 0.03 0.00 0.01 0.02 0.03 0.07 0.05 0.00 0.00 0.00 0.01 0.01 0.01 0.01 0.00 0.00 0.00 0.00 0.00 0.00 0.00 0.00 0.00 0.00 0.02 0.05 0.05 0.07 0.07 0.08 0.10
0.00 0.01 0.01 0.01 0.02 0.04 0.02 0.01 0.00 0.01 0.03 0.03 0.02 0.01 0.00 0.00 0.00 0.02 0.00 0.00 0.00 0.01 0.01 0.02 0.02 0.02 0.01 0.01 0.01 0.01 0.00 0.00 0.00 0.00 0.00 0.00 0.05 0.08 0.08 0.09 0.08 0.09 0.11
0.02 0.02 0.01 0.01 0.01 0.01 0.02 0.01 0.00 0.00 0.02 0.02 0.01 0.00 0.00 0.00 0.00 0.01 0.00 0.00 0.00 0.01 0.02 0.03 0.02 0.02 0.01 0.00 0.00 0.00 0.00 0.00 0.00 0.00 0.00 0.01 0.03 0.04 0.05 0.05 0.05 0.08 0.08
0.02 0.02 0.01 0.01 0.02 0.01 0.01 0.01 0.00 0.00 0.00 0.01 0.00 0.00 0.00 0.00 0.00 0.00 0.00 0.00 0.00 0.01 0.03 0.01 0.01 0.01 0.00 0.00 0.00 0.00 0.00 0.00 0.00 0.00 0.00 0.01 0.02 0.02 0.02 0.04 0.05 0.04 0.04
0.01 0.00 0.01 0.00 0.01 0.00 0.00 0.01 0.00 0.00 0.00 0.00 0.00 0.00 0.00 0.00 0.00 0.00 0.00 0.00 0.00 0.00 0.01 0.00 0.00 0.00 0.00 0.00 0.00 0.00 0.00 0.00 0.00 0.00 0.00 0.01 0.00 0.01 0.01 0.02 0.03 0.02 0.02
0.02 0.01 0.01 0.01 0.01 0.01 0.01 0.01 0.00 0.00 0.00 0.00 0.00 0.00 0.00 0.00 0.00 0.00 0.00 0.00 0.00 0.00 0.00 0.00 0.00 0.00 0.00 0.00 0.00 0.00 0.00 0.00 0.00 0.00 0.00 0.00 0.00 0.00 0.01 0.01 0.02 0.01 0.01
0.03 0.01 0.02 0.02 0.04 0.01 0.02 0.02 0.01 0.00 0.00 0.00 0.00 0.00 0.00 0.00 0.00 0.00 0.00 0.00 0.00 0.00 0.00 0.00 0.00 0.00 0.00 0.00 0.00 0.00 0.00 0.00 0.00 0.00 0.00 0.00 0.00 0.00 0.00 0.00 0.01 0.01 0.02
0.14 0.06 0.02 0.02 0.05 0.03 0.01 0.03 0.04 0.01 0.00 0.00 0.00 0.00 0.00 0.00 0.00 0.00 0.00 0.00 0.00 0.00 0.00 0.00 0.00 0.00 0.00 0.00 0.00 0.00 0.00 0.00 0.00 0.00 0.00 0.00 0.00 0.00 0.00 0.00 0.01 0.02 0.03
0.09 0.04 0.02 0.03 0.07 0.01 0.00 0.02 0.03 0.05 0.05 0.02 0.00 0.00 0.00 0.00 0.00 0.00 0.00 0.00 0.00 0.00 0.00 0.00 0.00 0.00 0.00 0.00 0.00 0.00 0.00 0.00 0.00 0.00 0.00 0.00 0.00 0.00 0.00 0.01 0.02 0.03 0.04
0.03 0.02 0.04 0.06 0.08 0.04 0.01 0.08 0.14 0.20 0.09 0.06 0.05 0.04 0.00 0.01 0.00 0.00 0.00 0.00 0.00 0.00 0.00 0.00 0.00 0.00 0.00 0.00 0.00 0.00 0.00 0.00 0.00 0.00 0.00 0.00 0.00 0.00 0.00 0.00 0.00 0.01 0.01
0.00 0.01 0.01 0.02 0.03 0.04 0.08 0.16 0.31 0.28 0.19 0.10 0.07 0.02 0.04 0.06 0.03 0.00 0.00 0.00 0.00 0.00 0.00 0.00 0.00 0.00 0.00 0.00 0.00 0.00 0.00 0.00 0.00 0.00 0.00 0.00 0.00 0.00 0.00 0.00 0.00 0.00 0.01
0.00 0.00 0.00 0.00 0.01 0.03 0.13 0.25 0.39 0.25 0.14 0.10 0.10 0.08 0.08 0.07 0.10 0.08 0.05 0.03 0.01 0.00 0.00 0.00 0.01 0.00 0.00 0.00 0.00 0.00 0.00 0.00 0.00 0.00 0.00 0.00 0.02 0.02 0.01 0.00 0.00 0.00 0.00
0.00 0.00 0.00 0.00 0.00 0.02 0.08 0.08 0.20 0.15 0.18 0.18 0.18 0.20 0.22 0.28 0.25 0.22 0.21 0.14 0.11 0.03 0.04 0.04 0.05 0.02 0.02 0.10 0.06 0.00 0.00 0.00 0.00 0.00 0.00 0.00 0.00 0.01 0.00 0.00 0.00 0.00 0.00
0.00 0.00 0.00 0.00 0.00 0.02 0.03 0.08 0.12 0.20 0.13 0.14 0.21 0.14 0.13 0.25 0.33 0.18 0.24 0.27 0.14 0.06 0.02 0.02 0.10 0.12 0.10 0.16 0.16 0.05 0.00 0.00 0.00 0.00 0.00 0.00 0.00 0.00 0.00 0.00 0.00 0.00 0.00
0.00 0.00 0.00 0.00 0.00 0.01 0.04 0.10 0.10 0.16 0.15 0.12 0.09 0.04 0.15 0.21 0.29 0.24 0.25 0.31 0.25 0.18 0.11 0.11 0.14 0.18 0.18 0.16 0.14 0.14 0.03 0.00 0.00 0.00 0.00 0.00 0.00 0.00 0.00 0.01 0.01 0.01 0.01
0.00 0.00 0.00 0.00 0.00 0.00 0.01 0.05 0.06 0.03 0.05 0.07 0.11 0.21 0.32 0.28 0.27 0.33 0.31 0.38 0.37 0.24 0.22 0.27 0.27 0.23 0.20 0.14 0.13 0.09 0.09 0.04 0.03 0.01 0.00 0.01 0.01 0.00 0.00 0.01 0.02 0.01 0.01
0.00 0.00 0.00 0.00 0.00 0.00 0.00 0.01 0.05 0.03 0.02 0.03 0.08 0.12 0.13 0.17 0.18 0.20 0.20 0.26 0.23 0.25 0.32 0.28 0.28 0.28 0.26 0.21 0.19 0.18 0.14 0.09 0.05 0.04 0.03 0.05 0.04 0.03 0.02 0.01 0.01 0.01 0.01
0.00 0.00 0.00 0.00 0.00 0.00 0.00 0.01 0.02 0.02 0.03 0.05 0.08 0.11 0.10 0.10 0.12 0.14 0.14 0.13 0.19 0.19 0.25 0.32 0.35 0.33 0.29 0.28 0.20 0.18 0.19 0.19 0.15 0.12 0.12 0.09 0.07 0.04 0.03 0.02 0.03 0.03 0.04

GFSSE_prec_precacc_072.txt.gz
Total_Precipitation_Accumulation
0.00 0.02 0.09 0.08 0.11 0.07 0.07 0.07 0.09 0.08 0.08 0.09 0.05 0.02 0.03 0.06 0.03 0.01 0.00 0.01 0.08 0.08 0.09 0.09 0.10 0.12 0.27 0.34 0.30 0.03 0.00 0.00 0.00 0.00 0.00 0.00 0.00 0.01 0.01 0.03 0.06 0.08 0.10
0.00 0.02 0.05 0.09 0.12 0.07 0.10 0.11 0.08 0.06 0.11 0.10 0.06 0.04 0.06 0.10 0.06 0.04 0.01 0.04 0.05 0.06 0.08 0.15 0.21 0.29 0.27 0.12 0.06 0.01 0.00 0.00 0.00 0.00 0.00 0.00 0.00 0.00 0.00 0.01 0.01 0.01 0.03
0.00 0.02 0.02 0.09 0.09 0.08 0.09 0.06 0.04 0.06 0.05 0.03 0.02 0.08 0.11 0.08 0.04 0.02 0.02 0.04 0.06 0.11 0.16 0.21 0.21 0.12 0.02 0.00 0.00 0.00 0.00 0.00 0.00 0.00 0.00 0.01 0.02 0.06 0.05 0.03 0.05 0.05 0.02
0.00 0.01 0.01 0.08 0.07 0.08 0.06 0.02 0.06 0.05 0.02 0.01 0.03 0.07 0.04 0.04 0.04 0.04 0.03 0.05 0.07 0.06 0.06 0.03 0.01 0.00 0.00 0.00 0.00 0.00 0.00 0.00 0.00 0.00 0.00 0.00 0.02 0.10 0.10 0.09 0.13 0.10 0.08
0.00 0.00 0.02 0.07 0.07 0.08 0.02 0.03 0.02 0.03 0.02 0.02 0.02 0.03 0.03 0.06 0.07 0.06 0.03 0.03 0.01 0.00 0.00 0.00 0.00 0.00 0.00 0.00 0.00 0.00 0.01 0.00 0.00 0.00 0.00 0.00 0.02 0.09 0.11 0.12 0.14 0.17 0.16
0.00 0.00 0.04 0.07 0.09 0.05 0.01 0.00 0.02 0.02 0.03 0.02 0.02 0.01 0.05 0.07 0.09 0.10 0.04 0.01 0.00 0.00 0.00 0.00 0.00 0.00 0.00 0.00 0.00 0.00 0.01 0.01 0.00 0.00 0.00 0.01 0.04 0.13 0.09 0.10 0.14 0.23 0.23
0.00 0.01 0.04 0.10 0.09 0.04 0.01 0.00 0.03 0.04 0.03 0.01 0.02 0.02 0.05 0.07 0.08 0.11 0.06 0.01 0.00 0.00 0.00 0.00 0.00 0.00 0.00 0.00 0.00 0.00 0.00 0.01 0.00 0.00 0.00 0.00 0.02 0.03 0.02 0.04 0.05 0.08 0.12
0.00 0.01 0.03 0.09 0.09 0.04 0.02 0.01 0.02 0.03 0.04 0.02 0.03 0.02 0.06 0.07 0.05 0.08 0.07 0.01 0.00 0.00 0.00 0.00 0.00 0.00 0.00 0.00 0.00 0.00 0.00 0.00 0.00 0.00 0.00 0.00 0.01 0.02 0.02 0.03 0.04 0.04 0.06
0.00 0.01 0.02 0.04 0.06 0.05 0.02 0.00 0.02 0.03 0.04 0.05 0.03 0.01 0.03 0.04 0.04 0.07 0.05 0.00 0.00 0.00 0.01 0.01 0.01 0.01 0.00 0.00 0.00 0.00 0.00 0.00 0.00 0.00 0.00 0.00 0.02 0.05 0.05 0.07 0.07 0.08 0.10
0.02 0.01 0.02 0.02 0.03 0.04 0.02 0.01 0.00 0.01 0.03 0.03 0.02 0.01 0.00 0.00 0.00 0.02 0.00 0.00 0.00 0.01 0.01 0.02 0.02 0.02 0.01 0.01 0.01 0.01 0.00 0.00 0.00 0.00 0.00 0.00 0.05 0.08 0.08 0.09 0.08 0.09 0.11
0.03 0.03 0.03 0.02 0.01 0.01 0.02 0.01 0.00 0.00 0.02 0.02 0.01 0.00 0.00 0.00 0.00 0.01 0.00 0.00 0.00 0.01 0.02 0.03 0.02 0.02 0.01 0.00 0.00 0.00 0.00 0.00 0.00 0.00 0.00 0.01 0.03 0.04 0.05 0.05 0.05 0.08 0.08
0.04 0.05 0.04 0.02 0.02 0.01 0.01 0.01 0.00 0.00 0.00 0.01 0.00 0.00 0.00 0.00 0.00 0.00 0.00 0.00 0.00 0.01 0.03 0.01 0.01 0.01 0.00 0.00 0.00 0.00 0.00 0.00 0.00 0.00 0.00 0.01 0.02 0.02 0.02 0.04 0.05 0.04 0.04
0.05 0.04 0.04 0.02 0.02 0.01 0.00 0.01 0.00 0.00 0.00 0.00 0.00 0.00 0.00 0.00 0.00 0.00 0.00 0.00 0.00 0.00 0.01 0.00 0.00 0.00 0.00 0.00 0.00 0.00 0.00 0.00 0.00 0.00 0.00 0.01 0.00 0.01 0.02 0.02 0.03 0.02 0.02
0.15 0.05 0.02 0.02 0.02 0.01 0.01 0.01 0.00 0.00 0.00 0.00 0.00 0.00 0.00 0.00 0.00 0.00 0.00 0.00 0.00 0.00 0.00 0.00 0.00 0.00 0.00 0.00 0.00 0.00 0.00 0.00 0.00 0.00 0.00 0.00 0.00 0.00 0.01 0.01 0.02 0.01 0.01
0.10 0.03 0.03 0.03 0.05 0.03 0.02 0.02 0.01 0.00 0.00 0.00 0.00 0.00 0.00 0.00 0.00 0.00 0.00 0.00 0.00 0.00 0.00 0.00 0.00 0.00 0.00 0.00 0.00 0.00 0.00 0.00 0.00 0.00 0.00 0.00 0.00 0.00 0.00 0.00 0.01 0.01 0.02
0.17 0.09 0.05 0.02 0.06 0.04 0.01 0.04 0.04 0.01 0.00 0.00 0.00 0.00 0.00 0.00 0.00 0.00 0.00 0.00 0.00 0.00 0.00 0.00 0.00 0.00 0.00 0.00 0.00 0.00 0.00 0.00 0.00 0.00 0.00 0.00 0.00 0.00 0.00 0.00 0.01 0.02 0.04
0.09 0.10 0.08 0.07 0.09 0.03 0.02 0.02 0.03 0.05 0.05 0.02 0.00 0.00 0.00 0.00 0.00 0.00 0.00 0.00 0.00 0.00 0.00 0.00 0.00 0.00 0.00 0.00 0.00 0.00 0.00 0.00 0.00 0.00 0.00 0.00 0.00 0.00 0.00 0.01 0.02 0.03 0.04
0.03 0.03 0.08 0.09 0.11 0.07 0.03 0.10 0.15 0.20 0.09 0.06 0.05 0.04 0.00 0.01 0.00 0.00 0.00 0.00 0.00 0.00 0.00 0.00 0.00 0.00 0.00 0.00 0.00 0.00 0.00 0.00 0.00 0.00 0.00 0.00 0.00 0.00 0.00 0.00 0.00 0.01 0.01
0.00 0.01 0.03 0.03 0.04 0.06 0.09 0.17 0.32 0.28 0.19 0.10 0.07 0.02 0.04 0.06 0.03 0.00 0.00 0.00 0.00 0.00 0.00 0.00 0.00 0.00 0.00 0.00 0.01 0.00 0.00 0.00 0.00 0.00 0.00 0.00 0.00 0.00 0.00 0.00 0.00 0.00 0.01
0.00 0.00 0.02 0.04 0.05 0.05 0.17 0.30 0.40 0.26 0.15 0.10 0.10 0.08 0.08 0.07 0.10 0.08 0.05 0.03 0.01 0.00 0.00 0.00 0.01 0.02 0.02 0.03 0.03 0.01 0.00 0.00 0.00 0.00 0.00 0.00 0.02 0.02 0.01 0.00 0.00 0.00 0.00
0.00 0.02 0.01 0.01 0.04 0.07 0.11 0.12 0.23 0.15 0.19 0.19 0.18 0.20 0.22 0.28 0.25 0.22 0.21 0.14 0.11 0.03 0.04 0.05 0.07 0.04 0.04 0.14 0.09 0.01 0.00 0.00 0.00 0.00 0.00 0.00 0.00 0.01 0.00 0.00 0.00 0.00 0.00
0.00 0.00 0.03 0.01 0.00 0.05 0.04 0.08 0.13 0.21 0.14 0.16 0.22 0.14 0.14 0.25 0.33 0.18 0.24 0.28 0.15 0.06 0.03 0.03 0.12 0.14 0.11 0.17 0.18 0.07 0.01 0.00 0.00 0.00 0.00 0.00 0.00 0.00 0.00 0.00 0.00 0.00 0.00
0.00 0.00 0.00 0.00 0.01 0.02 0.05 0.10 0.10 0.17 0.16 0.15 0.10 0.05 0.16 0.22 0.29 0.24 0.25 0.31 0.25 0.19 0.12 0.12 0.14 0.19 0.19 0.16 0.15 0.16 0.04 0.01 0.00 0.00 0.00 0.00 0.00 0.00 0.00 0.01 0.01 0.01 0.01
0.00 0.00 0.00 0.00 0.00 0.01 0.01 0.05 0.06 0.03 0.05 0.08 0.12 0.22 0.33 0.28 0.27 0.33 0.31 0.38 0.37 0.24 0.23 0.27 0.27 0.23 0.21 0.15 0.14 0.10 0.11 0.06 0.05 0.02 0.00 0.01 0.01 0.00 0.00 0.01 0.02 0.01 0.01
0.00 0.00 0.00 0.00 0.00 0.00 0.00 0.01 0.05 0.03 0.02 0.03 0.08 0.12 0.13 0.17 0.18 0.20 0.20 0.26 0.23 0.25 0.32 0.28 0.28 0.28 0.26 0.22 0.19 0.19 0.15 0.11 0.06 0.06 0.04 0.05 0.04 0.03 0.02 0.01 0.01 0.01 0.01
0.00 0.00 0.00 0.00 0.00 0.00 0.00 0.01 0.02 0.02 0.03 0.05 0.08 0.11 0.10 0.10 0.12 0.14 0.14 0.13 0.19 0.19 0.25 0.32 0.35 0.33 0.29 0.28 0.21 0.19 0.20 0.20 0.15 0.13 0.12 0.09 0.08 0.04 0.03 0.02 0.03 0.03 0.04

GFSSE_prec_precacc_075.txt.gz
Total_Precipitation_Accumulation
0.00 0.02 0.09 0.08 0.11 0.08 0.08 0.08 0.10 0.09 0.08 0.09 0.05 0.03 0.04 0.06 0.03 0.01 0.01 0.05 0.13 0.09 0.10 0.10 0.10 0.12 0.27 0.34 0.30 0.03 0.00 0.00 0.00 0.00 0.00 0.00 0.00 0.01 0.02 0.03 0.06 0.08 0.10
0.00 0.02 0.05 0.09 0.12 0.07 0.11 0.12 0.08 0.06 0.11 0.10 0.06 0.06 0.07 0.10 0.06 0.04 0.01 0.05 0.06 0.06 0.09 0.15 0.21 0.29 0.27 0.12 0.06 0.01 0.00 0.00 0.00 0.00 0.00 0.00 0.01 0.01 0.01 0.02 0.02 0.02 0.03
0.00 0.02 0.02 0.09 0.09 0.08 0.09 0.06 0.04 0.06 0.05 0.03 0.03 0.09 0.11 0.08 0.04 0.02 0.02 0.04 0.06 0.11 0.16 0.21 0.21 0.12 0.02 0.00 0.00 0.00 0.00 0.00 0.00 0.00 0.00 0.01 0.03 0.08 0.06 0.03 0.06 0.05 0.02
0.00 0.01 0.01 0.08 0.08 0.08 0.06 0.02 0.06 0.05 0.02 0.01 0.04 0.08 0.04 0.04 0.04 0.04 0.03 0.06 0.07 0.06 0.06 0.03 0.01 0.00 0.00 0.00 0.00 0.00 0.00 0.00 0.00 0.00 0.00 0.00 0.02 0.10 0.10 0.09 0.14 0.11 0.09
0.00 0.00 0.02 0.07 0.08 0.08 0.02 0.03 0.02 0.03 0.02 0.02 0.02 0.04 0.03 0.06 0.07 0.06 0.03 0.03 0.01 0.00 0.00 0.00 0.00 0.00 0.00 0.00 0.00 0.00 0.01 0.00 0.00 0.00 0.00 0.00 0.02 0.09 0.11 0.12 0.14 0.17 0.16
0.00 0.00 0.04 0.07 0.10 0.05 0.01 0.00 0.02 0.02 0.03 0.02 0.03 0.02 0.05 0.07 0.09 0.10 0.04 0.01 0.00 0.00 0.00 0.00 0.00 0.00 0.00 0.00 0.00 0.00 0.01 0.01 0.00 0.00 0.00 0.01 0.04 0.13 0.09 0.10 0.14 0.23 0.23
0.00 0.01 0.04 0.11 0.10 0.04 0.01 0.00 0.03 0.04 0.03 0.01 0.02 0.03 0.05 0.07 0.08 0.11 0.06 0.01 0.00 0.00 0.00 0.00 0.00 0.00 0.00 0.00 0.00 0.00 0.00 0.01 0.00 0.00 0.00 0.00 0.02 0.03 0.02 0.04 0.05 0.08 0.12
0.00 0.01 0.03 0.10 0.09 0.04 0.02 0.01 0.02 0.03 0.04 0.02 0.03 0.04 0.06 0.07 0.05 0.08 0.07 0.01 0.00 0.00 0.00 0.00 0.00 0.00 0.00 0.00 0.00 0.00 0.00 0.00 0.00 0.00 0.00 0.00 0.01 0.02 0.02 0.03 0.04 0.04 0.06
0.00 0.01 0.02 0.04 0.06 0.05 0.02 0.00 0.02 0.03 0.04 0.05 0.03 0.03 0.04 0.04 0.04 0.07 0.05 0.00 0.00 0.00 0.01 0.01 0.01 0.01 0.00 0.00 0.00 0.00 0.00 0.00 0.00 0.00 0.00 0.00 0.02 0.05 0.05 0.07 0.07 0.08 0.10
0.02 0.01 0.02 0.02 0.03 0.04 0.02 0.01 0.00 0.01 0.03 0.03 0.02 0.01 0.00 0.00 0.00 0.02 0.00 0.00 0.00 0.01 0.01 0.02 0.02 0.02 0.01 0.01 0.01 0.01 0.00 0.00 0.00 0.00 0.00 0.00 0.05 0.08 0.08 0.09 0.08 0.09 0.11
0.04 0.03 0.04 0.02 0.01 0.01 0.02 0.01 0.00 0.00 0.02 0.02 0.01 0.00 0.00 0.00 0.00 0.01 0.00 0.00 0.00 0.01 0.02 0.03 0.02 0.02 0.01 0.00 0.00 0.00 0.00 0.00 0.00 0.00 0.00 0.01 0.03 0.04 0.05 0.05 0.05 0.08 0.08
0.08 0.06 0.05 0.03 0.02 0.01 0.01 0.01 0.00 0.00 0.00 0.01 0.00 0.00 0.00 0.00 0.00 0.00 0.00 0.00 0.00 0.01 0.03 0.01 0.01 0.01 0.00 0.00 0.00 0.00 0.00 0.00 0.00 0.00 0.00 0.01 0.02 0.02 0.02 0.04 0.05 0.04 0.04
0.21 0.13 0.08 0.03 0.02 0.01 0.00 0.01 0.00 0.00 0.00 0.00 0.00 0.00 0.00 0.00 0.00 0.00 0.00 0.00 0.00 0.00 0.01 0.00 0.00 0.00 0.00 0.00 0.00 0.00 0.00 0.00 0.00 0.00 0.00 0.01 0.00 0.01 0.02 0.02 0.03 0.02 0.02
0.24 0.17 0.06 0.03 0.02 0.01 0.01 0.01 0.00 0.00 0.00 0.00 0.00 0.00 0.00 0.00 0.00 0.00 0.00 0.00 0.00 0.00 0.00 0.00 0.00 0.00 0.00 0.00 0.00 0.00 0.00 0.00 0.00 0.00 0.00 0.00 0.00 0.00 0.01 0.01 0.02 0.01 0.01
0.11 0.05 0.05 0.04 0.06 0.03 0.02 0.02 0.01 0.00 0.00 0.00 0.00 0.00 0.00 0.00 0.00 0.00 0.00 0.00 0.00 0.00 0.00 0.00 0.00 0.00 0.00 0.00 0.00 0.00 0.00 0.00 0.00 0.00 0.00 0.00 0.00 0.00 0.00 0.00 0.01 0.01 0.02
0.25 0.13 0.06 0.03 0.06 0.04 0.02 0.04 0.04 0.01 0.00 0.00 0.00 0.00 0.00 0.00 0.00 0.00 0.00 0.00 0.00 0.00 0.00 0.00 0.00 0.00 0.00 0.00 0.00 0.00 0.00 0.00 0.00 0.00 0.00 0.00 0.00 0.00 0.00 0.00 0.01 0.02 0.04
0.20 0.35 0.29 0.11 0.09 0.03 0.02 0.03 0.03 0.05 0.05 0.02 0.00 0.00 0.00 0.00 0.00 0.00 0.00 0.00 0.00 0.00 0.00 0.00 0.00 0.00 0.00 0.00 0.00 0.00 0.00 0.00 0.00 0.00 0.00 0.00 0.00 0.00 0.00 0.01 0.02 0.03 0.04
0.08 0.05 0.13 0.18 0.14 0.07 0.03 0.10 0.15 0.20 0.09 0.06 0.06 0.05 0.00 0.01 0.00 0.00 0.00 0.00 0.00 0.00 0.00 0.00 0.00 0.00 0.00 0.00 0.00 0.00 0.00 0.00 0.00 0.00 0.00 0.00 0.00 0.00 0.00 0.00 0.00 0.01 0.01
0.00 0.02 0.04 0.05 0.08 0.07 0.11 0.18 0.33 0.30 0.20 0.11 0.07 0.02 0.05 0.06 0.03 0.00 0.00 0.00 0.00 0.00 0.00 0.00 0.00 0.00 0.00 0.00 0.01 0.00 0.00 0.00 0.00 0.00 0.00 0.01 0.01 0.01 0.00 0.00 0.00 0.00 0.01
0.01 0.01 0.06 0.10 0.08 0.08 0.20 0.31 0.40 0.27 0.15 0.10 0.10 0.08 0.08 0.07 0.10 0.08 0.05 0.03 0.01 0.00 0.00 0.00 0.01 0.02 0.02 0.03 0.03 0.01 0.00 0.00 0.00 0.00 0.00 0.00 0.02 0.02 0.01 0.00 0.00 0.00 0.00
0.00 0.04 0.05 0.06 0.10 0.13 0.18 0.13 0.24 0.17 0.20 0.19 0.20 0.24 0.23 0.28 0.25 0.22 0.21 0.14 0.11 0.03 0.04 0.05 0.07 0.04 0.04 0.14 0.10 0.01 0.00 0.00 0.00 0.00 0.00 0.00 0.00 0.01 0.00 0.00 0.00 0.00 0.00
0.00 0.03 0.08 0.04 0.03 0.13 0.13 0.15 0.19 0.29 0.18 0.20 0.27 0.17 0.17 0.26 0.33 0.19 0.24 0.28 0.15 0.06 0.03 0.03 0.12 0.14 0.11 0.17 0.19 0.08 0.02 0.00 0.00 0.00 0.00 0.00 0.00 0.00 0.00 0.00 0.00 0.00 0.00
0.00 0.00 0.00 0.00 0.04 0.06 0.07 0.15 0.15 0.19 0.17 0.17 0.15 0.07 0.19 0.23 0.31 0.24 0.25 0.31 0.25 0.19 0.12 0.12 0.15 0.19 0.19 0.16 0.15 0.17 0.05 0.01 0.00 0.00 0.00 0.00 0.00 0.00 0.00 0.01 0.01 0.01 0.01
0.00 0.00 0.00 0.00 0.01 0.07 0.07 0.12 0.12 0.10 0.09 0.14 0.14 0.22 0.34 0.29 0.31 0.34 0.31 0.38 0.37 0.24 0.23 0.27 0.27 0.23 0.21 0.15 0.14 0.10 0.11 0.07 0.06 0.02 0.00 0.01 0.01 0.00 0.00 0.01 0.02 0.01 0.01
0.00 0.00 0.00 0.00 0.00 0.03 0.06 0.05 0.14 0.12 0.07 0.06 0.09 0.12 0.13 0.17 0.18 0.21 0.21 0.26 0.23 0.25 0.32 0.28 0.28 0.28 0.26 0.22 0.19 0.19 0.15 0.11 0.06 0.07 0.04 0.05 0.04 0.03 0.02 0.01 0.01 0.01 0.01
0.00 0.00 0.00 0.00 0.00 0.01 0.01 0.02 0.08 0.07 0.06 0.07 0.09 0.12 0.11 0.11 0.12 0.14 0.14 0.13 0.19 0.19 0.25 0.32 0.35 0.33 0.29 0.28 0.21 0.19 0.20 0.20 0.15 0.13 0.13 0.09 0.08 0.04 0.03 0.02 0.03 0.03 0.04

GFSSE_prec_precacc_081.txt.gz
Total_Precipitation_Accumulation
0.00 0.02 0.11 0.09 0.11 0.08 0.08 0.10 0.11 0.09 0.08 0.10 0.06 0.04 0.05 0.09 0.13 0.15 0.06 0.07 0.13 0.09 0.10 0.10 0.10 0.12 0.27 0.34 0.30 0.04 0.01 0.00 0.00 0.00 0.01 0.02 0.03 0.03 0.03 0.04 0.06 0.08 0.10
0.00 0.02 0.06 0.10 0.13 0.09 0.14 0.12 0.09 0.06 0.12 0.13 0.09 0.06 0.07 0.14 0.14 0.11 0.05 0.05 0.06 0.06 0.09 0.15 0.21 0.29 0.27 0.12 0.06 0.01 0.00 0.00 0.00 0.00 0.00 0.01 0.03 0.03 0.01 0.03 0.03 0.03 0.05
0.00 0.02 0.02 0.10 0.11 0.10 0.10 0.06 0.04 0.06 0.06 0.06 0.04 0.09 0.11 0.09 0.06 0.04 0.03 0.04 0.06 0.11 0.16 0.21 0.21 0.12 0.02 0.00 0.00 0.00 0.00 0.00 0.00 0.00 0.00 0.01 0.03 0.09 0.06 0.04 0.07 0.06 0.04
0.00 0.01 0.02 0.09 0.09 0.09 0.06 0.02 0.06 0.05 0.03 0.03 0.05 0.08 0.04 0.04 0.04 0.04 0.04 0.06 0.07 0.06 0.06 0.03 0.01 0.00 0.00 0.00 0.00 0.00 0.00 0.00 0.00 0.00 0.00 0.00 0.02 0.10 0.10 0.09 0.14 0.11 0.09
0.00 0.01 0.03 0.09 0.10 0.09 0.02 0.03 0.02 0.03 0.03 0.03 0.03 0.04 0.03 0.06 0.07 0.06 0.04 0.03 0.01 0.00 0.00 0.00 0.00 0.00 0.00 0.00 0.00 0.00 0.01 0.00 0.00 0.00 0.00 0.00 0.02 0.09 0.11 0.12 0.14 0.17 0.16
0.01 0.02 0.06 0.10 0.12 0.06 0.01 0.00 0.02 0.04 0.04 0.02 0.03 0.02 0.05 0.07 0.09 0.10 0.04 0.01 0.00 0.00 0.00 0.00 0.00 0.00 0.00 0.00 0.00 0.00 0.01 0.01 0.00 0.00 0.00 0.01 0.04 0.13 0.09 0.10 0.14 0.23 0.23
0.01 0.03 0.05 0.14 0.11 0.04 0.01 0.00 0.04 0.06 0.05 0.02 0.03 0.03 0.05 0.07 0.08 0.11 0.06 0.01 0.00 0.00 0.00 0.00 0.00 0.00 0.00 0.00 0.00 0.00 0.00 0.01 0.00 0.00 0.00 0.00 0.02 0.03 0.02 0.04 0.05 0.08 0.12
0.01 0.03 0.05 0.15 0.10 0.04 0.02 0.01 0.02 0.06 0.06 0.04 0.05 0.04 0.06 0.07 0.05 0.08 0.07 0.01 0.00 0.00 0.00 0.00 0.00 0.00 0.00 0.00 0.00 0.00 0.00 0.00 0.00 0.00 0.00 0.00 0.01 0.02 0.02 0.03 0.04 0.04 0.06
0.01 0.02 0.06 0.09 0.07 0.05 0.02 0.00 0.02 0.05 0.07 0.08 0.05 0.03 0.04 0.04 0.04 0.07 0.05 0.00 0.00 0.00 0.01 0.01 0.01 0.01 0.00 0.00 0.00 0.00 0.00 0.00 0.00 0.00 0.00 0.00 0.02 0.05 0.05 0.07 0.07 0.08 0.10
0.13 0.03 0.04 0.03 0.03 0.04 0.02 0.01 0.00 0.02 0.04 0.05 0.03 0.01 0.00 0.00 0.00 0.02 0.00 0.00 0.00 0.01 0.01 0.02 0.02 0.02 0.01 0.01 0.01 0.01 0.00 0.00 0.00 0.00 0.00 0.00 0.05 0.08 0.08 0.09 0.08 0.09 0.11
0.24 0.09 0.04 0.02 0.01 0.01 0.02 0.01 0.00 0.01 0.02 0.03 0.01 0.00 0.00 0.00 0.00 0.01 0.00 0.00 0.00 0.01 0.02 0.03 0.02 0.02 0.01 0.00 0.00 0.00 0.00 0.00 0.00 0.00 0.00 0.01 0.03 0.04 0.05 0.05 0.05 0.08 0.08
0.37 0.24 0.09 0.03 0.02 0.01 0.01 0.01 0.00 0.00 0.00 0.01 0.00 0.00 0.00 0.00 0.00 0.00 0.00 0.00 0.00 0.01 0.03 0.01 0.01 0.01 0.00 0.00 0.00 0.00 0.00 0.00 0.00 0.00 0.00 0.01 0.02 0.02 0.02 0.04 0.05 0.04 0.04
0.92 0.53 0.33 0.05 0.02 0.01 0.00 0.01 0.00 0.00 0.00 0.00 0.00 0.00 0.00 0.00 0.00 0.00 0.00 0.00 0.00 0.00 0.01 0.00 0.00 0.00 0.00 0.00 0.00 0.00 0.00 0.00 0.00 0.00 0.00 0.01 0.00 0.01 0.02 0.02 0.03 0.02 0.02
1.19 0.78 0.48 0.20 0.07 0.01 0.01 0.01 0.00 0.00 0.00 0.00 0.00 0.00 0.00 0.00 0.00 0.00 0.00 0.00 0.00 0.00 0.00 0.00 0.00 0.00 0.00 0.00 0.00 0.00 0.00 0.00 0.00 0.00 0.00 0.00 0.00 0.00 0.01 0.01 0.02 0.01 0.01
0.23 0.39 0.48 0.39 0.25 0.05 0.02 0.02 0.01 0.00 0.00 0.00 0.00 0.00 0.00 0.00 0.00 0.00 0.00 0.00 0.00 0.00 0.00 0.00 0.00 0.00 0.00 0.00 0.00 0.00 0.00 0.00 0.00 0.00 0.00 0.00 0.00 0.00 0.00 0.00 0.01 0.01 0.03
0.26 0.16 0.22 0.32 0.35 0.12 0.03 0.04 0.04 0.01 0.00 0.00 0.00 0.00 0.00 0.00 0.00 0.00 0.00 0.00 0.00 0.00 0.00 0.00 0.00 0.00 0.00 0.00 0.00 0.00 0.00 0.00 0.00 0.00 0.00 0.00 0.00 0.00 0.00 0.00 0.01 0.02 0.05
0.21 0.37 0.32 0.22 0.25 0.14 0.11 0.08 0.03 0.05 0.05 0.02 0.00 0.00 0.00 0.00 0.00 0.00 0.00 0.00 0.00 0.00 0.00 0.00 0.00 0.00 0.00 0.00 0.00 0.00 0.00 0.00 0.00 0.00 0.00 0.00 0.00 0.00 0.00 0.01 0.02 0.04 0.05
0.20 0.17 0.25 0.37 0.32 0.31 0.29 0.26 0.33 0.27 0.10 0.06 0.06 0.05 0.00 0.01 0.00 0.00 0.00 0.00 0.00 0.00 0.00 0.00 0.00 0.00 0.00 0.00 0.00 0.00 0.00 0.00 0.00 0.00 0.00 0.00 0.00 0.00 0.00 0.00 0.00 0.02 0.04
0.12 0.12 0.07 0.09 0.14 0.12 0.21 0.29 0.40 0.37 0.22 0.11 0.07 0.03 0.06 0.07 0.03 0.00 0.00 0.00 0.00 0.00 0.00 0.00 0.00 0.00 0.00 0.00 0.01 0.00 0.00 0.00 0.00 0.00 0.00 0.01 0.01 0.01 0.00 0.01 0.00 0.00 0.01
0.20 0.19 0.24 0.16 0.17 0.23 0.39 0.48 0.50 0.31 0.17 0.11 0.10 0.10 0.10 0.08 0.10 0.08 0.05 0.03 0.01 0.00 0.00 0.00 0.01 0.02 0.02 0.03 0.03 0.01 0.00 0.00 0.00 0.00 0.00 0.00 0.02 0.02 0.01 0.01 0.00 0.00 0.00
0.26 0.31 0.36 0.37 0.22 0.15 0.19 0.14 0.25 0.18 0.22 0.20 0.21 0.27 0.24 0.30 0.26 0.22 0.21 0.14 0.11 0.03 0.04 0.05 0.07 0.05 0.04 0.14 0.11 0.01 0.00 0.00 0.00 0.00 0.00 0.00 0.00 0.01 0.00 0.00 0.00 0.00 0.00
0.10 0.20 0.25 0.09 0.14 0.17 0.15 0.19 0.32 0.49 0.39 0.41 0.39 0.30 0.20 0.28 0.34 0.19 0.25 0.28 0.15 0.06 0.03 0.03 0.13 0.15 0.12 0.18 0.20 0.09 0.02 0.00 0.00 0.00 0.00 0.00 0.00 0.00 0.00 0.00 0.00 0.00 0.00
0.01 0.03 0.06 0.05 0.16 0.25 0.37 0.52 0.49 0.50 0.32 0.34 0.23 0.11 0.24 0.32 0.45 0.29 0.29 0.34 0.28 0.21 0.12 0.12 0.15 0.21 0.21 0.17 0.16 0.18 0.06 0.01 0.00 0.00 0.00 0.00 0.00 0.00 0.00 0.01 0.01 0.01 0.01
0.00 0.02 0.10 0.19 0.26 0.29 0.40 0.39 0.32 0.41 0.49 0.59 0.56 0.53 0.67 0.65 0.66 0.60 0.48 0.58 0.55 0.37 0.28 0.28 0.28 0.24 0.21 0.15 0.14 0.10 0.11 0.08 0.07 0.03 0.00 0.01 0.01 0.00 0.00 0.01 0.02 0.01 0.01
0.00 0.00 0.03 0.09 0.10 0.19 0.25 0.25 0.40 0.41 0.36 0.35 0.35 0.45 0.52 0.56 0.52 0.46 0.40 0.41 0.35 0.34 0.37 0.30 0.29 0.28 0.26 0.22 0.19 0.19 0.15 0.11 0.06 0.07 0.05 0.05 0.04 0.03 0.02 0.01 0.01 0.01 0.01
0.00 0.00 0.00 0.01 0.02 0.09 0.17 0.17 0.24 0.16 0.15 0.17 0.21 0.27 0.26 0.24 0.25 0.21 0.19 0.16 0.23 0.23 0.28 0.34 0.36 0.33 0.29 0.28 0.21 0.19 0.20 0.20 0.15 0.13 0.13 0.10 0.08 0.04 0.03 0.02 0.03 0.03 0.04

GFSSE_prec_precacc_084.txt.gz
Total_Precipitation_Accumulation
0.00 0.02 0.12 0.10 0.12 0.09 0.09 0.10 0.11 0.09 0.09 0.10 0.07 0.05 0.06 0.11 0.15 0.16 0.07 0.07 0.13 0.09 0.10 0.10 0.10 0.13 0.28 0.35 0.30 0.04 0.01 0.00 0.00 0.00 0.01 0.02 0.03 0.04 0.04 0.05 0.07 0.08 0.10
0.00 0.02 0.06 0.11 0.13 0.10 0.14 0.13 0.09 0.06 0.12 0.13 0.10 0.07 0.10 0.20 0.19 0.11 0.05 0.05 0.06 0.06 0.09 0.15 0.21 0.29 0.28 0.12 0.06 0.01 0.00 0.00 0.00 0.00 0.00 0.02 0.03 0.03 0.02 0.03 0.04 0.04 0.05
0.00 0.02 0.02 0.11 0.12 0.11 0.10 0.06 0.04 0.07 0.07 0.06 0.05 0.10 0.17 0.15 0.10 0.05 0.03 0.04 0.06 0.11 0.16 0.21 0.22 0.12 0.02 0.00 0.00 0.00 0.00 0.00 0.00 0.00 0.00 0.01 0.03 0.09 0.06 0.04 0.07 0.06 0.05
0.00 0.01 0.02 0.10 0.10 0.11 0.06 0.02 0.06 0.08 0.04 0.03 0.05 0.09 0.09 0.08 0.06 0.04 0.04 0.06 0.07 0.06 0.06 0.04 0.01 0.00 0.00 0.00 0.00 0.00 0.00 0.00 0.00 0.00 0.00 0.00 0.02 0.10 0.10 0.09 0.14 0.11 0.09
0.01 0.01 0.03 0.10 0.12 0.10 0.02 0.03 0.03 0.06 0.03 0.03 0.03 0.04 0.04 0.07 0.07 0.06 0.04 0.03 0.01 0.00 0.00 0.00 0.00 0.00 0.00 0.00 0.00 0.00 0.01 0.00 0.00 0.00 0.00 0.00 0.02 0.09 0.11 0.12 0.14 0.17 0.16
0.01 0.02 0.06 0.13 0.15 0.06 0.01 0.00 0.03 0.05 0.04 0.02 0.03 0.02 0.05 0.07 0.09 0.10 0.04 0.01 0.00 0.00 0.00 0.00 0.00 0.00 0.00 0.00 0.00 0.00 0.01 0.01 0.00 0.00 0.00 0.01 0.04 0.13 0.09 0.10 0.14 0.23 0.23
0.02 0.03 0.06 0.18 0.12 0.04 0.01 0.00 0.07 0.07 0.05 0.02 0.03 0.03 0.05 0.08 0.08 0.11 0.06 0.01 0.00 0.00 0.00 0.00 0.00 0.00 0.00 0.00 0.00 0.00 0.00 0.01 0.00 0.00 0.00 0.00 0.02 0.03 0.02 0.04 0.05 0.08 0.12
0.01 0.04 0.06 0.19 0.10 0.04 0.02 0.01 0.05 0.07 0.06 0.04 0.05 0.04 0.06 0.07 0.05 0.08 0.07 0.01 0.00 0.00 0.00 0.00 0.00 0.00 0.00 0.00 0.00 0.00 0.00 0.00 0.00 0.00 0.00 0.00 0.01 0.02 0.02 0.03 0.04 0.04 0.06
0.02 0.03 0.06 0.11 0.07 0.05 0.02 0.01 0.04 0.06 0.08 0.08 0.05 0.03 0.04 0.04 0.04 0.07 0.05 0.00 0.00 0.00 0.01 0.01 0.01 0.01 0.00 0.00 0.00 0.00 0.00 0.00 0.00 0.00 0.00 0.00 0.02 0.05 0.05 0.07 0.07 0.08 0.10
0.16 0.06 0.05 0.04 0.03 0.04 0.02 0.01 0.02 0.05 0.06 0.05 0.03 0.01 0.00 0.00 0.00 0.02 0.00 0.00 0.00 0.01 0.01 0.02 0.02 0.02 0.01 0.01 0.01 0.01 0.00 0.00 0.00 0.00 0.00 0.00 0.05 0.08 0.08 0.09 0.08 0.09 0.11
0.32 0.20 0.07 0.02 0.01 0.01 0.02 0.01 0.01 0.03 0.05 0.04 0.01 0.00 0.00 0.00 0.00 0.01 0.00 0.00 0.00 0.01 0.02 0.03 0.02 0.02 0.01 0.00 0.00 0.00 0.00 0.00 0.00 0.00 0.00 0.01 0.03 0.04 0.05 0.05 0.05 0.08 0.08
0.40 0.27 0.16 0.03 0.02 0.01 0.01 0.01 0.00 0.00 0.02 0.02 0.00 0.00 0.00 0.00 0.00 0.00 0.00 0.00 0.00 0.01 0.03 0.01 0.01 0.01 0.00 0.00 0.00 0.00 0.00 0.00 0.00 0.00 0.00 0.01 0.02 0.02 0.02 0.04 0.05 0.04 0.04
1.02 0.56 0.37 0.07 0.02 0.01 0.00 0.01 0.00 0.00 0.00 0.00 0.00 0.00 0.00 0.00 0.00 0.00 0.00 0.00 0.00 0.00 0.01 0.00 0.00 0.00 0.00 0.00 0.00 0.00 0.00 0.00 0.00 0.00 0.00 0.01 0.00 0.01 0.02 0.02 0.03 0.02 0.02
1.31 0.92 0.54 0.23 0.08 0.01 0.01 0.01 0.00 0.00 0.00 0.00 0.00 0.00 0.00 0.00 0.00 0.00 0.00 0.00 0.00 0.00 0.00 0.00 0.00 0.00 0.00 0.00 0.00 0.00 0.00 0.00 0.00 0.00 0.00 0.00 0.00 0.00 0.01 0.01 0.02 0.01 0.01
0.31 0.46 0.49 0.40 0.25 0.07 0.02 0.02 0.01 0.00 0.00 0.00 0.00 0.00 0.00 0.00 0.00 0.00 0.00 0.00 0.00 0.00 0.00 0.00 0.00 0.00 0.00 0.00 0.00 0.00 0.00 0.00 0.00 0.00 0.00 0.00 0.00 0.00 0.00 0.00 0.01 0.01 0.03
0.41 0.29 0.24 0.32 0.36 0.19 0.07 0.04 0.04 0.01 0.00 0.00 0.00 0.00 0.00 0.00 0.00 0.00 0.00 0.00 0.00 0.00 0.00 0.00 0.00 0.00 0.00 0.00 0.00 0.00 0.00 0.00 0.00 0.00 0.00 0.00 0.00 0.00 0.00 0.00 0.01 0.02 0.05
0.27 0.42 0.36 0.22 0.27 0.16 0.16 0.11 0.04 0.05 0.05 0.02 0.00 0.00 0.00 0.00 0.00 0.00 0.00 0.00 0.00 0.00 0.00 0.00 0.00 0.00 0.00 0.00 0.00 0.00 0.00 0.00 0.00 0.00 0.00 0.00 0.00 0.00 0.00 0.01 0.02 0.04 0.06
0.28 0.19 0.25 0.37 0.32 0.32 0.29 0.27 0.36 0.29 0.10 0.06 0.06 0.05 0.01 0.01 0.00 0.00 0.00 0.00 0.00 0.00 0.00 0.00 0.00 0.00 0.00 0.00 0.00 0.00 0.00 0.00 0.00 0.00 0.00 0.00 0.00 0.00 0.00 0.00 0.01 0.02 0.07
0.14 0.12 0.07 0.09 0.14 0.12 0.21 0.29 0.41 0.38 0.24 0.11 0.07 0.03 0.07 0.08 0.03 0.00 0.00 0.00 0.00 0.00 0.00 0.00 0.00 0.00 0.00 0.00 0.01 0.00 0.00 0.00 0.00 0.00 0.00 0.01 0.01 0.01 0.00 0.01 0.01 0.01 0.02
0.22 0.23 0.29 0.16 0.18 0.24 0.44 0.51 0.51 0.31 0.17 0.11 0.10 0.10 0.11 0.09 0.10 0.08 0.05 0.03 0.01 0.00 0.00 0.00 0.01 0.02 0.02 0.03 0.03 0.01 0.00 0.00 0.00 0.00 0.00 0.00 0.02 0.02 0.01 0.01 0.00 0.00 0.00
0.38 0.40 0.38 0.41 0.33 0.18 0.20 0.15 0.25 0.18 0.22 0.20 0.21 0.28 0.26 0.31 0.27 0.23 0.22 0.14 0.11 0.03 0.04 0.05 0.07 0.05 0.04 0.14 0.11 0.01 0.00 0.00 0.00 0.00 0.00 0.00 0.00 0.01 0.00 0.00 0.00 0.00 0.00
0.16 0.23 0.35 0.11 0.22 0.24 0.16 0.23 0.34 0.52 0.44 0.48 0.52 0.41 0.25 0.31 0.36 0.21 0.26 0.29 0.17 0.08 0.04 0.04 0.13 0.15 0.12 0.18 0.21 0.10 0.02 0.00 0.00 0.00 0.00 0.00 0.00 0.00 0.00 0.00 0.00 0.00 0.00
0.03 0.03 0.07 0.15 0.34 0.51 0.64 0.90 0.78 0.79 0.59 0.67 0.63 0.33 0.41 0.60 0.75 0.55 0.49 0.51 0.46 0.41 0.30 0.25 0.24 0.23 0.22 0.17 0.16 0.19 0.06 0.01 0.00 0.00 0.00 0.00 0.00 0.00 0.00 0.01 0.01 0.01 0.01
0.00 0.02 0.12 0.33 0.37 0.37 0.57 0.55 0.43 0.59 0.71 0.72 0.76 0.81 1.08 1.08 1.13 1.04 0.94 1.17 0.99 0.72 0.46 0.37 0.35 0.30 0.27 0.19 0.14 0.10 0.11 0.08 0.07 0.03 0.00 0.01 0.01 0.00 0.00 0.01 0.02 0.01 0.01
0.00 0.00 0.03 0.10 0.11 0.20 0.31 0.36 0.50 0.47 0.43 0.41 0.42 0.51 0.57 0.65 0.67 0.72 0.76 0.80 0.62 0.46 0.42 0.35 0.36 0.34 0.29 0.25 0.20 0.19 0.15 0.11 0.06 0.07 0.05 0.05 0.04 0.03 0.02 0.01 0.01 0.01 0.01
0.00 0.00 0.00 0.01 0.02 0.10 0.29 0.23 0.34 0.24 0.31 0.35 0.31 0.28 0.26 0.25 0.26 0.27 0.27 0.24 0.29 0.28 0.34 0.39 0.39 0.36 0.30 0.29 0.21 0.19 0.20 0.20 0.15 0.13 0.13 0.10 0.08 0.04 0.03 0.02 0.03 0.03 0.04

GFSSE_prec_precacc_087.txt.gz
Total_Precipitation_Accumulation
0.00 0.02 0.14 0.12 0.12 0.09 0.09 0.10 0.11 0.09 0.09 0.11 0.08 0.06 0.07 0.11 0.15 0.16 0.07 0.07 0.13 0.09 0.10 0.10 0.11 0.14 0.28 0.35 0.30 0.04 0.01 0.01 0.00 0.00 0.01 0.02 0.04 0.05 0.05 0.06 0.07 0.08 0.10
0.00 0.02 0.08 0.12 0.13 0.10 0.15 0.13 0.09 0.06 0.12 0.15 0.12 0.10 0.11 0.22 0.20 0.11 0.05 0.05 0.06 0.06 0.09 0.15 0.21 0.29 0.28 0.12 0.06 0.02 0.00 0.00 0.00 0.00 0.00 0.02 0.03 0.03 0.02 0.03 0.04 0.05 0.06
0.00 0.02 0.03 0.13 0.13 0.12 0.10 0.06 0.04 0.07 0.07 0.07 0.10 0.14 0.23 0.21 0.11 0.05 0.03 0.04 0.06 0.11 0.16 0.21 0.22 0.12 0.02 0.00 0.00 0.00 0.00 0.00 0.00 0.00 0.00 0.01 0.03 0.09 0.06 0.04 0.07 0.06 0.05
0.00 0.02 0.02 0.12 0.12 0.12 0.06 0.02 0.06 0.08 0.04 0.04 0.11 0.21 0.17 0.14 0.06 0.04 0.04 0.06 0.07 0.06 0.07 0.04 0.01 0.00 0.00 0.00 0.00 0.00 0.00 0.00 0.00 0.00 0.00 0.00 0.02 0.10 0.10 0.09 0.14 0.11 0.09
0.01 0.01 0.03 0.12 0.13 0.11 0.02 0.03 0.05 0.06 0.03 0.03 0.06 0.17 0.16 0.12 0.07 0.06 0.04 0.03 0.01 0.00 0.01 0.00 0.00 0.00 0.00 0.00 0.00 0.00 0.01 0.00 0.00 0.00 0.00 0.00 0.02 0.09 0.11 0.12 0.14 0.17 0.16
0.02 0.02 0.07 0.15 0.18 0.07 0.01 0.01 0.06 0.05 0.04 0.02 0.04 0.06 0.09 0.08 0.09 0.10 0.04 0.01 0.00 0.00 0.00 0.00 0.00 0.00 0.00 0.00 0.00 0.00 0.01 0.01 0.00 0.00 0.00 0.01 0.04 0.13 0.09 0.10 0.14 0.23 0.23
0.03 0.04 0.07 0.21 0.15 0.04 0.01 0.01 0.09 0.08 0.05 0.02 0.03 0.03 0.05 0.08 0.08 0.11 0.06 0.01 0.00 0.00 0.00 0.00 0.00 0.00 0.00 0.00 0.00 0.00 0.00 0.01 0.00 0.00 0.00 0.00 0.02 0.03 0.02 0.04 0.05 0.08 0.12
0.02 0.05 0.07 0.24 0.11 0.04 0.02 0.02 0.07 0.07 0.06 0.04 0.05 0.04 0.06 0.07 0.05 0.08 0.07 0.01 0.00 0.00 0.00 0.00 0.00 0.00 0.00 0.00 0.00 0.00 0.00 0.00 0.00 0.00 0.00 0.00 0.01 0.02 0.02 0.03 0.04 0.04 0.06
0.03 0.03 0.07 0.13 0.07 0.05 0.02 0.01 0.05 0.07 0.08 0.08 0.05 0.03 0.05 0.04 0.04 0.07 0.05 0.00 0.00 0.00 0.01 0.01 0.01 0.01 0.00 0.00 0.00 0.00 0.00 0.00 0.00 0.00 0.00 0.00 0.02 0.05 0.05 0.07 0.07 0.08 0.10
0.18 0.06 0.05 0.04 0.03 0.04 0.02 0.01 0.02 0.05 0.06 0.05 0.03 0.01 0.00 0.00 0.00 0.02 0.00 0.00 0.00 0.01 0.01 0.02 0.02 0.02 0.01 0.01 0.01 0.01 0.00 0.00 0.00 0.00 0.00 0.00 0.05 0.08 0.08 0.09 0.08 0.09 0.11
0.39 0.23 0.08 0.02 0.01 0.01 0.02 0.01 0.02 0.04 0.05 0.04 0.01 0.00 0.00 0.00 0.00 0.01 0.00 0.00 0.00 0.01 0.02 0.03 0.02 0.02 0.01 0.00 0.00 0.00 0.00 0.00 0.00 0.00 0.00 0.01 0.03 0.04 0.05 0.05 0.05 0.08 0.08
0.47 0.33 0.19 0.03 0.02 0.01 0.01 0.01 0.00 0.02 0.04 0.02 0.00 0.00 0.00 0.00 0.00 0.00 0.00 0.00 0.00 0.01 0.03 0.01 0.01 0.01 0.00 0.00 0.00 0.00 0.00 0.00 0.00 0.00 0.00 0.01 0.02 0.02 0.02 0.04 0.05 0.04 0.04
1.10 0.60 0.41 0.07 0.02 0.01 0.00 0.01 0.00 0.00 0.02 0.01 0.00 0.00 0.00 0.00 0.00 0.00 0.00 0.00 0.00 0.00 0.01 0.00 0.00 0.00 0.00 0.00 0.00 0.00 0.00 0.00 0.00 0.00 0.00 0.01 0.00 0.01 0.02 0.02 0.03 0.02 0.02
1.41 1.07 0.66 0.24 0.08 0.01 0.01 0.01 0.00 0.00 0.00 0.00 0.00 0.00 0.00 0.00 0.00 0.00 0.00 0.00 0.00 0.00 0.00 0.00 0.00 0.00 0.00 0.00 0.00 0.00 0.00 0.00 0.00 0.00 0.00 0.00 0.00 0.00 0.01 0.01 0.02 0.02 0.02
0.42 0.54 0.63 0.49 0.26 0.07 0.02 0.02 0.01 0.00 0.00 0.00 0.00 0.00 0.00 0.00 0.00 0.00 0.00 0.00 0.00 0.00 0.00 0.00 0.00 0.00 0.00 0.00 0.00 0.00 0.00 0.00 0.00 0.00 0.00 0.00 0.00 0.00 0.00 0.00 0.01 0.01 0.03
0.57 0.33 0.27 0.38 0.40 0.20 0.07 0.04 0.04 0.01 0.00 0.00 0.00 0.00 0.00 0.00 0.00 0.00 0.00 0.00 0.00 0.00 0.00 0.00 0.00 0.00 0.00 0.00 0.00 0.00 0.00 0.00 0.00 0.00 0.00 0.00 0.00 0.00 0.00 0.00 0.01 0.02 0.05
0.32 0.52 0.41 0.24 0.29 0.19 0.17 0.11 0.04 0.05 0.05 0.02 0.00 0.00 0.00 0.00 0.00 0.00 0.00 0.00 0.00 0.00 0.00 0.00 0.00 0.00 0.00 0.00 0.00 0.00 0.00 0.00 0.00 0.00 0.00 0.00 0.00 0.00 0.00 0.01 0.02 0.04 0.06
0.32 0.24 0.29 0.52 0.36 0.33 0.30 0.30 0.36 0.30 0.10 0.06 0.06 0.05 0.01 0.01 0.00 0.00 0.00 0.00 0.00 0.00 0.00 0.00 0.00 0.00 0.00 0.00 0.00 0.00 0.00 0.00 0.00 0.00 0.00 0.00 0.00 0.00 0.00 0.00 0.01 0.02 0.07
0.22 0.14 0.09 0.14 0.16 0.12 0.21 0.30 0.41 0.38 0.24 0.11 0.07 0.03 0.07 0.08 0.03 0.00 0.00 0.01 0.00 0.00 0.00 0.00 0.00 0.00 0.00 0.00 0.01 0.00 0.00 0.00 0.00 0.00 0.00 0.01 0.01 0.01 0.00 0.01 0.01 0.01 0.02
0.25 0.23 0.29 0.16 0.18 0.25 0.44 0.51 0.51 0.31 0.17 0.11 0.10 0.10 0.11 0.09 0.10 0.08 0.05 0.04 0.01 0.00 0.00 0.00 0.01 0.02 0.02 0.03 0.03 0.01 0.00 0.00 0.00 0.00 0.00 0.00 0.02 0.02 0.01 0.01 0.00 0.00 0.00
0.40 0.41 0.39 0.41 0.33 0.18 0.21 0.15 0.25 0.18 0.22 0.21 0.21 0.29 0.28 0.36 0.32 0.24 0.22 0.14 0.11 0.03 0.04 0.05 0.07 0.05 0.04 0.14 0.11 0.01 0.00 0.00 0.00 0.00 0.00 0.00 0.00 0.01 0.00 0.00 0.00 0.00 0.00
0.21 0.26 0.39 0.12 0.23 0.24 0.16 0.24 0.35 0.52 0.45 0.48 0.53 0.48 0.42 0.51 0.53 0.32 0.30 0.31 0.22 0.13 0.08 0.05 0.16 0.21 0.16 0.21 0.23 0.10 0.02 0.00 0.00 0.00 0.00 0.00 0.00 0.00 0.00 0.00 0.00 0.00 0.00
0.15 0.08 0.12 0.32 0.48 0.56 0.65 0.93 0.89 0.85 0.61 0.70 0.69 0.48 0.60 0.86 1.11 0.89 0.70 0.69 0.67 0.62 0.50 0.46 0.41 0.38 0.31 0.22 0.25 0.24 0.07 0.01 0.00 0.00 0.00 0.00 0.00 0.00 0.00 0.01 0.01 0.01 0.01
0.18 0.15 0.22 0.68 0.61 0.54 0.74 0.64 0.49 0.74 0.83 0.78 0.84 0.92 1.22 1.29 1.42 1.36 1.31 1.68 1.53 1.25 1.07 0.66 0.43 0.34 0.31 0.22 0.20 0.15 0.14 0.09 0.07 0.03 0.00 0.01 0.01 0.00 0.00 0.01 0.02 0.01 0.01
0.02 0.04 0.12 0.33 0.27 0.29 0.58 0.59 0.71 0.61 0.61 0.62 0.61 0.69 0.69 0.75 0.75 0.77 0.82 1.05 1.24 1.10 1.01 0.75 0.53 0.44 0.37 0.32 0.27 0.22 0.16 0.11 0.06 0.07 0.05 0.05 0.04 0.03 0.02 0.01 0.01 0.01 0.01
0.00 0.00 0.00 0.01 0.04 0.13 0.43 0.27 0.40 0.30 0.45 0.43 0.37 0.37 0.34 0.29 0.29 0.30 0.33 0.31 0.33 0.33 0.42 0.48 0.46 0.40 0.33 0.30 0.21 0.19 0.20 0.20 0.15 0.13 0.13 0.10 0.08 0.04 0.03 0.02 0.03 0.03 0.04

GFSSE_prec_precacc_090.txt.gz
Total_Precipitation_Accumulation
0.00 0.02 0.15 0.13 0.12 0.09 0.09 0.10 0.11 0.09 0.09 0.11 0.09 0.06 0.07 0.12 0.15 0.16 0.07 0.07 0.13 0.09 0.10 0.11 0.12 0.14 0.28 0.35 0.31 0.04 0.01 0.01 0.00 0.00 0.01 0.03 0.04 0.05 0.05 0.06 0.07 0.08 0.10
0.00 0.02 0.09 0.14 0.14 0.10 0.15 0.13 0.09 0.06 0.13 0.15 0.13 0.10 0.12 0.22 0.20 0.11 0.05 0.05 0.06 0.06 0.09 0.16 0.22 0.29 0.28 0.13 0.06 0.02 0.00 0.00 0.00 0.00 0.00 0.02 0.03 0.03 0.02 0.03 0.05 0.05 0.06
0.00 0.03 0.04 0.14 0.13 0.12 0.10 0.06 0.04 0.07 0.08 0.08 0.11 0.16 0.25 0.24 0.11 0.05 0.03 0.04 0.06 0.11 0.16 0.22 0.22 0.12 0.02 0.00 0.00 0.00 0.00 0.00 0.00 0.00 0.00 0.01 0.03 0.09 0.06 0.04 0.07 0.07 0.06
0.00 0.02 0.03 0.13 0.12 0.12 0.06 0.02 0.06 0.08 0.04 0.06 0.15 0.25 0.23 0.17 0.06 0.04 0.04 0.06 0.07 0.07 0.07 0.04 0.01 0.00 0.00 0.00 0.00 0.00 0.00 0.00 0.00 0.00 0.00 0.00 0.02 0.10 0.10 0.09 0.14 0.11 0.09
0.02 0.02 0.04 0.13 0.14 0.11 0.02 0.03 0.05 0.06 0.04 0.06 0.16 0.33 0.27 0.13 0.07 0.06 0.04 0.03 0.02 0.01 0.01 0.00 0.00 0.00 0.00 0.00 0.00 0.00 0.01 0.00 0.00 0.00 0.00 0.00 0.02 0.09 0.11 0.12 0.14 0.17 0.16
0.03 0.03 0.08 0.16 0.19 0.07 0.01 0.01 0.06 0.06 0.04 0.03 0.11 0.20 0.18 0.08 0.09 0.10 0.05 0.01 0.01 0.01 0.00 0.00 0.00 0.00 0.00 0.00 0.00 0.00 0.01 0.01 0.00 0.00 0.00 0.01 0.04 0.13 0.09 0.10 0.14 0.23 0.23
0.04 0.05 0.08 0.24 0.16 0.04 0.01 0.02 0.09 0.08 0.05 0.04 0.07 0.09 0.08 0.08 0.08 0.12 0.06 0.02 0.01 0.00 0.00 0.00 0.00 0.00 0.00 0.00 0.00 0.00 0.00 0.01 0.00 0.00 0.00 0.00 0.02 0.03 0.02 0.04 0.05 0.08 0.12
0.03 0.06 0.08 0.26 0.14 0.04 0.02 0.03 0.07 0.07 0.06 0.04 0.07 0.07 0.07 0.08 0.05 0.09 0.08 0.01 0.00 0.00 0.00 0.00 0.00 0.00 0.00 0.00 0.00 0.00 0.00 0.00 0.00 0.00 0.00 0.00 0.01 0.02 0.02 0.03 0.04 0.04 0.06
0.06 0.05 0.10 0.17 0.08 0.05 0.02 0.02 0.05 0.07 0.08 0.08 0.06 0.04 0.05 0.05 0.05 0.07 0.05 0.01 0.00 0.00 0.01 0.01 0.01 0.01 0.00 0.00 0.00 0.00 0.00 0.00 0.00 0.00 0.00 0.00 0.02 0.05 0.05 0.07 0.07 0.08 0.10
0.27 0.12 0.12 0.10 0.03 0.04 0.02 0.02 0.02 0.05 0.06 0.05 0.04 0.01 0.00 0.00 0.01 0.02 0.00 0.00 0.00 0.01 0.01 0.02 0.02 0.02 0.01 0.01 0.01 0.01 0.00 0.00 0.00 0.00 0.00 0.00 0.05 0.08 0.08 0.09 0.08 0.09 0.11
0.49 0.31 0.14 0.05 0.01 0.01 0.03 0.03 0.02 0.04 0.05 0.04 0.01 0.00 0.00 0.00 0.00 0.01 0.00 0.00 0.00 0.01 0.02 0.03 0.02 0.02 0.01 0.00 0.00 0.00 0.00 0.00 0.00 0.00 0.00 0.01 0.03 0.04 0.05 0.05 0.05 0.08 0.08
0.67 0.40 0.23 0.04 0.02 0.01 0.03 0.02 0.02 0.02 0.04 0.02 0.00 0.00 0.00 0.00 0.00 0.00 0.00 0.00 0.00 0.01 0.03 0.01 0.01 0.01 0.00 0.00 0.00 0.00 0.00 0.00 0.00 0.00 0.00 0.01 0.02 0.02 0.02 0.04 0.05 0.04 0.04
1.74 0.70 0.46 0.07 0.02 0.01 0.02 0.02 0.02 0.02 0.03 0.01 0.00 0.00 0.00 0.00 0.00 0.00 0.00 0.00 0.00 0.00 0.01 0.00 0.00 0.00 0.00 0.00 0.00 0.00 0.00 0.00 0.00 0.00 0.00 0.01 0.00 0.01 0.02 0.02 0.03 0.02 0.02
2.42 1.39 0.71 0.24 0.08 0.01 0.02 0.02 0.01 0.01 0.01 0.00 0.00 0.00 0.00 0.00 0.00 0.00 0.00 0.00 0.00 0.00 0.00 0.00 0.00 0.00 0.00 0.00 0.00 0.00 0.00 0.00 0.00 0.00 0.00 0.00 0.00 0.00 0.01 0.01 0.02 0.03 0.03
1.06 1.07 0.81 0.50 0.26 0.07 0.02 0.02 0.01 0.01 0.00 0.00 0.00 0.00 0.00 0.00 0.00 0.00 0.00 0.00 0.00 0.00 0.00 0.00 0.00 0.00 0.00 0.00 0.00 0.00 0.00 0.00 0.00 0.00 0.00 0.00 0.00 0.00 0.00 0.00 0.01 0.01 0.04
0.81 0.91 0.57 0.40 0.40 0.20 0.07 0.04 0.04 0.01 0.00 0.00 0.00 0.00 0.00 0.00 0.00 0.00 0.00 0.00 0.00 0.00 0.00 0.00 0.00 0.00 0.00 0.00 0.00 0.00 0.00 0.00 0.00 0.00 0.00 0.00 0.00 0.00 0.00 0.00 0.01 0.03 0.05
0.49 1.15 0.76 0.25 0.29 0.19 0.17 0.11 0.04 0.05 0.05 0.02 0.00 0.00 0.00 0.00 0.00 0.00 0.00 0.00 0.00 0.00 0.00 0.00 0.00 0.00 0.00 0.00 0.00 0.00 0.00 0.00 0.00 0.00 0.00 0.00 0.00 0.00 0.00 0.01 0.02 0.04 0.06
0.52 0.76 0.75 0.56 0.36 0.33 0.31 0.30 0.37 0.30 0.10 0.06 0.06 0.05 0.01 0.01 0.00 0.00 0.00 0.00 0.00 0.00 0.00 0.00 0.00 0.00 0.00 0.00 0.00 0.00 0.00 0.00 0.00 0.00 0.00 0.00 0.00 0.00 0.00 0.00 0.01 0.02 0.08
0.32 0.36 0.34 0.20 0.16 0.12 0.21 0.31 0.44 0.40 0.24 0.11 0.07 0.03 0.07 0.08 0.03 0.00 0.00 0.01 0.00 0.00 0.00 0.00 0.00 0.00 0.00 0.00 0.01 0.00 0.00 0.00 0.00 0.00 0.00 0.01 0.01 0.01 0.00 0.01 0.01 0.01 0.02
0.31 0.29 0.37 0.21 0.19 0.25 0.44 0.51 0.51 0.34 0.18 0.11 0.10 0.10 0.11 0.09 0.13 0.10 0.07 0.04 0.01 0.00 0.00 0.00 0.01 0.02 0.02 0.03 0.03 0.01 0.00 0.00 0.00 0.00 0.00 0.00 0.02 0.02 0.01 0.01 0.00 0.00 0.00
0.51 0.44 0.41 0.44 0.34 0.18 0.21 0.15 0.26 0.18 0.22 0.21 0.21 0.29 0.28 0.38 0.35 0.32 0.31 0.18 0.12 0.03 0.04 0.05 0.07 0.05 0.05 0.15 0.12 0.02 0.00 0.00 0.00 0.00 0.00 0.00 0.00 0.01 0.00 0.00 0.00 0.00 0.00
0.37 0.27 0.40 0.14 0.24 0.24 0.16 0.26 0.38 0.55 0.47 0.48 0.53 0.48 0.42 0.52 0.56 0.36 0.40 0.44 0.30 0.14 0.09 0.06 0.16 0.27 0.29 0.34 0.29 0.13 0.02 0.00 0.00 0.00 0.00 0.00 0.00 0.00 0.00 0.00 0.00 0.00 0.00
0.31 0.20 0.20 0.47 0.59 0.58 0.67 0.96 1.00 0.92 0.66 0.72 0.69 0.49 0.60 0.86 1.11 0.96 0.91 0.85 0.85 0.82 0.59 0.53 0.47 0.50 0.43 0.34 0.31 0.26 0.07 0.01 0.00 0.00 0.00 0.00 0.00 0.00 0.00 0.01 0.01 0.01 0.01
0.43 0.52 0.60 0.84 0.72 0.60 0.82 0.77 0.57 0.83 0.88 0.80 0.85 0.93 1.22 1.29 1.42 1.41 1.50 1.92 1.79 1.53 1.42 1.30 1.02 0.72 0.42 0.26 0.22 0.17 0.16 0.10 0.08 0.03 0.00 0.01 0.01 0.00 0.00 0.01 0.02 0.01 0.01
0.18 0.17 0.31 0.58 0.50 0.58 0.85 0.73 0.83 0.72 0.78 0.69 0.64 0.70 0.69 0.77 0.78 0.79 0.84 1.09 1.33 1.22 1.11 0.97 0.89 0.70 0.54 0.41 0.35 0.28 0.20 0.12 0.06 0.07 0.05 0.05 0.04 0.03 0.02 0.01 0.01 0.01 0.01
0.05 0.03 0.04 0.09 0.12 0.26 0.63 0.45 0.60 0.40 0.60 0.56 0.46 0.41 0.36 0.34 0.34 0.34 0.39 0.42 0.44 0.42 0.46 0.49 0.48 0.43 0.36 0.32 0.23 0.20 0.20 0.20 0.15 0.13 0.13 0.10 0.08 0.04 0.03 0.02 0.03 0.03 0.04

GFSSE_prec_precacc_096.txt.gz
Total_Precipitation_Accumulation
0.00 0.03 0.16 0.13 0.12 0.09 0.09 0.10 0.11 0.09 0.10 0.13 0.09 0.06 0.07 0.13 0.15 0.16 0.07 0.07 0.15 0.13 0.15 0.13 0.13 0.18 0.32 0.38 0.31 0.05 0.01 0.01 0.00 0.00 0.01 0.03 0.05 0.05 0.05 0.06 0.08 0.08 0.10
0.00 0.02 0.10 0.14 0.14 0.10 0.15 0.13 0.09 0.06 0.13 0.16 0.13 0.10 0.12 0.24 0.20 0.11 0.05 0.06 0.07 0.07 0.10 0.16 0.22 0.32 0.29 0.13 0.06 0.02 0.00 0.00 0.00 0.00 0.00 0.02 0.03 0.03 0.02 0.03 0.05 0.05 0.06
0.00 0.03 0.04 0.15 0.13 0.12 0.10 0.06 0.04 0.07 0.08 0.09 0.11 0.17 0.28 0.26 0.11 0.05 0.03 0.05 0.07 0.12 0.17 0.22 0.23 0.14 0.03 0.01 0.00 0.00 0.00 0.00 0.00 0.00 0.00 0.01 0.03 0.09 0.06 0.04 0.08 0.08 0.06
0.00 0.02 0.04 0.15 0.13 0.12 0.06 0.02 0.06 0.08 0.05 0.07 0.17 0.28 0.31 0.18 0.06 0.04 0.04 0.06 0.09 0.08 0.08 0.05 0.02 0.01 0.00 0.00 0.00 0.00 0.00 0.00 0.00 0.00 0.00 0.00 0.02 0.10 0.10 0.09 0.14 0.11 0.11
0.02 0.02 0.05 0.14 0.15 0.11 0.02 0.03 0.05 0.06 0.05 0.08 0.19 0.42 0.42 0.15 0.07 0.06 0.04 0.05 0.03 0.02 0.02 0.01 0.01 0.00 0.00 0.00 0.00 0.00 0.01 0.00 0.00 0.00 0.00 0.00 0.02 0.09 0.11 0.12 0.14 0.17 0.16
0.03 0.04 0.09 0.18 0.20 0.07 0.01 0.02 0.06 0.06 0.05 0.06 0.21 0.39 0.37 0.11 0.10 0.10 0.05 0.03 0.01 0.02 0.01 0.01 0.00 0.00 0.00 0.00 0.00 0.00 0.01 0.01 0.00 0.00 0.00 0.01 0.04 0.13 0.09 0.10 0.14 0.23 0.23
0.05 0.08 0.10 0.28 0.18 0.04 0.01 0.03 0.10 0.08 0.06 0.08 0.22 0.35 0.25 0.10 0.09 0.12 0.07 0.03 0.01 0.01 0.01 0.00 0.00 0.00 0.00 0.00 0.00 0.00 0.00 0.01 0.00 0.00 0.00 0.00 0.02 0.03 0.02 0.04 0.05 0.08 0.12
0.04 0.12 0.18 0.31 0.18 0.05 0.02 0.03 0.07 0.08 0.09 0.16 0.28 0.36 0.17 0.08 0.06 0.09 0.08 0.02 0.01 0.01 0.00 0.00 0.00 0.00 0.00 0.00 0.00 0.00 0.00 0.00 0.00 0.00 0.00 0.00 0.01 0.02 0.02 0.03 0.04 0.04 0.06
0.12 0.13 0.22 0.23 0.17 0.08 0.03 0.02 0.05 0.08 0.13 0.23 0.29 0.25 0.08 0.05 0.05 0.08 0.06 0.02 0.01 0.01 0.01 0.01 0.01 0.01 0.00 0.00 0.00 0.00 0.00 0.00 0.00 0.00 0.00 0.00 0.02 0.05 0.05 0.07 0.07 0.08 0.10
0.58 0.42 0.32 0.23 0.08 0.04 0.04 0.03 0.02 0.06 0.08 0.16 0.18 0.08 0.00 0.00 0.02 0.03 0.01 0.02 0.01 0.02 0.01 0.02 0.02 0.02 0.01 0.01 0.01 0.01 0.00 0.00 0.00 0.00 0.00 0.00 0.05 0.08 0.08 0.09 0.08 0.09 0.11
1.10 0.94 0.66 0.40 0.11 0.02 0.05 0.06 0.02 0.04 0.07 0.10 0.09 0.04 0.00 0.00 0.00 0.01 0.00 0.01 0.01 0.01 0.02 0.03 0.02 0.02 0.01 0.00 0.00 0.00 0.00 0.00 0.00 0.00 0.00 0.01 0.03 0.04 0.05 0.05 0.05 0.08 0.08
1.61 1.09 1.00 0.69 0.23 0.04 0.06 0.06 0.02 0.02 0.05 0.04 0.03 0.01 0.00 0.00 0.00 0.00 0.00 0.01 0.01 0.01 0.03 0.01 0.01 0.01 0.00 0.00 0.00 0.00 0.00 0.00 0.00 0.00 0.00 0.01 0.02 0.02 0.02 0.04 0.05 0.04 0.04
2.56 1.49 1.23 0.80 0.45 0.09 0.11 0.09 0.02 0.02 0.03 0.03 0.01 0.01 0.00 0.00 0.00 0.00 0.00 0.00 0.00 0.00 0.01 0.00 0.00 0.00 0.00 0.00 0.00 0.00 0.00 0.00 0.00 0.00 0.00 0.01 0.00 0.01 0.02 0.02 0.03 0.02 0.02
3.09 2.17 1.45 1.04 0.65 0.22 0.22 0.12 0.02 0.02 0.01 0.00 0.00 0.00 0.00 0.00 0.00 0.00 0.00 0.00 0.00 0.00 0.00 0.00 0.00 0.00 0.00 0.00 0.00 0.00 0.00 0.00 0.00 0.00 0.00 0.00 0.00 0.00 0.01 0.01 0.02 0.03 0.04
1.42 1.63 1.77 1.27 0.95 0.58 0.35 0.20 0.05 0.02 0.00 0.00 0.00 0.00 0.00 0.00 0.00 0.00 0.00 0.00 0.00 0.00 0.00 0.00 0.00 0.00 0.00 0.00 0.00 0.00 0.00 0.00 0.00 0.00 0.00 0.00 0.00 0.00 0.00 0.00 0.01 0.01 0.05
0.92 1.29 1.75 1.52 1.06 1.22 0.94 0.35 0.09 0.03 0.00 0.00 0.00 0.00 0.00 0.00 0.00 0.00 0.00 0.00 0.00 0.00 0.00 0.00 0.00 0.00 0.00 0.00 0.00 0.00 0.00 0.00 0.00 0.00 0.00 0.00 0.00 0.00 0.00 0.00 0.01 0.03 0.06
0.51 1.39 1.87 1.45 0.96 0.80 1.32 0.77 0.17 0.11 0.05 0.02 0.00 0.00 0.00 0.00 0.00 0.00 0.00 0.00 0.00 0.00 0.00 0.00 0.00 0.00 0.00 0.00 0.00 0.00 0.00 0.00 0.00 0.00 0.00 0.00 0.00 0.00 0.00 0.01 0.02 0.05 0.07
0.56 0.94 1.57 1.41 0.78 0.60 0.77 0.84 0.63 0.43 0.17 0.07 0.06 0.05 0.01 0.01 0.00 0.00 0.00 0.00 0.00 0.00 0.00 0.00 0.00 0.00 0.00 0.00 0.00 0.00 0.00 0.00 0.00 0.00 0.00 0.00 0.00 0.00 0.00 0.00 0.01 0.02 0.08
0.43 0.60 0.79 0.76 0.41 0.19 0.32 0.58 0.82 0.57 0.35 0.17 0.10 0.03 0.07 0.08 0.03 0.00 0.00 0.01 0.00 0.00 0.00 0.00 0.00 0.00 0.00 0.00 0.01 0.00 0.00 0.00 0.00 0.00 0.00 0.01 0.01 0.01 0.00 0.01 0.01 0.01 0.02
0.60 0.52 0.63 0.48 0.47 0.32 0.52 0.66 0.70 0.57 0.33 0.20 0.16 0.13 0.11 0.09 0.13 0.10 0.07 0.04 0.01 0.00 0.00 0.00 0.01 0.02 0.02 0.03 0.03 0.01 0.00 0.00 0.00 0.00 0.00 0.00 0.02 0.02 0.01 0.01 0.00 0.00 0.00
0.93 0.61 0.59 0.60 0.49 0.50 0.42 0.38 0.35 0.26 0.35 0.27 0.26 0.31 0.28 0.38 0.35 0.33 0.31 0.18 0.13 0.04 0.05 0.06 0.07 0.05 0.05 0.15 0.14 0.03 0.01 0.00 0.00 0.00 0.00 0.00 0.00 0.01 0.00 0.00 0.00 0.00 0.00
0.88 0.57 0.54 0.28 0.31 0.40 0.39 0.36 0.63 0.72 0.58 0.51 0.56 0.54 0.45 0.54 0.57 0.37 0.41 0.45 0.33 0.19 0.13 0.09 0.18 0.32 0.36 0.46 0.39 0.21 0.07 0.03 0.02 0.00 0.00 0.00 0.00 0.00 0.00 0.00 0.00 0.00 0.00
0.92 0.63 0.36 0.61 0.66 0.72 0.88 1.20 1.14 1.16 1.09 1.11 1.15 0.81 0.82 1.01 1.21 1.00 0.92 0.86 0.87 0.89 0.80 0.72 0.62 0.66 0.63 0.64 0.56 0.50 0.23 0.05 0.01 0.00 0.00 0.00 0.00 0.00 0.00 0.01 0.01 0.01 0.01
1.27 1.13 1.01 1.06 0.94 0.81 1.09 1.20 0.90 1.11 1.19 1.08 1.19 1.34 1.56 1.52 1.59 1.53 1.56 1.96 1.82 1.55 1.47 1.46 1.28 0.94 0.67 0.56 0.47 0.38 0.31 0.17 0.13 0.06 0.01 0.01 0.01 0.00 0.00 0.01 0.02 0.01 0.01
1.39 1.07 1.24 1.18 0.86 0.83 1.07 1.14 1.29 1.06 1.09 0.97 0.81 0.87 0.88 0.92 0.86 0.87 0.91 1.13 1.35 1.23 1.13 1.02 0.96 0.77 0.64 0.52 0.44 0.36 0.27 0.18 0.11 0.11 0.06 0.05 0.04 0.03 0.02 0.01 0.01 0.01 0.01
0.74 0.66 0.76 0.67 0.55 0.52 0.78 0.75 1.04 0.77 0.93 0.88 0.70 0.57 0.51 0.51 0.53 0.46 0.46 0.47 0.48 0.47 0.53 0.54 0.51 0.44 0.36 0.32 0.23 0.21 0.22 0.22 0.16 0.14 0.13 0.10 0.08 0.04 0.03 0.02 0.03 0.03 0.04

GFSSE_prec_precacc_099.txt.gz
Total_Precipitation_Accumulation
0.00 0.03 0.16 0.13 0.12 0.09 0.09 0.10 0.11 0.09 0.10 0.13 0.09 0.06 0.07 0.13 0.15 0.16 0.07 0.07 0.15 0.15 0.17 0.14 0.15 0.19 0.33 0.38 0.32 0.05 0.01 0.01 0.00 0.00 0.01 0.03 0.05 0.06 0.05 0.06 0.08 0.08 0.10
0.00 0.02 0.10 0.14 0.14 0.10 0.15 0.13 0.09 0.06 0.13 0.16 0.14 0.11 0.12 0.24 0.20 0.11 0.05 0.07 0.10 0.10 0.11 0.17 0.23 0.32 0.29 0.13 0.06 0.02 0.00 0.00 0.00 0.00 0.00 0.02 0.03 0.04 0.02 0.03 0.05 0.06 0.08
0.00 0.03 0.04 0.15 0.13 0.12 0.10 0.06 0.04 0.07 0.09 0.09 0.12 0.17 0.28 0.26 0.11 0.05 0.03 0.07 0.08 0.13 0.17 0.23 0.23 0.14 0.03 0.01 0.00 0.00 0.00 0.00 0.00 0.00 0.00 0.01 0.03 0.09 0.06 0.04 0.09 0.08 0.07
0.00 0.02 0.04 0.15 0.13 0.12 0.06 0.02 0.06 0.08 0.06 0.07 0.17 0.29 0.32 0.18 0.06 0.04 0.04 0.07 0.09 0.08 0.08 0.05 0.02 0.01 0.00 0.00 0.00 0.00 0.00 0.00 0.00 0.00 0.00 0.00 0.02 0.10 0.10 0.09 0.14 0.11 0.11
0.02 0.02 0.05 0.14 0.15 0.11 0.02 0.03 0.05 0.06 0.06 0.08 0.20 0.42 0.44 0.16 0.07 0.06 0.04 0.06 0.03 0.02 0.02 0.01 0.01 0.00 0.00 0.00 0.00 0.00 0.01 0.00 0.00 0.00 0.00 0.00 0.02 0.09 0.11 0.12 0.14 0.17 0.16
0.03 0.04 0.09 0.18 0.20 0.07 0.01 0.02 0.06 0.06 0.06 0.07 0.22 0.40 0.41 0.12 0.10 0.10 0.06 0.03 0.01 0.02 0.02 0.01 0.00 0.00 0.00 0.00 0.00 0.00 0.01 0.01 0.00 0.00 0.00 0.01 0.04 0.13 0.09 0.10 0.14 0.23 0.23
0.05 0.08 0.10 0.28 0.18 0.04 0.01 0.03 0.10 0.08 0.07 0.09 0.23 0.37 0.31 0.11 0.09 0.12 0.08 0.03 0.01 0.02 0.02 0.00 0.00 0.00 0.00 0.00 0.00 0.00 0.00 0.01 0.00 0.00 0.00 0.00 0.02 0.03 0.02 0.04 0.05 0.08 0.12
0.04 0.12 0.18 0.31 0.18 0.05 0.02 0.03 0.07 0.08 0.10 0.17 0.30 0.40 0.26 0.09 0.06 0.09 0.09 0.02 0.01 0.02 0.01 0.01 0.00 0.00 0.00 0.00 0.00 0.00 0.00 0.00 0.00 0.00 0.00 0.00 0.01 0.02 0.02 0.03 0.04 0.04 0.06
0.13 0.17 0.24 0.24 0.17 0.08 0.03 0.02 0.05 0.08 0.13 0.25 0.31 0.30 0.12 0.05 0.05 0.08 0.06 0.02 0.02 0.02 0.02 0.01 0.01 0.01 0.00 0.00 0.00 0.00 0.00 0.00 0.00 0.00 0.00 0.00 0.02 0.05 0.05 0.07 0.07 0.08 0.10
0.62 0.46 0.34 0.31 0.13 0.04 0.04 0.03 0.02 0.06 0.09 0.17 0.20 0.10 0.01 0.00 0.02 0.03 0.01 0.02 0.02 0.03 0.01 0.02 0.02 0.02 0.01 0.01 0.01 0.01 0.00 0.00 0.00 0.00 0.00 0.00 0.05 0.08 0.08 0.09 0.08 0.09 0.11
1.25 1.04 0.73 0.43 0.16 0.05 0.06 0.06 0.02 0.05 0.09 0.13 0.12 0.07 0.00 0.00 0.00 0.01 0.00 0.02 0.02 0.02 0.02 0.03 0.02 0.02 0.01 0.00 0.00 0.00 0.00 0.00 0.00 0.00 0.00 0.01 0.03 0.04 0.05 0.05 0.05 0.08 0.08
1.67 1.22 1.15 0.77 0.28 0.06 0.09 0.06 0.02 0.03 0.08 0.07 0.07 0.04 0.01 0.00 0.00 0.00 0.00 0.02 0.02 0.01 0.03 0.01 0.01 0.01 0.00 0.00 0.00 0.00 0.00 0.00 0.00 0.00 0.00 0.01 0.02 0.02 0.02 0.04 0.05 0.04 0.04
2.59 1.54 1.36 1.00 0.67 0.24 0.18 0.13 0.02 0.02 0.05 0.06 0.07 0.05 0.01 0.00 0.00 0.00 0.00 0.01 0.00 0.00 0.01 0.00 0.00 0.00 0.00 0.00 0.00 0.00 0.00 0.00 0.00 0.00 0.00 0.01 0.00 0.01 0.02 0.02 0.03 0.02 0.02
3.09 2.18 1.48 1.10 0.77 0.54 0.44 0.28 0.03 0.02 0.02 0.07 0.05 0.07 0.02 0.00 0.00 0.00 0.00 0.00 0.00 0.00 0.00 0.00 0.00 0.00 0.00 0.00 0.00 0.00 0.00 0.00 0.00 0.00 0.00 0.00 0.00 0.00 0.01 0.01 0.02 0.03 0.04
1.42 1.63 1.77 1.27 0.99 0.76 0.62 0.54 0.13 0.02 0.01 0.03 0.03 0.06 0.04 0.00 0.00 0.00 0.00 0.00 0.00 0.00 0.00 0.00 0.00 0.00 0.00 0.00 0.00 0.00 0.00 0.00 0.00 0.00 0.00 0.00 0.00 0.00 0.00 0.00 0.01 0.01 0.05
0.92 1.29 1.75 1.52 1.06 1.29 1.04 0.76 0.55 0.11 0.01 0.00 0.02 0.01 0.05 0.01 0.00 0.00 0.00 0.00 0.00 0.00 0.00 0.00 0.00 0.00 0.00 0.00 0.00 0.00 0.00 0.00 0.00 0.00 0.00 0.00 0.00 0.00 0.00 0.00 0.01 0.03 0.06
0.53 1.40 1.87 1.45 0.96 0.81 1.41 1.25 0.64 0.42 0.11 0.02 0.00 0.01 0.00 0.00 0.00 0.00 0.00 0.00 0.00 0.00 0.00 0.00 0.00 0.00 0.00 0.00 0.00 0.00 0.00 0.00 0.00 0.00 0.00 0.00 0.00 0.00 0.00 0.01 0.02 0.05 0.07
0.58 0.94 1.57 1.41 0.78 0.62 0.86 1.43 1.15 0.68 0.28 0.08 0.06 0.05 0.01 0.01 0.00 0.00 0.00 0.00 0.00 0.00 0.00 0.00 0.00 0.00 0.00 0.00 0.00 0.00 0.00 0.00 0.00 0.00 0.00 0.00 0.00 0.00 0.00 0.00 0.01 0.02 0.08
0.47 0.62 0.79 0.77 0.41 0.20 0.36 0.96 1.40 0.92 0.43 0.20 0.11 0.03 0.07 0.08 0.03 0.00 0.00 0.01 0.00 0.00 0.00 0.00 0.00 0.00 0.00 0.00 0.01 0.00 0.00 0.00 0.00 0.00 0.00 0.01 0.01 0.01 0.00 0.01 0.01 0.01 0.02
0.84 0.66 0.67 0.50 0.50 0.32 0.54 0.87 1.20 1.05 0.68 0.30 0.19 0.14 0.11 0.09 0.13 0.10 0.07 0.04 0.01 0.00 0.00 0.00 0.01 0.02 0.02 0.03 0.03 0.01 0.00 0.00 0.00 0.00 0.00 0.00 0.02 0.02 0.01 0.01 0.00 0.00 0.00
1.62 0.98 0.82 0.66 0.52 0.51 0.43 0.53 0.79 0.58 0.87 0.57 0.40 0.37 0.30 0.38 0.35 0.33 0.31 0.19 0.13 0.05 0.05 0.06 0.07 0.05 0.05 0.15 0.14 0.03 0.01 0.00 0.00 0.00 0.00 0.00 0.00 0.01 0.00 0.00 0.00 0.00 0.00
1.04 1.06 0.99 0.44 0.39 0.43 0.41 0.42 0.87 0.96 0.96 0.81 0.77 0.72 0.55 0.60 0.58 0.37 0.41 0.46 0.34 0.19 0.14 0.11 0.20 0.35 0.36 0.47 0.39 0.22 0.08 0.05 0.05 0.02 0.01 0.00 0.00 0.00 0.00 0.00 0.00 0.00 0.00
0.97 0.78 0.83 0.91 0.77 0.79 1.00 1.28 1.28 1.35 1.33 1.34 1.29 1.00 1.07 1.25 1.38 1.13 1.02 0.90 0.92 0.98 0.90 0.88 0.78 0.81 0.72 0.68 0.57 0.53 0.31 0.13 0.04 0.02 0.01 0.00 0.00 0.00 0.00 0.01 0.01 0.01 0.01
1.35 1.35 1.38 1.45 1.17 0.94 1.17 1.28 1.01 1.26 1.27 1.27 1.38 1.52 1.74 1.74 1.78 1.68 1.70 2.08 1.88 1.56 1.48 1.47 1.31 0.98 0.71 0.60 0.50 0.39 0.33 0.21 0.16 0.08 0.01 0.01 0.01 0.00 0.00 0.01 0.02 0.01 0.01
1.62 1.51 1.57 1.58 1.24 1.03 1.17 1.20 1.34 1.15 1.16 1.03 0.88 0.95 1.06 1.08 0.93 0.92 0.95 1.15 1.37 1.24 1.13 1.02 0.96 0.77 0.65 0.53 0.44 0.36 0.28 0.19 0.12 0.11 0.07 0.05 0.04 0.03 0.02 0.01 0.01 0.01 0.01
1.50 1.03 1.16 0.94 0.81 0.71 0.90 0.84 1.14 0.90 1.03 0.95 0.77 0.65 0.58 0.61 0.71 0.55 0.48 0.48 0.48 0.47 0.53 0.54 0.53 0.46 0.37 0.33 0.23 0.21 0.22 0.22 0.17 0.15 0.14 0.10 0.08 0.04 0.03 0.02 0.03 0.03 0.04

GFSSE_prec_precacc_102.txt.gz
Total_Precipitation_Accumulation
0.00 0.03 0.16 0.13 0.12 0.09 0.09 0.10 0.11 0.10 0.10 0.13 0.09 0.06 0.07 0.13 0.15 0.16 0.07 0.07 0.15 0.16 0.20 0.17 0.16 0.19 0.33 0.38 0.32 0.05 0.02 0.01 0.01 0.00 0.01 0.03 0.06 0.06 0.05 0.06 0.08 0.09 0.11
0.00 0.02 0.10 0.14 0.14 0.10 0.15 0.13 0.09 0.07 0.13 0.16 0.14 0.11 0.12 0.24 0.20 0.11 0.05 0.07 0.12 0.13 0.13 0.19 0.23 0.32 0.30 0.13 0.06 0.02 0.00 0.00 0.00 0.00 0.00 0.02 0.04 0.04 0.02 0.04 0.07 0.08 0.10
0.00 0.03 0.04 0.15 0.13 0.12 0.10 0.06 0.04 0.07 0.09 0.10 0.12 0.18 0.28 0.26 0.11 0.05 0.04 0.09 0.10 0.14 0.18 0.23 0.23 0.14 0.03 0.01 0.00 0.00 0.00 0.00 0.00 0.00 0.00 0.01 0.03 0.09 0.07 0.04 0.09 0.10 0.10
0.00 0.02 0.04 0.15 0.13 0.12 0.06 0.02 0.06 0.08 0.06 0.08 0.17 0.29 0.32 0.18 0.06 0.05 0.05 0.08 0.09 0.08 0.09 0.05 0.02 0.01 0.00 0.00 0.00 0.00 0.00 0.00 0.00 0.00 0.00 0.00 0.02 0.10 0.10 0.10 0.14 0.12 0.11
0.02 0.02 0.05 0.14 0.15 0.11 0.02 0.03 0.05 0.06 0.06 0.08 0.20 0.44 0.45 0.16 0.07 0.06 0.05 0.06 0.04 0.02 0.02 0.01 0.01 0.00 0.00 0.00 0.00 0.00 0.01 0.00 0.00 0.00 0.00 0.00 0.02 0.09 0.11 0.12 0.14 0.17 0.16
0.03 0.04 0.09 0.18 0.20 0.07 0.01 0.02 0.06 0.06 0.06 0.07 0.23 0.41 0.42 0.13 0.11 0.11 0.06 0.03 0.01 0.02 0.02 0.01 0.00 0.00 0.00 0.00 0.00 0.00 0.01 0.01 0.00 0.00 0.00 0.01 0.04 0.13 0.09 0.10 0.14 0.23 0.23
0.05 0.08 0.10 0.28 0.18 0.04 0.01 0.03 0.10 0.08 0.08 0.09 0.23 0.37 0.33 0.12 0.09 0.13 0.08 0.03 0.01 0.02 0.02 0.00 0.00 0.00 0.00 0.00 0.00 0.00 0.00 0.01 0.00 0.00 0.00 0.00 0.02 0.03 0.02 0.04 0.05 0.08 0.12
0.04 0.12 0.18 0.31 0.18 0.05 0.02 0.03 0.07 0.08 0.10 0.17 0.30 0.41 0.29 0.12 0.06 0.09 0.09 0.02 0.01 0.02 0.01 0.01 0.00 0.00 0.00 0.00 0.00 0.00 0.00 0.00 0.00 0.00 0.00 0.00 0.01 0.02 0.02 0.03 0.04 0.04 0.06
0.13 0.17 0.24 0.24 0.18 0.08 0.03 0.02 0.05 0.08 0.14 0.25 0.32 0.32 0.16 0.09 0.07 0.08 0.06 0.02 0.02 0.03 0.02 0.01 0.01 0.01 0.00 0.00 0.00 0.00 0.00 0.00 0.00 0.00 0.00 0.00 0.02 0.05 0.05 0.07 0.07 0.08 0.10
0.69 0.47 0.35 0.31 0.13 0.04 0.04 0.03 0.02 0.06 0.10 0.19 0.21 0.11 0.02 0.02 0.02 0.03 0.01 0.02 0.03 0.03 0.02 0.02 0.02 0.02 0.01 0.01 0.01 0.01 0.00 0.00 0.00 0.00 0.00 0.00 0.05 0.08 0.08 0.09 0.08 0.09 0.11
1.39 1.14 0.76 0.45 0.16 0.05 0.06 0.06 0.02 0.05 0.09 0.14 0.13 0.08 0.01 0.00 0.00 0.01 0.00 0.02 0.03 0.03 0.02 0.03 0.02 0.02 0.01 0.00 0.00 0.00 0.00 0.00 0.00 0.00 0.00 0.01 0.03 0.04 0.05 0.05 0.05 0.08 0.08
1.73 1.30 1.30 0.91 0.32 0.06 0.09 0.06 0.02 0.03 0.08 0.07 0.07 0.06 0.01 0.00 0.00 0.00 0.00 0.02 0.02 0.02 0.03 0.01 0.01 0.01 0.00 0.00 0.00 0.00 0.00 0.00 0.00 0.00 0.00 0.01 0.02 0.02 0.02 0.04 0.05 0.04 0.04
2.61 1.58 1.42 1.10 0.77 0.28 0.19 0.13 0.02 0.02 0.05 0.06 0.08 0.06 0.03 0.01 0.00 0.00 0.00 0.01 0.00 0.00 0.01 0.00 0.00 0.00 0.00 0.00 0.00 0.00 0.00 0.00 0.00 0.00 0.00 0.01 0.00 0.01 0.02 0.02 0.03 0.02 0.02
3.11 2.18 1.51 1.15 0.86 0.62 0.50 0.28 0.03 0.03 0.03 0.08 0.07 0.08 0.03 0.01 0.00 0.00 0.00 0.00 0.00 0.00 0.00 0.00 0.00 0.00 0.00 0.00 0.00 0.00 0.00 0.00 0.00 0.00 0.00 0.00 0.00 0.00 0.01 0.01 0.02 0.03 0.04
1.45 1.66 1.79 1.29 1.00 0.80 0.70 0.57 0.14 0.03 0.03 0.07 0.08 0.10 0.06 0.02 0.00 0.00 0.00 0.00 0.00 0.00 0.00 0.00 0.00 0.00 0.00 0.00 0.00 0.00 0.00 0.00 0.00 0.00 0.00 0.00 0.00 0.00 0.00 0.00 0.01 0.01 0.05
0.93 1.30 1.77 1.53 1.07 1.30 1.06 0.80 0.59 0.15 0.02 0.05 0.13 0.06 0.13 0.07 0.01 0.00 0.00 0.00 0.00 0.00 0.00 0.00 0.00 0.00 0.00 0.00 0.00 0.00 0.00 0.00 0.00 0.00 0.00 0.00 0.00 0.00 0.00 0.00 0.01 0.03 0.06
0.53 1.41 1.87 1.46 0.96 0.81 1.41 1.25 0.67 0.53 0.19 0.04 0.06 0.16 0.05 0.19 0.09 0.00 0.00 0.00 0.00 0.00 0.00 0.00 0.00 0.00 0.00 0.00 0.00 0.00 0.00 0.00 0.00 0.00 0.00 0.00 0.00 0.00 0.00 0.01 0.02 0.05 0.07
0.58 0.95 1.57 1.41 0.78 0.62 0.86 1.43 1.15 0.70 0.37 0.15 0.07 0.12 0.10 0.07 0.16 0.06 0.01 0.00 0.00 0.00 0.00 0.00 0.00 0.00 0.00 0.00 0.00 0.00 0.00 0.00 0.00 0.00 0.00 0.00 0.00 0.00 0.00 0.00 0.01 0.02 0.08
0.47 0.63 0.79 0.77 0.41 0.20 0.36 0.96 1.40 0.93 0.46 0.23 0.13 0.04 0.08 0.09 0.07 0.05 0.01 0.01 0.00 0.00 0.00 0.00 0.00 0.00 0.00 0.00 0.01 0.00 0.00 0.00 0.00 0.00 0.00 0.01 0.01 0.01 0.00 0.01 0.01 0.01 0.02
0.84 0.66 0.67 0.50 0.50 0.32 0.55 0.88 1.21 1.07 0.71 0.34 0.24 0.14 0.11 0.10 0.14 0.13 0.08 0.04 0.01 0.00 0.00 0.00 0.01 0.02 0.02 0.03 0.03 0.01 0.00 0.00 0.00 0.00 0.00 0.00 0.02 0.02 0.01 0.01 0.00 0.00 0.00
1.62 0.98 0.83 0.66 0.53 0.52 0.44 0.56 0.82 0.60 0.94 0.65 0.45 0.40 0.31 0.38 0.36 0.34 0.31 0.19 0.13 0.06 0.05 0.06 0.07 0.05 0.05 0.15 0.14 0.03 0.01 0.00 0.00 0.00 0.00 0.00 0.00 0.01 0.00 0.00 0.00 0.00 0.00
1.04 1.07 1.06 0.56 0.42 0.44 0.42 0.47 1.00 1.03 1.04 0.93 0.87 0.76 0.57 0.62 0.59 0.37 0.41 0.47 0.36 0.22 0.14 0.11 0.21 0.38 0.37 0.49 0.40 0.22 0.08 0.05 0.05 0.02 0.01 0.00 0.00 0.00 0.00 0.00 0.00 0.00 0.00
0.98 0.79 0.84 1.09 0.95 0.84 1.06 1.45 1.47 1.63 1.62 1.57 1.44 1.11 1.16 1.34 1.42 1.14 1.03 0.93 0.96 1.03 0.91 0.89 0.79 0.88 0.79 0.78 0.63 0.61 0.35 0.13 0.04 0.02 0.01 0.00 0.00 0.00 0.00 0.01 0.01 0.01 0.01
1.36 1.37 1.39 1.53 1.34 1.04 1.27 1.45 1.14 1.43 1.59 1.63 1.46 1.60 1.84 1.90 1.97 1.85 1.81 2.17 1.99 1.68 1.57 1.55 1.37 1.03 0.73 0.62 0.54 0.44 0.37 0.22 0.16 0.08 0.01 0.01 0.01 0.01 0.01 0.01 0.02 0.01 0.01
1.67 1.56 1.62 1.79 1.43 1.17 1.29 1.33 1.49 1.32 1.31 1.26 1.05 1.10 1.17 1.21 1.07 1.08 1.10 1.23 1.43 1.30 1.25 1.15 1.04 0.83 0.68 0.53 0.45 0.37 0.31 0.21 0.12 0.11 0.07 0.06 0.05 0.04 0.02 0.01 0.01 0.01 0.01
1.60 1.12 1.30 1.40 1.18 1.01 1.10 0.99 1.30 1.12 1.21 1.16 0.97 0.83 0.79 0.79 0.87 0.69 0.59 0.54 0.51 0.48 0.54 0.56 0.55 0.47 0.37 0.34 0.25 0.22 0.23 0.23 0.17 0.16 0.14 0.11 0.08 0.05 0.03 0.02 0.03 0.03 0.04

GFSSE_prec_precacc_105.txt.gz
Total_Precipitation_Accumulation
0.00 0.03 0.16 0.14 0.12 0.09 0.09 0.10 0.11 0.10 0.10 0.13 0.09 0.06 0.07 0.13 0.15 0.16 0.07 0.07 0.15 0.17 0.22 0.17 0.16 0.20 0.33 0.39 0.33 0.06 0.02 0.01 0.01 0.01 0.02 0.04 0.06 0.06 0.06 0.06 0.08 0.09 0.11
0.00 0.02 0.10 0.15 0.15 0.11 0.15 0.13 0.09 0.07 0.13 0.16 0.14 0.11 0.12 0.24 0.20 0.11 0.05 0.07 0.13 0.15 0.15 0.20 0.23 0.32 0.30 0.13 0.07 0.02 0.00 0.00 0.00 0.00 0.00 0.02 0.04 0.05 0.03 0.04 0.10 0.09 0.10
0.00 0.03 0.05 0.15 0.15 0.13 0.11 0.06 0.04 0.07 0.09 0.10 0.12 0.19 0.28 0.26 0.11 0.05 0.04 0.09 0.13 0.16 0.18 0.23 0.23 0.14 0.03 0.01 0.00 0.00 0.00 0.00 0.00 0.00 0.00 0.01 0.04 0.10 0.08 0.05 0.11 0.12 0.14
0.00 0.02 0.04 0.15 0.13 0.13 0.07 0.03 0.07 0.08 0.06 0.08 0.18 0.30 0.33 0.18 0.06 0.06 0.06 0.09 0.11 0.09 0.09 0.05 0.02 0.01 0.00 0.00 0.00 0.00 0.00 0.00 0.00 0.00 0.00 0.00 0.02 0.10 0.10 0.10 0.15 0.13 0.12
0.02 0.02 0.05 0.14 0.15 0.12 0.03 0.04 0.06 0.06 0.06 0.08 0.21 0.45 0.45 0.16 0.07 0.07 0.06 0.07 0.05 0.03 0.02 0.01 0.01 0.00 0.00 0.00 0.00 0.00 0.01 0.00 0.00 0.00 0.00 0.00 0.02 0.09 0.11 0.12 0.14 0.17 0.16
0.03 0.04 0.09 0.18 0.20 0.07 0.01 0.02 0.06 0.06 0.07 0.07 0.23 0.42 0.44 0.15 0.13 0.13 0.07 0.03 0.02 0.02 0.02 0.01 0.00 0.00 0.00 0.00 0.00 0.00 0.01 0.01 0.00 0.00 0.00 0.01 0.04 0.13 0.09 0.10 0.14 0.23 0.23
0.05 0.08 0.10 0.28 0.18 0.04 0.01 0.03 0.10 0.09 0.08 0.10 0.24 0.38 0.34 0.14 0.12 0.15 0.08 0.03 0.01 0.02 0.02 0.00 0.00 0.00 0.00 0.00 0.00 0.00 0.00 0.01 0.00 0.00 0.00 0.00 0.02 0.03 0.02 0.04 0.05 0.08 0.12
0.05 0.12 0.18 0.31 0.18 0.05 0.02 0.03 0.07 0.08 0.11 0.18 0.31 0.43 0.29 0.15 0.09 0.10 0.09 0.02 0.01 0.02 0.01 0.01 0.00 0.00 0.00 0.00 0.00 0.00 0.00 0.00 0.00 0.00 0.00 0.00 0.01 0.02 0.02 0.03 0.04 0.04 0.06
0.18 0.17 0.24 0.24 0.18 0.08 0.03 0.02 0.05 0.08 0.14 0.26 0.33 0.33 0.16 0.11 0.10 0.08 0.06 0.02 0.02 0.03 0.02 0.01 0.01 0.01 0.00 0.00 0.00 0.00 0.00 0.00 0.00 0.00 0.00 0.00 0.02 0.05 0.05 0.07 0.07 0.08 0.10
0.88 0.52 0.35 0.31 0.13 0.04 0.04 0.03 0.02 0.06 0.10 0.19 0.22 0.13 0.04 0.05 0.04 0.03 0.01 0.02 0.03 0.04 0.02 0.02 0.02 0.02 0.01 0.01 0.01 0.01 0.00 0.00 0.00 0.00 0.00 0.00 0.05 0.08 0.08 0.09 0.08 0.09 0.11
1.59 1.36 0.83 0.48 0.17 0.05 0.06 0.06 0.02 0.05 0.09 0.14 0.14 0.10 0.02 0.02 0.01 0.01 0.00 0.02 0.03 0.03 0.02 0.03 0.02 0.02 0.01 0.00 0.00 0.00 0.00 0.00 0.00 0.00 0.00 0.01 0.03 0.04 0.05 0.05 0.05 0.08 0.08
1.88 1.49 1.53 1.16 0.47 0.10 0.09 0.06 0.02 0.03 0.08 0.07 0.08 0.07 0.03 0.00 0.00 0.00 0.00 0.02 0.02 0.02 0.03 0.01 0.01 0.01 0.00 0.00 0.00 0.00 0.00 0.00 0.00 0.00 0.00 0.01 0.02 0.02 0.02 0.04 0.05 0.04 0.04
2.63 1.65 1.55 1.23 0.93 0.37 0.22 0.13 0.02 0.02 0.05 0.06 0.08 0.07 0.03 0.01 0.00 0.00 0.00 0.01 0.00 0.00 0.01 0.00 0.00 0.00 0.00 0.00 0.00 0.00 0.00 0.00 0.00 0.00 0.00 0.01 0.00 0.01 0.02 0.02 0.03 0.02 0.02
3.11 2.19 1.53 1.22 0.99 0.69 0.54 0.32 0.03 0.03 0.04 0.08 0.07 0.08 0.03 0.02 0.00 0.00 0.00 0.00 0.00 0.00 0.00 0.00 0.00 0.00 0.00 0.00 0.00 0.00 0.00 0.00 0.00 0.00 0.00 0.00 0.00 0.00 0.01 0.01 0.02 0.03 0.04
1.45 1.66 1.79 1.29 1.03 0.88 0.74 0.60 0.15 0.04 0.04 0.07 0.08 0.10 0.06 0.02 0.01 0.00 0.00 0.00 0.00 0.00 0.00 0.00 0.00 0.00 0.00 0.00 0.00 0.00 0.00 0.00 0.00 0.00 0.00 0.00 0.00 0.00 0.00 0.00 0.01 0.01 0.05
0.93 1.30 1.77 1.54 1.08 1.33 1.14 0.86 0.62 0.16 0.08 0.09 0.16 0.10 0.15 0.08 0.03 0.02 0.01 0.00 0.00 0.00 0.00 0.00 0.00 0.00 0.00 0.00 0.00 0.00 0.00 0.00 0.00 0.00 0.00 0.00 0.00 0.00 0.00 0.00 0.01 0.03 0.06
0.53 1.41 1.87 1.46 0.97 0.82 1.43 1.28 0.70 0.55 0.21 0.08 0.12 0.27 0.12 0.24 0.15 0.07 0.03 0.00 0.00 0.00 0.00 0.00 0.00 0.00 0.00 0.00 0.00 0.00 0.00 0.00 0.00 0.00 0.00 0.00 0.00 0.00 0.00 0.01 0.02 0.05 0.07
0.58 0.95 1.57 1.41 0.78 0.62 0.86 1.44 1.15 0.70 0.38 0.16 0.09 0.17 0.20 0.16 0.38 0.20 0.11 0.04 0.00 0.00 0.00 0.00 0.00 0.00 0.00 0.00 0.00 0.00 0.00 0.00 0.00 0.00 0.00 0.00 0.00 0.00 0.00 0.00 0.01 0.02 0.08
0.47 0.63 0.79 0.77 0.41 0.20 0.36 0.96 1.40 0.93 0.46 0.24 0.14 0.06 0.13 0.24 0.22 0.45 0.31 0.07 0.00 0.00 0.00 0.00 0.00 0.00 0.00 0.00 0.01 0.00 0.00 0.00 0.00 0.00 0.00 0.01 0.01 0.01 0.00 0.01 0.01 0.01 0.02
0.84 0.66 0.67 0.50 0.50 0.32 0.55 0.88 1.21 1.07 0.71 0.34 0.24 0.14 0.11 0.12 0.20 0.22 0.29 0.20 0.04 0.00 0.00 0.00 0.01 0.02 0.02 0.03 0.03 0.01 0.00 0.00 0.00 0.00 0.00 0.00 0.02 0.02 0.01 0.01 0.00 0.00 0.00
1.62 0.98 0.83 0.66 0.53 0.52 0.44 0.56 0.82 0.61 0.94 0.65 0.45 0.40 0.31 0.38 0.36 0.38 0.45 0.26 0.14 0.06 0.05 0.06 0.07 0.05 0.05 0.15 0.14 0.03 0.01 0.00 0.00 0.00 0.00 0.00 0.00 0.01 0.00 0.00 0.00 0.00 0.00
1.05 1.07 1.06 0.56 0.42 0.44 0.42 0.47 1.00 1.03 1.04 0.93 0.87 0.76 0.57 0.62 0.59 0.40 0.44 0.54 0.38 0.22 0.14 0.11 0.21 0.38 0.37 0.49 0.40 0.22 0.08 0.05 0.05 0.02 0.01 0.00 0.00 0.00 0.00 0.00 0.00 0.00 0.00
1.00 0.80 0.84 1.09 0.95 0.84 1.06 1.45 1.48 1.67 1.65 1.58 1.45 1.11 1.17 1.34 1.43 1.16 1.07 0.96 0.98 1.04 0.91 0.90 0.79 0.88 0.79 0.78 0.64 0.62 0.35 0.13 0.04 0.02 0.01 0.00 0.00 0.00 0.00 0.01 0.01 0.01 0.01
1.36 1.38 1.39 1.53 1.34 1.04 1.28 1.47 1.16 1.47 1.69 1.71 1.47 1.60 1.85 1.92 1.99 1.87 1.83 2.21 2.05 1.73 1.60 1.60 1.42 1.05 0.76 0.65 0.56 0.45 0.38 0.22 0.16 0.08 0.01 0.01 0.02 0.02 0.02 0.02 0.02 0.02 0.01
1.67 1.56 1.62 1.79 1.43 1.17 1.30 1.37 1.52 1.35 1.50 1.53 1.21 1.15 1.21 1.28 1.14 1.13 1.15 1.30 1.52 1.41 1.37 1.27 1.21 0.98 0.82 0.63 0.49 0.39 0.32 0.23 0.14 0.13 0.07 0.06 0.06 0.05 0.04 0.02 0.02 0.01 0.01
1.62 1.12 1.30 1.40 1.18 1.01 1.11 1.05 1.39 1.16 1.28 1.43 1.31 1.05 0.89 0.85 0.92 0.75 0.68 0.63 0.60 0.60 0.66 0.65 0.62 0.53 0.42 0.37 0.28 0.23 0.23 0.24 0.18 0.18 0.16 0.11 0.09 0.05 0.04 0.05 0.07 0.06 0.04

GFSSE_prec_precacc_108.txt.gz
Total_Precipitation_Accumulation
0.00 0.03 0.16 0.14 0.13 0.09 0.09 0.10 0.11 0.10 0.10 0.13 0.09 0.06 0.07 0.13 0.15 0.16 0.07 0.07 0.15 0.19 0.23 0.17 0.16 0.20 0.35 0.40 0.34 0.07 0.03 0.02 0.02 0.01 0.02 0.04 0.06 0.07 0.06 0.07 0.08 0.09 0.11
0.00 0.02 0.10 0.15 0.16 0.12 0.15 0.13 0.09 0.07 0.13 0.16 0.14 0.11 0.12 0.24 0.20 0.11 0.05 0.08 0.14 0.17 0.15 0.20 0.24 0.32 0.31 0.15 0.07 0.02 0.00 0.00 0.00 0.00 0.00 0.02 0.05 0.07 0.06 0.07 0.12 0.10 0.11
0.00 0.03 0.05 0.16 0.15 0.14 0.12 0.07 0.05 0.07 0.09 0.10 0.12 0.19 0.28 0.26 0.11 0.05 0.04 0.11 0.15 0.16 0.18 0.23 0.23 0.14 0.03 0.01 0.00 0.00 0.00 0.00 0.00 0.00 0.00 0.01 0.04 0.11 0.10 0.08 0.15 0.17 0.18
0.00 0.02 0.04 0.15 0.13 0.13 0.08 0.03 0.07 0.09 0.06 0.08 0.18 0.31 0.33 0.18 0.06 0.06 0.06 0.11 0.15 0.09 0.09 0.05 0.02 0.01 0.00 0.00 0.00 0.00 0.00 0.00 0.00 0.00 0.00 0.00 0.02 0.10 0.11 0.10 0.15 0.13 0.12
0.02 0.02 0.05 0.14 0.15 0.12 0.03 0.04 0.06 0.07 0.07 0.08 0.21 0.45 0.45 0.16 0.07 0.08 0.07 0.10 0.06 0.03 0.02 0.01 0.01 0.00 0.00 0.00 0.00 0.00 0.01 0.00 0.00 0.00 0.00 0.00 0.02 0.09 0.11 0.12 0.14 0.17 0.16
0.03 0.04 0.09 0.18 0.21 0.07 0.01 0.02 0.07 0.07 0.07 0.08 0.24 0.43 0.44 0.15 0.14 0.15 0.10 0.05 0.02 0.02 0.02 0.01 0.00 0.00 0.00 0.00 0.00 0.00 0.01 0.01 0.00 0.00 0.00 0.01 0.04 0.13 0.09 0.10 0.14 0.23 0.23
0.05 0.08 0.10 0.28 0.18 0.04 0.01 0.03 0.10 0.09 0.09 0.10 0.26 0.39 0.36 0.16 0.15 0.17 0.10 0.03 0.01 0.02 0.02 0.00 0.00 0.00 0.00 0.00 0.00 0.00 0.00 0.01 0.00 0.00 0.00 0.00 0.02 0.03 0.02 0.04 0.05 0.08 0.12
0.06 0.12 0.18 0.32 0.18 0.05 0.02 0.03 0.07 0.08 0.11 0.18 0.31 0.44 0.31 0.20 0.14 0.12 0.09 0.02 0.01 0.02 0.01 0.01 0.00 0.00 0.00 0.00 0.00 0.00 0.00 0.00 0.00 0.00 0.00 0.00 0.01 0.02 0.02 0.03 0.04 0.04 0.06
0.37 0.27 0.24 0.25 0.18 0.08 0.03 0.03 0.05 0.08 0.14 0.26 0.33 0.33 0.17 0.18 0.19 0.11 0.07 0.02 0.02 0.03 0.02 0.01 0.01 0.01 0.00 0.00 0.00 0.00 0.00 0.00 0.00 0.00 0.00 0.00 0.02 0.05 0.05 0.07 0.07 0.08 0.10
1.01 0.67 0.40 0.31 0.14 0.05 0.04 0.03 0.03 0.06 0.10 0.19 0.22 0.13 0.04 0.05 0.08 0.07 0.02 0.02 0.03 0.04 0.02 0.02 0.02 0.02 0.01 0.01 0.01 0.01 0.00 0.00 0.00 0.00 0.00 0.00 0.05 0.08 0.08 0.09 0.08 0.09 0.11
1.68 1.56 0.96 0.50 0.18 0.05 0.06 0.06 0.02 0.05 0.09 0.14 0.14 0.10 0.02 0.02 0.02 0.01 0.00 0.02 0.03 0.03 0.02 0.03 0.02 0.02 0.01 0.00 0.00 0.00 0.00 0.00 0.00 0.00 0.00 0.01 0.03 0.04 0.05 0.05 0.05 0.08 0.08
1.90 1.63 1.77 1.39 0.68 0.23 0.12 0.06 0.02 0.03 0.08 0.07 0.08 0.07 0.03 0.01 0.00 0.00 0.00 0.02 0.02 0.02 0.03 0.01 0.01 0.01 0.00 0.00 0.00 0.00 0.00 0.00 0.00 0.00 0.00 0.01 0.02 0.02 0.02 0.04 0.05 0.04 0.04
2.63 1.67 1.70 1.46 1.13 0.50 0.31 0.19 0.03 0.02 0.05 0.07 0.09 0.07 0.04 0.01 0.00 0.00 0.00 0.01 0.00 0.00 0.01 0.00 0.00 0.00 0.00 0.00 0.00 0.00 0.00 0.00 0.00 0.00 0.00 0.01 0.00 0.01 0.02 0.02 0.03 0.02 0.02
3.11 2.19 1.53 1.25 1.09 0.81 0.64 0.41 0.14 0.08 0.05 0.08 0.08 0.09 0.04 0.02 0.00 0.00 0.00 0.00 0.00 0.00 0.00 0.00 0.00 0.00 0.00 0.00 0.00 0.00 0.00 0.00 0.00 0.00 0.00 0.00 0.00 0.00 0.01 0.01 0.02 0.03 0.04
1.45 1.66 1.79 1.29 1.03 0.90 0.82 0.63 0.18 0.10 0.07 0.08 0.08 0.10 0.07 0.02 0.01 0.00 0.00 0.00 0.00 0.00 0.00 0.00 0.00 0.00 0.00 0.00 0.00 0.00 0.00 0.00 0.00 0.00 0.00 0.00 0.00 0.00 0.00 0.00 0.01 0.01 0.05
0.93 1.30 1.77 1.54 1.08 1.33 1.15 0.89 0.65 0.21 0.13 0.13 0.18 0.10 0.16 0.09 0.03 0.03 0.02 0.01 0.00 0.00 0.00 0.00 0.00 0.00 0.00 0.00 0.00 0.00 0.00 0.00 0.00 0.00 0.00 0.00 0.00 0.00 0.00 0.00 0.01 0.03 0.06
0.53 1.41 1.87 1.46 0.97 0.82 1.43 1.28 0.71 0.59 0.29 0.15 0.22 0.36 0.18 0.27 0.16 0.07 0.04 0.04 0.02 0.00 0.00 0.00 0.00 0.00 0.00 0.00 0.00 0.00 0.00 0.00 0.00 0.00 0.00 0.00 0.00 0.00 0.00 0.01 0.02 0.05 0.07
0.58 0.95 1.57 1.41 0.78 0.62 0.86 1.44 1.15 0.70 0.41 0.21 0.14 0.21 0.29 0.27 0.44 0.24 0.14 0.09 0.05 0.01 0.00 0.00 0.00 0.00 0.00 0.00 0.00 0.00 0.00 0.00 0.00 0.00 0.00 0.00 0.00 0.00 0.00 0.00 0.01 0.03 0.08
0.47 0.63 0.79 0.77 0.41 0.20 0.36 0.96 1.40 0.94 0.47 0.27 0.17 0.06 0.14 0.30 0.34 0.58 0.49 0.30 0.11 0.04 0.02 0.00 0.00 0.00 0.00 0.00 0.01 0.00 0.00 0.00 0.00 0.00 0.00 0.01 0.01 0.01 0.00 0.01 0.01 0.01 0.02
0.84 0.66 0.67 0.50 0.50 0.32 0.55 0.88 1.21 1.08 0.71 0.34 0.24 0.14 0.11 0.12 0.22 0.29 0.38 0.39 0.32 0.20 0.08 0.01 0.01 0.02 0.02 0.03 0.03 0.01 0.00 0.00 0.00 0.00 0.00 0.00 0.02 0.02 0.01 0.01 0.00 0.00 0.00
1.62 0.98 0.83 0.66 0.53 0.52 0.44 0.56 0.82 0.61 0.94 0.65 0.45 0.40 0.31 0.38 0.36 0.38 0.45 0.27 0.18 0.11 0.09 0.09 0.08 0.05 0.05 0.15 0.14 0.03 0.01 0.00 0.00 0.00 0.00 0.00 0.00 0.01 0.00 0.00 0.00 0.00 0.00
1.05 1.07 1.06 0.56 0.42 0.44 0.42 0.47 1.00 1.03 1.04 0.93 0.87 0.76 0.57 0.62 0.59 0.40 0.44 0.54 0.40 0.23 0.15 0.12 0.22 0.38 0.37 0.49 0.40 0.22 0.08 0.05 0.05 0.02 0.01 0.00 0.00 0.00 0.00 0.00 0.00 0.00 0.00
1.00 0.80 0.85 1.09 0.95 0.84 1.06 1.45 1.48 1.67 1.65 1.58 1.45 1.11 1.17 1.34 1.43 1.16 1.07 0.96 0.99 1.06 0.92 0.91 0.80 0.88 0.80 0.78 0.64 0.62 0.35 0.13 0.04 0.02 0.01 0.00 0.00 0.00 0.01 0.01 0.02 0.02 0.02
1.36 1.38 1.39 1.53 1.34 1.04 1.28 1.47 1.16 1.47 1.70 1.71 1.47 1.60 1.85 1.92 1.99 1.87 1.84 2.22 2.05 1.74 1.61 1.61 1.42 1.06 0.78 0.66 0.56 0.45 0.38 0.23 0.17 0.08 0.01 0.01 0.02 0.02 0.02 0.02 0.03 0.03 0.02
1.67 1.56 1.62 1.82 1.46 1.18 1.31 1.37 1.52 1.35 1.50 1.54 1.22 1.15 1.22 1.28 1.15 1.14 1.17 1.34 1.56 1.43 1.39 1.29 1.24 1.04 0.89 0.71 0.58 0.47 0.41 0.31 0.18 0.14 0.07 0.06 0.06 0.05 0.04 0.03 0.03 0.02 0.03
1.62 1.12 1.30 1.41 1.19 1.02 1.11 1.05 1.39 1.16 1.29 1.44 1.38 1.10 0.95 0.90 1.03 0.83 0.75 0.69 0.68 0.66 0.69 0.68 0.67 0.62 0.53 0.48 0.39 0.34 0.31 0.28 0.19 0.18 0.16 0.11 0.09 0.05 0.04 0.05 0.08 0.10 0.10

GFSSE_prec_precacc_111.txt.gz
Total_Precipitation_Accumulation
0.00 0.03 0.17 0.14 0.13 0.10 0.09 0.10 0.12 0.10 0.11 0.13 0.09 0.06 0.07 0.13 0.15 0.16 0.07 0.07 0.16 0.19 0.23 0.17 0.16 0.21 0.36 0.40 0.34 0.07 0.03 0.02 0.02 0.01 0.02 0.04 0.07 0.07 0.07 0.07 0.08 0.09 0.11
0.00 0.03 0.11 0.16 0.16 0.13 0.16 0.14 0.10 0.07 0.14 0.17 0.14 0.11 0.12 0.24 0.20 0.11 0.05 0.08 0.16 0.17 0.15 0.20 0.25 0.34 0.32 0.15 0.07 0.02 0.00 0.00 0.00 0.00 0.00 0.02 0.06 0.09 0.08 0.07 0.13 0.11 0.11
0.00 0.03 0.05 0.16 0.16 0.15 0.12 0.07 0.05 0.08 0.09 0.10 0.13 0.19 0.28 0.26 0.11 0.05 0.04 0.11 0.16 0.16 0.18 0.23 0.23 0.14 0.03 0.01 0.00 0.00 0.00 0.00 0.00 0.00 0.00 0.01 0.05 0.12 0.10 0.09 0.19 0.19 0.19
0.01 0.03 0.04 0.16 0.14 0.13 0.08 0.04 0.07 0.09 0.06 0.08 0.18 0.31 0.33 0.18 0.06 0.06 0.07 0.13 0.18 0.09 0.09 0.05 0.02 0.01 0.00 0.00 0.00 0.00 0.00 0.00 0.00 0.00 0.00 0.00 0.02 0.10 0.11 0.10 0.15 0.14 0.12
0.02 0.02 0.05 0.16 0.16 0.12 0.04 0.05 0.06 0.07 0.07 0.09 0.21 0.45 0.45 0.16 0.07 0.08 0.08 0.14 0.08 0.03 0.02 0.01 0.01 0.00 0.00 0.00 0.00 0.00 0.01 0.00 0.00 0.00 0.00 0.00 0.02 0.09 0.11 0.12 0.14 0.17 0.16
0.03 0.04 0.09 0.22 0.23 0.08 0.02 0.03 0.07 0.07 0.07 0.08 0.24 0.43 0.44 0.15 0.14 0.16 0.14 0.07 0.02 0.02 0.02 0.01 0.00 0.00 0.00 0.00 0.00 0.00 0.01 0.01 0.00 0.00 0.00 0.01 0.04 0.13 0.09 0.10 0.14 0.23 0.23
0.05 0.08 0.10 0.30 0.22 0.07 0.03 0.05 0.11 0.09 0.09 0.10 0.26 0.39 0.36 0.16 0.16 0.20 0.13 0.04 0.01 0.02 0.02 0.00 0.00 0.00 0.00 0.00 0.00 0.00 0.00 0.01 0.00 0.00 0.00 0.00 0.02 0.03 0.02 0.04 0.05 0.08 0.12
0.08 0.12 0.19 0.33 0.23 0.13 0.07 0.05 0.07 0.08 0.11 0.18 0.32 0.45 0.32 0.22 0.23 0.16 0.11 0.03 0.01 0.02 0.01 0.01 0.00 0.00 0.00 0.00 0.00 0.00 0.00 0.00 0.00 0.00 0.00 0.00 0.01 0.02 0.02 0.03 0.04 0.04 0.06
0.41 0.38 0.35 0.26 0.21 0.13 0.12 0.11 0.08 0.09 0.15 0.27 0.34 0.34 0.17 0.22 0.32 0.19 0.09 0.02 0.02 0.03 0.02 0.01 0.01 0.01 0.00 0.00 0.00 0.00 0.00 0.00 0.00 0.00 0.00 0.00 0.02 0.05 0.05 0.07 0.07 0.08 0.10
1.02 0.71 0.50 0.38 0.15 0.05 0.07 0.09 0.10 0.09 0.11 0.19 0.22 0.13 0.04 0.05 0.11 0.24 0.13 0.02 0.03 0.04 0.02 0.02 0.02 0.02 0.01 0.01 0.01 0.01 0.00 0.00 0.00 0.00 0.00 0.00 0.05 0.08 0.08 0.09 0.08 0.09 0.11
1.68 1.59 1.02 0.60 0.23 0.06 0.06 0.06 0.05 0.09 0.14 0.17 0.14 0.10 0.02 0.02 0.02 0.02 0.03 0.02 0.03 0.03 0.02 0.03 0.02 0.02 0.01 0.00 0.00 0.00 0.00 0.00 0.00 0.00 0.00 0.01 0.03 0.04 0.05 0.05 0.05 0.08 0.08
1.90 1.63 1.80 1.49 0.80 0.30 0.16 0.09 0.02 0.03 0.11 0.10 0.10 0.07 0.03 0.01 0.00 0.00 0.00 0.02 0.02 0.02 0.03 0.01 0.01 0.01 0.00 0.00 0.00 0.00 0.00 0.00 0.00 0.00 0.00 0.01 0.02 0.02 0.02 0.04 0.05 0.04 0.04
2.63 1.67 1.70 1.49 1.27 0.63 0.44 0.29 0.08 0.03 0.05 0.08 0.11 0.09 0.04 0.02 0.00 0.00 0.01 0.02 0.00 0.00 0.01 0.00 0.00 0.00 0.00 0.00 0.00 0.00 0.00 0.00 0.00 0.00 0.00 0.01 0.00 0.01 0.02 0.02 0.03 0.02 0.02
3.11 2.19 1.53 1.25 1.14 0.96 0.76 0.48 0.20 0.16 0.07 0.09 0.08 0.09 0.05 0.02 0.01 0.00 0.00 0.00 0.00 0.00 0.00 0.00 0.00 0.00 0.00 0.00 0.00 0.00 0.00 0.00 0.00 0.00 0.00 0.00 0.00 0.00 0.01 0.01 0.02 0.03 0.04
1.45 1.66 1.79 1.29 1.03 0.91 0.86 0.70 0.22 0.14 0.11 0.08 0.08 0.10 0.07 0.03 0.01 0.01 0.00 0.00 0.00 0.00 0.00 0.00 0.00 0.00 0.00 0.00 0.00 0.00 0.00 0.00 0.00 0.00 0.00 0.00 0.00 0.00 0.00 0.00 0.01 0.01 0.05
0.93 1.30 1.77 1.54 1.08 1.33 1.15 0.89 0.67 0.22 0.16 0.16 0.20 0.12 0.16 0.09 0.03 0.03 0.02 0.01 0.00 0.00 0.00 0.00 0.00 0.00 0.00 0.00 0.00 0.00 0.00 0.00 0.00 0.00 0.00 0.00 0.00 0.00 0.00 0.00 0.02 0.04 0.07
0.53 1.41 1.87 1.46 0.97 0.82 1.43 1.28 0.71 0.59 0.30 0.17 0.24 0.42 0.26 0.32 0.18 0.07 0.04 0.04 0.03 0.01 0.00 0.00 0.00 0.00 0.00 0.00 0.00 0.00 0.00 0.00 0.00 0.00 0.00 0.00 0.00 0.00 0.00 0.01 0.02 0.06 0.08
0.58 0.95 1.57 1.41 0.78 0.62 0.86 1.44 1.15 0.70 0.42 0.23 0.15 0.23 0.32 0.34 0.53 0.30 0.15 0.10 0.06 0.06 0.02 0.00 0.00 0.00 0.00 0.00 0.00 0.00 0.00 0.00 0.00 0.00 0.00 0.00 0.00 0.00 0.00 0.00 0.01 0.03 0.09
0.47 0.63 0.79 0.77 0.41 0.20 0.36 0.96 1.41 0.95 0.47 0.27 0.18 0.07 0.15 0.30 0.36 0.63 0.55 0.33 0.13 0.08 0.07 0.03 0.00 0.00 0.00 0.00 0.01 0.00 0.00 0.00 0.00 0.00 0.00 0.01 0.01 0.01 0.00 0.01 0.01 0.01 0.02
0.84 0.66 0.67 0.50 0.50 0.32 0.55 0.88 1.23 1.11 0.73 0.34 0.24 0.15 0.11 0.13 0.24 0.31 0.44 0.46 0.39 0.28 0.16 0.09 0.06 0.03 0.02 0.03 0.03 0.01 0.00 0.00 0.00 0.00 0.00 0.00 0.02 0.02 0.01 0.01 0.00 0.00 0.00
1.62 0.98 0.83 0.66 0.53 0.52 0.44 0.56 0.82 0.62 0.96 0.65 0.45 0.40 0.31 0.39 0.37 0.40 0.46 0.29 0.21 0.15 0.15 0.15 0.13 0.08 0.05 0.15 0.14 0.03 0.01 0.00 0.00 0.00 0.00 0.00 0.00 0.01 0.00 0.00 0.00 0.00 0.00
1.05 1.07 1.06 0.56 0.42 0.44 0.42 0.47 1.00 1.03 1.05 0.94 0.89 0.77 0.58 0.62 0.59 0.40 0.44 0.54 0.40 0.24 0.16 0.12 0.22 0.38 0.38 0.49 0.40 0.22 0.08 0.05 0.05 0.02 0.01 0.00 0.00 0.00 0.00 0.00 0.00 0.00 0.00
1.00 0.80 0.85 1.09 0.95 0.84 1.06 1.45 1.48 1.67 1.67 1.59 1.45 1.11 1.17 1.34 1.43 1.16 1.07 0.96 0.99 1.06 0.92 0.91 0.80 0.88 0.80 0.78 0.64 0.62 0.36 0.13 0.04 0.02 0.01 0.00 0.00 0.00 0.01 0.01 0.02 0.03 0.03
1.36 1.38 1.39 1.53 1.34 1.04 1.28 1.47 1.16 1.47 1.70 1.71 1.47 1.60 1.85 1.92 1.99 1.87 1.84 2.22 2.05 1.74 1.61 1.61 1.42 1.06 0.78 0.66 0.56 0.45 0.38 0.24 0.18 0.09 0.03 0.04 0.04 0.03 0.03 0.02 0.03 0.04 0.04
1.67 1.56 1.62 1.82 1.46 1.19 1.31 1.37 1.52 1.35 1.50 1.54 1.22 1.15 1.22 1.28 1.15 1.14 1.17 1.34 1.56 1.43 1.39 1.29 1.24 1.04 0.89 0.71 0.58 0.48 0.43 0.34 0.23 0.19 0.10 0.07 0.06 0.05 0.05 0.04 0.04 0.03 0.03
1.62 1.12 1.30 1.41 1.20 1.04 1.12 1.07 1.39 1.16 1.29 1.44 1.38 1.10 0.95 0.90 1.03 0.83 0.75 0.70 0.68 0.66 0.69 0.69 0.67 0.62 0.53 0.50 0.41 0.38 0.36 0.36 0.27 0.26 0.21 0.14 0.11 0.07 0.05 0.05 0.08 0.10 0.11

GFSSE_prec_precacc_114.txt.gz
Total_Precipitation_Accumulation
0.00 0.03 0.19 0.16 0.14 0.10 0.09 0.10 0.13 0.11 0.11 0.14 0.09 0.06 0.07 0.13 0.15 0.16 0.07 0.07 0.16 0.19 0.23 0.17 0.16 0.23 0.37 0.41 0.34 0.07 0.04 0.03 0.02 0.01 0.02 0.04 0.08 0.07 0.07 0.07 0.08 0.09 0.11
0.00 0.03 0.13 0.17 0.16 0.13 0.16 0.15 0.12 0.08 0.14 0.17 0.14 0.11 0.13 0.24 0.20 0.11 0.05 0.09 0.16 0.17 0.15 0.20 0.26 0.34 0.32 0.15 0.07 0.02 0.01 0.00 0.00 0.00 0.00 0.02 0.06 0.09 0.08 0.07 0.13 0.11 0.11
0.00 0.04 0.06 0.19 0.16 0.15 0.13 0.08 0.06 0.09 0.10 0.11 0.14 0.19 0.29 0.26 0.11 0.05 0.04 0.13 0.16 0.16 0.18 0.25 0.25 0.15 0.03 0.01 0.00 0.00 0.00 0.00 0.00 0.00 0.00 0.03 0.08 0.15 0.11 0.10 0.22 0.21 0.23
0.01 0.05 0.05 0.20 0.15 0.14 0.08 0.04 0.08 0.10 0.08 0.09 0.19 0.31 0.33 0.18 0.06 0.06 0.08 0.17 0.19 0.09 0.09 0.06 0.02 0.01 0.00 0.00 0.00 0.00 0.00 0.00 0.00 0.00 0.00 0.00 0.02 0.11 0.11 0.11 0.16 0.14 0.13
0.02 0.04 0.06 0.19 0.19 0.14 0.04 0.05 0.06 0.07 0.07 0.09 0.21 0.46 0.45 0.16 0.07 0.09 0.12 0.23 0.10 0.03 0.02 0.01 0.01 0.00 0.00 0.00 0.00 0.00 0.01 0.00 0.00 0.00 0.00 0.00 0.02 0.09 0.11 0.12 0.14 0.17 0.16
0.05 0.06 0.11 0.29 0.32 0.10 0.03 0.03 0.07 0.07 0.07 0.08 0.24 0.43 0.44 0.15 0.14 0.18 0.17 0.11 0.02 0.02 0.02 0.01 0.00 0.00 0.00 0.00 0.00 0.00 0.01 0.01 0.00 0.00 0.00 0.01 0.04 0.13 0.09 0.10 0.14 0.23 0.23
0.08 0.11 0.12 0.36 0.33 0.14 0.03 0.05 0.11 0.09 0.09 0.10 0.26 0.39 0.36 0.16 0.16 0.22 0.16 0.04 0.01 0.02 0.02 0.00 0.00 0.00 0.00 0.00 0.00 0.00 0.00 0.01 0.00 0.00 0.00 0.00 0.02 0.03 0.02 0.04 0.05 0.08 0.12
0.11 0.16 0.24 0.36 0.33 0.27 0.16 0.10 0.09 0.08 0.12 0.19 0.33 0.45 0.33 0.22 0.25 0.16 0.12 0.04 0.01 0.02 0.01 0.01 0.00 0.00 0.00 0.00 0.00 0.00 0.00 0.00 0.00 0.00 0.00 0.00 0.01 0.02 0.02 0.03 0.04 0.04 0.06
0.42 0.40 0.45 0.34 0.26 0.22 0.26 0.22 0.15 0.12 0.16 0.28 0.35 0.36 0.20 0.24 0.38 0.23 0.11 0.04 0.02 0.03 0.02 0.01 0.01 0.01 0.00 0.00 0.00 0.00 0.00 0.00 0.00 0.00 0.00 0.00 0.02 0.05 0.05 0.07 0.07 0.08 0.10
1.02 0.71 0.52 0.43 0.21 0.11 0.13 0.17 0.18 0.16 0.16 0.23 0.24 0.14 0.06 0.07 0.13 0.37 0.29 0.03 0.03 0.04 0.02 0.02 0.02 0.02 0.01 0.01 0.01 0.01 0.00 0.00 0.00 0.00 0.00 0.00 0.05 0.08 0.08 0.09 0.08 0.09 0.11
1.68 1.59 1.02 0.61 0.27 0.11 0.10 0.10 0.12 0.17 0.26 0.25 0.18 0.12 0.04 0.03 0.04 0.09 0.17 0.08 0.03 0.03 0.02 0.03 0.02 0.02 0.01 0.00 0.00 0.00 0.00 0.00 0.00 0.00 0.00 0.01 0.03 0.04 0.05 0.05 0.05 0.08 0.08
1.90 1.63 1.80 1.49 0.81 0.36 0.20 0.10 0.03 0.08 0.15 0.13 0.14 0.11 0.05 0.03 0.02 0.03 0.05 0.08 0.02 0.02 0.03 0.01 0.01 0.01 0.00 0.00 0.00 0.00 0.00 0.00 0.00 0.00 0.00 0.01 0.02 0.02 0.02 0.04 0.05 0.04 0.04
2.63 1.67 1.70 1.49 1.27 0.65 0.49 0.35 0.09 0.03 0.06 0.08 0.12 0.11 0.06 0.03 0.02 0.02 0.06 0.08 0.02 0.00 0.01 0.00 0.00 0.00 0.00 0.00 0.00 0.00 0.00 0.00 0.00 0.00 0.00 0.01 0.00 0.01 0.02 0.02 0.03 0.02 0.02
3.11 2.19 1.53 1.25 1.14 0.97 0.80 0.52 0.23 0.18 0.08 0.09 0.08 0.10 0.06 0.03 0.02 0.01 0.02 0.04 0.03 0.00 0.00 0.00 0.00 0.00 0.00 0.00 0.00 0.00 0.00 0.00 0.00 0.00 0.00 0.00 0.00 0.00 0.01 0.01 0.02 0.03 0.04
1.45 1.66 1.79 1.29 1.03 0.91 0.87 0.72 0.24 0.15 0.13 0.08 0.08 0.10 0.07 0.03 0.02 0.01 0.00 0.01 0.02 0.00 0.00 0.00 0.00 0.00 0.00 0.00 0.00 0.00 0.00 0.00 0.00 0.00 0.00 0.00 0.00 0.00 0.00 0.00 0.01 0.01 0.05
0.93 1.30 1.77 1.54 1.08 1.33 1.15 0.90 0.67 0.24 0.17 0.18 0.20 0.12 0.16 0.09 0.04 0.03 0.02 0.01 0.00 0.00 0.00 0.00 0.00 0.00 0.00 0.00 0.00 0.00 0.00 0.00 0.00 0.00 0.00 0.00 0.00 0.00 0.00 0.00 0.02 0.06 0.10
0.53 1.41 1.87 1.46 0.97 0.82 1.43 1.28 0.71 0.59 0.32 0.19 0.25 0.42 0.27 0.33 0.20 0.10 0.07 0.05 0.03 0.01 0.00 0.00 0.00 0.00 0.00 0.00 0.00 0.00 0.00 0.00 0.00 0.00 0.00 0.00 0.00 0.00 0.00 0.01 0.02 0.06 0.09
0.58 0.95 1.57 1.41 0.78 0.62 0.86 1.44 1.15 0.70 0.42 0.23 0.15 0.23 0.33 0.35 0.55 0.33 0.20 0.11 0.07 0.07 0.04 0.01 0.00 0.00 0.00 0.00 0.00 0.00 0.00 0.00 0.00 0.00 0.00 0.00 0.00 0.00 0.00 0.00 0.01 0.03 0.09
0.47 0.63 0.79 0.77 0.41 0.20 0.36 0.96 1.41 0.95 0.48 0.27 0.18 0.07 0.16 0.30 0.37 0.66 0.58 0.36 0.14 0.09 0.09 0.05 0.01 0.00 0.00 0.00 0.01 0.00 0.00 0.00 0.00 0.00 0.00 0.01 0.01 0.01 0.00 0.01 0.01 0.01 0.02
0.84 0.66 0.67 0.50 0.50 0.32 0.55 0.88 1.23 1.11 0.75 0.35 0.25 0.15 0.11 0.13 0.24 0.31 0.44 0.48 0.41 0.30 0.18 0.13 0.10 0.04 0.02 0.03 0.03 0.01 0.00 0.00 0.00 0.00 0.00 0.00 0.02 0.02 0.01 0.01 0.00 0.00 0.00
1.62 0.98 0.83 0.66 0.53 0.52 0.44 0.56 0.82 0.62 0.96 0.68 0.46 0.40 0.31 0.39 0.38 0.40 0.46 0.29 0.21 0.16 0.17 0.16 0.14 0.08 0.05 0.15 0.14 0.03 0.01 0.00 0.00 0.00 0.00 0.00 0.00 0.01 0.00 0.00 0.00 0.00 0.00
1.05 1.07 1.06 0.56 0.42 0.44 0.42 0.47 1.00 1.04 1.05 0.96 0.93 0.79 0.58 0.62 0.59 0.40 0.45 0.54 0.40 0.24 0.16 0.13 0.23 0.38 0.38 0.49 0.40 0.22 0.08 0.05 0.05 0.02 0.01 0.00 0.00 0.00 0.00 0.00 0.00 0.00 0.00
1.00 0.80 0.85 1.09 0.95 0.84 1.06 1.45 1.48 1.68 1.67 1.61 1.47 1.13 1.17 1.34 1.43 1.17 1.07 0.97 0.99 1.06 0.93 0.91 0.80 0.88 0.80 0.78 0.64 0.62 0.36 0.13 0.04 0.02 0.01 0.00 0.00 0.00 0.01 0.02 0.04 0.05 0.04
1.36 1.38 1.39 1.53 1.34 1.04 1.28 1.47 1.16 1.48 1.70 1.71 1.48 1.61 1.86 1.93 1.99 1.88 1.85 2.23 2.06 1.74 1.61 1.61 1.42 1.07 0.78 0.66 0.56 0.45 0.38 0.24 0.19 0.10 0.03 0.04 0.04 0.05 0.05 0.04 0.04 0.05 0.05
1.67 1.56 1.62 1.82 1.46 1.19 1.31 1.37 1.52 1.35 1.50 1.54 1.23 1.16 1.22 1.29 1.15 1.15 1.17 1.35 1.57 1.43 1.39 1.29 1.24 1.04 0.89 0.71 0.58 0.48 0.43 0.34 0.23 0.20 0.10 0.07 0.08 0.05 0.05 0.04 0.04 0.03 0.04
1.62 1.12 1.30 1.41 1.20 1.04 1.12 1.07 1.40 1.16 1.29 1.45 1.38 1.10 0.95 0.90 1.03 0.83 0.75 0.70 0.69 0.67 0.70 0.69 0.68 0.63 0.54 0.50 0.41 0.38 0.36 0.37 0.27 0.27 0.23 0.15 0.15 0.09 0.06 0.06 0.08 0.10 0.11

GFSSE_prec_precacc_117.txt.gz
Total_Precipitation_Accumulation
0.00 0.03 0.20 0.17 0.14 0.10 0.09 0.11 0.14 0.13 0.12 0.14 0.09 0.06 0.07 0.13 0.15 0.16 0.07 0.07 0.16 0.19 0.23 0.17 0.17 0.26 0.37 0.41 0.35 0.09 0.05 0.03 0.02 0.01 0.02 0.05 0.08 0.07 0.07 0.07 0.09 0.09 0.11
0.00 0.03 0.14 0.19 0.17 0.14 0.16 0.15 0.13 0.09 0.15 0.18 0.15 0.12 0.13 0.24 0.20 0.11 0.06 0.09 0.16 0.17 0.15 0.21 0.29 0.36 0.32 0.15 0.08 0.03 0.01 0.00 0.00 0.00 0.00 0.02 0.06 0.09 0.08 0.07 0.13 0.11 0.13
0.00 0.05 0.07 0.20 0.17 0.15 0.13 0.08 0.08 0.12 0.11 0.12 0.17 0.20 0.29 0.26 0.11 0.05 0.05 0.13 0.16 0.16 0.19 0.25 0.25 0.15 0.03 0.01 0.00 0.00 0.00 0.00 0.00 0.00 0.01 0.08 0.11 0.17 0.13 0.13 0.26 0.27 0.27
0.01 0.06 0.06 0.22 0.16 0.14 0.09 0.05 0.08 0.11 0.09 0.10 0.22 0.33 0.33 0.18 0.06 0.06 0.10 0.19 0.19 0.09 0.10 0.07 0.03 0.01 0.00 0.00 0.00 0.00 0.00 0.00 0.00 0.00 0.00 0.01 0.03 0.12 0.13 0.12 0.16 0.14 0.13
0.03 0.06 0.07 0.20 0.24 0.14 0.05 0.05 0.07 0.07 0.08 0.10 0.22 0.47 0.46 0.16 0.07 0.09 0.17 0.31 0.11 0.03 0.02 0.01 0.01 0.00 0.00 0.00 0.00 0.00 0.01 0.00 0.00 0.00 0.00 0.00 0.02 0.09 0.11 0.12 0.14 0.17 0.16
0.05 0.11 0.17 0.30 0.37 0.15 0.05 0.04 0.07 0.07 0.07 0.09 0.25 0.43 0.44 0.15 0.14 0.18 0.22 0.15 0.03 0.02 0.02 0.01 0.00 0.00 0.00 0.00 0.00 0.00 0.01 0.01 0.00 0.00 0.00 0.01 0.04 0.13 0.09 0.10 0.14 0.23 0.23
0.08 0.13 0.22 0.40 0.38 0.20 0.08 0.09 0.14 0.10 0.11 0.11 0.27 0.39 0.36 0.16 0.16 0.23 0.17 0.05 0.02 0.02 0.02 0.00 0.00 0.00 0.00 0.00 0.00 0.00 0.00 0.01 0.00 0.00 0.00 0.00 0.02 0.03 0.02 0.04 0.05 0.08 0.12
0.11 0.16 0.30 0.40 0.37 0.33 0.24 0.16 0.15 0.11 0.13 0.20 0.34 0.46 0.33 0.22 0.26 0.19 0.13 0.05 0.04 0.02 0.01 0.01 0.00 0.00 0.00 0.00 0.00 0.00 0.00 0.00 0.00 0.00 0.00 0.00 0.01 0.02 0.02 0.03 0.04 0.04 0.06
0.42 0.40 0.48 0.42 0.31 0.26 0.32 0.27 0.22 0.18 0.19 0.31 0.40 0.39 0.21 0.25 0.41 0.29 0.11 0.06 0.05 0.03 0.02 0.01 0.01 0.01 0.00 0.00 0.00 0.00 0.00 0.00 0.00 0.00 0.00 0.00 0.02 0.05 0.05 0.07 0.07 0.08 0.10
1.02 0.71 0.52 0.45 0.25 0.16 0.17 0.17 0.19 0.18 0.19 0.27 0.28 0.19 0.11 0.08 0.14 0.45 0.44 0.07 0.08 0.04 0.02 0.02 0.02 0.02 0.01 0.01 0.01 0.01 0.00 0.00 0.00 0.00 0.00 0.00 0.05 0.08 0.08 0.09 0.08 0.09 0.11
1.68 1.59 1.02 0.61 0.27 0.12 0.14 0.16 0.15 0.20 0.30 0.30 0.22 0.16 0.07 0.04 0.04 0.11 0.24 0.14 0.04 0.03 0.02 0.03 0.02 0.02 0.01 0.00 0.00 0.00 0.00 0.00 0.00 0.00 0.00 0.01 0.03 0.04 0.05 0.05 0.05 0.08 0.08
1.90 1.63 1.80 1.49 0.81 0.37 0.21 0.13 0.07 0.12 0.19 0.15 0.14 0.13 0.06 0.03 0.03 0.05 0.09 0.18 0.04 0.02 0.03 0.01 0.01 0.01 0.00 0.00 0.00 0.00 0.00 0.00 0.00 0.00 0.00 0.01 0.02 0.02 0.02 0.04 0.05 0.04 0.04
2.63 1.67 1.70 1.49 1.27 0.65 0.52 0.39 0.10 0.03 0.09 0.11 0.12 0.11 0.06 0.03 0.02 0.05 0.14 0.13 0.04 0.00 0.01 0.00 0.00 0.00 0.00 0.00 0.00 0.00 0.00 0.00 0.00 0.00 0.00 0.01 0.00 0.01 0.02 0.02 0.03 0.02 0.02
3.11 2.19 1.53 1.25 1.14 0.97 0.81 0.56 0.26 0.18 0.08 0.09 0.08 0.10 0.06 0.03 0.02 0.02 0.06 0.09 0.08 0.02 0.00 0.00 0.00 0.00 0.00 0.00 0.00 0.00 0.00 0.00 0.00 0.00 0.00 0.00 0.00 0.00 0.01 0.01 0.02 0.03 0.04
1.45 1.66 1.79 1.29 1.03 0.91 0.87 0.72 0.27 0.16 0.13 0.08 0.08 0.10 0.07 0.03 0.02 0.01 0.01 0.02 0.05 0.02 0.00 0.00 0.00 0.00 0.00 0.00 0.00 0.00 0.00 0.00 0.00 0.00 0.00 0.00 0.00 0.00 0.00 0.00 0.01 0.01 0.05
0.93 1.30 1.77 1.54 1.08 1.33 1.15 0.90 0.67 0.26 0.20 0.18 0.20 0.12 0.16 0.09 0.04 0.03 0.02 0.01 0.01 0.01 0.00 0.00 0.00 0.00 0.00 0.00 0.00 0.00 0.00 0.00 0.00 0.00 0.00 0.00 0.00 0.00 0.00 0.00 0.02 0.07 0.12
0.53 1.41 1.87 1.46 0.97 0.82 1.43 1.28 0.71 0.60 0.36 0.23 0.27 0.42 0.27 0.33 0.20 0.11 0.09 0.07 0.06 0.04 0.02 0.00 0.00 0.00 0.00 0.00 0.00 0.00 0.00 0.00 0.00 0.00 0.00 0.00 0.00 0.00 0.00 0.01 0.02 0.06 0.09
0.58 0.95 1.57 1.41 0.78 0.62 0.86 1.44 1.15 0.71 0.43 0.27 0.20 0.26 0.33 0.35 0.56 0.35 0.22 0.13 0.10 0.11 0.10 0.05 0.01 0.00 0.00 0.00 0.00 0.00 0.00 0.00 0.00 0.00 0.00 0.00 0.00 0.00 0.00 0.00 0.01 0.03 0.09
0.47 0.63 0.79 0.77 0.41 0.20 0.36 0.96 1.41 0.95 0.49 0.29 0.22 0.10 0.20 0.31 0.38 0.70 0.61 0.39 0.21 0.18 0.15 0.10 0.04 0.00 0.00 0.00 0.01 0.00 0.00 0.00 0.00 0.00 0.00 0.01 0.01 0.01 0.00 0.01 0.01 0.01 0.02
0.84 0.66 0.67 0.50 0.50 0.32 0.55 0.88 1.23 1.12 0.75 0.37 0.27 0.16 0.12 0.14 0.24 0.33 0.47 0.53 0.48 0.36 0.21 0.14 0.11 0.05 0.02 0.03 0.03 0.01 0.00 0.00 0.00 0.00 0.00 0.00 0.02 0.02 0.01 0.01 0.00 0.00 0.00
1.62 0.98 0.83 0.66 0.53 0.52 0.44 0.56 0.82 0.62 0.97 0.68 0.48 0.41 0.31 0.39 0.38 0.41 0.47 0.31 0.25 0.19 0.20 0.19 0.16 0.09 0.05 0.16 0.14 0.03 0.01 0.00 0.00 0.00 0.00 0.00 0.00 0.01 0.00 0.00 0.00 0.00 0.00
1.05 1.07 1.06 0.56 0.42 0.44 0.42 0.47 1.00 1.04 1.05 0.96 0.97 0.82 0.60 0.63 0.59 0.40 0.46 0.56 0.41 0.25 0.17 0.15 0.25 0.39 0.38 0.49 0.40 0.22 0.08 0.05 0.05 0.02 0.01 0.00 0.00 0.00 0.00 0.00 0.00 0.00 0.00
1.00 0.80 0.85 1.09 0.95 0.84 1.06 1.45 1.48 1.68 1.68 1.62 1.49 1.16 1.20 1.37 1.44 1.17 1.08 0.97 1.00 1.07 0.93 0.92 0.80 0.89 0.80 0.79 0.64 0.62 0.36 0.13 0.04 0.02 0.01 0.00 0.00 0.00 0.01 0.02 0.04 0.05 0.04
1.36 1.38 1.39 1.53 1.34 1.04 1.28 1.47 1.16 1.48 1.71 1.72 1.49 1.64 1.90 1.98 2.03 1.89 1.85 2.23 2.06 1.75 1.63 1.62 1.43 1.08 0.80 0.67 0.57 0.45 0.38 0.24 0.19 0.10 0.03 0.04 0.04 0.05 0.05 0.04 0.04 0.05 0.05
1.67 1.56 1.62 1.82 1.46 1.19 1.31 1.37 1.52 1.35 1.51 1.56 1.24 1.18 1.25 1.34 1.20 1.22 1.20 1.36 1.58 1.45 1.41 1.30 1.25 1.07 0.93 0.73 0.59 0.48 0.43 0.34 0.23 0.20 0.10 0.07 0.08 0.05 0.05 0.04 0.04 0.03 0.04
1.62 1.12 1.30 1.41 1.20 1.04 1.12 1.07 1.40 1.16 1.29 1.47 1.43 1.14 1.01 0.95 1.08 0.88 0.77 0.70 0.69 0.68 0.71 0.70 0.69 0.64 0.55 0.51 0.43 0.39 0.37 0.37 0.28 0.27 0.24 0.15 0.15 0.09 0.06 0.06 0.08 0.10 0.11

GFSSE_prec_precacc_120.txt.gz
Total_Precipitation_Accumulation
0.00 0.03 0.20 0.18 0.15 0.10 0.10 0.11 0.16 0.15 0.12 0.14 0.09 0.07 0.07 0.13 0.15 0.16 0.07 0.07 0.16 0.19 0.23 0.17 0.17 0.26 0.37 0.41 0.38 0.10 0.05 0.03 0.02 0.01 0.03 0.05 0.08 0.07 0.07 0.07 0.10 0.09 0.11
0.00 0.03 0.14 0.20 0.18 0.14 0.17 0.17 0.16 0.10 0.15 0.18 0.16 0.12 0.13 0.24 0.20 0.11 0.06 0.09 0.16 0.17 0.15 0.21 0.31 0.36 0.32 0.15 0.08 0.03 0.01 0.00 0.00 0.00 0.00 0.02 0.06 0.09 0.08 0.07 0.14 0.15 0.17
0.00 0.05 0.07 0.21 0.17 0.15 0.14 0.09 0.08 0.13 0.12 0.13 0.19 0.22 0.29 0.26 0.11 0.05 0.05 0.13 0.16 0.16 0.19 0.27 0.26 0.15 0.03 0.01 0.00 0.01 0.00 0.00 0.00 0.01 0.03 0.13 0.12 0.19 0.15 0.17 0.33 0.32 0.31
0.01 0.06 0.06 0.23 0.17 0.14 0.09 0.05 0.10 0.12 0.10 0.11 0.24 0.37 0.33 0.18 0.06 0.06 0.10 0.19 0.19 0.09 0.11 0.07 0.03 0.01 0.00 0.00 0.00 0.00 0.00 0.00 0.00 0.00 0.01 0.01 0.03 0.14 0.14 0.12 0.16 0.14 0.13
0.03 0.08 0.09 0.21 0.26 0.15 0.05 0.05 0.09 0.10 0.09 0.12 0.23 0.49 0.46 0.16 0.07 0.09 0.20 0.34 0.11 0.03 0.03 0.01 0.01 0.00 0.00 0.00 0.00 0.00 0.01 0.00 0.00 0.00 0.00 0.00 0.02 0.09 0.11 0.12 0.14 0.17 0.16
0.05 0.12 0.23 0.33 0.39 0.17 0.06 0.04 0.07 0.08 0.08 0.10 0.26 0.44 0.45 0.15 0.14 0.18 0.24 0.16 0.03 0.02 0.02 0.01 0.00 0.00 0.00 0.00 0.00 0.00 0.01 0.01 0.00 0.00 0.00 0.01 0.04 0.13 0.09 0.10 0.14 0.23 0.23
0.08 0.13 0.24 0.47 0.43 0.24 0.14 0.13 0.16 0.12 0.13 0.13 0.28 0.40 0.37 0.16 0.16 0.24 0.18 0.06 0.04 0.02 0.02 0.00 0.00 0.00 0.00 0.00 0.00 0.00 0.00 0.01 0.00 0.00 0.00 0.00 0.02 0.03 0.02 0.04 0.05 0.08 0.12
0.11 0.16 0.30 0.40 0.39 0.39 0.31 0.22 0.22 0.17 0.15 0.21 0.35 0.46 0.33 0.23 0.26 0.20 0.14 0.05 0.07 0.03 0.01 0.01 0.00 0.00 0.00 0.00 0.00 0.00 0.00 0.00 0.00 0.00 0.00 0.00 0.01 0.02 0.02 0.03 0.04 0.04 0.06
0.42 0.40 0.49 0.44 0.31 0.27 0.35 0.30 0.24 0.22 0.25 0.34 0.41 0.41 0.22 0.26 0.43 0.31 0.13 0.07 0.09 0.05 0.02 0.01 0.01 0.01 0.00 0.00 0.00 0.00 0.00 0.00 0.00 0.00 0.00 0.00 0.02 0.05 0.05 0.07 0.07 0.08 0.10
1.02 0.71 0.52 0.46 0.26 0.18 0.18 0.17 0.19 0.19 0.20 0.29 0.30 0.20 0.12 0.08 0.15 0.47 0.49 0.08 0.09 0.08 0.02 0.02 0.02 0.02 0.01 0.01 0.01 0.01 0.00 0.00 0.00 0.00 0.00 0.00 0.05 0.08 0.08 0.09 0.08 0.09 0.11
1.68 1.59 1.02 0.61 0.27 0.13 0.15 0.17 0.15 0.20 0.32 0.33 0.23 0.16 0.07 0.04 0.04 0.11 0.25 0.15 0.04 0.04 0.02 0.03 0.02 0.02 0.01 0.00 0.00 0.00 0.00 0.00 0.00 0.00 0.00 0.01 0.03 0.04 0.05 0.05 0.05 0.08 0.08
1.90 1.63 1.80 1.49 0.81 0.37 0.22 0.14 0.08 0.12 0.19 0.15 0.14 0.13 0.06 0.03 0.03 0.05 0.09 0.19 0.05 0.02 0.03 0.01 0.01 0.01 0.00 0.00 0.00 0.00 0.00 0.00 0.00 0.00 0.00 0.01 0.02 0.02 0.02 0.04 0.05 0.04 0.04
2.63 1.67 1.70 1.49 1.27 0.65 0.52 0.41 0.14 0.04 0.09 0.12 0.12 0.12 0.07 0.03 0.03 0.06 0.15 0.13 0.04 0.00 0.01 0.00 0.00 0.00 0.00 0.00 0.00 0.00 0.00 0.00 0.00 0.00 0.00 0.01 0.00 0.01 0.02 0.02 0.03 0.02 0.02
3.11 2.19 1.53 1.25 1.14 0.97 0.81 0.56 0.27 0.21 0.10 0.09 0.08 0.10 0.06 0.03 0.02 0.03 0.07 0.10 0.09 0.02 0.00 0.00 0.00 0.00 0.00 0.00 0.00 0.00 0.00 0.00 0.00 0.00 0.00 0.00 0.00 0.00 0.01 0.01 0.02 0.03 0.04
1.45 1.66 1.79 1.29 1.03 0.91 0.87 0.72 0.27 0.18 0.16 0.09 0.08 0.10 0.07 0.03 0.02 0.01 0.03 0.05 0.05 0.03 0.00 0.00 0.00 0.00 0.00 0.00 0.00 0.00 0.00 0.00 0.00 0.00 0.00 0.00 0.00 0.00 0.00 0.00 0.01 0.01 0.05
0.93 1.30 1.77 1.54 1.08 1.33 1.15 0.90 0.67 0.27 0.22 0.20 0.21 0.12 0.16 0.09 0.04 0.03 0.02 0.02 0.02 0.02 0.00 0.00 0.00 0.00 0.00 0.00 0.00 0.00 0.00 0.00 0.00 0.00 0.00 0.00 0.00 0.00 0.00 0.00 0.02 0.07 0.12
0.53 1.41 1.87 1.46 0.97 0.82 1.43 1.28 0.71 0.60 0.39 0.29 0.30 0.43 0.27 0.33 0.20 0.11 0.09 0.08 0.06 0.04 0.03 0.01 0.00 0.00 0.00 0.00 0.00 0.00 0.00 0.00 0.00 0.00 0.00 0.00 0.00 0.00 0.00 0.01 0.02 0.06 0.09
0.58 0.95 1.57 1.41 0.78 0.62 0.86 1.44 1.15 0.71 0.43 0.28 0.26 0.32 0.34 0.35 0.56 0.35 0.22 0.14 0.13 0.14 0.13 0.08 0.04 0.00 0.00 0.00 0.00 0.00 0.00 0.00 0.00 0.00 0.00 0.00 0.00 0.00 0.00 0.00 0.01 0.03 0.09
0.47 0.63 0.79 0.77 0.41 0.20 0.36 0.96 1.41 0.95 0.49 0.29 0.26 0.21 0.29 0.34 0.40 0.74 0.62 0.39 0.23 0.21 0.19 0.13 0.08 0.03 0.00 0.00 0.01 0.00 0.00 0.00 0.00 0.00 0.00 0.01 0.01 0.01 0.00 0.01 0.01 0.01 0.02
0.84 0.66 0.67 0.50 0.50 0.32 0.55 0.88 1.23 1.12 0.75 0.37 0.29 0.21 0.21 0.16 0.25 0.36 0.51 0.56 0.54 0.40 0.23 0.17 0.16 0.09 0.03 0.03 0.03 0.01 0.00 0.00 0.00 0.00 0.00 0.00 0.02 0.02 0.01 0.01 0.00 0.00 0.00
1.62 0.98 0.83 0.66 0.53 0.52 0.44 0.56 0.82 0.62 0.97 0.69 0.48 0.43 0.36 0.43 0.43 0.50 0.55 0.37 0.32 0.26 0.25 0.27 0.27 0.18 0.12 0.18 0.16 0.03 0.01 0.00 0.00 0.00 0.00 0.00 0.00 0.01 0.00 0.00 0.00 0.00 0.00
1.05 1.07 1.06 0.56 0.42 0.44 0.42 0.47 1.00 1.04 1.05 0.97 0.98 0.83 0.63 0.72 0.67 0.47 0.51 0.57 0.45 0.30 0.22 0.21 0.34 0.49 0.44 0.61 0.46 0.24 0.09 0.05 0.05 0.02 0.01 0.00 0.00 0.00 0.00 0.00 0.00 0.00 0.00
1.00 0.80 0.85 1.09 0.95 0.84 1.06 1.45 1.48 1.68 1.68 1.63 1.50 1.17 1.21 1.43 1.56 1.24 1.14 1.00 1.05 1.13 0.99 1.00 0.88 0.96 0.90 0.90 0.77 0.71 0.36 0.13 0.04 0.02 0.01 0.00 0.00 0.00 0.01 0.02 0.04 0.05 0.04
1.36 1.38 1.40 1.53 1.34 1.04 1.28 1.47 1.16 1.48 1.71 1.72 1.49 1.64 1.91 2.02 2.12 2.04 1.97 2.28 2.13 1.80 1.66 1.65 1.49 1.16 0.87 0.73 0.68 0.50 0.43 0.25 0.19 0.10 0.03 0.04 0.04 0.05 0.05 0.04 0.04 0.05 0.05
1.67 1.56 1.62 1.82 1.46 1.19 1.31 1.37 1.52 1.35 1.51 1.56 1.25 1.19 1.27 1.38 1.28 1.32 1.35 1.51 1.63 1.51 1.46 1.33 1.29 1.13 1.02 0.78 0.63 0.51 0.45 0.37 0.25 0.21 0.10 0.07 0.08 0.05 0.05 0.04 0.05 0.04 0.04
1.63 1.13 1.31 1.42 1.21 1.04 1.12 1.07 1.40 1.16 1.29 1.47 1.43 1.16 1.03 0.98 1.14 0.97 0.91 0.85 0.81 0.74 0.80 0.75 0.73 0.71 0.63 0.57 0.46 0.42 0.40 0.37 0.28 0.27 0.24 0.15 0.15 0.09 0.07 0.06 0.11 0.13 0.13

GFSSE_prec_precacc_123.txt.gz
Total_Precipitation_Accumulation
0.00 0.03 0.20 0.18 0.15 0.11 0.11 0.12 0.17 0.15 0.12 0.14 0.09 0.07 0.07 0.13 0.15 0.16 0.07 0.07 0.16 0.19 0.23 0.18 0.17 0.26 0.38 0.44 0.40 0.13 0.06 0.03 0.02 0.01 0.03 0.05 0.08 0.07 0.07 0.07 0.10 0.09 0.11
0.00 0.03 0.15 0.20 0.18 0.14 0.18 0.17 0.17 0.10 0.15 0.18 0.16 0.12 0.13 0.24 0.20 0.11 0.06 0.09 0.16 0.17 0.15 0.24 0.32 0.36 0.33 0.16 0.09 0.03 0.01 0.00 0.00 0.00 0.00 0.02 0.06 0.09 0.08 0.08 0.16 0.17 0.17
0.00 0.05 0.08 0.22 0.18 0.16 0.15 0.09 0.09 0.14 0.12 0.13 0.19 0.23 0.29 0.26 0.11 0.05 0.05 0.13 0.16 0.16 0.20 0.31 0.26 0.15 0.03 0.01 0.00 0.01 0.00 0.00 0.01 0.03 0.05 0.14 0.12 0.20 0.15 0.20 0.39 0.34 0.31
0.01 0.07 0.07 0.23 0.20 0.15 0.10 0.06 0.11 0.15 0.11 0.13 0.25 0.41 0.33 0.18 0.06 0.06 0.11 0.19 0.19 0.09 0.12 0.08 0.03 0.01 0.00 0.00 0.00 0.00 0.00 0.00 0.00 0.01 0.05 0.02 0.03 0.16 0.15 0.12 0.16 0.14 0.13
0.03 0.08 0.10 0.22 0.28 0.17 0.06 0.06 0.09 0.11 0.12 0.13 0.24 0.51 0.47 0.16 0.07 0.09 0.23 0.35 0.11 0.04 0.03 0.01 0.01 0.00 0.00 0.00 0.00 0.00 0.01 0.00 0.00 0.00 0.01 0.00 0.02 0.09 0.11 0.12 0.14 0.17 0.16
0.05 0.12 0.24 0.35 0.43 0.24 0.09 0.07 0.10 0.10 0.11 0.12 0.27 0.44 0.45 0.15 0.14 0.18 0.26 0.18 0.05 0.02 0.02 0.01 0.00 0.00 0.00 0.00 0.00 0.00 0.01 0.01 0.00 0.00 0.00 0.01 0.04 0.13 0.09 0.10 0.14 0.23 0.23
0.08 0.13 0.24 0.48 0.45 0.28 0.18 0.16 0.21 0.18 0.16 0.14 0.29 0.40 0.37 0.16 0.16 0.24 0.19 0.07 0.07 0.02 0.02 0.00 0.00 0.00 0.00 0.00 0.00 0.00 0.00 0.01 0.00 0.00 0.00 0.00 0.02 0.03 0.02 0.04 0.05 0.08 0.12
0.11 0.16 0.30 0.41 0.41 0.41 0.34 0.24 0.26 0.24 0.20 0.23 0.37 0.47 0.34 0.23 0.26 0.20 0.14 0.07 0.10 0.04 0.01 0.01 0.00 0.00 0.00 0.00 0.00 0.00 0.00 0.00 0.00 0.00 0.00 0.00 0.01 0.02 0.02 0.03 0.04 0.04 0.06
0.42 0.40 0.49 0.44 0.31 0.28 0.36 0.30 0.24 0.23 0.27 0.36 0.42 0.41 0.22 0.26 0.43 0.31 0.14 0.07 0.10 0.07 0.02 0.01 0.01 0.01 0.00 0.00 0.00 0.00 0.00 0.00 0.00 0.00 0.00 0.00 0.02 0.05 0.05 0.07 0.07 0.08 0.10
1.02 0.71 0.52 0.46 0.27 0.19 0.18 0.17 0.19 0.19 0.20 0.29 0.30 0.20 0.13 0.08 0.15 0.48 0.49 0.08 0.10 0.09 0.02 0.02 0.02 0.02 0.01 0.01 0.01 0.01 0.00 0.00 0.00 0.00 0.00 0.00 0.05 0.08 0.08 0.09 0.08 0.09 0.11
1.68 1.59 1.02 0.61 0.27 0.13 0.16 0.18 0.15 0.20 0.32 0.33 0.23 0.16 0.07 0.04 0.04 0.11 0.26 0.15 0.04 0.05 0.03 0.03 0.02 0.02 0.01 0.00 0.00 0.00 0.00 0.00 0.00 0.00 0.00 0.01 0.03 0.04 0.05 0.05 0.05 0.08 0.08
1.90 1.63 1.80 1.49 0.81 0.37 0.22 0.15 0.09 0.12 0.19 0.15 0.14 0.13 0.06 0.03 0.03 0.05 0.09 0.19 0.05 0.03 0.03 0.01 0.01 0.01 0.00 0.00 0.00 0.00 0.00 0.00 0.00 0.00 0.00 0.01 0.02 0.02 0.02 0.04 0.05 0.04 0.04
2.63 1.67 1.70 1.49 1.27 0.65 0.52 0.41 0.15 0.05 0.09 0.12 0.12 0.12 0.07 0.03 0.03 0.06 0.15 0.13 0.04 0.00 0.01 0.00 0.00 0.00 0.00 0.00 0.00 0.00 0.00 0.00 0.00 0.00 0.00 0.01 0.00 0.01 0.02 0.02 0.03 0.02 0.02
3.11 2.19 1.53 1.25 1.14 0.97 0.81 0.56 0.27 0.23 0.13 0.10 0.08 0.10 0.06 0.03 0.02 0.03 0.07 0.10 0.09 0.02 0.00 0.00 0.00 0.00 0.00 0.00 0.00 0.00 0.00 0.00 0.00 0.00 0.00 0.00 0.00 0.00 0.01 0.01 0.02 0.03 0.04
1.45 1.66 1.79 1.29 1.03 0.91 0.87 0.72 0.27 0.18 0.21 0.12 0.11 0.11 0.07 0.03 0.02 0.01 0.03 0.05 0.05 0.03 0.00 0.00 0.00 0.00 0.00 0.00 0.00 0.00 0.00 0.00 0.00 0.00 0.00 0.00 0.00 0.00 0.00 0.00 0.01 0.01 0.05
0.93 1.30 1.77 1.54 1.08 1.33 1.15 0.90 0.67 0.27 0.26 0.26 0.24 0.13 0.16 0.09 0.04 0.03 0.02 0.02 0.02 0.02 0.00 0.00 0.00 0.00 0.00 0.00 0.00 0.00 0.00 0.00 0.00 0.00 0.00 0.00 0.00 0.00 0.00 0.00 0.02 0.07 0.12
0.53 1.41 1.87 1.46 0.97 0.82 1.43 1.28 0.71 0.60 0.40 0.34 0.38 0.48 0.31 0.33 0.20 0.11 0.09 0.08 0.06 0.04 0.03 0.01 0.00 0.00 0.00 0.00 0.00 0.00 0.00 0.00 0.00 0.00 0.00 0.00 0.00 0.00 0.00 0.01 0.02 0.06 0.09
0.58 0.95 1.57 1.41 0.78 0.62 0.86 1.44 1.15 0.71 0.43 0.28 0.29 0.40 0.40 0.38 0.56 0.35 0.24 0.14 0.13 0.15 0.14 0.08 0.04 0.00 0.00 0.00 0.00 0.00 0.00 0.00 0.00 0.00 0.00 0.00 0.00 0.00 0.00 0.00 0.01 0.03 0.09
0.47 0.63 0.79 0.77 0.41 0.20 0.36 0.96 1.41 0.95 0.49 0.29 0.27 0.27 0.41 0.42 0.44 0.76 0.64 0.42 0.24 0.22 0.20 0.14 0.08 0.04 0.00 0.00 0.01 0.00 0.00 0.00 0.00 0.00 0.00 0.01 0.01 0.01 0.00 0.01 0.01 0.01 0.02
0.84 0.66 0.67 0.50 0.50 0.32 0.55 0.88 1.23 1.12 0.75 0.37 0.29 0.21 0.26 0.27 0.32 0.45 0.61 0.62 0.63 0.46 0.25 0.20 0.16 0.11 0.04 0.03 0.03 0.01 0.00 0.00 0.00 0.00 0.00 0.00 0.02 0.02 0.01 0.01 0.00 0.00 0.00
1.62 0.98 0.83 0.66 0.53 0.52 0.44 0.56 0.82 0.62 0.97 0.69 0.48 0.43 0.37 0.46 0.47 0.63 0.74 0.55 0.47 0.38 0.28 0.28 0.30 0.23 0.15 0.24 0.18 0.03 0.01 0.00 0.00 0.00 0.00 0.00 0.00 0.01 0.00 0.00 0.00 0.00 0.00
1.05 1.07 1.06 0.56 0.42 0.44 0.42 0.47 1.00 1.04 1.05 0.97 0.98 0.83 0.63 0.75 0.73 0.61 0.69 0.75 0.59 0.41 0.31 0.24 0.39 0.53 0.48 0.71 0.59 0.34 0.13 0.06 0.05 0.02 0.01 0.00 0.00 0.00 0.00 0.00 0.00 0.00 0.00
1.00 0.80 0.85 1.09 0.95 0.84 1.06 1.45 1.48 1.68 1.68 1.63 1.50 1.17 1.21 1.44 1.58 1.30 1.30 1.20 1.23 1.26 1.07 1.03 0.95 1.04 0.94 0.98 0.89 0.79 0.44 0.16 0.05 0.02 0.01 0.00 0.00 0.00 0.01 0.02 0.04 0.05 0.04
1.36 1.38 1.40 1.53 1.34 1.04 1.28 1.47 1.16 1.48 1.71 1.72 1.49 1.64 1.91 2.02 2.12 2.06 2.03 2.43 2.29 1.93 1.72 1.67 1.53 1.20 0.96 0.80 0.80 0.64 0.56 0.37 0.25 0.10 0.03 0.04 0.04 0.05 0.05 0.04 0.04 0.05 0.05
1.67 1.56 1.62 1.82 1.46 1.19 1.31 1.37 1.52 1.35 1.51 1.56 1.25 1.19 1.27 1.38 1.28 1.34 1.39 1.57 1.82 1.75 1.64 1.46 1.39 1.21 1.08 0.85 0.69 0.59 0.56 0.53 0.41 0.26 0.11 0.07 0.08 0.05 0.05 0.04 0.05 0.04 0.04
1.63 1.13 1.31 1.42 1.21 1.05 1.12 1.07 1.40 1.16 1.29 1.47 1.43 1.17 1.03 0.99 1.15 1.00 0.96 0.93 0.91 0.91 1.08 0.99 0.93 0.92 0.80 0.71 0.55 0.50 0.46 0.42 0.33 0.36 0.26 0.15 0.15 0.09 0.07 0.06 0.11 0.13 0.13

GFSSE_prec_precacc_126.txt.gz
Total_Precipitation_Accumulation
0.00 0.04 0.21 0.20 0.16 0.12 0.11 0.12 0.17 0.15 0.12 0.14 0.09 0.07 0.07 0.13 0.15 0.16 0.07 0.07 0.16 0.19 0.23 0.18 0.18 0.27 0.40 0.46 0.46 0.17 0.06 0.03 0.02 0.01 0.03 0.05 0.08 0.08 0.07 0.07 0.10 0.09 0.11
0.00 0.04 0.15 0.21 0.22 0.19 0.22 0.21 0.18 0.10 0.15 0.18 0.16 0.12 0.13 0.24 0.20 0.11 0.06 0.09 0.16 0.17 0.16 0.26 0.32 0.36 0.35 0.18 0.10 0.03 0.01 0.00 0.00 0.00 0.00 0.02 0.06 0.09 0.08 0.08 0.18 0.17 0.17
0.00 0.05 0.09 0.22 0.19 0.20 0.20 0.12 0.12 0.15 0.12 0.13 0.19 0.23 0.29 0.26 0.11 0.05 0.05 0.13 0.16 0.17 0.23 0.32 0.26 0.15 0.03 0.01 0.00 0.01 0.00 0.01 0.01 0.04 0.05 0.14 0.12 0.20 0.17 0.23 0.40 0.34 0.31
0.01 0.07 0.08 0.24 0.22 0.18 0.15 0.12 0.15 0.19 0.13 0.13 0.27 0.42 0.33 0.18 0.06 0.06 0.11 0.19 0.19 0.10 0.13 0.08 0.03 0.01 0.00 0.00 0.00 0.00 0.01 0.01 0.00 0.02 0.05 0.02 0.03 0.17 0.15 0.12 0.16 0.14 0.13
0.03 0.08 0.10 0.24 0.31 0.20 0.08 0.10 0.12 0.15 0.17 0.17 0.26 0.51 0.47 0.16 0.07 0.10 0.24 0.36 0.11 0.04 0.04 0.01 0.01 0.00 0.00 0.00 0.00 0.00 0.01 0.00 0.00 0.00 0.01 0.00 0.02 0.09 0.11 0.12 0.14 0.17 0.16
0.05 0.12 0.26 0.42 0.46 0.30 0.10 0.08 0.13 0.14 0.14 0.15 0.31 0.46 0.46 0.15 0.14 0.19 0.30 0.19 0.05 0.02 0.02 0.01 0.00 0.00 0.00 0.00 0.00 0.00 0.01 0.01 0.00 0.00 0.00 0.01 0.04 0.13 0.09 0.10 0.14 0.23 0.23
0.08 0.13 0.24 0.59 0.56 0.32 0.21 0.16 0.22 0.20 0.19 0.16 0.31 0.43 0.38 0.17 0.16 0.24 0.19 0.08 0.09 0.03 0.02 0.00 0.00 0.00 0.00 0.00 0.00 0.00 0.00 0.01 0.00 0.00 0.00 0.00 0.02 0.03 0.02 0.04 0.05 0.08 0.12
0.11 0.16 0.30 0.43 0.47 0.44 0.37 0.26 0.27 0.25 0.21 0.25 0.38 0.48 0.35 0.24 0.26 0.20 0.14 0.08 0.12 0.05 0.01 0.01 0.00 0.00 0.00 0.00 0.00 0.00 0.00 0.00 0.00 0.00 0.00 0.00 0.01 0.02 0.02 0.03 0.04 0.04 0.06
0.42 0.40 0.49 0.44 0.35 0.32 0.37 0.31 0.25 0.25 0.28 0.36 0.42 0.41 0.23 0.26 0.43 0.31 0.14 0.09 0.13 0.09 0.02 0.01 0.01 0.01 0.00 0.00 0.00 0.00 0.00 0.00 0.00 0.00 0.00 0.00 0.02 0.05 0.05 0.07 0.07 0.08 0.10
1.02 0.71 0.52 0.46 0.27 0.19 0.18 0.18 0.20 0.20 0.21 0.29 0.30 0.20 0.13 0.08 0.15 0.48 0.50 0.09 0.11 0.12 0.02 0.02 0.02 0.02 0.01 0.01 0.01 0.01 0.00 0.00 0.00 0.00 0.00 0.00 0.05 0.08 0.08 0.09 0.08 0.09 0.11
1.68 1.59 1.02 0.61 0.27 0.13 0.16 0.19 0.16 0.21 0.32 0.33 0.23 0.16 0.07 0.04 0.04 0.11 0.26 0.15 0.04 0.06 0.04 0.03 0.02 0.02 0.01 0.00 0.00 0.00 0.00 0.00 0.00 0.00 0.00 0.01 0.03 0.04 0.05 0.05 0.05 0.08 0.08
1.90 1.63 1.80 1.49 0.81 0.37 0.22 0.15 0.11 0.16 0.20 0.15 0.14 0.13 0.06 0.03 0.03 0.05 0.09 0.19 0.05 0.03 0.04 0.01 0.01 0.01 0.00 0.00 0.00 0.00 0.00 0.00 0.00 0.00 0.00 0.01 0.02 0.02 0.02 0.04 0.05 0.04 0.04
2.63 1.67 1.70 1.49 1.27 0.65 0.52 0.41 0.15 0.09 0.12 0.13 0.12 0.12 0.07 0.03 0.03 0.06 0.15 0.13 0.04 0.00 0.01 0.00 0.00 0.00 0.00 0.00 0.00 0.00 0.00 0.00 0.00 0.00 0.00 0.01 0.00 0.01 0.02 0.02 0.03 0.02 0.02
3.11 2.19 1.53 1.25 1.14 0.97 0.81 0.56 0.27 0.25 0.16 0.15 0.13 0.12 0.06 0.03 0.02 0.03 0.07 0.10 0.09 0.02 0.00 0.00 0.00 0.00 0.00 0.00 0.00 0.00 0.00 0.00 0.00 0.00 0.00 0.00 0.00 0.00 0.01 0.01 0.02 0.03 0.04
1.45 1.66 1.79 1.29 1.03 0.91 0.87 0.72 0.27 0.18 0.22 0.16 0.19 0.16 0.10 0.04 0.02 0.01 0.03 0.05 0.05 0.03 0.00 0.00 0.00 0.00 0.00 0.00 0.00 0.00 0.00 0.00 0.00 0.00 0.00 0.00 0.00 0.00 0.00 0.00 0.01 0.01 0.05
0.93 1.30 1.77 1.54 1.08 1.33 1.15 0.90 0.67 0.27 0.26 0.26 0.27 0.18 0.21 0.11 0.04 0.04 0.02 0.02 0.02 0.02 0.00 0.00 0.00 0.00 0.00 0.00 0.00 0.00 0.00 0.00 0.00 0.00 0.00 0.00 0.00 0.00 0.00 0.00 0.02 0.07 0.12
0.53 1.41 1.87 1.46 0.97 0.82 1.43 1.28 0.71 0.60 0.40 0.34 0.38 0.50 0.36 0.37 0.21 0.14 0.10 0.09 0.07 0.06 0.05 0.01 0.00 0.00 0.00 0.00 0.00 0.00 0.00 0.00 0.00 0.00 0.00 0.00 0.00 0.00 0.00 0.01 0.02 0.06 0.09
0.58 0.95 1.57 1.41 0.78 0.62 0.86 1.44 1.15 0.71 0.43 0.28 0.29 0.40 0.44 0.44 0.62 0.41 0.28 0.15 0.14 0.18 0.21 0.12 0.04 0.00 0.00 0.00 0.00 0.00 0.00 0.00 0.00 0.00 0.00 0.00 0.00 0.00 0.00 0.00 0.01 0.03 0.09
0.47 0.63 0.79 0.77 0.41 0.20 0.36 0.96 1.41 0.95 0.49 0.29 0.27 0.27 0.41 0.44 0.50 0.85 0.75 0.48 0.28 0.28 0.30 0.22 0.10 0.04 0.00 0.01 0.01 0.00 0.00 0.00 0.00 0.00 0.00 0.01 0.01 0.01 0.00 0.01 0.01 0.01 0.02
0.84 0.66 0.67 0.50 0.50 0.32 0.55 0.88 1.23 1.12 0.75 0.37 0.29 0.21 0.26 0.27 0.34 0.51 0.71 0.75 0.76 0.58 0.31 0.27 0.19 0.13 0.05 0.04 0.04 0.01 0.00 0.00 0.00 0.00 0.00 0.00 0.02 0.02 0.01 0.01 0.00 0.00 0.00
1.62 0.98 0.83 0.66 0.53 0.52 0.44 0.56 0.82 0.62 0.97 0.69 0.48 0.43 0.37 0.46 0.48 0.66 0.79 0.65 0.59 0.52 0.37 0.39 0.44 0.39 0.23 0.29 0.22 0.04 0.01 0.00 0.00 0.00 0.00 0.00 0.00 0.01 0.00 0.00 0.00 0.00 0.00
1.05 1.07 1.06 0.56 0.42 0.44 0.42 0.47 1.00 1.04 1.05 0.97 0.98 0.83 0.63 0.75 0.73 0.62 0.72 0.81 0.72 0.57 0.51 0.47 0.58 0.68 0.60 0.81 0.66 0.37 0.17 0.08 0.05 0.02 0.01 0.00 0.00 0.00 0.00 0.00 0.00 0.00 0.00
1.00 0.80 0.85 1.09 0.95 0.84 1.06 1.45 1.48 1.68 1.68 1.63 1.50 1.17 1.21 1.44 1.58 1.30 1.31 1.23 1.30 1.39 1.22 1.25 1.20 1.26 1.13 1.14 1.02 0.87 0.50 0.18 0.06 0.03 0.01 0.01 0.01 0.00 0.01 0.02 0.04 0.05 0.04
1.36 1.38 1.40 1.53 1.34 1.04 1.28 1.47 1.16 1.48 1.71 1.72 1.49 1.64 1.91 2.02 2.12 2.06 2.03 2.45 2.33 2.00 1.84 1.78 1.68 1.45 1.16 0.94 0.97 0.78 0.66 0.42 0.29 0.15 0.05 0.05 0.04 0.05 0.05 0.04 0.04 0.05 0.05
1.67 1.56 1.62 1.82 1.46 1.19 1.31 1.37 1.52 1.35 1.51 1.56 1.25 1.19 1.27 1.38 1.29 1.35 1.39 1.57 1.83 1.80 1.73 1.59 1.52 1.36 1.22 0.97 0.77 0.66 0.64 0.62 0.50 0.36 0.18 0.13 0.12 0.06 0.06 0.04 0.05 0.04 0.04
1.63 1.13 1.31 1.42 1.21 1.05 1.12 1.07 1.40 1.16 1.29 1.47 1.43 1.17 1.03 0.99 1.15 1.01 0.97 0.93 0.92 0.93 1.13 1.08 1.09 1.08 0.96 0.84 0.68 0.63 0.55 0.47 0.39 0.44 0.34 0.20 0.23 0.14 0.10 0.07 0.11 0.13 0.13

GFSSE_prec_precacc_129.txt.gz
Total_Precipitation_Accumulation
0.00 0.04 0.22 0.22 0.19 0.15 0.11 0.12 0.17 0.15 0.12 0.14 0.09 0.07 0.07 0.13 0.15 0.16 0.07 0.07 0.16 0.19 0.23 0.18 0.18 0.27 0.40 0.46 0.52 0.20 0.06 0.03 0.03 0.02 0.03 0.06 0.10 0.08 0.07 0.07 0.10 0.09 0.11
0.00 0.04 0.16 0.21 0.26 0.33 0.33 0.27 0.19 0.10 0.15 0.18 0.16 0.12 0.13 0.24 0.20 0.11 0.06 0.09 0.16 0.17 0.16 0.26 0.33 0.38 0.37 0.18 0.11 0.03 0.01 0.00 0.00 0.00 0.00 0.02 0.07 0.09 0.08 0.08 0.18 0.17 0.17
0.00 0.05 0.09 0.24 0.20 0.23 0.28 0.21 0.17 0.16 0.12 0.13 0.19 0.23 0.29 0.26 0.11 0.05 0.05 0.13 0.16 0.18 0.25 0.32 0.26 0.15 0.03 0.01 0.00 0.01 0.00 0.01 0.01 0.04 0.05 0.14 0.12 0.21 0.18 0.23 0.40 0.34 0.31
0.01 0.07 0.09 0.25 0.25 0.21 0.20 0.16 0.18 0.22 0.15 0.16 0.30 0.42 0.33 0.18 0.06 0.06 0.11 0.19 0.19 0.12 0.16 0.08 0.03 0.01 0.00 0.00 0.00 0.00 0.01 0.01 0.00 0.02 0.05 0.02 0.03 0.20 0.16 0.12 0.16 0.14 0.13
0.03 0.08 0.11 0.26 0.35 0.25 0.12 0.14 0.16 0.18 0.19 0.20 0.31 0.52 0.47 0.16 0.07 0.10 0.24 0.36 0.11 0.05 0.04 0.01 0.01 0.00 0.00 0.00 0.00 0.00 0.01 0.00 0.00 0.00 0.01 0.00 0.02 0.09 0.11 0.12 0.14 0.17 0.16
0.05 0.12 0.26 0.44 0.49 0.33 0.13 0.10 0.15 0.16 0.15 0.16 0.32 0.47 0.46 0.15 0.14 0.20 0.32 0.19 0.05 0.03 0.02 0.01 0.00 0.00 0.00 0.00 0.00 0.00 0.01 0.01 0.00 0.00 0.00 0.01 0.04 0.13 0.09 0.10 0.14 0.23 0.23
0.08 0.13 0.24 0.59 0.64 0.44 0.26 0.18 0.24 0.21 0.19 0.18 0.32 0.44 0.39 0.17 0.16 0.24 0.20 0.09 0.09 0.03 0.02 0.00 0.00 0.00 0.00 0.00 0.00 0.00 0.00 0.01 0.00 0.00 0.00 0.00 0.02 0.03 0.02 0.04 0.05 0.08 0.12
0.11 0.16 0.30 0.43 0.47 0.50 0.46 0.31 0.30 0.28 0.23 0.26 0.39 0.49 0.35 0.24 0.26 0.20 0.14 0.08 0.13 0.05 0.01 0.01 0.00 0.00 0.00 0.00 0.00 0.00 0.00 0.00 0.00 0.00 0.00 0.00 0.01 0.02 0.02 0.03 0.04 0.04 0.06
0.42 0.40 0.49 0.44 0.35 0.34 0.47 0.40 0.29 0.30 0.31 0.38 0.43 0.42 0.23 0.27 0.43 0.31 0.14 0.09 0.14 0.15 0.03 0.01 0.01 0.01 0.00 0.00 0.00 0.00 0.00 0.00 0.00 0.00 0.00 0.00 0.02 0.05 0.05 0.07 0.07 0.08 0.10
1.02 0.71 0.52 0.46 0.27 0.19 0.20 0.24 0.22 0.21 0.24 0.33 0.33 0.22 0.13 0.08 0.15 0.48 0.50 0.09 0.11 0.14 0.04 0.02 0.02 0.02 0.01 0.01 0.01 0.01 0.00 0.00 0.00 0.00 0.00 0.00 0.05 0.08 0.08 0.09 0.08 0.09 0.11
1.68 1.59 1.02 0.61 0.27 0.13 0.16 0.19 0.17 0.24 0.35 0.34 0.25 0.16 0.07 0.04 0.04 0.11 0.26 0.15 0.04 0.06 0.04 0.03 0.02 0.02 0.01 0.00 0.00 0.00 0.00 0.00 0.00 0.00 0.00 0.01 0.03 0.04 0.05 0.05 0.05 0.08 0.08
1.90 1.63 1.80 1.49 0.81 0.37 0.22 0.15 0.11 0.19 0.27 0.20 0.16 0.13 0.06 0.03 0.03 0.05 0.09 0.19 0.05 0.03 0.04 0.01 0.01 0.01 0.00 0.00 0.00 0.00 0.00 0.00 0.00 0.00 0.00 0.01 0.02 0.02 0.02 0.04 0.05 0.04 0.04
2.63 1.67 1.70 1.49 1.27 0.65 0.52 0.41 0.15 0.09 0.14 0.18 0.19 0.17 0.10 0.03 0.03 0.06 0.15 0.13 0.04 0.00 0.01 0.00 0.00 0.00 0.00 0.00 0.00 0.00 0.00 0.00 0.00 0.00 0.00 0.01 0.00 0.01 0.02 0.02 0.03 0.02 0.02
3.11 2.19 1.53 1.25 1.14 0.97 0.81 0.56 0.27 0.25 0.16 0.16 0.16 0.18 0.12 0.07 0.04 0.03 0.07 0.10 0.09 0.02 0.00 0.00 0.00 0.00 0.00 0.00 0.00 0.00 0.00 0.00 0.00 0.00 0.00 0.00 0.00 0.00 0.01 0.01 0.02 0.03 0.04
1.45 1.66 1.79 1.29 1.03 0.91 0.87 0.72 0.27 0.18 0.22 0.16 0.19 0.17 0.12 0.05 0.02 0.02 0.03 0.05 0.05 0.03 0.00 0.00 0.00 0.00 0.00 0.00 0.00 0.00 0.00 0.00 0.00 0.00 0.00 0.00 0.00 0.00 0.00 0.00 0.01 0.01 0.05
0.93 1.30 1.77 1.54 1.08 1.33 1.15 0.90 0.67 0.27 0.26 0.26 0.27 0.18 0.21 0.11 0.05 0.05 0.02 0.02 0.02 0.02 0.00 0.00 0.00 0.00 0.00 0.00 0.00 0.00 0.00 0.00 0.00 0.00 0.00 0.00 0.00 0.00 0.00 0.00 0.02 0.07 0.12
0.53 1.41 1.87 1.46 0.97 0.82 1.43 1.28 0.71 0.60 0.40 0.34 0.38 0.50 0.36 0.37 0.23 0.16 0.13 0.09 0.07 0.08 0.10 0.06 0.01 0.01 0.00 0.00 0.00 0.00 0.00 0.00 0.00 0.00 0.00 0.00 0.00 0.00 0.00 0.01 0.02 0.06 0.09
0.58 0.95 1.57 1.41 0.78 0.62 0.86 1.44 1.15 0.71 0.43 0.28 0.29 0.40 0.44 0.44 0.63 0.43 0.32 0.19 0.17 0.21 0.27 0.20 0.12 0.06 0.01 0.00 0.00 0.00 0.00 0.00 0.00 0.00 0.00 0.00 0.00 0.00 0.00 0.00 0.01 0.03 0.09
0.47 0.63 0.79 0.77 0.41 0.20 0.36 0.96 1.41 0.95 0.49 0.29 0.27 0.27 0.41 0.44 0.50 0.86 0.78 0.55 0.35 0.35 0.38 0.30 0.19 0.11 0.05 0.03 0.01 0.02 0.02 0.01 0.00 0.00 0.00 0.01 0.01 0.01 0.00 0.01 0.01 0.01 0.02
0.84 0.66 0.67 0.50 0.50 0.32 0.55 0.88 1.23 1.12 0.75 0.37 0.29 0.21 0.26 0.27 0.34 0.51 0.71 0.76 0.81 0.66 0.41 0.35 0.24 0.16 0.08 0.05 0.06 0.02 0.01 0.01 0.00 0.00 0.00 0.00 0.02 0.02 0.01 0.01 0.00 0.00 0.00
1.62 0.98 0.83 0.66 0.53 0.52 0.44 0.56 0.82 0.62 0.97 0.69 0.48 0.43 0.37 0.46 0.48 0.66 0.79 0.65 0.60 0.55 0.44 0.48 0.54 0.51 0.33 0.41 0.36 0.13 0.05 0.03 0.00 0.00 0.00 0.00 0.00 0.01 0.00 0.00 0.00 0.00 0.00
1.05 1.07 1.06 0.56 0.42 0.44 0.42 0.47 1.00 1.04 1.05 0.97 0.98 0.83 0.63 0.75 0.73 0.62 0.72 0.81 0.72 0.60 0.54 0.55 0.70 0.78 0.67 0.95 0.79 0.47 0.22 0.11 0.05 0.02 0.01 0.00 0.00 0.00 0.00 0.00 0.00 0.00 0.00
1.00 0.80 0.85 1.09 0.95 0.84 1.06 1.45 1.48 1.68 1.68 1.63 1.50 1.17 1.21 1.44 1.58 1.30 1.31 1.23 1.30 1.40 1.24 1.29 1.25 1.38 1.26 1.27 1.14 0.99 0.65 0.27 0.08 0.05 0.03 0.02 0.02 0.01 0.01 0.02 0.04 0.05 0.04
1.36 1.38 1.40 1.53 1.34 1.04 1.28 1.47 1.16 1.48 1.71 1.72 1.49 1.64 1.91 2.02 2.12 2.06 2.04 2.46 2.34 2.01 1.85 1.79 1.72 1.56 1.60 1.58 1.52 1.29 1.26 1.01 0.60 0.24 0.10 0.09 0.08 0.06 0.06 0.04 0.04 0.05 0.05
1.67 1.56 1.62 1.82 1.46 1.19 1.31 1.37 1.52 1.36 1.51 1.56 1.25 1.19 1.27 1.38 1.29 1.35 1.39 1.58 1.84 1.80 1.73 1.59 1.53 1.40 1.31 1.15 1.09 1.09 1.06 1.12 1.08 0.68 0.29 0.15 0.13 0.08 0.07 0.05 0.05 0.04 0.04
1.63 1.13 1.31 1.42 1.21 1.05 1.12 1.07 1.40 1.16 1.29 1.47 1.43 1.17 1.03 0.99 1.15 1.01 0.97 0.93 0.92 0.93 1.13 1.08 1.10 1.10 1.00 0.92 0.78 0.77 0.73 0.65 0.56 0.61 0.46 0.27 0.26 0.15 0.12 0.09 0.12 0.13 0.15

GFSSE_prec_precacc_132.txt.gz
Total_Precipitation_Accumulation
0.00 0.04 0.22 0.26 0.30 0.20 0.11 0.12 0.17 0.15 0.12 0.14 0.09 0.07 0.07 0.13 0.15 0.16 0.07 0.07 0.16 0.19 0.23 0.18 0.18 0.27 0.40 0.48 0.56 0.20 0.06 0.03 0.03 0.02 0.03 0.09 0.10 0.08 0.07 0.07 0.10 0.09 0.11
0.00 0.04 0.17 0.24 0.31 0.43 0.44 0.29 0.19 0.10 0.15 0.18 0.16 0.12 0.13 0.24 0.20 0.11 0.06 0.09 0.16 0.17 0.16 0.26 0.35 0.39 0.37 0.19 0.14 0.03 0.01 0.00 0.00 0.00 0.01 0.04 0.07 0.10 0.09 0.08 0.18 0.17 0.17
0.00 0.05 0.09 0.25 0.22 0.26 0.34 0.27 0.18 0.16 0.12 0.13 0.19 0.23 0.29 0.26 0.11 0.05 0.05 0.13 0.16 0.19 0.25 0.33 0.28 0.16 0.03 0.01 0.00 0.01 0.00 0.01 0.01 0.04 0.05 0.14 0.12 0.23 0.19 0.23 0.40 0.34 0.31
0.01 0.07 0.10 0.27 0.27 0.24 0.24 0.24 0.26 0.24 0.15 0.16 0.30 0.42 0.33 0.18 0.06 0.06 0.11 0.19 0.19 0.14 0.16 0.08 0.03 0.01 0.00 0.00 0.00 0.00 0.01 0.01 0.00 0.02 0.05 0.02 0.04 0.26 0.17 0.12 0.16 0.14 0.13
0.03 0.08 0.12 0.29 0.38 0.28 0.15 0.19 0.22 0.26 0.21 0.21 0.31 0.52 0.47 0.16 0.07 0.10 0.24 0.36 0.11 0.06 0.06 0.01 0.01 0.00 0.00 0.00 0.00 0.00 0.01 0.00 0.00 0.00 0.01 0.00 0.02 0.09 0.11 0.12 0.14 0.17 0.16
0.05 0.12 0.26 0.46 0.52 0.37 0.17 0.14 0.20 0.20 0.19 0.19 0.33 0.47 0.46 0.15 0.14 0.21 0.32 0.19 0.05 0.04 0.02 0.01 0.00 0.00 0.00 0.00 0.00 0.00 0.01 0.01 0.00 0.00 0.00 0.01 0.04 0.13 0.09 0.10 0.14 0.23 0.23
0.08 0.13 0.24 0.59 0.66 0.47 0.31 0.24 0.31 0.28 0.24 0.22 0.34 0.44 0.39 0.17 0.16 0.24 0.20 0.09 0.09 0.03 0.02 0.00 0.00 0.00 0.00 0.00 0.00 0.00 0.00 0.01 0.00 0.00 0.00 0.00 0.02 0.03 0.02 0.04 0.05 0.08 0.12
0.11 0.16 0.30 0.43 0.47 0.51 0.49 0.35 0.35 0.34 0.31 0.34 0.45 0.53 0.40 0.28 0.27 0.20 0.14 0.08 0.14 0.05 0.01 0.01 0.00 0.00 0.00 0.00 0.00 0.00 0.00 0.00 0.00 0.00 0.00 0.00 0.01 0.02 0.02 0.03 0.04 0.04 0.06
0.42 0.40 0.49 0.44 0.35 0.34 0.49 0.41 0.33 0.33 0.33 0.42 0.50 0.48 0.27 0.30 0.47 0.33 0.14 0.09 0.14 0.17 0.04 0.01 0.01 0.01 0.00 0.00 0.00 0.00 0.00 0.00 0.00 0.00 0.00 0.00 0.02 0.05 0.05 0.07 0.07 0.08 0.10
1.02 0.71 0.52 0.46 0.27 0.19 0.20 0.24 0.24 0.25 0.27 0.35 0.37 0.24 0.13 0.09 0.15 0.49 0.50 0.09 0.11 0.15 0.08 0.04 0.02 0.02 0.01 0.01 0.01 0.01 0.00 0.00 0.00 0.00 0.00 0.00 0.05 0.08 0.08 0.09 0.08 0.09 0.11
1.68 1.59 1.02 0.61 0.27 0.13 0.16 0.19 0.17 0.24 0.37 0.37 0.29 0.19 0.09 0.04 0.04 0.11 0.26 0.15 0.04 0.06 0.05 0.06 0.02 0.02 0.01 0.00 0.00 0.00 0.00 0.00 0.00 0.00 0.00 0.01 0.03 0.04 0.05 0.05 0.05 0.08 0.08
1.90 1.63 1.80 1.49 0.81 0.37 0.22 0.15 0.11 0.19 0.27 0.22 0.22 0.20 0.11 0.05 0.04 0.05 0.09 0.19 0.05 0.03 0.04 0.04 0.04 0.02 0.00 0.00 0.00 0.00 0.00 0.00 0.00 0.00 0.00 0.01 0.02 0.02 0.02 0.04 0.05 0.04 0.04
2.63 1.67 1.70 1.49 1.27 0.65 0.52 0.41 0.15 0.09 0.14 0.18 0.19 0.20 0.16 0.09 0.05 0.07 0.15 0.13 0.04 0.00 0.01 0.01 0.01 0.00 0.00 0.00 0.00 0.00 0.00 0.00 0.00 0.00 0.00 0.01 0.00 0.01 0.02 0.02 0.03 0.02 0.02
3.11 2.19 1.53 1.25 1.14 0.97 0.81 0.56 0.27 0.25 0.16 0.16 0.16 0.18 0.12 0.09 0.05 0.05 0.08 0.10 0.09 0.02 0.00 0.00 0.00 0.00 0.00 0.00 0.00 0.00 0.00 0.00 0.00 0.00 0.00 0.00 0.00 0.00 0.01 0.01 0.02 0.03 0.04
1.45 1.66 1.79 1.29 1.03 0.91 0.87 0.72 0.27 0.18 0.22 0.16 0.19 0.17 0.12 0.05 0.03 0.04 0.04 0.06 0.06 0.03 0.00 0.00 0.00 0.00 0.00 0.00 0.00 0.00 0.00 0.00 0.00 0.00 0.00 0.00 0.00 0.00 0.00 0.00 0.01 0.01 0.05
0.93 1.30 1.77 1.54 1.08 1.33 1.15 0.90 0.67 0.27 0.26 0.26 0.27 0.18 0.21 0.11 0.05 0.06 0.05 0.05 0.04 0.04 0.01 0.00 0.00 0.00 0.00 0.00 0.00 0.00 0.00 0.00 0.00 0.00 0.00 0.00 0.00 0.00 0.00 0.00 0.02 0.07 0.12
0.53 1.41 1.87 1.46 0.97 0.82 1.43 1.28 0.71 0.60 0.40 0.34 0.38 0.50 0.36 0.37 0.23 0.16 0.14 0.12 0.09 0.12 0.12 0.07 0.02 0.01 0.00 0.00 0.00 0.00 0.00 0.00 0.00 0.00 0.00 0.00 0.00 0.00 0.00 0.01 0.02 0.06 0.09
0.58 0.95 1.57 1.41 0.78 0.62 0.86 1.44 1.15 0.71 0.43 0.28 0.29 0.40 0.44 0.44 0.63 0.43 0.33 0.21 0.20 0.26 0.31 0.23 0.13 0.08 0.02 0.00 0.00 0.00 0.00 0.00 0.00 0.00 0.00 0.00 0.00 0.00 0.00 0.00 0.01 0.03 0.09
0.47 0.63 0.79 0.77 0.41 0.20 0.36 0.96 1.41 0.95 0.49 0.29 0.27 0.27 0.41 0.44 0.50 0.86 0.78 0.55 0.36 0.39 0.43 0.35 0.22 0.13 0.08 0.06 0.03 0.06 0.06 0.06 0.04 0.02 0.00 0.01 0.01 0.01 0.00 0.01 0.01 0.01 0.02
0.84 0.66 0.67 0.50 0.50 0.32 0.55 0.88 1.23 1.12 0.75 0.37 0.29 0.21 0.26 0.27 0.34 0.51 0.71 0.76 0.82 0.67 0.43 0.40 0.31 0.21 0.13 0.11 0.15 0.13 0.09 0.07 0.04 0.02 0.00 0.01 0.02 0.02 0.01 0.01 0.00 0.00 0.00
1.62 0.98 0.83 0.66 0.53 0.52 0.44 0.56 0.82 0.62 0.97 0.69 0.48 0.43 0.37 0.46 0.48 0.66 0.79 0.65 0.60 0.55 0.45 0.51 0.61 0.62 0.43 0.50 0.46 0.21 0.14 0.11 0.06 0.04 0.02 0.01 0.01 0.01 0.00 0.00 0.00 0.00 0.00
1.05 1.07 1.06 0.56 0.42 0.44 0.42 0.47 1.00 1.04 1.05 0.97 0.98 0.83 0.63 0.75 0.73 0.62 0.72 0.81 0.72 0.60 0.55 0.56 0.73 0.85 0.76 1.03 0.87 0.57 0.30 0.15 0.06 0.04 0.05 0.03 0.01 0.01 0.00 0.00 0.00 0.00 0.00
1.00 0.80 0.85 1.09 0.95 0.84 1.06 1.45 1.48 1.68 1.68 1.63 1.50 1.17 1.21 1.44 1.58 1.30 1.31 1.23 1.30 1.40 1.24 1.29 1.27 1.42 1.34 1.40 1.29 1.11 0.77 0.32 0.11 0.09 0.07 0.07 0.07 0.04 0.02 0.02 0.04 0.05 0.04
1.36 1.38 1.40 1.53 1.34 1.04 1.28 1.47 1.16 1.48 1.71 1.72 1.49 1.64 1.91 2.02 2.12 2.06 2.04 2.46 2.35 2.02 1.86 1.80 1.73 1.57 1.63 1.63 1.63 1.47 1.48 1.25 0.97 0.61 0.36 0.31 0.31 0.27 0.22 0.11 0.08 0.08 0.07
1.67 1.56 1.62 1.82 1.46 1.19 1.31 1.37 1.52 1.36 1.51 1.56 1.25 1.19 1.27 1.38 1.29 1.35 1.39 1.58 1.84 1.81 1.74 1.60 1.53 1.40 1.31 1.16 1.11 1.13 1.14 1.26 1.38 1.18 0.68 0.40 0.34 0.26 0.24 0.22 0.17 0.15 0.13
1.63 1.13 1.31 1.42 1.21 1.05 1.12 1.07 1.40 1.16 1.29 1.47 1.43 1.17 1.03 0.99 1.15 1.01 0.97 0.94 0.92 0.93 1.13 1.08 1.10 1.10 1.00 0.93 0.78 0.78 0.76 0.81 0.86 1.05 0.95 0.71 0.59 0.36 0.28 0.24 0.23 0.22 0.22

GFSSE_prec_precacc_135.txt.gz
Total_Precipitation_Accumulation
0.00 0.04 0.22 0.32 0.38 0.35 0.12 0.12 0.17 0.15 0.12 0.14 0.09 0.07 0.07 0.13 0.15 0.16 0.07 0.07 0.16 0.19 0.23 0.18 0.18 0.27 0.40 0.53 0.56 0.20 0.06 0.03 0.03 0.02 0.06 0.10 0.10 0.08 0.07 0.07 0.10 0.09 0.11
0.00 0.04 0.17 0.27 0.36 0.52 0.53 0.31 0.19 0.10 0.15 0.18 0.16 0.12 0.13 0.24 0.20 0.11 0.06 0.09 0.16 0.17 0.16 0.26 0.35 0.39 0.37 0.22 0.16 0.03 0.01 0.00 0.00 0.00 0.01 0.04 0.07 0.10 0.09 0.08 0.18 0.17 0.17
0.00 0.05 0.09 0.26 0.25 0.30 0.41 0.39 0.23 0.17 0.12 0.13 0.19 0.23 0.29 0.26 0.11 0.05 0.05 0.13 0.16 0.19 0.25 0.34 0.29 0.16 0.03 0.01 0.00 0.01 0.00 0.01 0.01 0.04 0.05 0.14 0.13 0.25 0.19 0.23 0.40 0.34 0.31
0.01 0.07 0.10 0.28 0.29 0.27 0.27 0.30 0.36 0.32 0.17 0.16 0.30 0.42 0.33 0.18 0.06 0.06 0.11 0.19 0.19 0.16 0.16 0.09 0.03 0.01 0.00 0.00 0.00 0.00 0.01 0.01 0.00 0.02 0.05 0.02 0.05 0.33 0.18 0.12 0.16 0.14 0.13
0.03 0.08 0.12 0.31 0.40 0.29 0.17 0.21 0.26 0.32 0.29 0.23 0.32 0.52 0.47 0.16 0.07 0.10 0.24 0.36 0.11 0.07 0.07 0.02 0.01 0.00 0.00 0.00 0.00 0.00 0.01 0.00 0.00 0.00 0.01 0.00 0.02 0.10 0.11 0.12 0.14 0.17 0.16
0.05 0.12 0.26 0.46 0.54 0.37 0.18 0.15 0.24 0.26 0.27 0.28 0.41 0.49 0.46 0.15 0.14 0.21 0.32 0.19 0.05 0.04 0.03 0.02 0.00 0.00 0.00 0.00 0.00 0.00 0.01 0.01 0.00 0.00 0.00 0.01 0.04 0.13 0.09 0.10 0.14 0.23 0.23
0.08 0.13 0.24 0.59 0.66 0.48 0.32 0.25 0.33 0.32 0.31 0.31 0.44 0.53 0.44 0.17 0.16 0.24 0.21 0.09 0.09 0.03 0.02 0.00 0.00 0.00 0.00 0.00 0.00 0.00 0.00 0.01 0.00 0.00 0.00 0.00 0.02 0.03 0.02 0.04 0.05 0.08 0.12
0.11 0.16 0.30 0.43 0.47 0.51 0.49 0.35 0.37 0.36 0.34 0.38 0.50 0.64 0.55 0.39 0.31 0.21 0.14 0.08 0.14 0.05 0.01 0.01 0.00 0.00 0.00 0.00 0.00 0.00 0.00 0.00 0.00 0.00 0.00 0.00 0.01 0.02 0.02 0.03 0.04 0.04 0.06
0.42 0.40 0.49 0.44 0.35 0.34 0.49 0.41 0.33 0.35 0.35 0.45 0.52 0.51 0.30 0.32 0.49 0.36 0.16 0.09 0.14 0.18 0.06 0.02 0.01 0.01 0.00 0.00 0.00 0.00 0.00 0.00 0.00 0.00 0.00 0.00 0.02 0.05 0.05 0.07 0.07 0.08 0.10
1.02 0.71 0.52 0.46 0.27 0.19 0.20 0.24 0.24 0.25 0.27 0.35 0.38 0.24 0.13 0.09 0.16 0.50 0.51 0.09 0.11 0.15 0.09 0.07 0.05 0.02 0.01 0.01 0.01 0.01 0.00 0.00 0.00 0.00 0.00 0.00 0.05 0.08 0.08 0.09 0.08 0.09 0.11
1.68 1.59 1.02 0.61 0.27 0.13 0.16 0.19 0.17 0.24 0.37 0.37 0.29 0.19 0.10 0.05 0.05 0.12 0.26 0.15 0.04 0.06 0.05 0.07 0.06 0.04 0.01 0.00 0.00 0.00 0.00 0.00 0.00 0.00 0.00 0.01 0.03 0.04 0.05 0.05 0.05 0.08 0.08
1.90 1.63 1.80 1.49 0.81 0.37 0.22 0.15 0.11 0.19 0.27 0.22 0.22 0.20 0.11 0.05 0.06 0.09 0.11 0.19 0.05 0.03 0.04 0.04 0.05 0.02 0.00 0.00 0.00 0.00 0.00 0.00 0.00 0.00 0.00 0.01 0.02 0.02 0.02 0.04 0.05 0.04 0.04
2.63 1.67 1.70 1.49 1.27 0.65 0.52 0.41 0.15 0.09 0.14 0.18 0.19 0.20 0.16 0.09 0.06 0.11 0.17 0.15 0.05 0.00 0.01 0.01 0.01 0.00 0.00 0.00 0.00 0.00 0.00 0.00 0.00 0.00 0.00 0.01 0.00 0.01 0.02 0.02 0.03 0.02 0.02
3.11 2.19 1.53 1.25 1.14 0.97 0.81 0.56 0.27 0.25 0.16 0.16 0.16 0.18 0.12 0.09 0.06 0.06 0.10 0.14 0.14 0.03 0.00 0.00 0.00 0.00 0.00 0.00 0.00 0.00 0.00 0.00 0.00 0.00 0.00 0.00 0.00 0.00 0.01 0.01 0.02 0.03 0.04
1.45 1.66 1.79 1.29 1.03 0.91 0.87 0.72 0.27 0.18 0.22 0.16 0.19 0.17 0.12 0.05 0.03 0.05 0.05 0.07 0.08 0.05 0.01 0.00 0.00 0.00 0.00 0.00 0.00 0.00 0.00 0.00 0.00 0.00 0.00 0.00 0.00 0.00 0.00 0.00 0.01 0.02 0.05
0.93 1.30 1.77 1.54 1.08 1.33 1.15 0.90 0.67 0.27 0.26 0.26 0.27 0.18 0.21 0.11 0.05 0.06 0.05 0.06 0.06 0.06 0.03 0.03 0.01 0.00 0.00 0.00 0.00 0.00 0.00 0.00 0.00 0.00 0.00 0.00 0.00 0.00 0.00 0.00 0.02 0.07 0.12
0.53 1.41 1.87 1.46 0.97 0.82 1.43 1.28 0.71 0.60 0.40 0.34 0.38 0.50 0.36 0.37 0.23 0.16 0.14 0.12 0.10 0.13 0.14 0.10 0.05 0.03 0.01 0.00 0.00 0.00 0.00 0.00 0.00 0.00 0.00 0.00 0.00 0.00 0.00 0.01 0.02 0.06 0.09
0.58 0.95 1.57 1.41 0.78 0.62 0.86 1.44 1.15 0.71 0.43 0.28 0.29 0.40 0.44 0.44 0.63 0.43 0.33 0.21 0.20 0.26 0.33 0.25 0.16 0.12 0.06 0.04 0.02 0.00 0.00 0.00 0.00 0.00 0.00 0.00 0.00 0.00 0.00 0.00 0.01 0.03 0.09
0.47 0.63 0.79 0.77 0.41 0.20 0.36 0.96 1.41 0.95 0.49 0.29 0.27 0.27 0.41 0.44 0.50 0.86 0.78 0.55 0.36 0.39 0.43 0.37 0.25 0.17 0.12 0.10 0.06 0.07 0.07 0.07 0.06 0.05 0.01 0.01 0.02 0.01 0.01 0.01 0.01 0.01 0.02
0.84 0.66 0.67 0.50 0.50 0.32 0.55 0.88 1.23 1.12 0.75 0.37 0.29 0.21 0.26 0.27 0.34 0.51 0.71 0.76 0.82 0.67 0.43 0.40 0.31 0.24 0.16 0.16 0.19 0.15 0.11 0.08 0.05 0.04 0.02 0.03 0.04 0.03 0.02 0.02 0.01 0.00 0.00
1.62 0.98 0.83 0.66 0.53 0.52 0.44 0.56 0.82 0.62 0.97 0.69 0.48 0.43 0.37 0.46 0.48 0.66 0.79 0.65 0.60 0.55 0.45 0.51 0.62 0.63 0.48 0.59 0.58 0.30 0.19 0.13 0.07 0.06 0.05 0.04 0.03 0.03 0.02 0.03 0.03 0.02 0.00
1.05 1.07 1.06 0.56 0.42 0.44 0.42 0.47 1.00 1.04 1.05 0.97 0.98 0.83 0.63 0.75 0.73 0.62 0.72 0.81 0.72 0.60 0.55 0.56 0.73 0.86 0.77 1.08 0.99 0.71 0.42 0.21 0.07 0.05 0.07 0.07 0.05 0.07 0.04 0.04 0.04 0.03 0.01
1.00 0.80 0.85 1.09 0.95 0.84 1.07 1.45 1.48 1.68 1.68 1.63 1.50 1.17 1.21 1.44 1.58 1.30 1.31 1.23 1.30 1.40 1.24 1.29 1.27 1.42 1.34 1.41 1.34 1.28 0.96 0.45 0.17 0.12 0.08 0.07 0.11 0.11 0.07 0.09 0.11 0.09 0.06
1.36 1.38 1.40 1.53 1.34 1.04 1.28 1.47 1.16 1.48 1.71 1.72 1.49 1.64 1.91 2.02 2.12 2.06 2.04 2.46 2.35 2.02 1.87 1.81 1.74 1.58 1.64 1.63 1.64 1.49 1.54 1.37 1.14 0.79 0.45 0.36 0.33 0.29 0.27 0.23 0.20 0.19 0.20
1.67 1.56 1.62 1.82 1.46 1.19 1.31 1.37 1.52 1.36 1.51 1.56 1.25 1.19 1.27 1.38 1.29 1.35 1.39 1.58 1.84 1.81 1.74 1.60 1.53 1.41 1.32 1.17 1.11 1.13 1.14 1.27 1.41 1.32 0.80 0.46 0.38 0.30 0.28 0.30 0.33 0.37 0.45
1.63 1.13 1.31 1.42 1.21 1.05 1.12 1.07 1.40 1.16 1.29 1.47 1.43 1.17 1.03 0.99 1.15 1.01 0.97 0.94 0.92 0.93 1.13 1.08 1.10 1.10 1.00 0.93 0.78 0.78 0.76 0.81 0.86 1.06 0.97 0.72 0.59 0.36 0.29 0.27 0.31 0.31 0.33

GFSSE_prec_precacc_138.txt.gz
Total_Precipitation_Accumulation
0.00 0.04 0.22 0.34 0.43 0.39 0.12 0.12 0.17 0.15 0.12 0.14 0.09 0.07 0.07 0.13 0.15 0.16 0.07 0.07 0.16 0.19 0.23 0.18 0.18 0.27 0.43 0.56 0.56 0.20 0.06 0.03 0.03 0.04 0.07 0.10 0.10 0.08 0.07 0.07 0.10 0.09 0.11
0.00 0.04 0.17 0.28 0.39 0.58 0.59 0.32 0.20 0.10 0.15 0.18 0.16 0.12 0.13 0.24 0.20 0.11 0.06 0.09 0.16 0.17 0.16 0.26 0.35 0.39 0.37 0.23 0.16 0.03 0.01 0.00 0.00 0.00 0.01 0.04 0.07 0.10 0.09 0.08 0.18 0.17 0.17
0.00 0.05 0.09 0.27 0.27 0.32 0.48 0.48 0.32 0.21 0.13 0.13 0.19 0.23 0.29 0.26 0.11 0.05 0.05 0.13 0.16 0.19 0.25 0.35 0.30 0.16 0.03 0.02 0.00 0.01 0.00 0.01 0.01 0.04 0.05 0.14 0.13 0.25 0.19 0.23 0.40 0.34 0.31
0.01 0.07 0.10 0.29 0.31 0.29 0.28 0.33 0.42 0.38 0.19 0.16 0.30 0.42 0.33 0.18 0.06 0.06 0.11 0.19 0.19 0.17 0.17 0.09 0.03 0.01 0.00 0.00 0.00 0.00 0.01 0.01 0.00 0.02 0.05 0.02 0.06 0.38 0.18 0.12 0.16 0.14 0.13
0.03 0.08 0.12 0.33 0.42 0.31 0.18 0.23 0.29 0.36 0.35 0.30 0.35 0.52 0.47 0.16 0.07 0.10 0.24 0.36 0.12 0.08 0.07 0.02 0.01 0.00 0.00 0.00 0.00 0.00 0.01 0.00 0.00 0.00 0.01 0.01 0.05 0.13 0.11 0.12 0.14 0.17 0.16
0.05 0.12 0.26 0.46 0.55 0.39 0.19 0.16 0.25 0.28 0.31 0.32 0.48 0.54 0.46 0.15 0.14 0.21 0.32 0.19 0.05 0.04 0.04 0.02 0.00 0.00 0.00 0.00 0.01 0.00 0.01 0.01 0.00 0.00 0.00 0.02 0.05 0.13 0.09 0.10 0.14 0.23 0.23
0.08 0.13 0.24 0.59 0.66 0.48 0.32 0.26 0.35 0.33 0.31 0.31 0.45 0.59 0.51 0.19 0.16 0.25 0.22 0.09 0.09 0.03 0.03 0.01 0.00 0.00 0.00 0.00 0.01 0.00 0.00 0.01 0.00 0.00 0.00 0.00 0.02 0.03 0.02 0.04 0.05 0.08 0.12
0.11 0.16 0.30 0.43 0.47 0.51 0.49 0.35 0.37 0.37 0.35 0.40 0.52 0.66 0.59 0.45 0.33 0.22 0.15 0.09 0.14 0.05 0.02 0.01 0.00 0.00 0.00 0.00 0.00 0.00 0.00 0.00 0.00 0.00 0.00 0.00 0.01 0.02 0.02 0.03 0.04 0.04 0.06
0.42 0.40 0.49 0.44 0.35 0.34 0.49 0.41 0.33 0.35 0.35 0.46 0.54 0.53 0.31 0.34 0.52 0.39 0.18 0.10 0.14 0.18 0.06 0.03 0.03 0.01 0.00 0.00 0.00 0.00 0.00 0.00 0.00 0.00 0.00 0.00 0.02 0.05 0.05 0.07 0.07 0.08 0.10
1.02 0.71 0.52 0.46 0.27 0.19 0.20 0.24 0.24 0.25 0.27 0.35 0.38 0.24 0.13 0.09 0.16 0.51 0.52 0.09 0.12 0.17 0.09 0.08 0.07 0.04 0.01 0.01 0.01 0.01 0.00 0.00 0.00 0.00 0.00 0.00 0.05 0.08 0.08 0.09 0.08 0.09 0.11
1.68 1.59 1.02 0.61 0.27 0.13 0.16 0.19 0.17 0.24 0.37 0.37 0.29 0.19 0.10 0.06 0.06 0.14 0.29 0.18 0.05 0.06 0.06 0.08 0.06 0.06 0.02 0.00 0.00 0.00 0.00 0.00 0.00 0.00 0.00 0.01 0.03 0.04 0.05 0.05 0.05 0.08 0.08
1.90 1.63 1.80 1.49 0.81 0.37 0.22 0.15 0.11 0.19 0.27 0.22 0.22 0.20 0.11 0.05 0.06 0.10 0.14 0.21 0.07 0.04 0.04 0.04 0.05 0.03 0.01 0.01 0.00 0.00 0.00 0.00 0.00 0.00 0.00 0.01 0.02 0.02 0.02 0.04 0.05 0.04 0.04
2.63 1.67 1.70 1.49 1.27 0.65 0.52 0.41 0.15 0.09 0.14 0.18 0.19 0.20 0.16 0.09 0.06 0.11 0.19 0.19 0.09 0.02 0.03 0.02 0.01 0.01 0.01 0.01 0.01 0.00 0.00 0.00 0.00 0.00 0.00 0.01 0.00 0.01 0.02 0.02 0.03 0.02 0.02
3.11 2.19 1.53 1.25 1.14 0.97 0.81 0.56 0.27 0.25 0.16 0.16 0.16 0.18 0.12 0.09 0.06 0.06 0.10 0.15 0.17 0.07 0.04 0.03 0.02 0.01 0.01 0.02 0.01 0.00 0.00 0.00 0.00 0.00 0.00 0.00 0.00 0.00 0.01 0.01 0.02 0.03 0.05
1.45 1.66 1.79 1.29 1.03 0.91 0.87 0.72 0.27 0.18 0.22 0.16 0.19 0.17 0.12 0.05 0.03 0.05 0.05 0.07 0.08 0.07 0.05 0.06 0.04 0.03 0.01 0.01 0.02 0.01 0.00 0.00 0.00 0.00 0.00 0.00 0.00 0.00 0.00 0.00 0.01 0.02 0.06
0.93 1.30 1.77 1.54 1.08 1.33 1.15 0.90 0.67 0.27 0.26 0.26 0.27 0.18 0.21 0.11 0.05 0.06 0.05 0.06 0.06 0.06 0.04 0.04 0.04 0.03 0.02 0.02 0.00 0.00 0.00 0.00 0.00 0.00 0.00 0.00 0.00 0.00 0.00 0.00 0.02 0.07 0.13
0.53 1.41 1.87 1.46 0.97 0.82 1.43 1.28 0.71 0.60 0.40 0.34 0.38 0.50 0.36 0.37 0.23 0.16 0.14 0.12 0.10 0.13 0.14 0.10 0.05 0.05 0.03 0.03 0.02 0.01 0.00 0.00 0.00 0.00 0.00 0.00 0.00 0.00 0.00 0.01 0.02 0.06 0.09
0.58 0.95 1.57 1.41 0.78 0.62 0.86 1.44 1.15 0.71 0.43 0.28 0.29 0.40 0.44 0.44 0.63 0.43 0.33 0.21 0.20 0.26 0.33 0.25 0.16 0.13 0.07 0.05 0.04 0.01 0.01 0.01 0.00 0.00 0.00 0.00 0.00 0.00 0.00 0.00 0.01 0.03 0.09
0.47 0.63 0.79 0.77 0.41 0.20 0.36 0.96 1.41 0.95 0.49 0.29 0.27 0.27 0.41 0.44 0.50 0.86 0.78 0.55 0.36 0.39 0.43 0.37 0.25 0.18 0.13 0.11 0.08 0.09 0.09 0.08 0.06 0.05 0.01 0.01 0.02 0.01 0.01 0.01 0.01 0.01 0.02
0.84 0.66 0.67 0.50 0.50 0.32 0.55 0.88 1.23 1.12 0.75 0.37 0.29 0.21 0.26 0.27 0.34 0.51 0.71 0.76 0.82 0.67 0.43 0.40 0.31 0.24 0.17 0.17 0.20 0.17 0.13 0.10 0.07 0.05 0.03 0.04 0.04 0.04 0.03 0.03 0.03 0.01 0.01
1.62 0.98 0.83 0.66 0.53 0.52 0.44 0.56 0.82 0.62 0.97 0.69 0.48 0.43 0.37 0.46 0.48 0.66 0.79 0.65 0.60 0.55 0.45 0.51 0.62 0.63 0.48 0.59 0.59 0.31 0.21 0.14 0.09 0.07 0.06 0.05 0.05 0.06 0.07 0.07 0.07 0.08 0.07
1.05 1.07 1.06 0.56 0.42 0.44 0.42 0.47 1.00 1.04 1.05 0.97 0.98 0.83 0.63 0.75 0.73 0.62 0.72 0.81 0.72 0.60 0.55 0.56 0.73 0.86 0.77 1.08 0.99 0.72 0.43 0.21 0.08 0.06 0.07 0.07 0.06 0.08 0.06 0.08 0.09 0.08 0.08
1.00 0.80 0.85 1.09 0.95 0.84 1.07 1.45 1.48 1.68 1.68 1.63 1.50 1.17 1.21 1.44 1.58 1.30 1.32 1.23 1.30 1.41 1.25 1.29 1.28 1.42 1.34 1.41 1.34 1.29 0.96 0.45 0.19 0.14 0.11 0.11 0.14 0.13 0.10 0.11 0.13 0.13 0.14
1.36 1.38 1.40 1.53 1.34 1.04 1.28 1.47 1.16 1.48 1.71 1.72 1.49 1.64 1.91 2.02 2.12 2.06 2.04 2.46 2.35 2.03 1.88 1.82 1.76 1.60 1.66 1.65 1.65 1.50 1.54 1.38 1.15 0.80 0.48 0.40 0.40 0.34 0.30 0.25 0.21 0.20 0.22
1.67 1.56 1.62 1.82 1.46 1.19 1.31 1.37 1.52 1.36 1.51 1.56 1.25 1.19 1.27 1.38 1.29 1.35 1.39 1.58 1.85 1.81 1.74 1.61 1.54 1.41 1.34 1.19 1.13 1.14 1.14 1.27 1.41 1.32 0.81 0.46 0.40 0.32 0.30 0.32 0.35 0.37 0.46
1.63 1.13 1.31 1.42 1.21 1.05 1.12 1.07 1.40 1.16 1.29 1.47 1.43 1.17 1.03 0.99 1.15 1.01 0.97 0.94 0.92 0.93 1.13 1.08 1.10 1.10 1.00 0.93 0.78 0.79 0.77 0.82 0.86 1.07 0.97 0.72 0.59 0.37 0.30 0.28 0.31 0.32 0.34

GFSSE_prec_precacc_141.txt.gz
Total_Precipitation_Accumulation
0.00 0.04 0.22 0.34 0.44 0.41 0.13 0.12 0.17 0.15 0.12 0.14 0.09 0.07 0.07 0.13 0.15 0.16 0.07 0.07 0.16 0.19 0.23 0.18 0.18 0.27 0.46 0.59 0.56 0.20 0.06 0.04 0.03 0.07 0.08 0.10 0.10 0.08 0.07 0.07 0.10 0.09 0.11
0.00 0.04 0.17 0.28 0.40 0.62 0.64 0.33 0.20 0.11 0.15 0.18 0.16 0.12 0.13 0.24 0.20 0.11 0.06 0.09 0.16 0.17 0.16 0.26 0.35 0.39 0.37 0.23 0.16 0.03 0.01 0.00 0.00 0.00 0.01 0.04 0.07 0.10 0.09 0.08 0.18 0.17 0.17
0.00 0.05 0.09 0.27 0.28 0.33 0.52 0.54 0.33 0.21 0.13 0.13 0.19 0.23 0.29 0.26 0.11 0.05 0.05 0.13 0.16 0.19 0.25 0.35 0.30 0.16 0.03 0.02 0.00 0.01 0.00 0.01 0.01 0.04 0.05 0.14 0.13 0.25 0.19 0.23 0.40 0.34 0.31
0.01 0.07 0.10 0.30 0.32 0.30 0.29 0.35 0.46 0.40 0.20 0.16 0.30 0.42 0.33 0.18 0.06 0.06 0.11 0.19 0.19 0.17 0.17 0.09 0.03 0.01 0.00 0.00 0.00 0.00 0.01 0.01 0.00 0.02 0.05 0.02 0.06 0.39 0.18 0.12 0.16 0.14 0.13
0.03 0.08 0.12 0.33 0.43 0.33 0.21 0.25 0.30 0.39 0.39 0.32 0.35 0.52 0.47 0.16 0.07 0.10 0.24 0.36 0.12 0.09 0.08 0.02 0.01 0.00 0.00 0.00 0.00 0.00 0.01 0.00 0.00 0.00 0.01 0.01 0.06 0.18 0.11 0.12 0.14 0.17 0.16
0.05 0.12 0.26 0.46 0.55 0.39 0.20 0.18 0.28 0.31 0.34 0.37 0.53 0.58 0.46 0.15 0.14 0.21 0.32 0.19 0.05 0.04 0.04 0.02 0.00 0.00 0.00 0.00 0.01 0.00 0.01 0.01 0.00 0.00 0.00 0.02 0.06 0.14 0.09 0.10 0.14 0.23 0.23
0.08 0.13 0.24 0.59 0.66 0.48 0.32 0.27 0.35 0.34 0.33 0.33 0.46 0.61 0.54 0.21 0.17 0.25 0.23 0.10 0.09 0.03 0.03 0.01 0.00 0.00 0.00 0.00 0.01 0.01 0.00 0.01 0.00 0.00 0.00 0.00 0.02 0.03 0.02 0.04 0.05 0.08 0.12
0.11 0.16 0.30 0.43 0.47 0.51 0.49 0.35 0.37 0.37 0.35 0.41 0.53 0.66 0.63 0.54 0.38 0.26 0.19 0.11 0.14 0.05 0.02 0.02 0.01 0.00 0.00 0.00 0.00 0.00 0.00 0.00 0.00 0.00 0.00 0.00 0.01 0.02 0.02 0.03 0.04 0.04 0.06
0.42 0.40 0.49 0.44 0.35 0.34 0.49 0.41 0.33 0.35 0.35 0.46 0.54 0.53 0.32 0.34 0.53 0.40 0.21 0.12 0.15 0.19 0.06 0.04 0.03 0.01 0.00 0.00 0.00 0.00 0.00 0.00 0.00 0.00 0.00 0.00 0.02 0.05 0.05 0.07 0.07 0.08 0.10
1.02 0.71 0.52 0.46 0.27 0.19 0.20 0.24 0.24 0.25 0.27 0.35 0.38 0.24 0.13 0.09 0.16 0.51 0.52 0.10 0.13 0.18 0.11 0.09 0.08 0.05 0.02 0.01 0.01 0.01 0.00 0.00 0.00 0.00 0.00 0.00 0.05 0.08 0.08 0.09 0.08 0.09 0.11
1.68 1.59 1.02 0.61 0.27 0.13 0.16 0.19 0.17 0.24 0.37 0.37 0.29 0.19 0.10 0.06 0.06 0.16 0.32 0.21 0.08 0.10 0.08 0.10 0.07 0.07 0.03 0.01 0.00 0.00 0.00 0.00 0.00 0.00 0.00 0.01 0.03 0.04 0.05 0.05 0.05 0.08 0.08
1.90 1.63 1.80 1.49 0.81 0.37 0.22 0.15 0.11 0.19 0.27 0.22 0.22 0.20 0.11 0.05 0.06 0.10 0.14 0.21 0.08 0.05 0.05 0.05 0.07 0.04 0.02 0.02 0.01 0.00 0.00 0.00 0.00 0.00 0.00 0.01 0.02 0.02 0.02 0.04 0.05 0.04 0.04
2.63 1.67 1.70 1.49 1.27 0.65 0.52 0.41 0.15 0.09 0.14 0.18 0.19 0.20 0.16 0.09 0.06 0.11 0.19 0.19 0.10 0.03 0.04 0.04 0.03 0.02 0.01 0.02 0.01 0.01 0.00 0.00 0.00 0.00 0.00 0.01 0.00 0.01 0.02 0.02 0.03 0.02 0.02
3.11 2.19 1.53 1.25 1.14 0.97 0.81 0.56 0.27 0.25 0.16 0.16 0.16 0.18 0.12 0.09 0.06 0.06 0.10 0.15 0.17 0.08 0.05 0.06 0.06 0.05 0.05 0.03 0.03 0.01 0.01 0.00 0.00 0.00 0.00 0.00 0.00 0.00 0.01 0.01 0.02 0.03 0.05
1.45 1.66 1.79 1.29 1.03 0.91 0.87 0.72 0.27 0.18 0.22 0.16 0.19 0.17 0.12 0.05 0.03 0.05 0.05 0.07 0.08 0.08 0.06 0.08 0.08 0.08 0.07 0.08 0.08 0.06 0.02 0.01 0.00 0.00 0.00 0.00 0.00 0.00 0.00 0.00 0.01 0.02 0.06
0.93 1.30 1.77 1.54 1.08 1.33 1.15 0.90 0.67 0.27 0.26 0.26 0.27 0.18 0.21 0.11 0.05 0.06 0.05 0.06 0.06 0.06 0.04 0.05 0.06 0.06 0.05 0.06 0.04 0.04 0.05 0.04 0.01 0.00 0.00 0.00 0.00 0.00 0.00 0.00 0.02 0.07 0.13
0.53 1.41 1.87 1.46 0.97 0.82 1.43 1.28 0.71 0.60 0.40 0.34 0.38 0.50 0.36 0.37 0.23 0.16 0.14 0.12 0.10 0.13 0.14 0.10 0.06 0.05 0.04 0.04 0.03 0.03 0.04 0.03 0.04 0.03 0.02 0.01 0.00 0.00 0.00 0.01 0.02 0.06 0.09
0.58 0.95 1.57 1.41 0.78 0.62 0.86 1.44 1.15 0.71 0.43 0.28 0.29 0.40 0.44 0.44 0.63 0.43 0.33 0.21 0.20 0.26 0.33 0.25 0.16 0.13 0.09 0.07 0.06 0.04 0.04 0.03 0.02 0.03 0.02 0.02 0.02 0.01 0.00 0.00 0.01 0.03 0.09
0.47 0.63 0.79 0.77 0.41 0.20 0.36 0.96 1.41 0.95 0.49 0.29 0.27 0.27 0.41 0.44 0.50 0.86 0.78 0.55 0.36 0.39 0.43 0.37 0.25 0.18 0.13 0.12 0.09 0.11 0.11 0.11 0.10 0.08 0.03 0.02 0.03 0.02 0.01 0.02 0.01 0.02 0.02
0.84 0.66 0.67 0.50 0.50 0.32 0.55 0.88 1.23 1.12 0.75 0.37 0.29 0.21 0.26 0.27 0.34 0.51 0.71 0.76 0.82 0.67 0.43 0.40 0.31 0.24 0.17 0.17 0.20 0.17 0.13 0.10 0.08 0.08 0.05 0.05 0.05 0.06 0.05 0.05 0.04 0.02 0.04
1.62 0.98 0.83 0.66 0.53 0.52 0.44 0.56 0.82 0.62 0.97 0.69 0.48 0.43 0.37 0.46 0.48 0.66 0.79 0.65 0.60 0.55 0.45 0.51 0.62 0.63 0.48 0.59 0.59 0.31 0.21 0.14 0.09 0.07 0.06 0.05 0.05 0.06 0.08 0.09 0.09 0.09 0.09
1.05 1.07 1.06 0.56 0.42 0.44 0.42 0.47 1.00 1.04 1.05 0.97 0.98 0.83 0.63 0.75 0.73 0.62 0.73 0.82 0.73 0.61 0.55 0.57 0.74 0.86 0.77 1.08 0.99 0.72 0.43 0.21 0.08 0.06 0.08 0.08 0.07 0.10 0.07 0.10 0.11 0.10 0.10
1.00 0.80 0.85 1.09 0.95 0.84 1.07 1.45 1.48 1.68 1.68 1.63 1.50 1.17 1.21 1.44 1.58 1.30 1.32 1.23 1.31 1.41 1.26 1.30 1.29 1.44 1.36 1.42 1.35 1.29 0.96 0.46 0.19 0.14 0.12 0.14 0.18 0.18 0.16 0.17 0.15 0.15 0.16
1.36 1.38 1.40 1.53 1.34 1.04 1.28 1.47 1.16 1.48 1.71 1.72 1.49 1.64 1.91 2.02 2.12 2.06 2.04 2.46 2.35 2.03 1.88 1.82 1.77 1.62 1.69 1.68 1.67 1.53 1.57 1.41 1.18 0.81 0.48 0.40 0.40 0.34 0.31 0.28 0.24 0.23 0.27
1.67 1.56 1.62 1.82 1.46 1.19 1.31 1.37 1.52 1.36 1.51 1.56 1.25 1.19 1.27 1.38 1.29 1.35 1.39 1.58 1.85 1.81 1.74 1.61 1.54 1.41 1.34 1.20 1.15 1.15 1.16 1.28 1.43 1.35 0.82 0.46 0.40 0.32 0.30 0.33 0.37 0.40 0.47
1.63 1.13 1.31 1.42 1.21 1.05 1.12 1.07 1.40 1.16 1.29 1.47 1.43 1.17 1.03 0.99 1.15 1.01 0.97 0.94 0.92 0.93 1.13 1.08 1.10 1.10 1.01 0.93 0.79 0.79 0.77 0.83 0.87 1.08 0.99 0.73 0.60 0.37 0.30 0.28 0.33 0.34 0.37

GFSSE_prec_precacc_144.txt.gz
Total_Precipitation_Accumulation
0.00 0.04 0.22 0.34 0.44 0.41 0.13 0.12 0.17 0.15 0.12 0.14 0.09 0.07 0.07 0.13 0.15 0.16 0.07 0.07 0.16 0.19 0.23 0.18 0.18 0.27 0.48 0.62 0.56 0.20 0.06 0.04 0.04 0.13 0.09 0.10 0.10 0.08 0.07 0.07 0.10 0.09 0.11
0.00 0.04 0.17 0.28 0.40 0.62 0.65 0.33 0.20 0.11 0.15 0.18 0.16 0.12 0.13 0.24 0.20 0.11 0.06 0.09 0.16 0.17 0.16 0.26 0.35 0.39 0.37 0.23 0.16 0.03 0.01 0.00 0.00 0.00 0.01 0.04 0.07 0.10 0.09 0.08 0.18 0.17 0.17
0.00 0.05 0.10 0.27 0.29 0.33 0.54 0.57 0.34 0.21 0.13 0.13 0.19 0.23 0.29 0.26 0.11 0.05 0.05 0.13 0.16 0.19 0.25 0.35 0.30 0.16 0.03 0.02 0.00 0.01 0.00 0.01 0.01 0.04 0.05 0.14 0.13 0.25 0.19 0.23 0.40 0.34 0.31
0.01 0.07 0.10 0.30 0.33 0.31 0.29 0.35 0.48 0.42 0.22 0.16 0.30 0.42 0.33 0.18 0.06 0.06 0.11 0.19 0.19 0.17 0.17 0.09 0.03 0.01 0.00 0.00 0.00 0.00 0.01 0.01 0.00 0.02 0.05 0.02 0.07 0.40 0.18 0.12 0.16 0.14 0.13
0.03 0.08 0.12 0.33 0.43 0.33 0.22 0.26 0.31 0.40 0.42 0.34 0.35 0.52 0.47 0.16 0.07 0.10 0.24 0.36 0.12 0.09 0.08 0.02 0.01 0.00 0.00 0.00 0.00 0.00 0.01 0.00 0.00 0.00 0.01 0.01 0.11 0.21 0.12 0.12 0.14 0.17 0.16
0.05 0.12 0.26 0.46 0.55 0.39 0.20 0.18 0.28 0.31 0.36 0.37 0.55 0.59 0.46 0.15 0.14 0.21 0.32 0.19 0.05 0.04 0.04 0.02 0.00 0.00 0.00 0.00 0.01 0.00 0.01 0.01 0.00 0.00 0.00 0.03 0.06 0.14 0.09 0.10 0.14 0.23 0.23
0.08 0.13 0.24 0.59 0.66 0.48 0.32 0.27 0.35 0.34 0.33 0.34 0.46 0.61 0.55 0.24 0.19 0.26 0.25 0.10 0.09 0.03 0.03 0.01 0.01 0.00 0.00 0.00 0.01 0.01 0.01 0.01 0.00 0.00 0.00 0.00 0.02 0.03 0.02 0.04 0.05 0.08 0.12
0.11 0.16 0.30 0.43 0.47 0.51 0.49 0.35 0.37 0.37 0.35 0.41 0.53 0.66 0.64 0.54 0.39 0.30 0.24 0.14 0.16 0.05 0.02 0.02 0.01 0.00 0.00 0.00 0.00 0.00 0.00 0.00 0.00 0.00 0.00 0.00 0.01 0.02 0.02 0.03 0.04 0.04 0.06
0.42 0.40 0.49 0.44 0.35 0.34 0.49 0.41 0.33 0.35 0.35 0.46 0.54 0.53 0.32 0.34 0.53 0.41 0.24 0.14 0.16 0.20 0.07 0.04 0.04 0.01 0.00 0.00 0.00 0.00 0.00 0.00 0.00 0.00 0.00 0.00 0.02 0.05 0.05 0.07 0.07 0.08 0.10
1.02 0.71 0.52 0.46 0.27 0.19 0.20 0.24 0.24 0.25 0.27 0.35 0.38 0.24 0.13 0.09 0.16 0.52 0.53 0.10 0.13 0.20 0.12 0.10 0.08 0.06 0.03 0.01 0.01 0.01 0.00 0.00 0.00 0.00 0.00 0.00 0.05 0.08 0.08 0.09 0.08 0.09 0.11
1.68 1.59 1.02 0.61 0.27 0.13 0.16 0.19 0.17 0.24 0.37 0.37 0.29 0.19 0.10 0.06 0.06 0.16 0.33 0.21 0.09 0.10 0.09 0.11 0.08 0.07 0.03 0.01 0.00 0.00 0.00 0.00 0.00 0.00 0.00 0.01 0.03 0.04 0.05 0.05 0.05 0.08 0.08
1.90 1.63 1.80 1.49 0.81 0.37 0.22 0.15 0.11 0.19 0.27 0.22 0.22 0.20 0.11 0.05 0.06 0.10 0.14 0.21 0.08 0.05 0.05 0.07 0.08 0.07 0.02 0.02 0.01 0.00 0.00 0.00 0.00 0.00 0.00 0.01 0.02 0.02 0.02 0.04 0.05 0.04 0.04
2.63 1.67 1.70 1.49 1.27 0.65 0.52 0.41 0.15 0.09 0.14 0.18 0.19 0.20 0.16 0.09 0.06 0.11 0.19 0.19 0.10 0.04 0.05 0.04 0.04 0.03 0.02 0.02 0.01 0.01 0.00 0.00 0.00 0.00 0.00 0.01 0.00 0.01 0.02 0.02 0.03 0.02 0.02
3.11 2.19 1.53 1.25 1.14 0.97 0.81 0.56 0.27 0.25 0.16 0.16 0.16 0.18 0.12 0.09 0.06 0.06 0.10 0.15 0.17 0.08 0.07 0.08 0.08 0.08 0.11 0.06 0.04 0.01 0.01 0.01 0.00 0.00 0.00 0.00 0.00 0.00 0.01 0.01 0.02 0.03 0.05
1.45 1.66 1.79 1.29 1.03 0.91 0.87 0.72 0.27 0.18 0.22 0.16 0.19 0.17 0.12 0.05 0.03 0.05 0.05 0.07 0.08 0.08 0.06 0.09 0.09 0.10 0.10 0.13 0.13 0.10 0.07 0.06 0.06 0.02 0.00 0.00 0.00 0.00 0.00 0.00 0.01 0.02 0.06
0.93 1.30 1.77 1.54 1.08 1.33 1.15 0.90 0.67 0.27 0.26 0.26 0.27 0.18 0.21 0.11 0.05 0.06 0.05 0.06 0.06 0.06 0.04 0.05 0.07 0.07 0.07 0.08 0.06 0.08 0.09 0.09 0.07 0.04 0.02 0.01 0.00 0.00 0.00 0.00 0.02 0.07 0.13
0.53 1.41 1.87 1.46 0.97 0.82 1.43 1.28 0.71 0.60 0.40 0.34 0.38 0.50 0.36 0.37 0.23 0.16 0.14 0.12 0.10 0.13 0.14 0.10 0.06 0.06 0.05 0.05 0.04 0.04 0.06 0.05 0.09 0.11 0.09 0.06 0.03 0.01 0.00 0.01 0.02 0.06 0.09
0.58 0.95 1.57 1.41 0.78 0.62 0.86 1.44 1.15 0.71 0.43 0.28 0.29 0.40 0.44 0.44 0.63 0.43 0.33 0.21 0.20 0.26 0.33 0.25 0.16 0.13 0.09 0.08 0.07 0.04 0.05 0.04 0.04 0.05 0.06 0.08 0.09 0.09 0.04 0.00 0.01 0.03 0.09
0.47 0.63 0.79 0.77 0.41 0.20 0.36 0.96 1.41 0.95 0.49 0.29 0.27 0.27 0.41 0.44 0.50 0.86 0.78 0.55 0.36 0.39 0.43 0.37 0.25 0.18 0.13 0.12 0.09 0.11 0.12 0.11 0.10 0.09 0.04 0.03 0.04 0.04 0.05 0.06 0.03 0.02 0.03
0.84 0.66 0.67 0.50 0.50 0.32 0.55 0.88 1.23 1.12 0.75 0.37 0.29 0.21 0.26 0.27 0.34 0.51 0.71 0.76 0.82 0.67 0.43 0.40 0.31 0.24 0.17 0.17 0.20 0.17 0.13 0.11 0.08 0.08 0.05 0.05 0.05 0.06 0.06 0.06 0.08 0.04 0.05
1.62 0.98 0.83 0.66 0.53 0.52 0.44 0.56 0.82 0.62 0.97 0.69 0.48 0.43 0.37 0.46 0.48 0.66 0.79 0.65 0.60 0.56 0.45 0.52 0.62 0.63 0.48 0.59 0.59 0.31 0.21 0.14 0.09 0.07 0.06 0.05 0.05 0.06 0.08 0.09 0.12 0.13 0.12
1.05 1.07 1.06 0.56 0.42 0.44 0.42 0.47 1.00 1.04 1.05 0.97 0.98 0.83 0.63 0.75 0.73 0.62 0.73 0.82 0.73 0.61 0.56 0.57 0.74 0.87 0.77 1.09 1.00 0.73 0.43 0.21 0.08 0.06 0.08 0.08 0.08 0.13 0.13 0.16 0.18 0.16 0.17
1.00 0.80 0.85 1.09 0.95 0.84 1.07 1.45 1.48 1.68 1.68 1.63 1.50 1.17 1.21 1.44 1.58 1.30 1.32 1.24 1.31 1.41 1.26 1.30 1.29 1.44 1.36 1.42 1.36 1.33 0.98 0.47 0.19 0.14 0.12 0.14 0.18 0.18 0.18 0.22 0.23 0.25 0.28
1.36 1.38 1.40 1.53 1.34 1.04 1.28 1.47 1.16 1.48 1.71 1.72 1.49 1.64 1.91 2.02 2.12 2.06 2.04 2.46 2.35 2.03 1.88 1.83 1.77 1.62 1.69 1.68 1.67 1.53 1.58 1.42 1.20 0.82 0.48 0.40 0.40 0.34 0.31 0.28 0.25 0.26 0.30
1.67 1.56 1.62 1.82 1.46 1.19 1.31 1.37 1.52 1.36 1.51 1.56 1.25 1.19 1.27 1.38 1.29 1.35 1.39 1.58 1.85 1.81 1.74 1.61 1.54 1.41 1.35 1.21 1.16 1.16 1.16 1.28 1.43 1.36 0.83 0.46 0.40 0.32 0.30 0.33 0.37 0.41 0.49
1.63 1.13 1.31 1.42 1.21 1.05 1.12 1.07 1.40 1.16 1.29 1.47 1.43 1.17 1.03 0.99 1.15 1.01 0.97 0.94 0.92 0.93 1.13 1.08 1.10 1.10 1.01 0.93 0.79 0.79 0.78 0.83 0.88 1.08 0.99 0.73 0.60 0.37 0.30 0.28 0.33 0.35 0.38